<?xml version="1.0" encoding="UTF-8" standalone="no" ?>
<gpx xmlns="http://www.topografix.com/GPX/1/1" xmlns:xsi="http://www.w3.org/2001/XMLSchema-instance" xsi:schemaLocation="http://www.topografix.com/GPX/1/1 http://www.topografix.com/GPX/1/1/gpx.xsd" version="1.1" creator="VisuGPX - https://www.visugpx.com">
  <metadata>
    <name>SE-N-Pont St Martin Le Bignon St Fiacre Vertou Basse Goulaine Nantes</name>
    <desc><![CDATA[SE-N-Pont St Martin Le Bignon St Fiacre Vertou Basse Goulaine Nantes]]></desc>
  </metadata>
  <trk>
    <name><![CDATA[2020-05-27 17:00]]></name>
    <desc><![CDATA[<p>Heure de départ: 05/27/2020 17:00<br/>Heure d'arrivée: 05/27/2020 19:54<br/>Distance: 65,4 km (02:54)<br/>Temps déplacement: 02:37<br/>Vitesse moyenne: 22,46 km/h<br/>Vitesse moyenne mouv.: 24,9 km/h<br/>Vitesse Max.: 42,28 km/h<br/>Altitude minimale: -9 m<br/>Altitude maximale: 56 m<br/>Vitesse de montée: 769 m/h<br/>Vitesse de descente: -650,2 m/h<br/>Gain d'altitude: 895 m<br/>Perte d'altitude: -890 m<br/>Temps de montée: 01:09<br/>Temps de descente: 01:22<br/></p><hr align="center" width="480" style="height: 2px; width: 517px"/>]]></desc>
    <trkseg>
      <trkpt lat="47.16786" lon="-1.62635">
        <ele>14.52</ele>
        <time>2020-05-27T15:00:14Z</time>
      </trkpt>
      <trkpt lat="47.16783" lon="-1.6265">
        <ele>14.97</ele>
        <time>2020-05-27T15:00:54Z</time>
      </trkpt>
      <trkpt lat="47.16781" lon="-1.62664">
        <ele>16.23</ele>
        <time>2020-05-27T15:00:57Z</time>
      </trkpt>
      <trkpt lat="47.1677" lon="-1.62671">
        <ele>17.4</ele>
        <time>2020-05-27T15:00:59Z</time>
      </trkpt>
      <trkpt lat="47.16757" lon="-1.62668">
        <ele>18.43</ele>
        <time>2020-05-27T15:01:01Z</time>
      </trkpt>
      <trkpt lat="47.16746" lon="-1.62669">
        <ele>18.52</ele>
        <time>2020-05-27T15:01:03Z</time>
      </trkpt>
      <trkpt lat="47.16736" lon="-1.62677">
        <ele>18.06</ele>
        <time>2020-05-27T15:01:05Z</time>
      </trkpt>
      <trkpt lat="47.16726" lon="-1.62686">
        <ele>17.82</ele>
        <time>2020-05-27T15:01:07Z</time>
      </trkpt>
      <trkpt lat="47.16715" lon="-1.62691">
        <ele>18.03</ele>
        <time>2020-05-27T15:01:09Z</time>
      </trkpt>
      <trkpt lat="47.16704" lon="-1.62683">
        <ele>17.34</ele>
        <time>2020-05-27T15:01:11Z</time>
      </trkpt>
      <trkpt lat="47.16697" lon="-1.62668">
        <ele>16.69</ele>
        <time>2020-05-27T15:01:13Z</time>
      </trkpt>
      <trkpt lat="47.16693" lon="-1.6265">
        <ele>17.53</ele>
        <time>2020-05-27T15:01:15Z</time>
      </trkpt>
      <trkpt lat="47.16691" lon="-1.62632">
        <ele>18.96</ele>
        <time>2020-05-27T15:01:17Z</time>
      </trkpt>
      <trkpt lat="47.16691" lon="-1.62613">
        <ele>21.29</ele>
        <time>2020-05-27T15:01:19Z</time>
      </trkpt>
      <trkpt lat="47.16691" lon="-1.62592">
        <ele>23.77</ele>
        <time>2020-05-27T15:01:21Z</time>
      </trkpt>
      <trkpt lat="47.16693" lon="-1.62573">
        <ele>24.85</ele>
        <time>2020-05-27T15:01:23Z</time>
      </trkpt>
      <trkpt lat="47.16697" lon="-1.62555">
        <ele>24.95</ele>
        <time>2020-05-27T15:01:25Z</time>
      </trkpt>
      <trkpt lat="47.16702" lon="-1.62536">
        <ele>24.5</ele>
        <time>2020-05-27T15:01:27Z</time>
      </trkpt>
      <trkpt lat="47.16706" lon="-1.62518">
        <ele>23.99</ele>
        <time>2020-05-27T15:01:29Z</time>
      </trkpt>
      <trkpt lat="47.1671" lon="-1.62499">
        <ele>23.51</ele>
        <time>2020-05-27T15:01:31Z</time>
      </trkpt>
      <trkpt lat="47.16714" lon="-1.6248">
        <ele>22.61</ele>
        <time>2020-05-27T15:01:33Z</time>
      </trkpt>
      <trkpt lat="47.16718" lon="-1.62464">
        <ele>21.9</ele>
        <time>2020-05-27T15:01:35Z</time>
      </trkpt>
      <trkpt lat="47.16722" lon="-1.62448">
        <ele>21.52</ele>
        <time>2020-05-27T15:01:37Z</time>
      </trkpt>
      <trkpt lat="47.16724" lon="-1.62432">
        <ele>21.69</ele>
        <time>2020-05-27T15:01:39Z</time>
      </trkpt>
      <trkpt lat="47.1673" lon="-1.62419">
        <ele>21.67</ele>
        <time>2020-05-27T15:01:41Z</time>
      </trkpt>
      <trkpt lat="47.16729" lon="-1.62403">
        <ele>21.4</ele>
        <time>2020-05-27T15:01:43Z</time>
      </trkpt>
      <trkpt lat="47.1672" lon="-1.62393">
        <ele>21.9</ele>
        <time>2020-05-27T15:01:45Z</time>
      </trkpt>
      <trkpt lat="47.16711" lon="-1.6238">
        <ele>22.12</ele>
        <time>2020-05-27T15:01:47Z</time>
      </trkpt>
      <trkpt lat="47.16702" lon="-1.62369">
        <ele>22.11</ele>
        <time>2020-05-27T15:01:49Z</time>
      </trkpt>
      <trkpt lat="47.16689" lon="-1.62361">
        <ele>21.46</ele>
        <time>2020-05-27T15:01:51Z</time>
      </trkpt>
      <trkpt lat="47.16677" lon="-1.62358">
        <ele>20.98</ele>
        <time>2020-05-27T15:01:53Z</time>
      </trkpt>
      <trkpt lat="47.16665" lon="-1.6236">
        <ele>21.2</ele>
        <time>2020-05-27T15:01:55Z</time>
      </trkpt>
      <trkpt lat="47.16653" lon="-1.62365">
        <ele>22.17</ele>
        <time>2020-05-27T15:01:57Z</time>
      </trkpt>
      <trkpt lat="47.16641" lon="-1.62372">
        <ele>23.57</ele>
        <time>2020-05-27T15:01:59Z</time>
      </trkpt>
      <trkpt lat="47.16633" lon="-1.6238">
        <ele>24.3</ele>
        <time>2020-05-27T15:02:01Z</time>
      </trkpt>
      <trkpt lat="47.16626" lon="-1.62391">
        <ele>24.48</ele>
        <time>2020-05-27T15:02:03Z</time>
      </trkpt>
      <trkpt lat="47.16618" lon="-1.62404">
        <ele>24.33</ele>
        <time>2020-05-27T15:02:05Z</time>
      </trkpt>
      <trkpt lat="47.16609" lon="-1.6242">
        <ele>23.43</ele>
        <time>2020-05-27T15:02:07Z</time>
      </trkpt>
      <trkpt lat="47.16602" lon="-1.62434">
        <ele>24.14</ele>
        <time>2020-05-27T15:02:09Z</time>
      </trkpt>
      <trkpt lat="47.16597" lon="-1.62447">
        <ele>24.66</ele>
        <time>2020-05-27T15:02:11Z</time>
      </trkpt>
      <trkpt lat="47.16591" lon="-1.62462">
        <ele>24.74</ele>
        <time>2020-05-27T15:02:13Z</time>
      </trkpt>
      <trkpt lat="47.16585" lon="-1.62476">
        <ele>23.94</ele>
        <time>2020-05-27T15:02:15Z</time>
      </trkpt>
      <trkpt lat="47.16578" lon="-1.62494">
        <ele>23.17</ele>
        <time>2020-05-27T15:02:17Z</time>
      </trkpt>
      <trkpt lat="47.16573" lon="-1.62509">
        <ele>22.12</ele>
        <time>2020-05-27T15:02:19Z</time>
      </trkpt>
      <trkpt lat="47.16566" lon="-1.62525">
        <ele>22.64</ele>
        <time>2020-05-27T15:02:21Z</time>
      </trkpt>
      <trkpt lat="47.16559" lon="-1.62539">
        <ele>23.02</ele>
        <time>2020-05-27T15:02:23Z</time>
      </trkpt>
      <trkpt lat="47.16548" lon="-1.62551">
        <ele>22.98</ele>
        <time>2020-05-27T15:02:25Z</time>
      </trkpt>
      <trkpt lat="47.16537" lon="-1.62562">
        <ele>22.53</ele>
        <time>2020-05-27T15:02:27Z</time>
      </trkpt>
      <trkpt lat="47.16524" lon="-1.62569">
        <ele>22.62</ele>
        <time>2020-05-27T15:02:29Z</time>
      </trkpt>
      <trkpt lat="47.16512" lon="-1.62564">
        <ele>22.95</ele>
        <time>2020-05-27T15:02:31Z</time>
      </trkpt>
      <trkpt lat="47.16499" lon="-1.6256">
        <ele>23.07</ele>
        <time>2020-05-27T15:02:33Z</time>
      </trkpt>
      <trkpt lat="47.16485" lon="-1.62556">
        <ele>22.91</ele>
        <time>2020-05-27T15:02:35Z</time>
      </trkpt>
      <trkpt lat="47.16474" lon="-1.62553">
        <ele>23.14</ele>
        <time>2020-05-27T15:02:37Z</time>
      </trkpt>
      <trkpt lat="47.16461" lon="-1.62549">
        <ele>22.79</ele>
        <time>2020-05-27T15:02:39Z</time>
      </trkpt>
      <trkpt lat="47.16448" lon="-1.62544">
        <ele>23.1</ele>
        <time>2020-05-27T15:02:41Z</time>
      </trkpt>
      <trkpt lat="47.16435" lon="-1.6254">
        <ele>23.41</ele>
        <time>2020-05-27T15:02:43Z</time>
      </trkpt>
      <trkpt lat="47.16423" lon="-1.62549">
        <ele>23.99</ele>
        <time>2020-05-27T15:02:45Z</time>
      </trkpt>
      <trkpt lat="47.16412" lon="-1.62559">
        <ele>24.45</ele>
        <time>2020-05-27T15:02:47Z</time>
      </trkpt>
      <trkpt lat="47.16402" lon="-1.62569">
        <ele>24.39</ele>
        <time>2020-05-27T15:02:49Z</time>
      </trkpt>
      <trkpt lat="47.16391" lon="-1.62579">
        <ele>24.39</ele>
        <time>2020-05-27T15:02:51Z</time>
      </trkpt>
      <trkpt lat="47.16378" lon="-1.62584">
        <ele>24.04</ele>
        <time>2020-05-27T15:02:53Z</time>
      </trkpt>
      <trkpt lat="47.16365" lon="-1.62583">
        <ele>23.07</ele>
        <time>2020-05-27T15:02:55Z</time>
      </trkpt>
      <trkpt lat="47.16351" lon="-1.6258">
        <ele>22.58</ele>
        <time>2020-05-27T15:02:57Z</time>
      </trkpt>
      <trkpt lat="47.16337" lon="-1.62577">
        <ele>22.65</ele>
        <time>2020-05-27T15:02:59Z</time>
      </trkpt>
      <trkpt lat="47.16325" lon="-1.62573">
        <ele>22.24</ele>
        <time>2020-05-27T15:03:01Z</time>
      </trkpt>
      <trkpt lat="47.16313" lon="-1.62571">
        <ele>21.35</ele>
        <time>2020-05-27T15:03:03Z</time>
      </trkpt>
      <trkpt lat="47.16302" lon="-1.62575">
        <ele>22.24</ele>
        <time>2020-05-27T15:03:05Z</time>
      </trkpt>
      <trkpt lat="47.16292" lon="-1.62589">
        <ele>22.77</ele>
        <time>2020-05-27T15:03:07Z</time>
      </trkpt>
      <trkpt lat="47.16285" lon="-1.62606">
        <ele>23.22</ele>
        <time>2020-05-27T15:03:09Z</time>
      </trkpt>
      <trkpt lat="47.16279" lon="-1.62625">
        <ele>23.68</ele>
        <time>2020-05-27T15:03:11Z</time>
      </trkpt>
      <trkpt lat="47.16275" lon="-1.62645">
        <ele>24.08</ele>
        <time>2020-05-27T15:03:13Z</time>
      </trkpt>
      <trkpt lat="47.16273" lon="-1.62666">
        <ele>24.46</ele>
        <time>2020-05-27T15:03:15Z</time>
      </trkpt>
      <trkpt lat="47.16272" lon="-1.62683">
        <ele>24.9</ele>
        <time>2020-05-27T15:03:17Z</time>
      </trkpt>
      <trkpt lat="47.16272" lon="-1.62696">
        <ele>26.25</ele>
        <time>2020-05-27T15:03:19Z</time>
      </trkpt>
      <trkpt lat="47.16274" lon="-1.62713">
        <ele>26.69</ele>
        <time>2020-05-27T15:03:24Z</time>
      </trkpt>
      <trkpt lat="47.16278" lon="-1.62733">
        <ele>25.54</ele>
        <time>2020-05-27T15:03:27Z</time>
      </trkpt>
      <trkpt lat="47.16271" lon="-1.62742">
        <ele>24.34</ele>
        <time>2020-05-27T15:03:30Z</time>
      </trkpt>
      <trkpt lat="47.16257" lon="-1.62745">
        <ele>23.98</ele>
        <time>2020-05-27T15:03:32Z</time>
      </trkpt>
      <trkpt lat="47.16245" lon="-1.6275">
        <ele>22.94</ele>
        <time>2020-05-27T15:03:34Z</time>
      </trkpt>
      <trkpt lat="47.16231" lon="-1.62755">
        <ele>21.56</ele>
        <time>2020-05-27T15:03:36Z</time>
      </trkpt>
      <trkpt lat="47.16215" lon="-1.62762">
        <ele>20.69</ele>
        <time>2020-05-27T15:03:38Z</time>
      </trkpt>
      <trkpt lat="47.162" lon="-1.62771">
        <ele>18.61</ele>
        <time>2020-05-27T15:03:40Z</time>
      </trkpt>
      <trkpt lat="47.16187" lon="-1.62782">
        <ele>16.8</ele>
        <time>2020-05-27T15:03:42Z</time>
      </trkpt>
      <trkpt lat="47.16179" lon="-1.62789">
        <ele>15.63</ele>
        <time>2020-05-27T15:03:43Z</time>
      </trkpt>
      <trkpt lat="47.16171" lon="-1.62796">
        <ele>14.78</ele>
        <time>2020-05-27T15:03:44Z</time>
      </trkpt>
      <trkpt lat="47.16163" lon="-1.62803">
        <ele>14.2</ele>
        <time>2020-05-27T15:03:45Z</time>
      </trkpt>
      <trkpt lat="47.1615" lon="-1.62816">
        <ele>14.27</ele>
        <time>2020-05-27T15:03:47Z</time>
      </trkpt>
      <trkpt lat="47.16142" lon="-1.62823">
        <ele>14.13</ele>
        <time>2020-05-27T15:03:48Z</time>
      </trkpt>
      <trkpt lat="47.16134" lon="-1.6283">
        <ele>14.11</ele>
        <time>2020-05-27T15:03:49Z</time>
      </trkpt>
      <trkpt lat="47.16126" lon="-1.62837">
        <ele>14.1</ele>
        <time>2020-05-27T15:03:50Z</time>
      </trkpt>
      <trkpt lat="47.16111" lon="-1.62849">
        <ele>13.84</ele>
        <time>2020-05-27T15:03:52Z</time>
      </trkpt>
      <trkpt lat="47.16103" lon="-1.62857">
        <ele>13.76</ele>
        <time>2020-05-27T15:03:53Z</time>
      </trkpt>
      <trkpt lat="47.16096" lon="-1.62864">
        <ele>13.44</ele>
        <time>2020-05-27T15:03:54Z</time>
      </trkpt>
      <trkpt lat="47.16081" lon="-1.62876">
        <ele>12.75</ele>
        <time>2020-05-27T15:03:56Z</time>
      </trkpt>
      <trkpt lat="47.16073" lon="-1.62883">
        <ele>12.29</ele>
        <time>2020-05-27T15:03:57Z</time>
      </trkpt>
      <trkpt lat="47.16064" lon="-1.62892">
        <ele>12.04</ele>
        <time>2020-05-27T15:03:58Z</time>
      </trkpt>
      <trkpt lat="47.16056" lon="-1.62898">
        <ele>11.73</ele>
        <time>2020-05-27T15:03:59Z</time>
      </trkpt>
      <trkpt lat="47.16048" lon="-1.62905">
        <ele>11.43</ele>
        <time>2020-05-27T15:04:00Z</time>
      </trkpt>
      <trkpt lat="47.1604" lon="-1.62912">
        <ele>11.34</ele>
        <time>2020-05-27T15:04:01Z</time>
      </trkpt>
      <trkpt lat="47.16032" lon="-1.62919">
        <ele>11.27</ele>
        <time>2020-05-27T15:04:02Z</time>
      </trkpt>
      <trkpt lat="47.16024" lon="-1.62926">
        <ele>10.77</ele>
        <time>2020-05-27T15:04:03Z</time>
      </trkpt>
      <trkpt lat="47.16017" lon="-1.62933">
        <ele>10.59</ele>
        <time>2020-05-27T15:04:04Z</time>
      </trkpt>
      <trkpt lat="47.16001" lon="-1.62946">
        <ele>10.79</ele>
        <time>2020-05-27T15:04:06Z</time>
      </trkpt>
      <trkpt lat="47.15993" lon="-1.62954">
        <ele>10.77</ele>
        <time>2020-05-27T15:04:07Z</time>
      </trkpt>
      <trkpt lat="47.15977" lon="-1.62968">
        <ele>10.85</ele>
        <time>2020-05-27T15:04:09Z</time>
      </trkpt>
      <trkpt lat="47.15962" lon="-1.62981">
        <ele>10.44</ele>
        <time>2020-05-27T15:04:11Z</time>
      </trkpt>
      <trkpt lat="47.15946" lon="-1.62995">
        <ele>10.87</ele>
        <time>2020-05-27T15:04:13Z</time>
      </trkpt>
      <trkpt lat="47.1593" lon="-1.63009">
        <ele>11.55</ele>
        <time>2020-05-27T15:04:15Z</time>
      </trkpt>
      <trkpt lat="47.15914" lon="-1.63022">
        <ele>11.86</ele>
        <time>2020-05-27T15:04:17Z</time>
      </trkpt>
      <trkpt lat="47.15906" lon="-1.6303">
        <ele>11.75</ele>
        <time>2020-05-27T15:04:18Z</time>
      </trkpt>
      <trkpt lat="47.15892" lon="-1.63042">
        <ele>11.05</ele>
        <time>2020-05-27T15:04:20Z</time>
      </trkpt>
      <trkpt lat="47.15877" lon="-1.63056">
        <ele>9.99</ele>
        <time>2020-05-27T15:04:22Z</time>
      </trkpt>
      <trkpt lat="47.15862" lon="-1.6307">
        <ele>9.56</ele>
        <time>2020-05-27T15:04:24Z</time>
      </trkpt>
      <trkpt lat="47.15848" lon="-1.63082">
        <ele>9.41</ele>
        <time>2020-05-27T15:04:26Z</time>
      </trkpt>
      <trkpt lat="47.15833" lon="-1.63095">
        <ele>9.46</ele>
        <time>2020-05-27T15:04:28Z</time>
      </trkpt>
      <trkpt lat="47.1582" lon="-1.63107">
        <ele>8.9</ele>
        <time>2020-05-27T15:04:30Z</time>
      </trkpt>
      <trkpt lat="47.15809" lon="-1.63118">
        <ele>8.58</ele>
        <time>2020-05-27T15:04:32Z</time>
      </trkpt>
      <trkpt lat="47.15797" lon="-1.6313">
        <ele>8.8</ele>
        <time>2020-05-27T15:04:34Z</time>
      </trkpt>
      <trkpt lat="47.15784" lon="-1.63141">
        <ele>9.81</ele>
        <time>2020-05-27T15:04:36Z</time>
      </trkpt>
      <trkpt lat="47.15771" lon="-1.63152">
        <ele>11.06</ele>
        <time>2020-05-27T15:04:38Z</time>
      </trkpt>
      <trkpt lat="47.15757" lon="-1.63163">
        <ele>12.48</ele>
        <time>2020-05-27T15:04:40Z</time>
      </trkpt>
      <trkpt lat="47.15745" lon="-1.63175">
        <ele>13.63</ele>
        <time>2020-05-27T15:04:42Z</time>
      </trkpt>
      <trkpt lat="47.15732" lon="-1.63185">
        <ele>14.1</ele>
        <time>2020-05-27T15:04:44Z</time>
      </trkpt>
      <trkpt lat="47.15719" lon="-1.63197">
        <ele>13.86</ele>
        <time>2020-05-27T15:04:46Z</time>
      </trkpt>
      <trkpt lat="47.15706" lon="-1.63208">
        <ele>13.88</ele>
        <time>2020-05-27T15:04:48Z</time>
      </trkpt>
      <trkpt lat="47.15693" lon="-1.6322">
        <ele>13.07</ele>
        <time>2020-05-27T15:04:50Z</time>
      </trkpt>
      <trkpt lat="47.15679" lon="-1.63232">
        <ele>11.97</ele>
        <time>2020-05-27T15:04:52Z</time>
      </trkpt>
      <trkpt lat="47.15666" lon="-1.63245">
        <ele>11.22</ele>
        <time>2020-05-27T15:04:54Z</time>
      </trkpt>
      <trkpt lat="47.15652" lon="-1.63257">
        <ele>10.75</ele>
        <time>2020-05-27T15:04:56Z</time>
      </trkpt>
      <trkpt lat="47.15638" lon="-1.63269">
        <ele>10.54</ele>
        <time>2020-05-27T15:04:58Z</time>
      </trkpt>
      <trkpt lat="47.15624" lon="-1.63282">
        <ele>11.22</ele>
        <time>2020-05-27T15:05:00Z</time>
      </trkpt>
      <trkpt lat="47.15611" lon="-1.63293">
        <ele>11.57</ele>
        <time>2020-05-27T15:05:02Z</time>
      </trkpt>
      <trkpt lat="47.15597" lon="-1.63306">
        <ele>12.01</ele>
        <time>2020-05-27T15:05:04Z</time>
      </trkpt>
      <trkpt lat="47.15585" lon="-1.63318">
        <ele>12.16</ele>
        <time>2020-05-27T15:05:06Z</time>
      </trkpt>
      <trkpt lat="47.15577" lon="-1.63325">
        <ele>12.59</ele>
        <time>2020-05-27T15:05:07Z</time>
      </trkpt>
      <trkpt lat="47.15564" lon="-1.63336">
        <ele>13.52</ele>
        <time>2020-05-27T15:05:09Z</time>
      </trkpt>
      <trkpt lat="47.15551" lon="-1.63347">
        <ele>14.06</ele>
        <time>2020-05-27T15:05:11Z</time>
      </trkpt>
      <trkpt lat="47.1554" lon="-1.63356">
        <ele>14.82</ele>
        <time>2020-05-27T15:05:13Z</time>
      </trkpt>
      <trkpt lat="47.15527" lon="-1.63367">
        <ele>15.01</ele>
        <time>2020-05-27T15:05:15Z</time>
      </trkpt>
      <trkpt lat="47.15515" lon="-1.63378">
        <ele>15.07</ele>
        <time>2020-05-27T15:05:17Z</time>
      </trkpt>
      <trkpt lat="47.15503" lon="-1.63389">
        <ele>15.3</ele>
        <time>2020-05-27T15:05:19Z</time>
      </trkpt>
      <trkpt lat="47.1549" lon="-1.63402">
        <ele>15.82</ele>
        <time>2020-05-27T15:05:21Z</time>
      </trkpt>
      <trkpt lat="47.15478" lon="-1.63414">
        <ele>15.98</ele>
        <time>2020-05-27T15:05:23Z</time>
      </trkpt>
      <trkpt lat="47.15464" lon="-1.63426">
        <ele>16.47</ele>
        <time>2020-05-27T15:05:25Z</time>
      </trkpt>
      <trkpt lat="47.15453" lon="-1.63437">
        <ele>16.62</ele>
        <time>2020-05-27T15:05:27Z</time>
      </trkpt>
      <trkpt lat="47.1544" lon="-1.63449">
        <ele>16.28</ele>
        <time>2020-05-27T15:05:29Z</time>
      </trkpt>
      <trkpt lat="47.15427" lon="-1.6346">
        <ele>16.13</ele>
        <time>2020-05-27T15:05:31Z</time>
      </trkpt>
      <trkpt lat="47.15416" lon="-1.63471">
        <ele>16.11</ele>
        <time>2020-05-27T15:05:33Z</time>
      </trkpt>
      <trkpt lat="47.15407" lon="-1.63484">
        <ele>16.52</ele>
        <time>2020-05-27T15:05:35Z</time>
      </trkpt>
      <trkpt lat="47.15396" lon="-1.635">
        <ele>17.65</ele>
        <time>2020-05-27T15:05:37Z</time>
      </trkpt>
      <trkpt lat="47.15385" lon="-1.63511">
        <ele>17.83</ele>
        <time>2020-05-27T15:05:39Z</time>
      </trkpt>
      <trkpt lat="47.15373" lon="-1.63514">
        <ele>19.21</ele>
        <time>2020-05-27T15:05:41Z</time>
      </trkpt>
      <trkpt lat="47.15362" lon="-1.63521">
        <ele>21.31</ele>
        <time>2020-05-27T15:05:43Z</time>
      </trkpt>
      <trkpt lat="47.15349" lon="-1.63534">
        <ele>23.09</ele>
        <time>2020-05-27T15:05:45Z</time>
      </trkpt>
      <trkpt lat="47.15338" lon="-1.63545">
        <ele>23.4</ele>
        <time>2020-05-27T15:05:47Z</time>
      </trkpt>
      <trkpt lat="47.15324" lon="-1.63557">
        <ele>23.46</ele>
        <time>2020-05-27T15:05:49Z</time>
      </trkpt>
      <trkpt lat="47.15311" lon="-1.63566">
        <ele>23.56</ele>
        <time>2020-05-27T15:05:51Z</time>
      </trkpt>
      <trkpt lat="47.15297" lon="-1.63577">
        <ele>23.08</ele>
        <time>2020-05-27T15:05:53Z</time>
      </trkpt>
      <trkpt lat="47.15284" lon="-1.63587">
        <ele>22.32</ele>
        <time>2020-05-27T15:05:55Z</time>
      </trkpt>
      <trkpt lat="47.1527" lon="-1.63599">
        <ele>21.17</ele>
        <time>2020-05-27T15:05:57Z</time>
      </trkpt>
      <trkpt lat="47.15258" lon="-1.63611">
        <ele>19.99</ele>
        <time>2020-05-27T15:05:59Z</time>
      </trkpt>
      <trkpt lat="47.15245" lon="-1.63623">
        <ele>18.9</ele>
        <time>2020-05-27T15:06:01Z</time>
      </trkpt>
      <trkpt lat="47.15231" lon="-1.63634">
        <ele>17.82</ele>
        <time>2020-05-27T15:06:03Z</time>
      </trkpt>
      <trkpt lat="47.15217" lon="-1.63645">
        <ele>17.17</ele>
        <time>2020-05-27T15:06:05Z</time>
      </trkpt>
      <trkpt lat="47.15204" lon="-1.63655">
        <ele>16.59</ele>
        <time>2020-05-27T15:06:07Z</time>
      </trkpt>
      <trkpt lat="47.1519" lon="-1.63665">
        <ele>16.49</ele>
        <time>2020-05-27T15:06:09Z</time>
      </trkpt>
      <trkpt lat="47.15176" lon="-1.63677">
        <ele>16.94</ele>
        <time>2020-05-27T15:06:11Z</time>
      </trkpt>
      <trkpt lat="47.15162" lon="-1.6369">
        <ele>16.71</ele>
        <time>2020-05-27T15:06:13Z</time>
      </trkpt>
      <trkpt lat="47.15149" lon="-1.63702">
        <ele>16.58</ele>
        <time>2020-05-27T15:06:14Z</time>
      </trkpt>
      <trkpt lat="47.15136" lon="-1.63716">
        <ele>16.16</ele>
        <time>2020-05-27T15:06:16Z</time>
      </trkpt>
      <trkpt lat="47.15123" lon="-1.63728">
        <ele>15.95</ele>
        <time>2020-05-27T15:06:18Z</time>
      </trkpt>
      <trkpt lat="47.15112" lon="-1.63741">
        <ele>15.94</ele>
        <time>2020-05-27T15:06:20Z</time>
      </trkpt>
      <trkpt lat="47.15099" lon="-1.63754">
        <ele>16.42</ele>
        <time>2020-05-27T15:06:22Z</time>
      </trkpt>
      <trkpt lat="47.15087" lon="-1.63768">
        <ele>17.37</ele>
        <time>2020-05-27T15:06:24Z</time>
      </trkpt>
      <trkpt lat="47.15075" lon="-1.63783">
        <ele>17.55</ele>
        <time>2020-05-27T15:06:26Z</time>
      </trkpt>
      <trkpt lat="47.15064" lon="-1.63797">
        <ele>17.08</ele>
        <time>2020-05-27T15:06:28Z</time>
      </trkpt>
      <trkpt lat="47.15052" lon="-1.63812">
        <ele>16.58</ele>
        <time>2020-05-27T15:06:30Z</time>
      </trkpt>
      <trkpt lat="47.15041" lon="-1.63827">
        <ele>16.68</ele>
        <time>2020-05-27T15:06:32Z</time>
      </trkpt>
      <trkpt lat="47.1503" lon="-1.63841">
        <ele>16.81</ele>
        <time>2020-05-27T15:06:34Z</time>
      </trkpt>
      <trkpt lat="47.1502" lon="-1.63856">
        <ele>17.63</ele>
        <time>2020-05-27T15:06:36Z</time>
      </trkpt>
      <trkpt lat="47.15009" lon="-1.63872">
        <ele>17.97</ele>
        <time>2020-05-27T15:06:38Z</time>
      </trkpt>
      <trkpt lat="47.14998" lon="-1.63888">
        <ele>17.77</ele>
        <time>2020-05-27T15:06:40Z</time>
      </trkpt>
      <trkpt lat="47.14987" lon="-1.63905">
        <ele>17.34</ele>
        <time>2020-05-27T15:06:42Z</time>
      </trkpt>
      <trkpt lat="47.14978" lon="-1.6392">
        <ele>15.86</ele>
        <time>2020-05-27T15:06:44Z</time>
      </trkpt>
      <trkpt lat="47.14967" lon="-1.63934">
        <ele>15.04</ele>
        <time>2020-05-27T15:06:46Z</time>
      </trkpt>
      <trkpt lat="47.14956" lon="-1.6395">
        <ele>15.55</ele>
        <time>2020-05-27T15:06:48Z</time>
      </trkpt>
      <trkpt lat="47.14944" lon="-1.63968">
        <ele>16.01</ele>
        <time>2020-05-27T15:06:50Z</time>
      </trkpt>
      <trkpt lat="47.14933" lon="-1.63985">
        <ele>16.87</ele>
        <time>2020-05-27T15:06:52Z</time>
      </trkpt>
      <trkpt lat="47.14924" lon="-1.64001">
        <ele>17.58</ele>
        <time>2020-05-27T15:06:54Z</time>
      </trkpt>
      <trkpt lat="47.14915" lon="-1.64017">
        <ele>18.01</ele>
        <time>2020-05-27T15:06:56Z</time>
      </trkpt>
      <trkpt lat="47.14908" lon="-1.6403">
        <ele>19.5</ele>
        <time>2020-05-27T15:06:58Z</time>
      </trkpt>
      <trkpt lat="47.149" lon="-1.64044">
        <ele>21.31</ele>
        <time>2020-05-27T15:07:01Z</time>
      </trkpt>
      <trkpt lat="47.14894" lon="-1.64057">
        <ele>21.52</ele>
        <time>2020-05-27T15:07:05Z</time>
      </trkpt>
      <trkpt lat="47.14886" lon="-1.64048">
        <ele>20.54</ele>
        <time>2020-05-27T15:07:07Z</time>
      </trkpt>
      <trkpt lat="47.14879" lon="-1.64029">
        <ele>19.77</ele>
        <time>2020-05-27T15:07:09Z</time>
      </trkpt>
      <trkpt lat="47.1487" lon="-1.64013">
        <ele>20.2</ele>
        <time>2020-05-27T15:07:11Z</time>
      </trkpt>
      <trkpt lat="47.14861" lon="-1.63996">
        <ele>21.37</ele>
        <time>2020-05-27T15:07:13Z</time>
      </trkpt>
      <trkpt lat="47.14847" lon="-1.63987">
        <ele>22.19</ele>
        <time>2020-05-27T15:07:15Z</time>
      </trkpt>
      <trkpt lat="47.14833" lon="-1.63983">
        <ele>22.54</ele>
        <time>2020-05-27T15:07:17Z</time>
      </trkpt>
      <trkpt lat="47.14819" lon="-1.6399">
        <ele>22.7</ele>
        <time>2020-05-27T15:07:19Z</time>
      </trkpt>
      <trkpt lat="47.14806" lon="-1.64003">
        <ele>22.73</ele>
        <time>2020-05-27T15:07:21Z</time>
      </trkpt>
      <trkpt lat="47.14794" lon="-1.64017">
        <ele>22.99</ele>
        <time>2020-05-27T15:07:23Z</time>
      </trkpt>
      <trkpt lat="47.14782" lon="-1.6403">
        <ele>23.04</ele>
        <time>2020-05-27T15:07:25Z</time>
      </trkpt>
      <trkpt lat="47.14769" lon="-1.64041">
        <ele>22.37</ele>
        <time>2020-05-27T15:07:27Z</time>
      </trkpt>
      <trkpt lat="47.14755" lon="-1.6405">
        <ele>21.55</ele>
        <time>2020-05-27T15:07:29Z</time>
      </trkpt>
      <trkpt lat="47.14739" lon="-1.64058">
        <ele>20.74</ele>
        <time>2020-05-27T15:07:31Z</time>
      </trkpt>
      <trkpt lat="47.14723" lon="-1.64065">
        <ele>20.62</ele>
        <time>2020-05-27T15:07:33Z</time>
      </trkpt>
      <trkpt lat="47.14708" lon="-1.6407">
        <ele>20.51</ele>
        <time>2020-05-27T15:07:35Z</time>
      </trkpt>
      <trkpt lat="47.14695" lon="-1.64076">
        <ele>20.55</ele>
        <time>2020-05-27T15:07:37Z</time>
      </trkpt>
      <trkpt lat="47.14681" lon="-1.6408">
        <ele>21.36</ele>
        <time>2020-05-27T15:07:39Z</time>
      </trkpt>
      <trkpt lat="47.14666" lon="-1.64087">
        <ele>22.46</ele>
        <time>2020-05-27T15:07:41Z</time>
      </trkpt>
      <trkpt lat="47.14651" lon="-1.64095">
        <ele>23.14</ele>
        <time>2020-05-27T15:07:43Z</time>
      </trkpt>
      <trkpt lat="47.14634" lon="-1.64104">
        <ele>23.09</ele>
        <time>2020-05-27T15:07:45Z</time>
      </trkpt>
      <trkpt lat="47.14619" lon="-1.64112">
        <ele>22.44</ele>
        <time>2020-05-27T15:07:47Z</time>
      </trkpt>
      <trkpt lat="47.14603" lon="-1.6412">
        <ele>21.46</ele>
        <time>2020-05-27T15:07:49Z</time>
      </trkpt>
      <trkpt lat="47.14585" lon="-1.64129">
        <ele>21.24</ele>
        <time>2020-05-27T15:07:51Z</time>
      </trkpt>
      <trkpt lat="47.14568" lon="-1.64139">
        <ele>21.25</ele>
        <time>2020-05-27T15:07:53Z</time>
      </trkpt>
      <trkpt lat="47.14553" lon="-1.64149">
        <ele>21.79</ele>
        <time>2020-05-27T15:07:55Z</time>
      </trkpt>
      <trkpt lat="47.14544" lon="-1.64154">
        <ele>22.08</ele>
        <time>2020-05-27T15:07:56Z</time>
      </trkpt>
      <trkpt lat="47.1453" lon="-1.64163">
        <ele>22.39</ele>
        <time>2020-05-27T15:07:58Z</time>
      </trkpt>
      <trkpt lat="47.14517" lon="-1.64172">
        <ele>22.61</ele>
        <time>2020-05-27T15:08:00Z</time>
      </trkpt>
      <trkpt lat="47.14501" lon="-1.64182">
        <ele>22.17</ele>
        <time>2020-05-27T15:08:02Z</time>
      </trkpt>
      <trkpt lat="47.14487" lon="-1.64192">
        <ele>20.76</ele>
        <time>2020-05-27T15:08:04Z</time>
      </trkpt>
      <trkpt lat="47.14471" lon="-1.64202">
        <ele>20.23</ele>
        <time>2020-05-27T15:08:06Z</time>
      </trkpt>
      <trkpt lat="47.14455" lon="-1.64211">
        <ele>19.92</ele>
        <time>2020-05-27T15:08:08Z</time>
      </trkpt>
      <trkpt lat="47.14438" lon="-1.64217">
        <ele>20.22</ele>
        <time>2020-05-27T15:08:10Z</time>
      </trkpt>
      <trkpt lat="47.14421" lon="-1.64218">
        <ele>19.45</ele>
        <time>2020-05-27T15:08:12Z</time>
      </trkpt>
      <trkpt lat="47.14405" lon="-1.6422">
        <ele>18.81</ele>
        <time>2020-05-27T15:08:14Z</time>
      </trkpt>
      <trkpt lat="47.14389" lon="-1.64222">
        <ele>17.84</ele>
        <time>2020-05-27T15:08:16Z</time>
      </trkpt>
      <trkpt lat="47.14374" lon="-1.64224">
        <ele>17.11</ele>
        <time>2020-05-27T15:08:18Z</time>
      </trkpt>
      <trkpt lat="47.14364" lon="-1.64225">
        <ele>17</ele>
        <time>2020-05-27T15:08:19Z</time>
      </trkpt>
      <trkpt lat="47.14348" lon="-1.64228">
        <ele>17.15</ele>
        <time>2020-05-27T15:08:21Z</time>
      </trkpt>
      <trkpt lat="47.14332" lon="-1.64231">
        <ele>18.12</ele>
        <time>2020-05-27T15:08:23Z</time>
      </trkpt>
      <trkpt lat="47.14316" lon="-1.64233">
        <ele>17.27</ele>
        <time>2020-05-27T15:08:25Z</time>
      </trkpt>
      <trkpt lat="47.14299" lon="-1.64236">
        <ele>16.42</ele>
        <time>2020-05-27T15:08:27Z</time>
      </trkpt>
      <trkpt lat="47.14282" lon="-1.6424">
        <ele>15.8</ele>
        <time>2020-05-27T15:08:29Z</time>
      </trkpt>
      <trkpt lat="47.14268" lon="-1.64247">
        <ele>14.95</ele>
        <time>2020-05-27T15:08:31Z</time>
      </trkpt>
      <trkpt lat="47.14255" lon="-1.64257">
        <ele>14.95</ele>
        <time>2020-05-27T15:08:33Z</time>
      </trkpt>
      <trkpt lat="47.1424" lon="-1.64272">
        <ele>17.26</ele>
        <time>2020-05-27T15:08:35Z</time>
      </trkpt>
      <trkpt lat="47.14226" lon="-1.64285">
        <ele>18.81</ele>
        <time>2020-05-27T15:08:37Z</time>
      </trkpt>
      <trkpt lat="47.14213" lon="-1.64298">
        <ele>18.15</ele>
        <time>2020-05-27T15:08:39Z</time>
      </trkpt>
      <trkpt lat="47.142" lon="-1.64313">
        <ele>17.57</ele>
        <time>2020-05-27T15:08:41Z</time>
      </trkpt>
      <trkpt lat="47.14187" lon="-1.64327">
        <ele>16.68</ele>
        <time>2020-05-27T15:08:43Z</time>
      </trkpt>
      <trkpt lat="47.14175" lon="-1.64341">
        <ele>15.05</ele>
        <time>2020-05-27T15:08:45Z</time>
      </trkpt>
      <trkpt lat="47.14161" lon="-1.64357">
        <ele>13.31</ele>
        <time>2020-05-27T15:08:47Z</time>
      </trkpt>
      <trkpt lat="47.14147" lon="-1.6437">
        <ele>11.5</ele>
        <time>2020-05-27T15:08:49Z</time>
      </trkpt>
      <trkpt lat="47.14132" lon="-1.64383">
        <ele>10.31</ele>
        <time>2020-05-27T15:08:51Z</time>
      </trkpt>
      <trkpt lat="47.14117" lon="-1.64394">
        <ele>9.91</ele>
        <time>2020-05-27T15:08:53Z</time>
      </trkpt>
      <trkpt lat="47.14103" lon="-1.64404">
        <ele>10.15</ele>
        <time>2020-05-27T15:08:55Z</time>
      </trkpt>
      <trkpt lat="47.14094" lon="-1.64411">
        <ele>10.01</ele>
        <time>2020-05-27T15:08:56Z</time>
      </trkpt>
      <trkpt lat="47.14079" lon="-1.64422">
        <ele>8.97</ele>
        <time>2020-05-27T15:08:58Z</time>
      </trkpt>
      <trkpt lat="47.14065" lon="-1.64433">
        <ele>9.02</ele>
        <time>2020-05-27T15:09:00Z</time>
      </trkpt>
      <trkpt lat="47.14051" lon="-1.64444">
        <ele>9.66</ele>
        <time>2020-05-27T15:09:02Z</time>
      </trkpt>
      <trkpt lat="47.14037" lon="-1.64454">
        <ele>10.34</ele>
        <time>2020-05-27T15:09:04Z</time>
      </trkpt>
      <trkpt lat="47.14023" lon="-1.64465">
        <ele>11.17</ele>
        <time>2020-05-27T15:09:06Z</time>
      </trkpt>
      <trkpt lat="47.14015" lon="-1.64472">
        <ele>11.36</ele>
        <time>2020-05-27T15:09:07Z</time>
      </trkpt>
      <trkpt lat="47.14001" lon="-1.64483">
        <ele>11.26</ele>
        <time>2020-05-27T15:09:09Z</time>
      </trkpt>
      <trkpt lat="47.13989" lon="-1.64494">
        <ele>11.25</ele>
        <time>2020-05-27T15:09:11Z</time>
      </trkpt>
      <trkpt lat="47.13975" lon="-1.64506">
        <ele>9.67</ele>
        <time>2020-05-27T15:09:13Z</time>
      </trkpt>
      <trkpt lat="47.13967" lon="-1.64514">
        <ele>9.14</ele>
        <time>2020-05-27T15:09:14Z</time>
      </trkpt>
      <trkpt lat="47.13959" lon="-1.64522">
        <ele>8.66</ele>
        <time>2020-05-27T15:09:15Z</time>
      </trkpt>
      <trkpt lat="47.13951" lon="-1.6453">
        <ele>8.15</ele>
        <time>2020-05-27T15:09:16Z</time>
      </trkpt>
      <trkpt lat="47.13938" lon="-1.64544">
        <ele>7.68</ele>
        <time>2020-05-27T15:09:18Z</time>
      </trkpt>
      <trkpt lat="47.13925" lon="-1.64557">
        <ele>7.35</ele>
        <time>2020-05-27T15:09:20Z</time>
      </trkpt>
      <trkpt lat="47.13912" lon="-1.64569">
        <ele>6.89</ele>
        <time>2020-05-27T15:09:22Z</time>
      </trkpt>
      <trkpt lat="47.13899" lon="-1.64579">
        <ele>6.81</ele>
        <time>2020-05-27T15:09:24Z</time>
      </trkpt>
      <trkpt lat="47.13883" lon="-1.64588">
        <ele>7.63</ele>
        <time>2020-05-27T15:09:26Z</time>
      </trkpt>
      <trkpt lat="47.13874" lon="-1.64592">
        <ele>7.47</ele>
        <time>2020-05-27T15:09:27Z</time>
      </trkpt>
      <trkpt lat="47.13859" lon="-1.64598">
        <ele>7.35</ele>
        <time>2020-05-27T15:09:29Z</time>
      </trkpt>
      <trkpt lat="47.13844" lon="-1.64601">
        <ele>7.39</ele>
        <time>2020-05-27T15:09:31Z</time>
      </trkpt>
      <trkpt lat="47.13829" lon="-1.64603">
        <ele>8.19</ele>
        <time>2020-05-27T15:09:33Z</time>
      </trkpt>
      <trkpt lat="47.13814" lon="-1.64604">
        <ele>9.59</ele>
        <time>2020-05-27T15:09:35Z</time>
      </trkpt>
      <trkpt lat="47.13801" lon="-1.64603">
        <ele>10.84</ele>
        <time>2020-05-27T15:09:37Z</time>
      </trkpt>
      <trkpt lat="47.13786" lon="-1.64601">
        <ele>12.71</ele>
        <time>2020-05-27T15:09:39Z</time>
      </trkpt>
      <trkpt lat="47.1377" lon="-1.64597">
        <ele>14.69</ele>
        <time>2020-05-27T15:09:41Z</time>
      </trkpt>
      <trkpt lat="47.13755" lon="-1.64594">
        <ele>15.65</ele>
        <time>2020-05-27T15:09:43Z</time>
      </trkpt>
      <trkpt lat="47.13742" lon="-1.64591">
        <ele>15.87</ele>
        <time>2020-05-27T15:09:45Z</time>
      </trkpt>
      <trkpt lat="47.13726" lon="-1.64587">
        <ele>15.97</ele>
        <time>2020-05-27T15:09:47Z</time>
      </trkpt>
      <trkpt lat="47.13713" lon="-1.64583">
        <ele>15.64</ele>
        <time>2020-05-27T15:09:49Z</time>
      </trkpt>
      <trkpt lat="47.13699" lon="-1.64579">
        <ele>15.53</ele>
        <time>2020-05-27T15:09:51Z</time>
      </trkpt>
      <trkpt lat="47.13685" lon="-1.64576">
        <ele>15.55</ele>
        <time>2020-05-27T15:09:53Z</time>
      </trkpt>
      <trkpt lat="47.13673" lon="-1.64573">
        <ele>15.59</ele>
        <time>2020-05-27T15:09:55Z</time>
      </trkpt>
      <trkpt lat="47.13658" lon="-1.64569">
        <ele>15.47</ele>
        <time>2020-05-27T15:09:57Z</time>
      </trkpt>
      <trkpt lat="47.13644" lon="-1.64566">
        <ele>15.22</ele>
        <time>2020-05-27T15:09:59Z</time>
      </trkpt>
      <trkpt lat="47.13631" lon="-1.64563">
        <ele>15.46</ele>
        <time>2020-05-27T15:10:01Z</time>
      </trkpt>
      <trkpt lat="47.13618" lon="-1.6456">
        <ele>15.54</ele>
        <time>2020-05-27T15:10:03Z</time>
      </trkpt>
      <trkpt lat="47.13604" lon="-1.64558">
        <ele>15.97</ele>
        <time>2020-05-27T15:10:05Z</time>
      </trkpt>
      <trkpt lat="47.13591" lon="-1.64557">
        <ele>15.98</ele>
        <time>2020-05-27T15:10:07Z</time>
      </trkpt>
      <trkpt lat="47.13578" lon="-1.64561">
        <ele>15.75</ele>
        <time>2020-05-27T15:10:09Z</time>
      </trkpt>
      <trkpt lat="47.13565" lon="-1.64567">
        <ele>15.46</ele>
        <time>2020-05-27T15:10:11Z</time>
      </trkpt>
      <trkpt lat="47.13552" lon="-1.64575">
        <ele>16.08</ele>
        <time>2020-05-27T15:10:13Z</time>
      </trkpt>
      <trkpt lat="47.13542" lon="-1.64584">
        <ele>16.29</ele>
        <time>2020-05-27T15:10:15Z</time>
      </trkpt>
      <trkpt lat="47.13531" lon="-1.64596">
        <ele>15.71</ele>
        <time>2020-05-27T15:10:17Z</time>
      </trkpt>
      <trkpt lat="47.1352" lon="-1.64609">
        <ele>15.31</ele>
        <time>2020-05-27T15:10:19Z</time>
      </trkpt>
      <trkpt lat="47.1351" lon="-1.6462">
        <ele>15.42</ele>
        <time>2020-05-27T15:10:21Z</time>
      </trkpt>
      <trkpt lat="47.135" lon="-1.64631">
        <ele>15.49</ele>
        <time>2020-05-27T15:10:23Z</time>
      </trkpt>
      <trkpt lat="47.13489" lon="-1.64639">
        <ele>15.2</ele>
        <time>2020-05-27T15:10:25Z</time>
      </trkpt>
      <trkpt lat="47.13477" lon="-1.64647">
        <ele>15.64</ele>
        <time>2020-05-27T15:10:27Z</time>
      </trkpt>
      <trkpt lat="47.13463" lon="-1.6465">
        <ele>15.88</ele>
        <time>2020-05-27T15:10:29Z</time>
      </trkpt>
      <trkpt lat="47.1345" lon="-1.64649">
        <ele>15.75</ele>
        <time>2020-05-27T15:10:31Z</time>
      </trkpt>
      <trkpt lat="47.1344" lon="-1.64648">
        <ele>15.61</ele>
        <time>2020-05-27T15:10:33Z</time>
      </trkpt>
      <trkpt lat="47.13426" lon="-1.64646">
        <ele>15.29</ele>
        <time>2020-05-27T15:10:35Z</time>
      </trkpt>
      <trkpt lat="47.13414" lon="-1.64645">
        <ele>15.33</ele>
        <time>2020-05-27T15:10:37Z</time>
      </trkpt>
      <trkpt lat="47.13404" lon="-1.64645">
        <ele>15.69</ele>
        <time>2020-05-27T15:10:39Z</time>
      </trkpt>
      <trkpt lat="47.13397" lon="-1.64631">
        <ele>15.33</ele>
        <time>2020-05-27T15:10:50Z</time>
      </trkpt>
      <trkpt lat="47.13394" lon="-1.64613">
        <ele>14.97</ele>
        <time>2020-05-27T15:10:52Z</time>
      </trkpt>
      <trkpt lat="47.13391" lon="-1.64596">
        <ele>14.94</ele>
        <time>2020-05-27T15:10:54Z</time>
      </trkpt>
      <trkpt lat="47.13388" lon="-1.64579">
        <ele>15.38</ele>
        <time>2020-05-27T15:10:56Z</time>
      </trkpt>
      <trkpt lat="47.13384" lon="-1.64562">
        <ele>16.13</ele>
        <time>2020-05-27T15:10:58Z</time>
      </trkpt>
      <trkpt lat="47.13379" lon="-1.64543">
        <ele>16.88</ele>
        <time>2020-05-27T15:11:00Z</time>
      </trkpt>
      <trkpt lat="47.13375" lon="-1.64525">
        <ele>17.35</ele>
        <time>2020-05-27T15:11:02Z</time>
      </trkpt>
      <trkpt lat="47.13369" lon="-1.64507">
        <ele>17.1</ele>
        <time>2020-05-27T15:11:04Z</time>
      </trkpt>
      <trkpt lat="47.13363" lon="-1.6449">
        <ele>16.18</ele>
        <time>2020-05-27T15:11:06Z</time>
      </trkpt>
      <trkpt lat="47.13356" lon="-1.64472">
        <ele>15.6</ele>
        <time>2020-05-27T15:11:08Z</time>
      </trkpt>
      <trkpt lat="47.13348" lon="-1.64456">
        <ele>16.1</ele>
        <time>2020-05-27T15:11:10Z</time>
      </trkpt>
      <trkpt lat="47.13339" lon="-1.64438">
        <ele>16.63</ele>
        <time>2020-05-27T15:11:12Z</time>
      </trkpt>
      <trkpt lat="47.1333" lon="-1.64421">
        <ele>16.57</ele>
        <time>2020-05-27T15:11:14Z</time>
      </trkpt>
      <trkpt lat="47.13321" lon="-1.64403">
        <ele>15.63</ele>
        <time>2020-05-27T15:11:16Z</time>
      </trkpt>
      <trkpt lat="47.13314" lon="-1.64386">
        <ele>14.13</ele>
        <time>2020-05-27T15:11:18Z</time>
      </trkpt>
      <trkpt lat="47.13305" lon="-1.64367">
        <ele>12.59</ele>
        <time>2020-05-27T15:11:20Z</time>
      </trkpt>
      <trkpt lat="47.13297" lon="-1.64348">
        <ele>11.58</ele>
        <time>2020-05-27T15:11:22Z</time>
      </trkpt>
      <trkpt lat="47.13288" lon="-1.64329">
        <ele>11.55</ele>
        <time>2020-05-27T15:11:24Z</time>
      </trkpt>
      <trkpt lat="47.13277" lon="-1.64308">
        <ele>11.39</ele>
        <time>2020-05-27T15:11:26Z</time>
      </trkpt>
      <trkpt lat="47.13267" lon="-1.64289">
        <ele>11.39</ele>
        <time>2020-05-27T15:11:28Z</time>
      </trkpt>
      <trkpt lat="47.13257" lon="-1.64269">
        <ele>11.18</ele>
        <time>2020-05-27T15:11:30Z</time>
      </trkpt>
      <trkpt lat="47.13248" lon="-1.64249">
        <ele>11.14</ele>
        <time>2020-05-27T15:11:32Z</time>
      </trkpt>
      <trkpt lat="47.13239" lon="-1.64229">
        <ele>11.16</ele>
        <time>2020-05-27T15:11:34Z</time>
      </trkpt>
      <trkpt lat="47.13234" lon="-1.64217">
        <ele>10.72</ele>
        <time>2020-05-27T15:11:35Z</time>
      </trkpt>
      <trkpt lat="47.13225" lon="-1.64197">
        <ele>9.91</ele>
        <time>2020-05-27T15:11:37Z</time>
      </trkpt>
      <trkpt lat="47.13216" lon="-1.64179">
        <ele>9.21</ele>
        <time>2020-05-27T15:11:39Z</time>
      </trkpt>
      <trkpt lat="47.13207" lon="-1.64159">
        <ele>9.26</ele>
        <time>2020-05-27T15:11:41Z</time>
      </trkpt>
      <trkpt lat="47.13198" lon="-1.64141">
        <ele>9.11</ele>
        <time>2020-05-27T15:11:43Z</time>
      </trkpt>
      <trkpt lat="47.1319" lon="-1.64121">
        <ele>8.53</ele>
        <time>2020-05-27T15:11:45Z</time>
      </trkpt>
      <trkpt lat="47.13181" lon="-1.64101">
        <ele>7.34</ele>
        <time>2020-05-27T15:11:47Z</time>
      </trkpt>
      <trkpt lat="47.13173" lon="-1.64083">
        <ele>7.49</ele>
        <time>2020-05-27T15:11:49Z</time>
      </trkpt>
      <trkpt lat="47.13164" lon="-1.64065">
        <ele>7.9</ele>
        <time>2020-05-27T15:11:51Z</time>
      </trkpt>
      <trkpt lat="47.13155" lon="-1.64044">
        <ele>7.71</ele>
        <time>2020-05-27T15:11:53Z</time>
      </trkpt>
      <trkpt lat="47.13147" lon="-1.64024">
        <ele>7</ele>
        <time>2020-05-27T15:11:55Z</time>
      </trkpt>
      <trkpt lat="47.1314" lon="-1.64005">
        <ele>6.63</ele>
        <time>2020-05-27T15:11:57Z</time>
      </trkpt>
      <trkpt lat="47.13133" lon="-1.63987">
        <ele>7.97</ele>
        <time>2020-05-27T15:11:59Z</time>
      </trkpt>
      <trkpt lat="47.13126" lon="-1.63966">
        <ele>8.11</ele>
        <time>2020-05-27T15:12:01Z</time>
      </trkpt>
      <trkpt lat="47.13119" lon="-1.63946">
        <ele>8.72</ele>
        <time>2020-05-27T15:12:03Z</time>
      </trkpt>
      <trkpt lat="47.13111" lon="-1.63926">
        <ele>8.65</ele>
        <time>2020-05-27T15:12:05Z</time>
      </trkpt>
      <trkpt lat="47.13105" lon="-1.63905">
        <ele>8.05</ele>
        <time>2020-05-27T15:12:07Z</time>
      </trkpt>
      <trkpt lat="47.13097" lon="-1.63883">
        <ele>7.49</ele>
        <time>2020-05-27T15:12:09Z</time>
      </trkpt>
      <trkpt lat="47.13091" lon="-1.63864">
        <ele>6.9</ele>
        <time>2020-05-27T15:12:11Z</time>
      </trkpt>
      <trkpt lat="47.13083" lon="-1.63844">
        <ele>6.32</ele>
        <time>2020-05-27T15:12:13Z</time>
      </trkpt>
      <trkpt lat="47.13075" lon="-1.63826">
        <ele>6.46</ele>
        <time>2020-05-27T15:12:15Z</time>
      </trkpt>
      <trkpt lat="47.13066" lon="-1.63808">
        <ele>6.7</ele>
        <time>2020-05-27T15:12:17Z</time>
      </trkpt>
      <trkpt lat="47.13058" lon="-1.63791">
        <ele>6.85</ele>
        <time>2020-05-27T15:12:19Z</time>
      </trkpt>
      <trkpt lat="47.1305" lon="-1.63773">
        <ele>6.64</ele>
        <time>2020-05-27T15:12:21Z</time>
      </trkpt>
      <trkpt lat="47.1304" lon="-1.63754">
        <ele>6.91</ele>
        <time>2020-05-27T15:12:23Z</time>
      </trkpt>
      <trkpt lat="47.13031" lon="-1.63735">
        <ele>7.04</ele>
        <time>2020-05-27T15:12:25Z</time>
      </trkpt>
      <trkpt lat="47.13023" lon="-1.63718">
        <ele>6.4</ele>
        <time>2020-05-27T15:12:27Z</time>
      </trkpt>
      <trkpt lat="47.13015" lon="-1.63703">
        <ele>6.31</ele>
        <time>2020-05-27T15:12:29Z</time>
      </trkpt>
      <trkpt lat="47.13009" lon="-1.63692">
        <ele>6.1</ele>
        <time>2020-05-27T15:12:30Z</time>
      </trkpt>
      <trkpt lat="47.13001" lon="-1.63675">
        <ele>5.33</ele>
        <time>2020-05-27T15:12:32Z</time>
      </trkpt>
      <trkpt lat="47.12994" lon="-1.6366">
        <ele>5.22</ele>
        <time>2020-05-27T15:12:34Z</time>
      </trkpt>
      <trkpt lat="47.12986" lon="-1.63642">
        <ele>5.42</ele>
        <time>2020-05-27T15:12:36Z</time>
      </trkpt>
      <trkpt lat="47.12979" lon="-1.63622">
        <ele>5.83</ele>
        <time>2020-05-27T15:12:38Z</time>
      </trkpt>
      <trkpt lat="47.12974" lon="-1.63602">
        <ele>5.36</ele>
        <time>2020-05-27T15:12:40Z</time>
      </trkpt>
      <trkpt lat="47.12968" lon="-1.63583">
        <ele>4.78</ele>
        <time>2020-05-27T15:12:42Z</time>
      </trkpt>
      <trkpt lat="47.1296" lon="-1.63566">
        <ele>4.76</ele>
        <time>2020-05-27T15:12:44Z</time>
      </trkpt>
      <trkpt lat="47.12954" lon="-1.6355">
        <ele>4.57</ele>
        <time>2020-05-27T15:12:46Z</time>
      </trkpt>
      <trkpt lat="47.12947" lon="-1.63532">
        <ele>4.94</ele>
        <time>2020-05-27T15:12:48Z</time>
      </trkpt>
      <trkpt lat="47.1294" lon="-1.63514">
        <ele>4.36</ele>
        <time>2020-05-27T15:12:50Z</time>
      </trkpt>
      <trkpt lat="47.12934" lon="-1.63498">
        <ele>3.64</ele>
        <time>2020-05-27T15:12:52Z</time>
      </trkpt>
      <trkpt lat="47.12928" lon="-1.6348">
        <ele>3.01</ele>
        <time>2020-05-27T15:12:54Z</time>
      </trkpt>
      <trkpt lat="47.12922" lon="-1.63463">
        <ele>3.21</ele>
        <time>2020-05-27T15:12:56Z</time>
      </trkpt>
      <trkpt lat="47.12915" lon="-1.63443">
        <ele>3.51</ele>
        <time>2020-05-27T15:12:58Z</time>
      </trkpt>
      <trkpt lat="47.12907" lon="-1.63423">
        <ele>3.12</ele>
        <time>2020-05-27T15:13:00Z</time>
      </trkpt>
      <trkpt lat="47.12899" lon="-1.63404">
        <ele>3.42</ele>
        <time>2020-05-27T15:13:02Z</time>
      </trkpt>
      <trkpt lat="47.12891" lon="-1.63386">
        <ele>3.51</ele>
        <time>2020-05-27T15:13:04Z</time>
      </trkpt>
      <trkpt lat="47.12884" lon="-1.63367">
        <ele>3.08</ele>
        <time>2020-05-27T15:13:06Z</time>
      </trkpt>
      <trkpt lat="47.12877" lon="-1.6335">
        <ele>2.86</ele>
        <time>2020-05-27T15:13:08Z</time>
      </trkpt>
      <trkpt lat="47.1287" lon="-1.63331">
        <ele>2.42</ele>
        <time>2020-05-27T15:13:10Z</time>
      </trkpt>
      <trkpt lat="47.12863" lon="-1.63313">
        <ele>2.56</ele>
        <time>2020-05-27T15:13:12Z</time>
      </trkpt>
      <trkpt lat="47.12855" lon="-1.63294">
        <ele>2.65</ele>
        <time>2020-05-27T15:13:14Z</time>
      </trkpt>
      <trkpt lat="47.12848" lon="-1.63274">
        <ele>2.99</ele>
        <time>2020-05-27T15:13:16Z</time>
      </trkpt>
      <trkpt lat="47.1284" lon="-1.63256">
        <ele>2.69</ele>
        <time>2020-05-27T15:13:18Z</time>
      </trkpt>
      <trkpt lat="47.12832" lon="-1.63236">
        <ele>2.7</ele>
        <time>2020-05-27T15:13:20Z</time>
      </trkpt>
      <trkpt lat="47.12825" lon="-1.63216">
        <ele>2.68</ele>
        <time>2020-05-27T15:13:22Z</time>
      </trkpt>
      <trkpt lat="47.12818" lon="-1.63197">
        <ele>3.46</ele>
        <time>2020-05-27T15:13:24Z</time>
      </trkpt>
      <trkpt lat="47.1281" lon="-1.63177">
        <ele>3.74</ele>
        <time>2020-05-27T15:13:26Z</time>
      </trkpt>
      <trkpt lat="47.12803" lon="-1.63161">
        <ele>3.1</ele>
        <time>2020-05-27T15:13:28Z</time>
      </trkpt>
      <trkpt lat="47.12796" lon="-1.63144">
        <ele>3.07</ele>
        <time>2020-05-27T15:13:30Z</time>
      </trkpt>
      <trkpt lat="47.12787" lon="-1.63125">
        <ele>2.99</ele>
        <time>2020-05-27T15:13:32Z</time>
      </trkpt>
      <trkpt lat="47.1278" lon="-1.63107">
        <ele>2.37</ele>
        <time>2020-05-27T15:13:34Z</time>
      </trkpt>
      <trkpt lat="47.12773" lon="-1.63087">
        <ele>2.11</ele>
        <time>2020-05-27T15:13:36Z</time>
      </trkpt>
      <trkpt lat="47.12767" lon="-1.63069">
        <ele>2.69</ele>
        <time>2020-05-27T15:13:38Z</time>
      </trkpt>
      <trkpt lat="47.12761" lon="-1.63054">
        <ele>3.1</ele>
        <time>2020-05-27T15:13:40Z</time>
      </trkpt>
      <trkpt lat="47.12755" lon="-1.63037">
        <ele>3.5</ele>
        <time>2020-05-27T15:13:42Z</time>
      </trkpt>
      <trkpt lat="47.12749" lon="-1.63021">
        <ele>4.29</ele>
        <time>2020-05-27T15:13:44Z</time>
      </trkpt>
      <trkpt lat="47.12742" lon="-1.63004">
        <ele>4.13</ele>
        <time>2020-05-27T15:13:46Z</time>
      </trkpt>
      <trkpt lat="47.12735" lon="-1.62983">
        <ele>3.27</ele>
        <time>2020-05-27T15:13:48Z</time>
      </trkpt>
      <trkpt lat="47.12728" lon="-1.62965">
        <ele>3.07</ele>
        <time>2020-05-27T15:13:50Z</time>
      </trkpt>
      <trkpt lat="47.12721" lon="-1.62946">
        <ele>3.31</ele>
        <time>2020-05-27T15:13:52Z</time>
      </trkpt>
      <trkpt lat="47.12715" lon="-1.6293">
        <ele>4.08</ele>
        <time>2020-05-27T15:13:54Z</time>
      </trkpt>
      <trkpt lat="47.12709" lon="-1.62913">
        <ele>4.75</ele>
        <time>2020-05-27T15:13:56Z</time>
      </trkpt>
      <trkpt lat="47.12702" lon="-1.62896">
        <ele>5.31</ele>
        <time>2020-05-27T15:13:58Z</time>
      </trkpt>
      <trkpt lat="47.12696" lon="-1.6288">
        <ele>5.69</ele>
        <time>2020-05-27T15:14:00Z</time>
      </trkpt>
      <trkpt lat="47.12689" lon="-1.62864">
        <ele>5.72</ele>
        <time>2020-05-27T15:14:02Z</time>
      </trkpt>
      <trkpt lat="47.12682" lon="-1.62847">
        <ele>6.36</ele>
        <time>2020-05-27T15:14:04Z</time>
      </trkpt>
      <trkpt lat="47.12675" lon="-1.62831">
        <ele>7.52</ele>
        <time>2020-05-27T15:14:06Z</time>
      </trkpt>
      <trkpt lat="47.12665" lon="-1.62817">
        <ele>7.73</ele>
        <time>2020-05-27T15:14:08Z</time>
      </trkpt>
      <trkpt lat="47.12657" lon="-1.62799">
        <ele>7.19</ele>
        <time>2020-05-27T15:14:10Z</time>
      </trkpt>
      <trkpt lat="47.12651" lon="-1.6278">
        <ele>6.65</ele>
        <time>2020-05-27T15:14:12Z</time>
      </trkpt>
      <trkpt lat="47.12644" lon="-1.62762">
        <ele>6.25</ele>
        <time>2020-05-27T15:14:14Z</time>
      </trkpt>
      <trkpt lat="47.12637" lon="-1.62745">
        <ele>5.48</ele>
        <time>2020-05-27T15:14:16Z</time>
      </trkpt>
      <trkpt lat="47.12628" lon="-1.62726">
        <ele>4.78</ele>
        <time>2020-05-27T15:14:18Z</time>
      </trkpt>
      <trkpt lat="47.12619" lon="-1.6271">
        <ele>4.55</ele>
        <time>2020-05-27T15:14:20Z</time>
      </trkpt>
      <trkpt lat="47.1261" lon="-1.62692">
        <ele>4.17</ele>
        <time>2020-05-27T15:14:22Z</time>
      </trkpt>
      <trkpt lat="47.12602" lon="-1.62675">
        <ele>3.24</ele>
        <time>2020-05-27T15:14:24Z</time>
      </trkpt>
      <trkpt lat="47.12593" lon="-1.62657">
        <ele>2.83</ele>
        <time>2020-05-27T15:14:26Z</time>
      </trkpt>
      <trkpt lat="47.12585" lon="-1.6264">
        <ele>2.81</ele>
        <time>2020-05-27T15:14:28Z</time>
      </trkpt>
      <trkpt lat="47.12577" lon="-1.6262">
        <ele>2.92</ele>
        <time>2020-05-27T15:14:30Z</time>
      </trkpt>
      <trkpt lat="47.12571" lon="-1.62602">
        <ele>3.31</ele>
        <time>2020-05-27T15:14:32Z</time>
      </trkpt>
      <trkpt lat="47.12565" lon="-1.62582">
        <ele>3.14</ele>
        <time>2020-05-27T15:14:34Z</time>
      </trkpt>
      <trkpt lat="47.12561" lon="-1.62562">
        <ele>2.66</ele>
        <time>2020-05-27T15:14:36Z</time>
      </trkpt>
      <trkpt lat="47.12557" lon="-1.62543">
        <ele>2.46</ele>
        <time>2020-05-27T15:14:38Z</time>
      </trkpt>
      <trkpt lat="47.12554" lon="-1.62524">
        <ele>2.85</ele>
        <time>2020-05-27T15:14:40Z</time>
      </trkpt>
      <trkpt lat="47.1255" lon="-1.62503">
        <ele>2.98</ele>
        <time>2020-05-27T15:14:42Z</time>
      </trkpt>
      <trkpt lat="47.12546" lon="-1.62482">
        <ele>2.58</ele>
        <time>2020-05-27T15:14:44Z</time>
      </trkpt>
      <trkpt lat="47.12541" lon="-1.6246">
        <ele>2.11</ele>
        <time>2020-05-27T15:14:46Z</time>
      </trkpt>
      <trkpt lat="47.12537" lon="-1.6244">
        <ele>1.57</ele>
        <time>2020-05-27T15:14:48Z</time>
      </trkpt>
      <trkpt lat="47.12531" lon="-1.62419">
        <ele>1.39</ele>
        <time>2020-05-27T15:14:50Z</time>
      </trkpt>
      <trkpt lat="47.12525" lon="-1.62399">
        <ele>2.2</ele>
        <time>2020-05-27T15:14:52Z</time>
      </trkpt>
      <trkpt lat="47.12519" lon="-1.62378">
        <ele>1.79</ele>
        <time>2020-05-27T15:14:54Z</time>
      </trkpt>
      <trkpt lat="47.12511" lon="-1.62361">
        <ele>2.03</ele>
        <time>2020-05-27T15:14:56Z</time>
      </trkpt>
      <trkpt lat="47.12503" lon="-1.62344">
        <ele>2.93</ele>
        <time>2020-05-27T15:14:58Z</time>
      </trkpt>
      <trkpt lat="47.12494" lon="-1.62327">
        <ele>2.85</ele>
        <time>2020-05-27T15:15:00Z</time>
      </trkpt>
      <trkpt lat="47.12486" lon="-1.62313">
        <ele>2.74</ele>
        <time>2020-05-27T15:15:02Z</time>
      </trkpt>
      <trkpt lat="47.12477" lon="-1.62298">
        <ele>2.91</ele>
        <time>2020-05-27T15:15:04Z</time>
      </trkpt>
      <trkpt lat="47.12467" lon="-1.62282">
        <ele>2.38</ele>
        <time>2020-05-27T15:15:06Z</time>
      </trkpt>
      <trkpt lat="47.12456" lon="-1.62266">
        <ele>1.41</ele>
        <time>2020-05-27T15:15:08Z</time>
      </trkpt>
      <trkpt lat="47.12445" lon="-1.62251">
        <ele>0.93</ele>
        <time>2020-05-27T15:15:10Z</time>
      </trkpt>
      <trkpt lat="47.12435" lon="-1.62237">
        <ele>0.88</ele>
        <time>2020-05-27T15:15:12Z</time>
      </trkpt>
      <trkpt lat="47.12425" lon="-1.62223">
        <ele>1.16</ele>
        <time>2020-05-27T15:15:14Z</time>
      </trkpt>
      <trkpt lat="47.12415" lon="-1.62207">
        <ele>1.45</ele>
        <time>2020-05-27T15:15:16Z</time>
      </trkpt>
      <trkpt lat="47.12407" lon="-1.62192">
        <ele>2.68</ele>
        <time>2020-05-27T15:15:18Z</time>
      </trkpt>
      <trkpt lat="47.12398" lon="-1.62174">
        <ele>3.16</ele>
        <time>2020-05-27T15:15:20Z</time>
      </trkpt>
      <trkpt lat="47.12392" lon="-1.62157">
        <ele>3.71</ele>
        <time>2020-05-27T15:15:22Z</time>
      </trkpt>
      <trkpt lat="47.12385" lon="-1.62136">
        <ele>4.21</ele>
        <time>2020-05-27T15:15:24Z</time>
      </trkpt>
      <trkpt lat="47.1238" lon="-1.62114">
        <ele>4.26</ele>
        <time>2020-05-27T15:15:26Z</time>
      </trkpt>
      <trkpt lat="47.12377" lon="-1.62096">
        <ele>4.62</ele>
        <time>2020-05-27T15:15:28Z</time>
      </trkpt>
      <trkpt lat="47.12376" lon="-1.62075">
        <ele>4.7</ele>
        <time>2020-05-27T15:15:30Z</time>
      </trkpt>
      <trkpt lat="47.12377" lon="-1.62056">
        <ele>4.75</ele>
        <time>2020-05-27T15:15:32Z</time>
      </trkpt>
      <trkpt lat="47.12378" lon="-1.62036">
        <ele>4.96</ele>
        <time>2020-05-27T15:15:34Z</time>
      </trkpt>
      <trkpt lat="47.12381" lon="-1.62014">
        <ele>5.07</ele>
        <time>2020-05-27T15:15:37Z</time>
      </trkpt>
      <trkpt lat="47.12386" lon="-1.61993">
        <ele>4.81</ele>
        <time>2020-05-27T15:15:39Z</time>
      </trkpt>
      <trkpt lat="47.12391" lon="-1.61975">
        <ele>4.26</ele>
        <time>2020-05-27T15:15:41Z</time>
      </trkpt>
      <trkpt lat="47.12396" lon="-1.61956">
        <ele>3.34</ele>
        <time>2020-05-27T15:15:43Z</time>
      </trkpt>
      <trkpt lat="47.12402" lon="-1.61938">
        <ele>3.6</ele>
        <time>2020-05-27T15:15:45Z</time>
      </trkpt>
      <trkpt lat="47.12407" lon="-1.61919">
        <ele>4.14</ele>
        <time>2020-05-27T15:15:47Z</time>
      </trkpt>
      <trkpt lat="47.12413" lon="-1.619">
        <ele>4.32</ele>
        <time>2020-05-27T15:15:49Z</time>
      </trkpt>
      <trkpt lat="47.12417" lon="-1.61883">
        <ele>4.74</ele>
        <time>2020-05-27T15:15:51Z</time>
      </trkpt>
      <trkpt lat="47.12423" lon="-1.61868">
        <ele>5.35</ele>
        <time>2020-05-27T15:15:53Z</time>
      </trkpt>
      <trkpt lat="47.12429" lon="-1.61851">
        <ele>5.32</ele>
        <time>2020-05-27T15:15:55Z</time>
      </trkpt>
      <trkpt lat="47.12434" lon="-1.6183">
        <ele>5.56</ele>
        <time>2020-05-27T15:15:57Z</time>
      </trkpt>
      <trkpt lat="47.12438" lon="-1.61811">
        <ele>5.78</ele>
        <time>2020-05-27T15:15:59Z</time>
      </trkpt>
      <trkpt lat="47.12442" lon="-1.61791">
        <ele>5.3</ele>
        <time>2020-05-27T15:16:01Z</time>
      </trkpt>
      <trkpt lat="47.12447" lon="-1.61772">
        <ele>4.94</ele>
        <time>2020-05-27T15:16:03Z</time>
      </trkpt>
      <trkpt lat="47.12452" lon="-1.61753">
        <ele>4.01</ele>
        <time>2020-05-27T15:16:05Z</time>
      </trkpt>
      <trkpt lat="47.12457" lon="-1.61733">
        <ele>4.23</ele>
        <time>2020-05-27T15:16:07Z</time>
      </trkpt>
      <trkpt lat="47.12463" lon="-1.61713">
        <ele>4.18</ele>
        <time>2020-05-27T15:16:09Z</time>
      </trkpt>
      <trkpt lat="47.12467" lon="-1.61695">
        <ele>3.83</ele>
        <time>2020-05-27T15:16:11Z</time>
      </trkpt>
      <trkpt lat="47.12472" lon="-1.61676">
        <ele>4.2</ele>
        <time>2020-05-27T15:16:13Z</time>
      </trkpt>
      <trkpt lat="47.12475" lon="-1.61657">
        <ele>4.43</ele>
        <time>2020-05-27T15:16:15Z</time>
      </trkpt>
      <trkpt lat="47.12478" lon="-1.61638">
        <ele>4.37</ele>
        <time>2020-05-27T15:16:17Z</time>
      </trkpt>
      <trkpt lat="47.12478" lon="-1.61619">
        <ele>4.87</ele>
        <time>2020-05-27T15:16:19Z</time>
      </trkpt>
      <trkpt lat="47.12477" lon="-1.61598">
        <ele>5.89</ele>
        <time>2020-05-27T15:16:21Z</time>
      </trkpt>
      <trkpt lat="47.12475" lon="-1.61576">
        <ele>5.94</ele>
        <time>2020-05-27T15:16:23Z</time>
      </trkpt>
      <trkpt lat="47.12473" lon="-1.61557">
        <ele>5.77</ele>
        <time>2020-05-27T15:16:25Z</time>
      </trkpt>
      <trkpt lat="47.12471" lon="-1.61536">
        <ele>5.56</ele>
        <time>2020-05-27T15:16:27Z</time>
      </trkpt>
      <trkpt lat="47.12468" lon="-1.61519">
        <ele>5.37</ele>
        <time>2020-05-27T15:16:29Z</time>
      </trkpt>
      <trkpt lat="47.12466" lon="-1.61501">
        <ele>5.34</ele>
        <time>2020-05-27T15:16:31Z</time>
      </trkpt>
      <trkpt lat="47.12464" lon="-1.61481">
        <ele>5.15</ele>
        <time>2020-05-27T15:16:33Z</time>
      </trkpt>
      <trkpt lat="47.12462" lon="-1.61464">
        <ele>5.36</ele>
        <time>2020-05-27T15:16:35Z</time>
      </trkpt>
      <trkpt lat="47.1246" lon="-1.61445">
        <ele>6.03</ele>
        <time>2020-05-27T15:16:37Z</time>
      </trkpt>
      <trkpt lat="47.12457" lon="-1.61424">
        <ele>6.55</ele>
        <time>2020-05-27T15:16:39Z</time>
      </trkpt>
      <trkpt lat="47.12455" lon="-1.61405">
        <ele>7.04</ele>
        <time>2020-05-27T15:16:41Z</time>
      </trkpt>
      <trkpt lat="47.12453" lon="-1.61387">
        <ele>7.18</ele>
        <time>2020-05-27T15:16:43Z</time>
      </trkpt>
      <trkpt lat="47.12453" lon="-1.6137">
        <ele>7.73</ele>
        <time>2020-05-27T15:16:45Z</time>
      </trkpt>
      <trkpt lat="47.12453" lon="-1.61349">
        <ele>7.3</ele>
        <time>2020-05-27T15:16:47Z</time>
      </trkpt>
      <trkpt lat="47.12457" lon="-1.61333">
        <ele>6.78</ele>
        <time>2020-05-27T15:16:49Z</time>
      </trkpt>
      <trkpt lat="47.12462" lon="-1.61313">
        <ele>6.74</ele>
        <time>2020-05-27T15:16:51Z</time>
      </trkpt>
      <trkpt lat="47.12468" lon="-1.61296">
        <ele>6.74</ele>
        <time>2020-05-27T15:16:53Z</time>
      </trkpt>
      <trkpt lat="47.12473" lon="-1.61278">
        <ele>6.75</ele>
        <time>2020-05-27T15:16:55Z</time>
      </trkpt>
      <trkpt lat="47.1248" lon="-1.6126">
        <ele>7.35</ele>
        <time>2020-05-27T15:16:57Z</time>
      </trkpt>
      <trkpt lat="47.12487" lon="-1.61241">
        <ele>7.87</ele>
        <time>2020-05-27T15:16:59Z</time>
      </trkpt>
      <trkpt lat="47.12492" lon="-1.61224">
        <ele>7.59</ele>
        <time>2020-05-27T15:17:01Z</time>
      </trkpt>
      <trkpt lat="47.12495" lon="-1.61207">
        <ele>7.31</ele>
        <time>2020-05-27T15:17:03Z</time>
      </trkpt>
      <trkpt lat="47.12499" lon="-1.61188">
        <ele>8.05</ele>
        <time>2020-05-27T15:17:05Z</time>
      </trkpt>
      <trkpt lat="47.12502" lon="-1.61169">
        <ele>9.19</ele>
        <time>2020-05-27T15:17:07Z</time>
      </trkpt>
      <trkpt lat="47.12504" lon="-1.61148">
        <ele>9.61</ele>
        <time>2020-05-27T15:17:09Z</time>
      </trkpt>
      <trkpt lat="47.12506" lon="-1.61129">
        <ele>9.38</ele>
        <time>2020-05-27T15:17:11Z</time>
      </trkpt>
      <trkpt lat="47.12508" lon="-1.6111">
        <ele>8.5</ele>
        <time>2020-05-27T15:17:13Z</time>
      </trkpt>
      <trkpt lat="47.1251" lon="-1.6109">
        <ele>8.03</ele>
        <time>2020-05-27T15:17:15Z</time>
      </trkpt>
      <trkpt lat="47.12511" lon="-1.61069">
        <ele>7.77</ele>
        <time>2020-05-27T15:17:17Z</time>
      </trkpt>
      <trkpt lat="47.12513" lon="-1.61049">
        <ele>7.17</ele>
        <time>2020-05-27T15:17:19Z</time>
      </trkpt>
      <trkpt lat="47.12514" lon="-1.6103">
        <ele>6.31</ele>
        <time>2020-05-27T15:17:21Z</time>
      </trkpt>
      <trkpt lat="47.12516" lon="-1.61011">
        <ele>6.28</ele>
        <time>2020-05-27T15:17:23Z</time>
      </trkpt>
      <trkpt lat="47.12518" lon="-1.60989">
        <ele>6.16</ele>
        <time>2020-05-27T15:17:25Z</time>
      </trkpt>
      <trkpt lat="47.1252" lon="-1.60971">
        <ele>6.07</ele>
        <time>2020-05-27T15:17:27Z</time>
      </trkpt>
      <trkpt lat="47.12523" lon="-1.60951">
        <ele>6.31</ele>
        <time>2020-05-27T15:17:29Z</time>
      </trkpt>
      <trkpt lat="47.12524" lon="-1.60932">
        <ele>6.17</ele>
        <time>2020-05-27T15:17:31Z</time>
      </trkpt>
      <trkpt lat="47.12525" lon="-1.60915">
        <ele>6.53</ele>
        <time>2020-05-27T15:17:33Z</time>
      </trkpt>
      <trkpt lat="47.12527" lon="-1.60892">
        <ele>6.78</ele>
        <time>2020-05-27T15:17:35Z</time>
      </trkpt>
      <trkpt lat="47.12528" lon="-1.60874">
        <ele>6.11</ele>
        <time>2020-05-27T15:17:37Z</time>
      </trkpt>
      <trkpt lat="47.1253" lon="-1.60852">
        <ele>5.01</ele>
        <time>2020-05-27T15:17:39Z</time>
      </trkpt>
      <trkpt lat="47.12532" lon="-1.60834">
        <ele>4.84</ele>
        <time>2020-05-27T15:17:41Z</time>
      </trkpt>
      <trkpt lat="47.12534" lon="-1.60816">
        <ele>4.91</ele>
        <time>2020-05-27T15:17:43Z</time>
      </trkpt>
      <trkpt lat="47.12536" lon="-1.60797">
        <ele>5.89</ele>
        <time>2020-05-27T15:17:45Z</time>
      </trkpt>
      <trkpt lat="47.12538" lon="-1.60777">
        <ele>6.26</ele>
        <time>2020-05-27T15:17:47Z</time>
      </trkpt>
      <trkpt lat="47.12539" lon="-1.60756">
        <ele>7.09</ele>
        <time>2020-05-27T15:17:49Z</time>
      </trkpt>
      <trkpt lat="47.1254" lon="-1.60739">
        <ele>6.87</ele>
        <time>2020-05-27T15:17:51Z</time>
      </trkpt>
      <trkpt lat="47.1254" lon="-1.6072">
        <ele>5.88</ele>
        <time>2020-05-27T15:17:53Z</time>
      </trkpt>
      <trkpt lat="47.12541" lon="-1.60698">
        <ele>5.34</ele>
        <time>2020-05-27T15:17:55Z</time>
      </trkpt>
      <trkpt lat="47.12542" lon="-1.60676">
        <ele>4.73</ele>
        <time>2020-05-27T15:17:57Z</time>
      </trkpt>
      <trkpt lat="47.12541" lon="-1.6066">
        <ele>4.95</ele>
        <time>2020-05-27T15:17:59Z</time>
      </trkpt>
      <trkpt lat="47.1254" lon="-1.60642">
        <ele>5.4</ele>
        <time>2020-05-27T15:18:01Z</time>
      </trkpt>
      <trkpt lat="47.1254" lon="-1.60621">
        <ele>5.21</ele>
        <time>2020-05-27T15:18:03Z</time>
      </trkpt>
      <trkpt lat="47.1254" lon="-1.60602">
        <ele>5.11</ele>
        <time>2020-05-27T15:18:05Z</time>
      </trkpt>
      <trkpt lat="47.1254" lon="-1.60581">
        <ele>5.19</ele>
        <time>2020-05-27T15:18:07Z</time>
      </trkpt>
      <trkpt lat="47.1254" lon="-1.60563">
        <ele>5.09</ele>
        <time>2020-05-27T15:18:09Z</time>
      </trkpt>
      <trkpt lat="47.12539" lon="-1.60541">
        <ele>4.78</ele>
        <time>2020-05-27T15:18:11Z</time>
      </trkpt>
      <trkpt lat="47.12537" lon="-1.60522">
        <ele>4.89</ele>
        <time>2020-05-27T15:18:13Z</time>
      </trkpt>
      <trkpt lat="47.12536" lon="-1.60501">
        <ele>5.12</ele>
        <time>2020-05-27T15:18:15Z</time>
      </trkpt>
      <trkpt lat="47.12533" lon="-1.60481">
        <ele>4.78</ele>
        <time>2020-05-27T15:18:17Z</time>
      </trkpt>
      <trkpt lat="47.12531" lon="-1.60462">
        <ele>4.85</ele>
        <time>2020-05-27T15:18:19Z</time>
      </trkpt>
      <trkpt lat="47.12528" lon="-1.60445">
        <ele>4.92</ele>
        <time>2020-05-27T15:18:21Z</time>
      </trkpt>
      <trkpt lat="47.12524" lon="-1.60424">
        <ele>4.36</ele>
        <time>2020-05-27T15:18:23Z</time>
      </trkpt>
      <trkpt lat="47.12521" lon="-1.60403">
        <ele>5.76</ele>
        <time>2020-05-27T15:18:25Z</time>
      </trkpt>
      <trkpt lat="47.12516" lon="-1.60384">
        <ele>6.71</ele>
        <time>2020-05-27T15:18:27Z</time>
      </trkpt>
      <trkpt lat="47.12512" lon="-1.60363">
        <ele>7.48</ele>
        <time>2020-05-27T15:18:29Z</time>
      </trkpt>
      <trkpt lat="47.12507" lon="-1.60342">
        <ele>7.42</ele>
        <time>2020-05-27T15:18:31Z</time>
      </trkpt>
      <trkpt lat="47.12503" lon="-1.60323">
        <ele>7.2</ele>
        <time>2020-05-27T15:18:33Z</time>
      </trkpt>
      <trkpt lat="47.12499" lon="-1.603">
        <ele>6.99</ele>
        <time>2020-05-27T15:18:35Z</time>
      </trkpt>
      <trkpt lat="47.12496" lon="-1.60281">
        <ele>7.35</ele>
        <time>2020-05-27T15:18:37Z</time>
      </trkpt>
      <trkpt lat="47.12492" lon="-1.60262">
        <ele>7.34</ele>
        <time>2020-05-27T15:18:39Z</time>
      </trkpt>
      <trkpt lat="47.12488" lon="-1.60243">
        <ele>6.75</ele>
        <time>2020-05-27T15:18:41Z</time>
      </trkpt>
      <trkpt lat="47.12483" lon="-1.60224">
        <ele>5.66</ele>
        <time>2020-05-27T15:18:43Z</time>
      </trkpt>
      <trkpt lat="47.12479" lon="-1.60203">
        <ele>4.68</ele>
        <time>2020-05-27T15:18:45Z</time>
      </trkpt>
      <trkpt lat="47.12477" lon="-1.60184">
        <ele>3.66</ele>
        <time>2020-05-27T15:18:47Z</time>
      </trkpt>
      <trkpt lat="47.12475" lon="-1.60166">
        <ele>3.67</ele>
        <time>2020-05-27T15:18:49Z</time>
      </trkpt>
      <trkpt lat="47.12474" lon="-1.60147">
        <ele>4.07</ele>
        <time>2020-05-27T15:18:51Z</time>
      </trkpt>
      <trkpt lat="47.12473" lon="-1.60126">
        <ele>4.82</ele>
        <time>2020-05-27T15:18:53Z</time>
      </trkpt>
      <trkpt lat="47.12472" lon="-1.60104">
        <ele>5.56</ele>
        <time>2020-05-27T15:18:55Z</time>
      </trkpt>
      <trkpt lat="47.12471" lon="-1.60083">
        <ele>5.64</ele>
        <time>2020-05-27T15:18:57Z</time>
      </trkpt>
      <trkpt lat="47.12471" lon="-1.60063">
        <ele>5.38</ele>
        <time>2020-05-27T15:18:59Z</time>
      </trkpt>
      <trkpt lat="47.1247" lon="-1.60045">
        <ele>5.71</ele>
        <time>2020-05-27T15:19:01Z</time>
      </trkpt>
      <trkpt lat="47.12469" lon="-1.60025">
        <ele>5.92</ele>
        <time>2020-05-27T15:19:03Z</time>
      </trkpt>
      <trkpt lat="47.12469" lon="-1.60006">
        <ele>6.08</ele>
        <time>2020-05-27T15:19:05Z</time>
      </trkpt>
      <trkpt lat="47.12469" lon="-1.59984">
        <ele>5.39</ele>
        <time>2020-05-27T15:19:07Z</time>
      </trkpt>
      <trkpt lat="47.12467" lon="-1.59964">
        <ele>5.83</ele>
        <time>2020-05-27T15:19:09Z</time>
      </trkpt>
      <trkpt lat="47.12466" lon="-1.59946">
        <ele>6.04</ele>
        <time>2020-05-27T15:19:11Z</time>
      </trkpt>
      <trkpt lat="47.12465" lon="-1.59926">
        <ele>6.41</ele>
        <time>2020-05-27T15:19:13Z</time>
      </trkpt>
      <trkpt lat="47.12464" lon="-1.59906">
        <ele>6.42</ele>
        <time>2020-05-27T15:19:15Z</time>
      </trkpt>
      <trkpt lat="47.12463" lon="-1.59888">
        <ele>6.3</ele>
        <time>2020-05-27T15:19:17Z</time>
      </trkpt>
      <trkpt lat="47.12461" lon="-1.59872">
        <ele>6.31</ele>
        <time>2020-05-27T15:19:19Z</time>
      </trkpt>
      <trkpt lat="47.1246" lon="-1.59851">
        <ele>5.31</ele>
        <time>2020-05-27T15:19:21Z</time>
      </trkpt>
      <trkpt lat="47.1246" lon="-1.59832">
        <ele>3.69</ele>
        <time>2020-05-27T15:19:23Z</time>
      </trkpt>
      <trkpt lat="47.1246" lon="-1.59813">
        <ele>3.1</ele>
        <time>2020-05-27T15:19:25Z</time>
      </trkpt>
      <trkpt lat="47.12459" lon="-1.59794">
        <ele>3.51</ele>
        <time>2020-05-27T15:19:27Z</time>
      </trkpt>
      <trkpt lat="47.12459" lon="-1.59775">
        <ele>4.23</ele>
        <time>2020-05-27T15:19:29Z</time>
      </trkpt>
      <trkpt lat="47.12458" lon="-1.59757">
        <ele>5.14</ele>
        <time>2020-05-27T15:19:31Z</time>
      </trkpt>
      <trkpt lat="47.12457" lon="-1.59738">
        <ele>5.89</ele>
        <time>2020-05-27T15:19:33Z</time>
      </trkpt>
      <trkpt lat="47.12457" lon="-1.59717">
        <ele>5.92</ele>
        <time>2020-05-27T15:19:35Z</time>
      </trkpt>
      <trkpt lat="47.12455" lon="-1.597">
        <ele>5.82</ele>
        <time>2020-05-27T15:19:37Z</time>
      </trkpt>
      <trkpt lat="47.12455" lon="-1.59681">
        <ele>6.37</ele>
        <time>2020-05-27T15:19:39Z</time>
      </trkpt>
      <trkpt lat="47.12454" lon="-1.59662">
        <ele>6.81</ele>
        <time>2020-05-27T15:19:41Z</time>
      </trkpt>
      <trkpt lat="47.12453" lon="-1.59642">
        <ele>6.79</ele>
        <time>2020-05-27T15:19:43Z</time>
      </trkpt>
      <trkpt lat="47.12452" lon="-1.59623">
        <ele>6.87</ele>
        <time>2020-05-27T15:19:45Z</time>
      </trkpt>
      <trkpt lat="47.12451" lon="-1.59605">
        <ele>6.78</ele>
        <time>2020-05-27T15:19:47Z</time>
      </trkpt>
      <trkpt lat="47.1245" lon="-1.59585">
        <ele>6.67</ele>
        <time>2020-05-27T15:19:49Z</time>
      </trkpt>
      <trkpt lat="47.12449" lon="-1.59567">
        <ele>6.79</ele>
        <time>2020-05-27T15:19:51Z</time>
      </trkpt>
      <trkpt lat="47.12449" lon="-1.5955">
        <ele>7.33</ele>
        <time>2020-05-27T15:19:53Z</time>
      </trkpt>
      <trkpt lat="47.12448" lon="-1.59531">
        <ele>7.25</ele>
        <time>2020-05-27T15:19:55Z</time>
      </trkpt>
      <trkpt lat="47.12447" lon="-1.59513">
        <ele>6.62</ele>
        <time>2020-05-27T15:19:57Z</time>
      </trkpt>
      <trkpt lat="47.12446" lon="-1.59495">
        <ele>6.54</ele>
        <time>2020-05-27T15:19:59Z</time>
      </trkpt>
      <trkpt lat="47.12445" lon="-1.59476">
        <ele>6.91</ele>
        <time>2020-05-27T15:20:01Z</time>
      </trkpt>
      <trkpt lat="47.12444" lon="-1.59453">
        <ele>7.18</ele>
        <time>2020-05-27T15:20:03Z</time>
      </trkpt>
      <trkpt lat="47.12443" lon="-1.59433">
        <ele>6.16</ele>
        <time>2020-05-27T15:20:05Z</time>
      </trkpt>
      <trkpt lat="47.12441" lon="-1.59413">
        <ele>5.35</ele>
        <time>2020-05-27T15:20:07Z</time>
      </trkpt>
      <trkpt lat="47.1244" lon="-1.59392">
        <ele>4.73</ele>
        <time>2020-05-27T15:20:09Z</time>
      </trkpt>
      <trkpt lat="47.12438" lon="-1.59372">
        <ele>4.05</ele>
        <time>2020-05-27T15:20:11Z</time>
      </trkpt>
      <trkpt lat="47.12437" lon="-1.59352">
        <ele>3.54</ele>
        <time>2020-05-27T15:20:13Z</time>
      </trkpt>
      <trkpt lat="47.12436" lon="-1.59333">
        <ele>3.69</ele>
        <time>2020-05-27T15:20:15Z</time>
      </trkpt>
      <trkpt lat="47.12435" lon="-1.59312">
        <ele>4.12</ele>
        <time>2020-05-27T15:20:17Z</time>
      </trkpt>
      <trkpt lat="47.12434" lon="-1.59291">
        <ele>3.85</ele>
        <time>2020-05-27T15:20:19Z</time>
      </trkpt>
      <trkpt lat="47.12434" lon="-1.59272">
        <ele>3.55</ele>
        <time>2020-05-27T15:20:21Z</time>
      </trkpt>
      <trkpt lat="47.12433" lon="-1.59253">
        <ele>3.71</ele>
        <time>2020-05-27T15:20:23Z</time>
      </trkpt>
      <trkpt lat="47.12431" lon="-1.59233">
        <ele>2.84</ele>
        <time>2020-05-27T15:20:25Z</time>
      </trkpt>
      <trkpt lat="47.12429" lon="-1.59213">
        <ele>1.7</ele>
        <time>2020-05-27T15:20:27Z</time>
      </trkpt>
      <trkpt lat="47.12427" lon="-1.59195">
        <ele>1.97</ele>
        <time>2020-05-27T15:20:29Z</time>
      </trkpt>
      <trkpt lat="47.12428" lon="-1.59174">
        <ele>1.78</ele>
        <time>2020-05-27T15:20:31Z</time>
      </trkpt>
      <trkpt lat="47.12429" lon="-1.59153">
        <ele>1.87</ele>
        <time>2020-05-27T15:20:33Z</time>
      </trkpt>
      <trkpt lat="47.1243" lon="-1.59133">
        <ele>1.97</ele>
        <time>2020-05-27T15:20:35Z</time>
      </trkpt>
      <trkpt lat="47.1243" lon="-1.59115">
        <ele>2.59</ele>
        <time>2020-05-27T15:20:37Z</time>
      </trkpt>
      <trkpt lat="47.1243" lon="-1.59095">
        <ele>2.86</ele>
        <time>2020-05-27T15:20:39Z</time>
      </trkpt>
      <trkpt lat="47.12428" lon="-1.59075">
        <ele>2.97</ele>
        <time>2020-05-27T15:20:41Z</time>
      </trkpt>
      <trkpt lat="47.12427" lon="-1.59056">
        <ele>2.91</ele>
        <time>2020-05-27T15:20:43Z</time>
      </trkpt>
      <trkpt lat="47.12425" lon="-1.59037">
        <ele>3.34</ele>
        <time>2020-05-27T15:20:45Z</time>
      </trkpt>
      <trkpt lat="47.12423" lon="-1.59017">
        <ele>3.13</ele>
        <time>2020-05-27T15:20:47Z</time>
      </trkpt>
      <trkpt lat="47.12422" lon="-1.59001">
        <ele>3.22</ele>
        <time>2020-05-27T15:20:49Z</time>
      </trkpt>
      <trkpt lat="47.12422" lon="-1.58984">
        <ele>3.36</ele>
        <time>2020-05-27T15:20:51Z</time>
      </trkpt>
      <trkpt lat="47.12421" lon="-1.58966">
        <ele>3.75</ele>
        <time>2020-05-27T15:20:53Z</time>
      </trkpt>
      <trkpt lat="47.1242" lon="-1.58949">
        <ele>4.26</ele>
        <time>2020-05-27T15:20:55Z</time>
      </trkpt>
      <trkpt lat="47.12419" lon="-1.58935">
        <ele>5.55</ele>
        <time>2020-05-27T15:20:57Z</time>
      </trkpt>
      <trkpt lat="47.12418" lon="-1.58917">
        <ele>5.65</ele>
        <time>2020-05-27T15:20:59Z</time>
      </trkpt>
      <trkpt lat="47.12416" lon="-1.589">
        <ele>6.14</ele>
        <time>2020-05-27T15:21:01Z</time>
      </trkpt>
      <trkpt lat="47.12415" lon="-1.58885">
        <ele>6.11</ele>
        <time>2020-05-27T15:21:03Z</time>
      </trkpt>
      <trkpt lat="47.12413" lon="-1.58868">
        <ele>6.2</ele>
        <time>2020-05-27T15:21:05Z</time>
      </trkpt>
      <trkpt lat="47.12411" lon="-1.58852">
        <ele>6.13</ele>
        <time>2020-05-27T15:21:07Z</time>
      </trkpt>
      <trkpt lat="47.12408" lon="-1.58832">
        <ele>6.05</ele>
        <time>2020-05-27T15:21:09Z</time>
      </trkpt>
      <trkpt lat="47.12405" lon="-1.58814">
        <ele>5.14</ele>
        <time>2020-05-27T15:21:11Z</time>
      </trkpt>
      <trkpt lat="47.12402" lon="-1.58796">
        <ele>5.07</ele>
        <time>2020-05-27T15:21:13Z</time>
      </trkpt>
      <trkpt lat="47.12399" lon="-1.58781">
        <ele>5.88</ele>
        <time>2020-05-27T15:21:15Z</time>
      </trkpt>
      <trkpt lat="47.12397" lon="-1.58764">
        <ele>6.61</ele>
        <time>2020-05-27T15:21:17Z</time>
      </trkpt>
      <trkpt lat="47.12394" lon="-1.58747">
        <ele>7.34</ele>
        <time>2020-05-27T15:21:19Z</time>
      </trkpt>
      <trkpt lat="47.1239" lon="-1.58728">
        <ele>7.68</ele>
        <time>2020-05-27T15:21:21Z</time>
      </trkpt>
      <trkpt lat="47.12387" lon="-1.5871">
        <ele>7.67</ele>
        <time>2020-05-27T15:21:23Z</time>
      </trkpt>
      <trkpt lat="47.12384" lon="-1.58692">
        <ele>7.25</ele>
        <time>2020-05-27T15:21:25Z</time>
      </trkpt>
      <trkpt lat="47.1238" lon="-1.58676">
        <ele>7.24</ele>
        <time>2020-05-27T15:21:27Z</time>
      </trkpt>
      <trkpt lat="47.12376" lon="-1.58658">
        <ele>7.12</ele>
        <time>2020-05-27T15:21:29Z</time>
      </trkpt>
      <trkpt lat="47.12372" lon="-1.58642">
        <ele>6.93</ele>
        <time>2020-05-27T15:21:31Z</time>
      </trkpt>
      <trkpt lat="47.12369" lon="-1.58626">
        <ele>6.6</ele>
        <time>2020-05-27T15:21:33Z</time>
      </trkpt>
      <trkpt lat="47.12366" lon="-1.58607">
        <ele>6.37</ele>
        <time>2020-05-27T15:21:35Z</time>
      </trkpt>
      <trkpt lat="47.12362" lon="-1.5859">
        <ele>6.13</ele>
        <time>2020-05-27T15:21:37Z</time>
      </trkpt>
      <trkpt lat="47.12358" lon="-1.58571">
        <ele>6.25</ele>
        <time>2020-05-27T15:21:39Z</time>
      </trkpt>
      <trkpt lat="47.12353" lon="-1.58552">
        <ele>6.21</ele>
        <time>2020-05-27T15:21:41Z</time>
      </trkpt>
      <trkpt lat="47.12349" lon="-1.58533">
        <ele>6.37</ele>
        <time>2020-05-27T15:21:43Z</time>
      </trkpt>
      <trkpt lat="47.12344" lon="-1.58517">
        <ele>6.56</ele>
        <time>2020-05-27T15:21:45Z</time>
      </trkpt>
      <trkpt lat="47.1234" lon="-1.58498">
        <ele>6.61</ele>
        <time>2020-05-27T15:21:47Z</time>
      </trkpt>
      <trkpt lat="47.12337" lon="-1.58481">
        <ele>6.48</ele>
        <time>2020-05-27T15:21:49Z</time>
      </trkpt>
      <trkpt lat="47.12332" lon="-1.58465">
        <ele>5.75</ele>
        <time>2020-05-27T15:21:52Z</time>
      </trkpt>
      <trkpt lat="47.12324" lon="-1.5845">
        <ele>6.23</ele>
        <time>2020-05-27T15:21:55Z</time>
      </trkpt>
      <trkpt lat="47.12318" lon="-1.58437">
        <ele>6.86</ele>
        <time>2020-05-27T15:21:57Z</time>
      </trkpt>
      <trkpt lat="47.12312" lon="-1.58424">
        <ele>7.25</ele>
        <time>2020-05-27T15:21:59Z</time>
      </trkpt>
      <trkpt lat="47.12306" lon="-1.58412">
        <ele>7.95</ele>
        <time>2020-05-27T15:22:01Z</time>
      </trkpt>
      <trkpt lat="47.12299" lon="-1.58398">
        <ele>8.13</ele>
        <time>2020-05-27T15:22:03Z</time>
      </trkpt>
      <trkpt lat="47.12295" lon="-1.58377">
        <ele>8.18</ele>
        <time>2020-05-27T15:22:06Z</time>
      </trkpt>
      <trkpt lat="47.12296" lon="-1.5836">
        <ele>8.47</ele>
        <time>2020-05-27T15:22:08Z</time>
      </trkpt>
      <trkpt lat="47.12294" lon="-1.58344">
        <ele>8.69</ele>
        <time>2020-05-27T15:22:10Z</time>
      </trkpt>
      <trkpt lat="47.12287" lon="-1.58333">
        <ele>7.19</ele>
        <time>2020-05-27T15:22:12Z</time>
      </trkpt>
      <trkpt lat="47.12276" lon="-1.58324">
        <ele>7.28</ele>
        <time>2020-05-27T15:22:14Z</time>
      </trkpt>
      <trkpt lat="47.12267" lon="-1.58319">
        <ele>7.85</ele>
        <time>2020-05-27T15:22:15Z</time>
      </trkpt>
      <trkpt lat="47.12255" lon="-1.58309">
        <ele>7.93</ele>
        <time>2020-05-27T15:22:17Z</time>
      </trkpt>
      <trkpt lat="47.12245" lon="-1.583">
        <ele>7.68</ele>
        <time>2020-05-27T15:22:19Z</time>
      </trkpt>
      <trkpt lat="47.12233" lon="-1.58287">
        <ele>7.37</ele>
        <time>2020-05-27T15:22:21Z</time>
      </trkpt>
      <trkpt lat="47.12223" lon="-1.58276">
        <ele>6.45</ele>
        <time>2020-05-27T15:22:23Z</time>
      </trkpt>
      <trkpt lat="47.12213" lon="-1.58265">
        <ele>5.65</ele>
        <time>2020-05-27T15:22:25Z</time>
      </trkpt>
      <trkpt lat="47.12202" lon="-1.58255">
        <ele>4.88</ele>
        <time>2020-05-27T15:22:27Z</time>
      </trkpt>
      <trkpt lat="47.12196" lon="-1.5824">
        <ele>4.22</ele>
        <time>2020-05-27T15:22:29Z</time>
      </trkpt>
      <trkpt lat="47.12199" lon="-1.58217">
        <ele>3.6</ele>
        <time>2020-05-27T15:22:31Z</time>
      </trkpt>
      <trkpt lat="47.12201" lon="-1.58197">
        <ele>4.22</ele>
        <time>2020-05-27T15:22:33Z</time>
      </trkpt>
      <trkpt lat="47.12203" lon="-1.58179">
        <ele>4.82</ele>
        <time>2020-05-27T15:22:35Z</time>
      </trkpt>
      <trkpt lat="47.12205" lon="-1.5816">
        <ele>5.06</ele>
        <time>2020-05-27T15:22:37Z</time>
      </trkpt>
      <trkpt lat="47.12213" lon="-1.58143">
        <ele>5.14</ele>
        <time>2020-05-27T15:22:39Z</time>
      </trkpt>
      <trkpt lat="47.12219" lon="-1.58126">
        <ele>5.47</ele>
        <time>2020-05-27T15:22:41Z</time>
      </trkpt>
      <trkpt lat="47.12226" lon="-1.58109">
        <ele>5.49</ele>
        <time>2020-05-27T15:22:43Z</time>
      </trkpt>
      <trkpt lat="47.12233" lon="-1.58092">
        <ele>5.64</ele>
        <time>2020-05-27T15:22:45Z</time>
      </trkpt>
      <trkpt lat="47.1224" lon="-1.58074">
        <ele>5.19</ele>
        <time>2020-05-27T15:22:47Z</time>
      </trkpt>
      <trkpt lat="47.12245" lon="-1.58058">
        <ele>4.88</ele>
        <time>2020-05-27T15:22:49Z</time>
      </trkpt>
      <trkpt lat="47.12245" lon="-1.58042">
        <ele>4.83</ele>
        <time>2020-05-27T15:22:51Z</time>
      </trkpt>
      <trkpt lat="47.12241" lon="-1.58025">
        <ele>4.61</ele>
        <time>2020-05-27T15:22:53Z</time>
      </trkpt>
      <trkpt lat="47.12234" lon="-1.58009">
        <ele>4.73</ele>
        <time>2020-05-27T15:22:55Z</time>
      </trkpt>
      <trkpt lat="47.12223" lon="-1.57994">
        <ele>4.06</ele>
        <time>2020-05-27T15:22:57Z</time>
      </trkpt>
      <trkpt lat="47.12214" lon="-1.57979">
        <ele>4.17</ele>
        <time>2020-05-27T15:22:59Z</time>
      </trkpt>
      <trkpt lat="47.12205" lon="-1.57964">
        <ele>4.47</ele>
        <time>2020-05-27T15:23:01Z</time>
      </trkpt>
      <trkpt lat="47.12199" lon="-1.57952">
        <ele>4.62</ele>
        <time>2020-05-27T15:23:03Z</time>
      </trkpt>
      <trkpt lat="47.12191" lon="-1.57937">
        <ele>4.1</ele>
        <time>2020-05-27T15:23:05Z</time>
      </trkpt>
      <trkpt lat="47.12186" lon="-1.57922">
        <ele>4.83</ele>
        <time>2020-05-27T15:23:07Z</time>
      </trkpt>
      <trkpt lat="47.12182" lon="-1.57904">
        <ele>5.34</ele>
        <time>2020-05-27T15:23:09Z</time>
      </trkpt>
      <trkpt lat="47.12179" lon="-1.57883">
        <ele>5.84</ele>
        <time>2020-05-27T15:23:11Z</time>
      </trkpt>
      <trkpt lat="47.12177" lon="-1.57865">
        <ele>6.83</ele>
        <time>2020-05-27T15:23:13Z</time>
      </trkpt>
      <trkpt lat="47.12177" lon="-1.57849">
        <ele>7.14</ele>
        <time>2020-05-27T15:23:15Z</time>
      </trkpt>
      <trkpt lat="47.12178" lon="-1.5783">
        <ele>7.73</ele>
        <time>2020-05-27T15:23:17Z</time>
      </trkpt>
      <trkpt lat="47.12178" lon="-1.57812">
        <ele>7.02</ele>
        <time>2020-05-27T15:23:19Z</time>
      </trkpt>
      <trkpt lat="47.12179" lon="-1.57793">
        <ele>6.48</ele>
        <time>2020-05-27T15:23:21Z</time>
      </trkpt>
      <trkpt lat="47.12179" lon="-1.57774">
        <ele>6.6</ele>
        <time>2020-05-27T15:23:23Z</time>
      </trkpt>
      <trkpt lat="47.12179" lon="-1.57758">
        <ele>6.68</ele>
        <time>2020-05-27T15:23:25Z</time>
      </trkpt>
      <trkpt lat="47.12179" lon="-1.57738">
        <ele>6.77</ele>
        <time>2020-05-27T15:23:27Z</time>
      </trkpt>
      <trkpt lat="47.12178" lon="-1.5772">
        <ele>7.28</ele>
        <time>2020-05-27T15:23:29Z</time>
      </trkpt>
      <trkpt lat="47.12178" lon="-1.57703">
        <ele>7.84</ele>
        <time>2020-05-27T15:23:31Z</time>
      </trkpt>
      <trkpt lat="47.12178" lon="-1.57687">
        <ele>8.62</ele>
        <time>2020-05-27T15:23:33Z</time>
      </trkpt>
      <trkpt lat="47.12178" lon="-1.57669">
        <ele>9.27</ele>
        <time>2020-05-27T15:23:35Z</time>
      </trkpt>
      <trkpt lat="47.12179" lon="-1.5765">
        <ele>10.07</ele>
        <time>2020-05-27T15:23:37Z</time>
      </trkpt>
      <trkpt lat="47.12178" lon="-1.57631">
        <ele>9.52</ele>
        <time>2020-05-27T15:23:39Z</time>
      </trkpt>
      <trkpt lat="47.12179" lon="-1.57614">
        <ele>9.5</ele>
        <time>2020-05-27T15:23:41Z</time>
      </trkpt>
      <trkpt lat="47.12179" lon="-1.57596">
        <ele>9.88</ele>
        <time>2020-05-27T15:23:43Z</time>
      </trkpt>
      <trkpt lat="47.12178" lon="-1.57577">
        <ele>10.22</ele>
        <time>2020-05-27T15:23:45Z</time>
      </trkpt>
      <trkpt lat="47.12177" lon="-1.57556">
        <ele>11</ele>
        <time>2020-05-27T15:23:47Z</time>
      </trkpt>
      <trkpt lat="47.12176" lon="-1.57537">
        <ele>11.46</ele>
        <time>2020-05-27T15:23:49Z</time>
      </trkpt>
      <trkpt lat="47.12174" lon="-1.5752">
        <ele>11.49</ele>
        <time>2020-05-27T15:23:51Z</time>
      </trkpt>
      <trkpt lat="47.12173" lon="-1.575">
        <ele>11.47</ele>
        <time>2020-05-27T15:23:53Z</time>
      </trkpt>
      <trkpt lat="47.1217" lon="-1.57481">
        <ele>11.81</ele>
        <time>2020-05-27T15:23:55Z</time>
      </trkpt>
      <trkpt lat="47.12168" lon="-1.57463">
        <ele>11.48</ele>
        <time>2020-05-27T15:23:57Z</time>
      </trkpt>
      <trkpt lat="47.12165" lon="-1.57446">
        <ele>10.66</ele>
        <time>2020-05-27T15:23:59Z</time>
      </trkpt>
      <trkpt lat="47.12161" lon="-1.57427">
        <ele>9.15</ele>
        <time>2020-05-27T15:24:01Z</time>
      </trkpt>
      <trkpt lat="47.12157" lon="-1.57408">
        <ele>8.6</ele>
        <time>2020-05-27T15:24:03Z</time>
      </trkpt>
      <trkpt lat="47.12153" lon="-1.57389">
        <ele>8.57</ele>
        <time>2020-05-27T15:24:05Z</time>
      </trkpt>
      <trkpt lat="47.12149" lon="-1.57372">
        <ele>8.62</ele>
        <time>2020-05-27T15:24:07Z</time>
      </trkpt>
      <trkpt lat="47.12145" lon="-1.5735">
        <ele>9.51</ele>
        <time>2020-05-27T15:24:09Z</time>
      </trkpt>
      <trkpt lat="47.12142" lon="-1.57333">
        <ele>9.73</ele>
        <time>2020-05-27T15:24:11Z</time>
      </trkpt>
      <trkpt lat="47.1214" lon="-1.57319">
        <ele>9.52</ele>
        <time>2020-05-27T15:24:13Z</time>
      </trkpt>
      <trkpt lat="47.12137" lon="-1.57303">
        <ele>8.95</ele>
        <time>2020-05-27T15:24:15Z</time>
      </trkpt>
      <trkpt lat="47.12132" lon="-1.57282">
        <ele>8.1</ele>
        <time>2020-05-27T15:24:17Z</time>
      </trkpt>
      <trkpt lat="47.12129" lon="-1.57264">
        <ele>7.47</ele>
        <time>2020-05-27T15:24:19Z</time>
      </trkpt>
      <trkpt lat="47.12125" lon="-1.57244">
        <ele>6.69</ele>
        <time>2020-05-27T15:24:21Z</time>
      </trkpt>
      <trkpt lat="47.12121" lon="-1.57224">
        <ele>5.35</ele>
        <time>2020-05-27T15:24:23Z</time>
      </trkpt>
      <trkpt lat="47.12116" lon="-1.57204">
        <ele>4.62</ele>
        <time>2020-05-27T15:24:25Z</time>
      </trkpt>
      <trkpt lat="47.12111" lon="-1.57184">
        <ele>4.36</ele>
        <time>2020-05-27T15:24:27Z</time>
      </trkpt>
      <trkpt lat="47.12108" lon="-1.57166">
        <ele>4.55</ele>
        <time>2020-05-27T15:24:29Z</time>
      </trkpt>
      <trkpt lat="47.12105" lon="-1.57147">
        <ele>4.63</ele>
        <time>2020-05-27T15:24:31Z</time>
      </trkpt>
      <trkpt lat="47.12102" lon="-1.57127">
        <ele>4.39</ele>
        <time>2020-05-27T15:24:33Z</time>
      </trkpt>
      <trkpt lat="47.12098" lon="-1.57106">
        <ele>3.69</ele>
        <time>2020-05-27T15:24:35Z</time>
      </trkpt>
      <trkpt lat="47.12093" lon="-1.57083">
        <ele>2.63</ele>
        <time>2020-05-27T15:24:37Z</time>
      </trkpt>
      <trkpt lat="47.1209" lon="-1.57064">
        <ele>2.23</ele>
        <time>2020-05-27T15:24:39Z</time>
      </trkpt>
      <trkpt lat="47.12086" lon="-1.57043">
        <ele>2.49</ele>
        <time>2020-05-27T15:24:41Z</time>
      </trkpt>
      <trkpt lat="47.12083" lon="-1.57024">
        <ele>2.85</ele>
        <time>2020-05-27T15:24:43Z</time>
      </trkpt>
      <trkpt lat="47.1208" lon="-1.57003">
        <ele>2.17</ele>
        <time>2020-05-27T15:24:45Z</time>
      </trkpt>
      <trkpt lat="47.12076" lon="-1.56981">
        <ele>1.84</ele>
        <time>2020-05-27T15:24:47Z</time>
      </trkpt>
      <trkpt lat="47.12072" lon="-1.56964">
        <ele>2.44</ele>
        <time>2020-05-27T15:24:49Z</time>
      </trkpt>
      <trkpt lat="47.12068" lon="-1.56947">
        <ele>2.34</ele>
        <time>2020-05-27T15:24:51Z</time>
      </trkpt>
      <trkpt lat="47.12061" lon="-1.56932">
        <ele>2.45</ele>
        <time>2020-05-27T15:24:53Z</time>
      </trkpt>
      <trkpt lat="47.12054" lon="-1.56918">
        <ele>2.72</ele>
        <time>2020-05-27T15:24:55Z</time>
      </trkpt>
      <trkpt lat="47.12052" lon="-1.56903">
        <ele>3.04</ele>
        <time>2020-05-27T15:24:57Z</time>
      </trkpt>
      <trkpt lat="47.12049" lon="-1.56884">
        <ele>4.67</ele>
        <time>2020-05-27T15:24:59Z</time>
      </trkpt>
      <trkpt lat="47.12046" lon="-1.56865">
        <ele>6.37</ele>
        <time>2020-05-27T15:25:00Z</time>
      </trkpt>
      <trkpt lat="47.12043" lon="-1.56849">
        <ele>7.42</ele>
        <time>2020-05-27T15:25:02Z</time>
      </trkpt>
      <trkpt lat="47.12041" lon="-1.56832">
        <ele>8.04</ele>
        <time>2020-05-27T15:25:04Z</time>
      </trkpt>
      <trkpt lat="47.12039" lon="-1.56818">
        <ele>8.21</ele>
        <time>2020-05-27T15:25:06Z</time>
      </trkpt>
      <trkpt lat="47.12036" lon="-1.56804">
        <ele>8.33</ele>
        <time>2020-05-27T15:25:08Z</time>
      </trkpt>
      <trkpt lat="47.12033" lon="-1.5679">
        <ele>8.27</ele>
        <time>2020-05-27T15:25:10Z</time>
      </trkpt>
      <trkpt lat="47.1203" lon="-1.56773">
        <ele>8.36</ele>
        <time>2020-05-27T15:25:12Z</time>
      </trkpt>
      <trkpt lat="47.12027" lon="-1.56752">
        <ele>6.95</ele>
        <time>2020-05-27T15:25:15Z</time>
      </trkpt>
      <trkpt lat="47.12024" lon="-1.56738">
        <ele>6.29</ele>
        <time>2020-05-27T15:25:17Z</time>
      </trkpt>
      <trkpt lat="47.12022" lon="-1.56724">
        <ele>6.74</ele>
        <time>2020-05-27T15:25:19Z</time>
      </trkpt>
      <trkpt lat="47.1202" lon="-1.5671">
        <ele>7.26</ele>
        <time>2020-05-27T15:25:21Z</time>
      </trkpt>
      <trkpt lat="47.12017" lon="-1.56696">
        <ele>7.51</ele>
        <time>2020-05-27T15:25:23Z</time>
      </trkpt>
      <trkpt lat="47.12015" lon="-1.56683">
        <ele>7.76</ele>
        <time>2020-05-27T15:25:25Z</time>
      </trkpt>
      <trkpt lat="47.12012" lon="-1.56667">
        <ele>8.05</ele>
        <time>2020-05-27T15:25:27Z</time>
      </trkpt>
      <trkpt lat="47.12009" lon="-1.56653">
        <ele>7.99</ele>
        <time>2020-05-27T15:25:29Z</time>
      </trkpt>
      <trkpt lat="47.12006" lon="-1.5664">
        <ele>7.44</ele>
        <time>2020-05-27T15:25:31Z</time>
      </trkpt>
      <trkpt lat="47.12003" lon="-1.56626">
        <ele>7.91</ele>
        <time>2020-05-27T15:25:33Z</time>
      </trkpt>
      <trkpt lat="47.12001" lon="-1.56611">
        <ele>8.06</ele>
        <time>2020-05-27T15:25:35Z</time>
      </trkpt>
      <trkpt lat="47.11998" lon="-1.56596">
        <ele>8.28</ele>
        <time>2020-05-27T15:25:37Z</time>
      </trkpt>
      <trkpt lat="47.11995" lon="-1.56582">
        <ele>9</ele>
        <time>2020-05-27T15:25:39Z</time>
      </trkpt>
      <trkpt lat="47.11992" lon="-1.56569">
        <ele>8.98</ele>
        <time>2020-05-27T15:25:41Z</time>
      </trkpt>
      <trkpt lat="47.1199" lon="-1.56555">
        <ele>9.63</ele>
        <time>2020-05-27T15:25:43Z</time>
      </trkpt>
      <trkpt lat="47.11988" lon="-1.5654">
        <ele>9.62</ele>
        <time>2020-05-27T15:25:45Z</time>
      </trkpt>
      <trkpt lat="47.11985" lon="-1.56525">
        <ele>8.99</ele>
        <time>2020-05-27T15:25:47Z</time>
      </trkpt>
      <trkpt lat="47.11981" lon="-1.5651">
        <ele>8.6</ele>
        <time>2020-05-27T15:25:49Z</time>
      </trkpt>
      <trkpt lat="47.11977" lon="-1.56496">
        <ele>8.35</ele>
        <time>2020-05-27T15:25:51Z</time>
      </trkpt>
      <trkpt lat="47.11973" lon="-1.56482">
        <ele>8.55</ele>
        <time>2020-05-27T15:25:53Z</time>
      </trkpt>
      <trkpt lat="47.11968" lon="-1.56465">
        <ele>8.64</ele>
        <time>2020-05-27T15:25:55Z</time>
      </trkpt>
      <trkpt lat="47.11964" lon="-1.56451">
        <ele>8.02</ele>
        <time>2020-05-27T15:25:57Z</time>
      </trkpt>
      <trkpt lat="47.11959" lon="-1.56435">
        <ele>7.74</ele>
        <time>2020-05-27T15:25:59Z</time>
      </trkpt>
      <trkpt lat="47.11955" lon="-1.56418">
        <ele>7.34</ele>
        <time>2020-05-27T15:26:01Z</time>
      </trkpt>
      <trkpt lat="47.11951" lon="-1.56402">
        <ele>7.59</ele>
        <time>2020-05-27T15:26:03Z</time>
      </trkpt>
      <trkpt lat="47.11948" lon="-1.56386">
        <ele>8.06</ele>
        <time>2020-05-27T15:26:05Z</time>
      </trkpt>
      <trkpt lat="47.11944" lon="-1.56371">
        <ele>7.98</ele>
        <time>2020-05-27T15:26:07Z</time>
      </trkpt>
      <trkpt lat="47.1194" lon="-1.56355">
        <ele>7.21</ele>
        <time>2020-05-27T15:26:09Z</time>
      </trkpt>
      <trkpt lat="47.11936" lon="-1.56337">
        <ele>6.85</ele>
        <time>2020-05-27T15:26:11Z</time>
      </trkpt>
      <trkpt lat="47.11931" lon="-1.5632">
        <ele>6.83</ele>
        <time>2020-05-27T15:26:13Z</time>
      </trkpt>
      <trkpt lat="47.11927" lon="-1.56302">
        <ele>7.04</ele>
        <time>2020-05-27T15:26:15Z</time>
      </trkpt>
      <trkpt lat="47.11921" lon="-1.56283">
        <ele>6.34</ele>
        <time>2020-05-27T15:26:17Z</time>
      </trkpt>
      <trkpt lat="47.11917" lon="-1.56267">
        <ele>5.91</ele>
        <time>2020-05-27T15:26:19Z</time>
      </trkpt>
      <trkpt lat="47.11913" lon="-1.5625">
        <ele>5.44</ele>
        <time>2020-05-27T15:26:21Z</time>
      </trkpt>
      <trkpt lat="47.11909" lon="-1.56234">
        <ele>5.81</ele>
        <time>2020-05-27T15:26:23Z</time>
      </trkpt>
      <trkpt lat="47.11905" lon="-1.56218">
        <ele>6.25</ele>
        <time>2020-05-27T15:26:25Z</time>
      </trkpt>
      <trkpt lat="47.119" lon="-1.56202">
        <ele>8.01</ele>
        <time>2020-05-27T15:26:27Z</time>
      </trkpt>
      <trkpt lat="47.11896" lon="-1.56187">
        <ele>8.28</ele>
        <time>2020-05-27T15:26:29Z</time>
      </trkpt>
      <trkpt lat="47.11893" lon="-1.5617">
        <ele>8.29</ele>
        <time>2020-05-27T15:26:31Z</time>
      </trkpt>
      <trkpt lat="47.11889" lon="-1.56154">
        <ele>8.25</ele>
        <time>2020-05-27T15:26:33Z</time>
      </trkpt>
      <trkpt lat="47.11885" lon="-1.56138">
        <ele>8.31</ele>
        <time>2020-05-27T15:26:35Z</time>
      </trkpt>
      <trkpt lat="47.1188" lon="-1.5612">
        <ele>7.63</ele>
        <time>2020-05-27T15:26:37Z</time>
      </trkpt>
      <trkpt lat="47.11876" lon="-1.56104">
        <ele>7.63</ele>
        <time>2020-05-27T15:26:39Z</time>
      </trkpt>
      <trkpt lat="47.11872" lon="-1.5609">
        <ele>9.25</ele>
        <time>2020-05-27T15:26:41Z</time>
      </trkpt>
      <trkpt lat="47.11868" lon="-1.56071">
        <ele>9.56</ele>
        <time>2020-05-27T15:26:43Z</time>
      </trkpt>
      <trkpt lat="47.11865" lon="-1.56053">
        <ele>9.86</ele>
        <time>2020-05-27T15:26:45Z</time>
      </trkpt>
      <trkpt lat="47.11863" lon="-1.5604">
        <ele>10.51</ele>
        <time>2020-05-27T15:26:47Z</time>
      </trkpt>
      <trkpt lat="47.11861" lon="-1.56022">
        <ele>10.74</ele>
        <time>2020-05-27T15:26:49Z</time>
      </trkpt>
      <trkpt lat="47.11859" lon="-1.56004">
        <ele>10.3</ele>
        <time>2020-05-27T15:26:51Z</time>
      </trkpt>
      <trkpt lat="47.11858" lon="-1.55988">
        <ele>10.21</ele>
        <time>2020-05-27T15:26:53Z</time>
      </trkpt>
      <trkpt lat="47.11857" lon="-1.55973">
        <ele>9.93</ele>
        <time>2020-05-27T15:26:55Z</time>
      </trkpt>
      <trkpt lat="47.11856" lon="-1.55959">
        <ele>9.82</ele>
        <time>2020-05-27T15:26:57Z</time>
      </trkpt>
      <trkpt lat="47.11855" lon="-1.55944">
        <ele>11.09</ele>
        <time>2020-05-27T15:26:59Z</time>
      </trkpt>
      <trkpt lat="47.11854" lon="-1.55929">
        <ele>10.93</ele>
        <time>2020-05-27T15:27:01Z</time>
      </trkpt>
      <trkpt lat="47.11853" lon="-1.55914">
        <ele>10.19</ele>
        <time>2020-05-27T15:27:03Z</time>
      </trkpt>
      <trkpt lat="47.11852" lon="-1.55898">
        <ele>10.14</ele>
        <time>2020-05-27T15:27:05Z</time>
      </trkpt>
      <trkpt lat="47.11851" lon="-1.55882">
        <ele>10.94</ele>
        <time>2020-05-27T15:27:07Z</time>
      </trkpt>
      <trkpt lat="47.1185" lon="-1.55869">
        <ele>10.88</ele>
        <time>2020-05-27T15:27:09Z</time>
      </trkpt>
      <trkpt lat="47.11849" lon="-1.55855">
        <ele>10.83</ele>
        <time>2020-05-27T15:27:11Z</time>
      </trkpt>
      <trkpt lat="47.11848" lon="-1.55838">
        <ele>10.46</ele>
        <time>2020-05-27T15:27:13Z</time>
      </trkpt>
      <trkpt lat="47.11846" lon="-1.55823">
        <ele>10.58</ele>
        <time>2020-05-27T15:27:15Z</time>
      </trkpt>
      <trkpt lat="47.11845" lon="-1.55801">
        <ele>10.93</ele>
        <time>2020-05-27T15:27:18Z</time>
      </trkpt>
      <trkpt lat="47.11844" lon="-1.55785">
        <ele>10.92</ele>
        <time>2020-05-27T15:27:20Z</time>
      </trkpt>
      <trkpt lat="47.11843" lon="-1.55769">
        <ele>10.56</ele>
        <time>2020-05-27T15:27:22Z</time>
      </trkpt>
      <trkpt lat="47.11842" lon="-1.55755">
        <ele>10.29</ele>
        <time>2020-05-27T15:27:24Z</time>
      </trkpt>
      <trkpt lat="47.1184" lon="-1.55741">
        <ele>10.56</ele>
        <time>2020-05-27T15:27:26Z</time>
      </trkpt>
      <trkpt lat="47.11839" lon="-1.55726">
        <ele>11.48</ele>
        <time>2020-05-27T15:27:28Z</time>
      </trkpt>
      <trkpt lat="47.11838" lon="-1.5571">
        <ele>11.86</ele>
        <time>2020-05-27T15:27:30Z</time>
      </trkpt>
      <trkpt lat="47.11837" lon="-1.55695">
        <ele>11.88</ele>
        <time>2020-05-27T15:27:32Z</time>
      </trkpt>
      <trkpt lat="47.11835" lon="-1.55678">
        <ele>12.27</ele>
        <time>2020-05-27T15:27:34Z</time>
      </trkpt>
      <trkpt lat="47.11834" lon="-1.55663">
        <ele>12.37</ele>
        <time>2020-05-27T15:27:36Z</time>
      </trkpt>
      <trkpt lat="47.11832" lon="-1.55648">
        <ele>12.81</ele>
        <time>2020-05-27T15:27:38Z</time>
      </trkpt>
      <trkpt lat="47.11831" lon="-1.55633">
        <ele>12.61</ele>
        <time>2020-05-27T15:27:40Z</time>
      </trkpt>
      <trkpt lat="47.1183" lon="-1.55617">
        <ele>12.82</ele>
        <time>2020-05-27T15:27:42Z</time>
      </trkpt>
      <trkpt lat="47.1183" lon="-1.55602">
        <ele>13.12</ele>
        <time>2020-05-27T15:27:44Z</time>
      </trkpt>
      <trkpt lat="47.11829" lon="-1.55586">
        <ele>13.63</ele>
        <time>2020-05-27T15:27:46Z</time>
      </trkpt>
      <trkpt lat="47.11828" lon="-1.55569">
        <ele>12.91</ele>
        <time>2020-05-27T15:27:48Z</time>
      </trkpt>
      <trkpt lat="47.11827" lon="-1.55556">
        <ele>13.47</ele>
        <time>2020-05-27T15:27:50Z</time>
      </trkpt>
      <trkpt lat="47.11826" lon="-1.5554">
        <ele>13.74</ele>
        <time>2020-05-27T15:27:52Z</time>
      </trkpt>
      <trkpt lat="47.11825" lon="-1.55525">
        <ele>13.54</ele>
        <time>2020-05-27T15:27:54Z</time>
      </trkpt>
      <trkpt lat="47.11824" lon="-1.55509">
        <ele>13.46</ele>
        <time>2020-05-27T15:27:56Z</time>
      </trkpt>
      <trkpt lat="47.11824" lon="-1.55494">
        <ele>13.06</ele>
        <time>2020-05-27T15:27:58Z</time>
      </trkpt>
      <trkpt lat="47.11823" lon="-1.55476">
        <ele>12.27</ele>
        <time>2020-05-27T15:28:00Z</time>
      </trkpt>
      <trkpt lat="47.11822" lon="-1.55462">
        <ele>11.78</ele>
        <time>2020-05-27T15:28:02Z</time>
      </trkpt>
      <trkpt lat="47.11821" lon="-1.55441">
        <ele>12</ele>
        <time>2020-05-27T15:28:05Z</time>
      </trkpt>
      <trkpt lat="47.11819" lon="-1.5542">
        <ele>12.15</ele>
        <time>2020-05-27T15:28:08Z</time>
      </trkpt>
      <trkpt lat="47.11818" lon="-1.55407">
        <ele>12.58</ele>
        <time>2020-05-27T15:28:10Z</time>
      </trkpt>
      <trkpt lat="47.11818" lon="-1.55393">
        <ele>13.26</ele>
        <time>2020-05-27T15:28:12Z</time>
      </trkpt>
      <trkpt lat="47.11817" lon="-1.55376">
        <ele>13.61</ele>
        <time>2020-05-27T15:28:14Z</time>
      </trkpt>
      <trkpt lat="47.11816" lon="-1.55362">
        <ele>13.76</ele>
        <time>2020-05-27T15:28:16Z</time>
      </trkpt>
      <trkpt lat="47.11815" lon="-1.55345">
        <ele>13.1</ele>
        <time>2020-05-27T15:28:18Z</time>
      </trkpt>
      <trkpt lat="47.11815" lon="-1.5533">
        <ele>12.75</ele>
        <time>2020-05-27T15:28:20Z</time>
      </trkpt>
      <trkpt lat="47.11815" lon="-1.55316">
        <ele>12.58</ele>
        <time>2020-05-27T15:28:22Z</time>
      </trkpt>
      <trkpt lat="47.11814" lon="-1.553">
        <ele>12.33</ele>
        <time>2020-05-27T15:28:24Z</time>
      </trkpt>
      <trkpt lat="47.11813" lon="-1.55279">
        <ele>12.98</ele>
        <time>2020-05-27T15:28:27Z</time>
      </trkpt>
      <trkpt lat="47.11813" lon="-1.55261">
        <ele>12.48</ele>
        <time>2020-05-27T15:28:29Z</time>
      </trkpt>
      <trkpt lat="47.11812" lon="-1.55246">
        <ele>12.86</ele>
        <time>2020-05-27T15:28:31Z</time>
      </trkpt>
      <trkpt lat="47.11813" lon="-1.55229">
        <ele>14.06</ele>
        <time>2020-05-27T15:28:33Z</time>
      </trkpt>
      <trkpt lat="47.11812" lon="-1.55214">
        <ele>15.1</ele>
        <time>2020-05-27T15:28:35Z</time>
      </trkpt>
      <trkpt lat="47.11812" lon="-1.55199">
        <ele>15.93</ele>
        <time>2020-05-27T15:28:37Z</time>
      </trkpt>
      <trkpt lat="47.11812" lon="-1.55182">
        <ele>16.33</ele>
        <time>2020-05-27T15:28:39Z</time>
      </trkpt>
      <trkpt lat="47.11811" lon="-1.55161">
        <ele>17.11</ele>
        <time>2020-05-27T15:28:42Z</time>
      </trkpt>
      <trkpt lat="47.1181" lon="-1.55144">
        <ele>17.28</ele>
        <time>2020-05-27T15:28:44Z</time>
      </trkpt>
      <trkpt lat="47.11809" lon="-1.55128">
        <ele>16.87</ele>
        <time>2020-05-27T15:28:46Z</time>
      </trkpt>
      <trkpt lat="47.11808" lon="-1.55112">
        <ele>16.24</ele>
        <time>2020-05-27T15:28:48Z</time>
      </trkpt>
      <trkpt lat="47.11806" lon="-1.55097">
        <ele>16.03</ele>
        <time>2020-05-27T15:28:50Z</time>
      </trkpt>
      <trkpt lat="47.11804" lon="-1.55081">
        <ele>15.97</ele>
        <time>2020-05-27T15:28:52Z</time>
      </trkpt>
      <trkpt lat="47.11802" lon="-1.55067">
        <ele>16.83</ele>
        <time>2020-05-27T15:28:54Z</time>
      </trkpt>
      <trkpt lat="47.11799" lon="-1.55051">
        <ele>17.6</ele>
        <time>2020-05-27T15:28:56Z</time>
      </trkpt>
      <trkpt lat="47.11796" lon="-1.55033">
        <ele>18.39</ele>
        <time>2020-05-27T15:28:58Z</time>
      </trkpt>
      <trkpt lat="47.11794" lon="-1.55017">
        <ele>18.33</ele>
        <time>2020-05-27T15:29:00Z</time>
      </trkpt>
      <trkpt lat="47.11791" lon="-1.55003">
        <ele>18.42</ele>
        <time>2020-05-27T15:29:02Z</time>
      </trkpt>
      <trkpt lat="47.11787" lon="-1.54987">
        <ele>17.63</ele>
        <time>2020-05-27T15:29:04Z</time>
      </trkpt>
      <trkpt lat="47.11783" lon="-1.5497">
        <ele>16.94</ele>
        <time>2020-05-27T15:29:06Z</time>
      </trkpt>
      <trkpt lat="47.1178" lon="-1.54955">
        <ele>17.08</ele>
        <time>2020-05-27T15:29:08Z</time>
      </trkpt>
      <trkpt lat="47.11775" lon="-1.54939">
        <ele>16.15</ele>
        <time>2020-05-27T15:29:10Z</time>
      </trkpt>
      <trkpt lat="47.11771" lon="-1.54923">
        <ele>15.67</ele>
        <time>2020-05-27T15:29:12Z</time>
      </trkpt>
      <trkpt lat="47.11768" lon="-1.54909">
        <ele>14.39</ele>
        <time>2020-05-27T15:29:14Z</time>
      </trkpt>
      <trkpt lat="47.11764" lon="-1.54894">
        <ele>12.68</ele>
        <time>2020-05-27T15:29:16Z</time>
      </trkpt>
      <trkpt lat="47.1176" lon="-1.54881">
        <ele>12.02</ele>
        <time>2020-05-27T15:29:18Z</time>
      </trkpt>
      <trkpt lat="47.11755" lon="-1.54866">
        <ele>11</ele>
        <time>2020-05-27T15:29:20Z</time>
      </trkpt>
      <trkpt lat="47.11752" lon="-1.54853">
        <ele>10.97</ele>
        <time>2020-05-27T15:29:22Z</time>
      </trkpt>
      <trkpt lat="47.11748" lon="-1.54839">
        <ele>11.3</ele>
        <time>2020-05-27T15:29:24Z</time>
      </trkpt>
      <trkpt lat="47.11743" lon="-1.54823">
        <ele>9.93</ele>
        <time>2020-05-27T15:29:26Z</time>
      </trkpt>
      <trkpt lat="47.11738" lon="-1.54808">
        <ele>10.09</ele>
        <time>2020-05-27T15:29:28Z</time>
      </trkpt>
      <trkpt lat="47.11732" lon="-1.54793">
        <ele>10.47</ele>
        <time>2020-05-27T15:29:30Z</time>
      </trkpt>
      <trkpt lat="47.11728" lon="-1.5478">
        <ele>11.39</ele>
        <time>2020-05-27T15:29:32Z</time>
      </trkpt>
      <trkpt lat="47.11723" lon="-1.54764">
        <ele>12.73</ele>
        <time>2020-05-27T15:29:34Z</time>
      </trkpt>
      <trkpt lat="47.11719" lon="-1.54747">
        <ele>14.08</ele>
        <time>2020-05-27T15:29:36Z</time>
      </trkpt>
      <trkpt lat="47.11714" lon="-1.54732">
        <ele>14.55</ele>
        <time>2020-05-27T15:29:38Z</time>
      </trkpt>
      <trkpt lat="47.1171" lon="-1.54717">
        <ele>15.26</ele>
        <time>2020-05-27T15:29:40Z</time>
      </trkpt>
      <trkpt lat="47.11706" lon="-1.54705">
        <ele>15.81</ele>
        <time>2020-05-27T15:29:42Z</time>
      </trkpt>
      <trkpt lat="47.11702" lon="-1.5469">
        <ele>16.76</ele>
        <time>2020-05-27T15:29:44Z</time>
      </trkpt>
      <trkpt lat="47.11697" lon="-1.54674">
        <ele>16.74</ele>
        <time>2020-05-27T15:29:46Z</time>
      </trkpt>
      <trkpt lat="47.11694" lon="-1.54661">
        <ele>16.73</ele>
        <time>2020-05-27T15:29:48Z</time>
      </trkpt>
      <trkpt lat="47.1169" lon="-1.54648">
        <ele>17.9</ele>
        <time>2020-05-27T15:29:50Z</time>
      </trkpt>
      <trkpt lat="47.11686" lon="-1.54635">
        <ele>19.11</ele>
        <time>2020-05-27T15:29:52Z</time>
      </trkpt>
      <trkpt lat="47.11681" lon="-1.54621">
        <ele>19.38</ele>
        <time>2020-05-27T15:29:54Z</time>
      </trkpt>
      <trkpt lat="47.11676" lon="-1.54606">
        <ele>19.55</ele>
        <time>2020-05-27T15:29:56Z</time>
      </trkpt>
      <trkpt lat="47.1167" lon="-1.5459">
        <ele>18.81</ele>
        <time>2020-05-27T15:29:58Z</time>
      </trkpt>
      <trkpt lat="47.11664" lon="-1.54571">
        <ele>17.89</ele>
        <time>2020-05-27T15:30:00Z</time>
      </trkpt>
      <trkpt lat="47.11661" lon="-1.54556">
        <ele>17.06</ele>
        <time>2020-05-27T15:30:02Z</time>
      </trkpt>
      <trkpt lat="47.11655" lon="-1.5454">
        <ele>16.83</ele>
        <time>2020-05-27T15:30:04Z</time>
      </trkpt>
      <trkpt lat="47.1165" lon="-1.54526">
        <ele>16.44</ele>
        <time>2020-05-27T15:30:06Z</time>
      </trkpt>
      <trkpt lat="47.11644" lon="-1.54509">
        <ele>16.66</ele>
        <time>2020-05-27T15:30:08Z</time>
      </trkpt>
      <trkpt lat="47.11639" lon="-1.54495">
        <ele>16.93</ele>
        <time>2020-05-27T15:30:10Z</time>
      </trkpt>
      <trkpt lat="47.11634" lon="-1.54478">
        <ele>17</ele>
        <time>2020-05-27T15:30:12Z</time>
      </trkpt>
      <trkpt lat="47.11628" lon="-1.5446">
        <ele>16.75</ele>
        <time>2020-05-27T15:30:14Z</time>
      </trkpt>
      <trkpt lat="47.11623" lon="-1.54446">
        <ele>17.05</ele>
        <time>2020-05-27T15:30:16Z</time>
      </trkpt>
      <trkpt lat="47.11618" lon="-1.54431">
        <ele>17.23</ele>
        <time>2020-05-27T15:30:18Z</time>
      </trkpt>
      <trkpt lat="47.11612" lon="-1.54415">
        <ele>17.72</ele>
        <time>2020-05-27T15:30:20Z</time>
      </trkpt>
      <trkpt lat="47.11606" lon="-1.54397">
        <ele>18.17</ele>
        <time>2020-05-27T15:30:22Z</time>
      </trkpt>
      <trkpt lat="47.116" lon="-1.54381">
        <ele>18.96</ele>
        <time>2020-05-27T15:30:24Z</time>
      </trkpt>
      <trkpt lat="47.11595" lon="-1.54367">
        <ele>19.84</ele>
        <time>2020-05-27T15:30:26Z</time>
      </trkpt>
      <trkpt lat="47.1159" lon="-1.54351">
        <ele>20.62</ele>
        <time>2020-05-27T15:30:28Z</time>
      </trkpt>
      <trkpt lat="47.11584" lon="-1.54334">
        <ele>19.59</ele>
        <time>2020-05-27T15:30:30Z</time>
      </trkpt>
      <trkpt lat="47.11579" lon="-1.5432">
        <ele>19.33</ele>
        <time>2020-05-27T15:30:32Z</time>
      </trkpt>
      <trkpt lat="47.11574" lon="-1.54304">
        <ele>19.11</ele>
        <time>2020-05-27T15:30:34Z</time>
      </trkpt>
      <trkpt lat="47.11569" lon="-1.54291">
        <ele>19.3</ele>
        <time>2020-05-27T15:30:36Z</time>
      </trkpt>
      <trkpt lat="47.11564" lon="-1.54277">
        <ele>19.95</ele>
        <time>2020-05-27T15:30:38Z</time>
      </trkpt>
      <trkpt lat="47.11561" lon="-1.54264">
        <ele>19.58</ele>
        <time>2020-05-27T15:30:41Z</time>
      </trkpt>
      <trkpt lat="47.11568" lon="-1.54255">
        <ele>19.4</ele>
        <time>2020-05-27T15:30:43Z</time>
      </trkpt>
      <trkpt lat="47.11581" lon="-1.54245">
        <ele>19.91</ele>
        <time>2020-05-27T15:30:45Z</time>
      </trkpt>
      <trkpt lat="47.11594" lon="-1.54236">
        <ele>20.18</ele>
        <time>2020-05-27T15:30:47Z</time>
      </trkpt>
      <trkpt lat="47.11605" lon="-1.54228">
        <ele>21.69</ele>
        <time>2020-05-27T15:30:49Z</time>
      </trkpt>
      <trkpt lat="47.11614" lon="-1.54222">
        <ele>21.79</ele>
        <time>2020-05-27T15:30:51Z</time>
      </trkpt>
      <trkpt lat="47.11624" lon="-1.54214">
        <ele>21.97</ele>
        <time>2020-05-27T15:30:53Z</time>
      </trkpt>
      <trkpt lat="47.11632" lon="-1.54207">
        <ele>23.15</ele>
        <time>2020-05-27T15:30:55Z</time>
      </trkpt>
      <trkpt lat="47.11639" lon="-1.54198">
        <ele>22.85</ele>
        <time>2020-05-27T15:30:57Z</time>
      </trkpt>
      <trkpt lat="47.11644" lon="-1.54185">
        <ele>21.2</ele>
        <time>2020-05-27T15:30:59Z</time>
      </trkpt>
      <trkpt lat="47.11647" lon="-1.5417">
        <ele>19.88</ele>
        <time>2020-05-27T15:31:01Z</time>
      </trkpt>
      <trkpt lat="47.11651" lon="-1.54154">
        <ele>18.75</ele>
        <time>2020-05-27T15:31:03Z</time>
      </trkpt>
      <trkpt lat="47.1166" lon="-1.54147">
        <ele>18.5</ele>
        <time>2020-05-27T15:31:05Z</time>
      </trkpt>
      <trkpt lat="47.11669" lon="-1.54143">
        <ele>19.8</ele>
        <time>2020-05-27T15:31:07Z</time>
      </trkpt>
      <trkpt lat="47.11679" lon="-1.54136">
        <ele>21.01</ele>
        <time>2020-05-27T15:31:09Z</time>
      </trkpt>
      <trkpt lat="47.1169" lon="-1.54127">
        <ele>21.5</ele>
        <time>2020-05-27T15:31:11Z</time>
      </trkpt>
      <trkpt lat="47.11697" lon="-1.54118">
        <ele>22.65</ele>
        <time>2020-05-27T15:31:13Z</time>
      </trkpt>
      <trkpt lat="47.11705" lon="-1.54105">
        <ele>23.4</ele>
        <time>2020-05-27T15:31:15Z</time>
      </trkpt>
      <trkpt lat="47.1171" lon="-1.54092">
        <ele>23.84</ele>
        <time>2020-05-27T15:31:17Z</time>
      </trkpt>
      <trkpt lat="47.11715" lon="-1.54078">
        <ele>24</ele>
        <time>2020-05-27T15:31:19Z</time>
      </trkpt>
      <trkpt lat="47.1172" lon="-1.54062">
        <ele>23.22</ele>
        <time>2020-05-27T15:31:21Z</time>
      </trkpt>
      <trkpt lat="47.11727" lon="-1.54044">
        <ele>23.52</ele>
        <time>2020-05-27T15:31:24Z</time>
      </trkpt>
      <trkpt lat="47.11731" lon="-1.54031">
        <ele>24.35</ele>
        <time>2020-05-27T15:31:26Z</time>
      </trkpt>
      <trkpt lat="47.11736" lon="-1.54018">
        <ele>24.13</ele>
        <time>2020-05-27T15:31:28Z</time>
      </trkpt>
      <trkpt lat="47.11742" lon="-1.54004">
        <ele>23.51</ele>
        <time>2020-05-27T15:31:30Z</time>
      </trkpt>
      <trkpt lat="47.11747" lon="-1.53991">
        <ele>23.16</ele>
        <time>2020-05-27T15:31:32Z</time>
      </trkpt>
      <trkpt lat="47.11752" lon="-1.53979">
        <ele>23.34</ele>
        <time>2020-05-27T15:31:34Z</time>
      </trkpt>
      <trkpt lat="47.11758" lon="-1.53964">
        <ele>22.95</ele>
        <time>2020-05-27T15:31:36Z</time>
      </trkpt>
      <trkpt lat="47.11764" lon="-1.5395">
        <ele>22.16</ele>
        <time>2020-05-27T15:31:38Z</time>
      </trkpt>
      <trkpt lat="47.11769" lon="-1.53936">
        <ele>22.36</ele>
        <time>2020-05-27T15:31:40Z</time>
      </trkpt>
      <trkpt lat="47.11776" lon="-1.5392">
        <ele>22.3</ele>
        <time>2020-05-27T15:31:42Z</time>
      </trkpt>
      <trkpt lat="47.11782" lon="-1.53906">
        <ele>22.91</ele>
        <time>2020-05-27T15:31:44Z</time>
      </trkpt>
      <trkpt lat="47.1179" lon="-1.53889">
        <ele>23.04</ele>
        <time>2020-05-27T15:31:46Z</time>
      </trkpt>
      <trkpt lat="47.11797" lon="-1.53875">
        <ele>21.77</ele>
        <time>2020-05-27T15:31:48Z</time>
      </trkpt>
      <trkpt lat="47.11805" lon="-1.5386">
        <ele>21.63</ele>
        <time>2020-05-27T15:31:50Z</time>
      </trkpt>
      <trkpt lat="47.11814" lon="-1.53845">
        <ele>21.87</ele>
        <time>2020-05-27T15:31:52Z</time>
      </trkpt>
      <trkpt lat="47.11824" lon="-1.5383">
        <ele>21.7</ele>
        <time>2020-05-27T15:31:54Z</time>
      </trkpt>
      <trkpt lat="47.11833" lon="-1.53815">
        <ele>21.11</ele>
        <time>2020-05-27T15:31:56Z</time>
      </trkpt>
      <trkpt lat="47.11841" lon="-1.53799">
        <ele>20.51</ele>
        <time>2020-05-27T15:31:58Z</time>
      </trkpt>
      <trkpt lat="47.11849" lon="-1.53783">
        <ele>19.52</ele>
        <time>2020-05-27T15:32:00Z</time>
      </trkpt>
      <trkpt lat="47.11855" lon="-1.53769">
        <ele>19.02</ele>
        <time>2020-05-27T15:32:02Z</time>
      </trkpt>
      <trkpt lat="47.11859" lon="-1.53756">
        <ele>19.54</ele>
        <time>2020-05-27T15:32:08Z</time>
      </trkpt>
      <trkpt lat="47.11865" lon="-1.53739">
        <ele>18.29</ele>
        <time>2020-05-27T15:32:11Z</time>
      </trkpt>
      <trkpt lat="47.11871" lon="-1.53724">
        <ele>16.35</ele>
        <time>2020-05-27T15:32:13Z</time>
      </trkpt>
      <trkpt lat="47.11876" lon="-1.5371">
        <ele>15.52</ele>
        <time>2020-05-27T15:32:15Z</time>
      </trkpt>
      <trkpt lat="47.11882" lon="-1.53694">
        <ele>14.78</ele>
        <time>2020-05-27T15:32:17Z</time>
      </trkpt>
      <trkpt lat="47.11889" lon="-1.53678">
        <ele>15.35</ele>
        <time>2020-05-27T15:32:19Z</time>
      </trkpt>
      <trkpt lat="47.11896" lon="-1.53664">
        <ele>16.26</ele>
        <time>2020-05-27T15:32:21Z</time>
      </trkpt>
      <trkpt lat="47.11903" lon="-1.53651">
        <ele>17.3</ele>
        <time>2020-05-27T15:32:23Z</time>
      </trkpt>
      <trkpt lat="47.11911" lon="-1.53638">
        <ele>17.43</ele>
        <time>2020-05-27T15:32:25Z</time>
      </trkpt>
      <trkpt lat="47.11918" lon="-1.53626">
        <ele>16.42</ele>
        <time>2020-05-27T15:32:27Z</time>
      </trkpt>
      <trkpt lat="47.11927" lon="-1.53611">
        <ele>15.17</ele>
        <time>2020-05-27T15:32:29Z</time>
      </trkpt>
      <trkpt lat="47.11933" lon="-1.53599">
        <ele>14</ele>
        <time>2020-05-27T15:32:31Z</time>
      </trkpt>
      <trkpt lat="47.11941" lon="-1.53585">
        <ele>13.37</ele>
        <time>2020-05-27T15:32:33Z</time>
      </trkpt>
      <trkpt lat="47.11947" lon="-1.53572">
        <ele>12.29</ele>
        <time>2020-05-27T15:32:35Z</time>
      </trkpt>
      <trkpt lat="47.11956" lon="-1.53557">
        <ele>12.44</ele>
        <time>2020-05-27T15:32:37Z</time>
      </trkpt>
      <trkpt lat="47.11963" lon="-1.53544">
        <ele>11.73</ele>
        <time>2020-05-27T15:32:39Z</time>
      </trkpt>
      <trkpt lat="47.11971" lon="-1.53529">
        <ele>10.71</ele>
        <time>2020-05-27T15:32:41Z</time>
      </trkpt>
      <trkpt lat="47.11976" lon="-1.53517">
        <ele>10.37</ele>
        <time>2020-05-27T15:32:43Z</time>
      </trkpt>
      <trkpt lat="47.11984" lon="-1.53503">
        <ele>10.75</ele>
        <time>2020-05-27T15:32:45Z</time>
      </trkpt>
      <trkpt lat="47.11992" lon="-1.53489">
        <ele>11.22</ele>
        <time>2020-05-27T15:32:47Z</time>
      </trkpt>
      <trkpt lat="47.11999" lon="-1.53475">
        <ele>11.24</ele>
        <time>2020-05-27T15:32:49Z</time>
      </trkpt>
      <trkpt lat="47.12006" lon="-1.53461">
        <ele>11.21</ele>
        <time>2020-05-27T15:32:51Z</time>
      </trkpt>
      <trkpt lat="47.12014" lon="-1.53446">
        <ele>11.51</ele>
        <time>2020-05-27T15:32:53Z</time>
      </trkpt>
      <trkpt lat="47.12021" lon="-1.53433">
        <ele>12.13</ele>
        <time>2020-05-27T15:32:55Z</time>
      </trkpt>
      <trkpt lat="47.12029" lon="-1.53418">
        <ele>13.29</ele>
        <time>2020-05-27T15:32:57Z</time>
      </trkpt>
      <trkpt lat="47.12037" lon="-1.53402">
        <ele>13.34</ele>
        <time>2020-05-27T15:32:59Z</time>
      </trkpt>
      <trkpt lat="47.12045" lon="-1.53388">
        <ele>13.19</ele>
        <time>2020-05-27T15:33:01Z</time>
      </trkpt>
      <trkpt lat="47.12054" lon="-1.53373">
        <ele>13.18</ele>
        <time>2020-05-27T15:33:03Z</time>
      </trkpt>
      <trkpt lat="47.12061" lon="-1.53359">
        <ele>13.55</ele>
        <time>2020-05-27T15:33:05Z</time>
      </trkpt>
      <trkpt lat="47.1207" lon="-1.53343">
        <ele>12.39</ele>
        <time>2020-05-27T15:33:07Z</time>
      </trkpt>
      <trkpt lat="47.12078" lon="-1.53328">
        <ele>10.81</ele>
        <time>2020-05-27T15:33:09Z</time>
      </trkpt>
      <trkpt lat="47.12085" lon="-1.53315">
        <ele>9.41</ele>
        <time>2020-05-27T15:33:11Z</time>
      </trkpt>
      <trkpt lat="47.12093" lon="-1.53301">
        <ele>8.12</ele>
        <time>2020-05-27T15:33:13Z</time>
      </trkpt>
      <trkpt lat="47.12101" lon="-1.53284">
        <ele>7.4</ele>
        <time>2020-05-27T15:33:15Z</time>
      </trkpt>
      <trkpt lat="47.12108" lon="-1.53269">
        <ele>7.12</ele>
        <time>2020-05-27T15:33:17Z</time>
      </trkpt>
      <trkpt lat="47.12116" lon="-1.53254">
        <ele>8.15</ele>
        <time>2020-05-27T15:33:19Z</time>
      </trkpt>
      <trkpt lat="47.12124" lon="-1.53239">
        <ele>9.27</ele>
        <time>2020-05-27T15:33:21Z</time>
      </trkpt>
      <trkpt lat="47.12132" lon="-1.53224">
        <ele>9.52</ele>
        <time>2020-05-27T15:33:23Z</time>
      </trkpt>
      <trkpt lat="47.1214" lon="-1.53208">
        <ele>9.28</ele>
        <time>2020-05-27T15:33:25Z</time>
      </trkpt>
      <trkpt lat="47.12146" lon="-1.53196">
        <ele>8.22</ele>
        <time>2020-05-27T15:33:27Z</time>
      </trkpt>
      <trkpt lat="47.12155" lon="-1.53182">
        <ele>7.58</ele>
        <time>2020-05-27T15:33:29Z</time>
      </trkpt>
      <trkpt lat="47.12163" lon="-1.53168">
        <ele>7.27</ele>
        <time>2020-05-27T15:33:31Z</time>
      </trkpt>
      <trkpt lat="47.1217" lon="-1.53154">
        <ele>6.91</ele>
        <time>2020-05-27T15:33:33Z</time>
      </trkpt>
      <trkpt lat="47.12178" lon="-1.53139">
        <ele>6.99</ele>
        <time>2020-05-27T15:33:35Z</time>
      </trkpt>
      <trkpt lat="47.12184" lon="-1.53127">
        <ele>7.27</ele>
        <time>2020-05-27T15:33:37Z</time>
      </trkpt>
      <trkpt lat="47.12191" lon="-1.53115">
        <ele>7.67</ele>
        <time>2020-05-27T15:33:39Z</time>
      </trkpt>
      <trkpt lat="47.12197" lon="-1.53102">
        <ele>8.77</ele>
        <time>2020-05-27T15:33:41Z</time>
      </trkpt>
      <trkpt lat="47.12206" lon="-1.53086">
        <ele>9.5</ele>
        <time>2020-05-27T15:33:43Z</time>
      </trkpt>
      <trkpt lat="47.12212" lon="-1.53073">
        <ele>9.97</ele>
        <time>2020-05-27T15:33:45Z</time>
      </trkpt>
      <trkpt lat="47.12218" lon="-1.53061">
        <ele>9.73</ele>
        <time>2020-05-27T15:33:47Z</time>
      </trkpt>
      <trkpt lat="47.12225" lon="-1.53048">
        <ele>8.29</ele>
        <time>2020-05-27T15:33:49Z</time>
      </trkpt>
      <trkpt lat="47.12233" lon="-1.53034">
        <ele>7.36</ele>
        <time>2020-05-27T15:33:51Z</time>
      </trkpt>
      <trkpt lat="47.1224" lon="-1.53022">
        <ele>7.25</ele>
        <time>2020-05-27T15:33:53Z</time>
      </trkpt>
      <trkpt lat="47.12247" lon="-1.53009">
        <ele>8.14</ele>
        <time>2020-05-27T15:33:55Z</time>
      </trkpt>
      <trkpt lat="47.12254" lon="-1.52998">
        <ele>8.73</ele>
        <time>2020-05-27T15:33:57Z</time>
      </trkpt>
      <trkpt lat="47.1226" lon="-1.52985">
        <ele>8.79</ele>
        <time>2020-05-27T15:33:59Z</time>
      </trkpt>
      <trkpt lat="47.12267" lon="-1.52973">
        <ele>8.27</ele>
        <time>2020-05-27T15:34:01Z</time>
      </trkpt>
      <trkpt lat="47.12273" lon="-1.52961">
        <ele>8.48</ele>
        <time>2020-05-27T15:34:03Z</time>
      </trkpt>
      <trkpt lat="47.12279" lon="-1.52949">
        <ele>9.6</ele>
        <time>2020-05-27T15:34:05Z</time>
      </trkpt>
      <trkpt lat="47.12285" lon="-1.52937">
        <ele>10.9</ele>
        <time>2020-05-27T15:34:07Z</time>
      </trkpt>
      <trkpt lat="47.12291" lon="-1.52924">
        <ele>11.37</ele>
        <time>2020-05-27T15:34:09Z</time>
      </trkpt>
      <trkpt lat="47.12301" lon="-1.52908">
        <ele>10.07</ele>
        <time>2020-05-27T15:34:12Z</time>
      </trkpt>
      <trkpt lat="47.12307" lon="-1.52896">
        <ele>9.64</ele>
        <time>2020-05-27T15:34:14Z</time>
      </trkpt>
      <trkpt lat="47.12314" lon="-1.52885">
        <ele>9.35</ele>
        <time>2020-05-27T15:34:16Z</time>
      </trkpt>
      <trkpt lat="47.12322" lon="-1.52873">
        <ele>10.33</ele>
        <time>2020-05-27T15:34:18Z</time>
      </trkpt>
      <trkpt lat="47.12328" lon="-1.52864">
        <ele>12.03</ele>
        <time>2020-05-27T15:34:20Z</time>
      </trkpt>
      <trkpt lat="47.12338" lon="-1.5285">
        <ele>15.31</ele>
        <time>2020-05-27T15:34:23Z</time>
      </trkpt>
      <trkpt lat="47.1235" lon="-1.52835">
        <ele>15.85</ele>
        <time>2020-05-27T15:34:26Z</time>
      </trkpt>
      <trkpt lat="47.12358" lon="-1.52828">
        <ele>14.59</ele>
        <time>2020-05-27T15:34:28Z</time>
      </trkpt>
      <trkpt lat="47.12367" lon="-1.52819">
        <ele>13.7</ele>
        <time>2020-05-27T15:34:30Z</time>
      </trkpt>
      <trkpt lat="47.12376" lon="-1.52811">
        <ele>13.45</ele>
        <time>2020-05-27T15:34:32Z</time>
      </trkpt>
      <trkpt lat="47.12384" lon="-1.52803">
        <ele>13.42</ele>
        <time>2020-05-27T15:34:34Z</time>
      </trkpt>
      <trkpt lat="47.12396" lon="-1.52792">
        <ele>14.77</ele>
        <time>2020-05-27T15:34:37Z</time>
      </trkpt>
      <trkpt lat="47.12406" lon="-1.52782">
        <ele>14.96</ele>
        <time>2020-05-27T15:34:41Z</time>
      </trkpt>
      <trkpt lat="47.12417" lon="-1.52771">
        <ele>15.53</ele>
        <time>2020-05-27T15:34:42Z</time>
      </trkpt>
      <trkpt lat="47.12425" lon="-1.52762">
        <ele>15.37</ele>
        <time>2020-05-27T15:34:45Z</time>
      </trkpt>
      <trkpt lat="47.12434" lon="-1.52754">
        <ele>14.74</ele>
        <time>2020-05-27T15:34:47Z</time>
      </trkpt>
      <trkpt lat="47.12446" lon="-1.52745">
        <ele>15.3</ele>
        <time>2020-05-27T15:34:50Z</time>
      </trkpt>
      <trkpt lat="47.12456" lon="-1.5274">
        <ele>16.13</ele>
        <time>2020-05-27T15:34:52Z</time>
      </trkpt>
      <trkpt lat="47.12465" lon="-1.52736">
        <ele>16.55</ele>
        <time>2020-05-27T15:34:54Z</time>
      </trkpt>
      <trkpt lat="47.12478" lon="-1.52733">
        <ele>16.14</ele>
        <time>2020-05-27T15:34:57Z</time>
      </trkpt>
      <trkpt lat="47.12489" lon="-1.52731">
        <ele>16.82</ele>
        <time>2020-05-27T15:34:59Z</time>
      </trkpt>
      <trkpt lat="47.12498" lon="-1.52729">
        <ele>18.05</ele>
        <time>2020-05-27T15:35:01Z</time>
      </trkpt>
      <trkpt lat="47.12507" lon="-1.52722">
        <ele>17.92</ele>
        <time>2020-05-27T15:35:03Z</time>
      </trkpt>
      <trkpt lat="47.12506" lon="-1.52705">
        <ele>17.58</ele>
        <time>2020-05-27T15:35:06Z</time>
      </trkpt>
      <trkpt lat="47.12493" lon="-1.52699">
        <ele>18.74</ele>
        <time>2020-05-27T15:35:09Z</time>
      </trkpt>
      <trkpt lat="47.12481" lon="-1.52696">
        <ele>19.91</ele>
        <time>2020-05-27T15:35:11Z</time>
      </trkpt>
      <trkpt lat="47.12471" lon="-1.52694">
        <ele>20.77</ele>
        <time>2020-05-27T15:35:13Z</time>
      </trkpt>
      <trkpt lat="47.12459" lon="-1.52691">
        <ele>21.32</ele>
        <time>2020-05-27T15:35:15Z</time>
      </trkpt>
      <trkpt lat="47.12449" lon="-1.5269">
        <ele>22.25</ele>
        <time>2020-05-27T15:35:17Z</time>
      </trkpt>
      <trkpt lat="47.12439" lon="-1.52687">
        <ele>22.59</ele>
        <time>2020-05-27T15:35:19Z</time>
      </trkpt>
      <trkpt lat="47.12428" lon="-1.52685">
        <ele>23.08</ele>
        <time>2020-05-27T15:35:21Z</time>
      </trkpt>
      <trkpt lat="47.12417" lon="-1.52683">
        <ele>23.55</ele>
        <time>2020-05-27T15:35:23Z</time>
      </trkpt>
      <trkpt lat="47.12406" lon="-1.52681">
        <ele>24.55</ele>
        <time>2020-05-27T15:35:25Z</time>
      </trkpt>
      <trkpt lat="47.12393" lon="-1.52679">
        <ele>24.85</ele>
        <time>2020-05-27T15:35:27Z</time>
      </trkpt>
      <trkpt lat="47.12377" lon="-1.52675">
        <ele>23.56</ele>
        <time>2020-05-27T15:35:29Z</time>
      </trkpt>
      <trkpt lat="47.12361" lon="-1.52672">
        <ele>22.38</ele>
        <time>2020-05-27T15:35:31Z</time>
      </trkpt>
      <trkpt lat="47.12345" lon="-1.52668">
        <ele>21.42</ele>
        <time>2020-05-27T15:35:33Z</time>
      </trkpt>
      <trkpt lat="47.12336" lon="-1.52665">
        <ele>20.77</ele>
        <time>2020-05-27T15:35:34Z</time>
      </trkpt>
      <trkpt lat="47.12327" lon="-1.52662">
        <ele>20.36</ele>
        <time>2020-05-27T15:35:35Z</time>
      </trkpt>
      <trkpt lat="47.1231" lon="-1.52656">
        <ele>19.16</ele>
        <time>2020-05-27T15:35:37Z</time>
      </trkpt>
      <trkpt lat="47.12301" lon="-1.52653">
        <ele>18.5</ele>
        <time>2020-05-27T15:35:38Z</time>
      </trkpt>
      <trkpt lat="47.12292" lon="-1.52648">
        <ele>17.9</ele>
        <time>2020-05-27T15:35:39Z</time>
      </trkpt>
      <trkpt lat="47.12283" lon="-1.52644">
        <ele>17.23</ele>
        <time>2020-05-27T15:35:40Z</time>
      </trkpt>
      <trkpt lat="47.12274" lon="-1.52639">
        <ele>16.72</ele>
        <time>2020-05-27T15:35:41Z</time>
      </trkpt>
      <trkpt lat="47.12259" lon="-1.5263">
        <ele>15.94</ele>
        <time>2020-05-27T15:35:43Z</time>
      </trkpt>
      <trkpt lat="47.12244" lon="-1.52622">
        <ele>16.22</ele>
        <time>2020-05-27T15:35:45Z</time>
      </trkpt>
      <trkpt lat="47.12229" lon="-1.52613">
        <ele>16.86</ele>
        <time>2020-05-27T15:35:47Z</time>
      </trkpt>
      <trkpt lat="47.12214" lon="-1.52606">
        <ele>16.65</ele>
        <time>2020-05-27T15:35:49Z</time>
      </trkpt>
      <trkpt lat="47.12198" lon="-1.526">
        <ele>17.11</ele>
        <time>2020-05-27T15:35:51Z</time>
      </trkpt>
      <trkpt lat="47.12183" lon="-1.52595">
        <ele>16.84</ele>
        <time>2020-05-27T15:35:53Z</time>
      </trkpt>
      <trkpt lat="47.12169" lon="-1.52592">
        <ele>15.82</ele>
        <time>2020-05-27T15:35:55Z</time>
      </trkpt>
      <trkpt lat="47.12154" lon="-1.5259">
        <ele>15.15</ele>
        <time>2020-05-27T15:35:57Z</time>
      </trkpt>
      <trkpt lat="47.12139" lon="-1.5259">
        <ele>14.71</ele>
        <time>2020-05-27T15:35:59Z</time>
      </trkpt>
      <trkpt lat="47.12123" lon="-1.5259">
        <ele>15.07</ele>
        <time>2020-05-27T15:36:01Z</time>
      </trkpt>
      <trkpt lat="47.12106" lon="-1.52591">
        <ele>15.5</ele>
        <time>2020-05-27T15:36:03Z</time>
      </trkpt>
      <trkpt lat="47.12091" lon="-1.5259">
        <ele>14.43</ele>
        <time>2020-05-27T15:36:05Z</time>
      </trkpt>
      <trkpt lat="47.12074" lon="-1.52591">
        <ele>14.28</ele>
        <time>2020-05-27T15:36:07Z</time>
      </trkpt>
      <trkpt lat="47.12061" lon="-1.52592">
        <ele>14.24</ele>
        <time>2020-05-27T15:36:09Z</time>
      </trkpt>
      <trkpt lat="47.12046" lon="-1.52593">
        <ele>13.89</ele>
        <time>2020-05-27T15:36:11Z</time>
      </trkpt>
      <trkpt lat="47.12031" lon="-1.52593">
        <ele>13.71</ele>
        <time>2020-05-27T15:36:13Z</time>
      </trkpt>
      <trkpt lat="47.12017" lon="-1.52593">
        <ele>14.09</ele>
        <time>2020-05-27T15:36:15Z</time>
      </trkpt>
      <trkpt lat="47.12002" lon="-1.5259">
        <ele>13.94</ele>
        <time>2020-05-27T15:36:17Z</time>
      </trkpt>
      <trkpt lat="47.11987" lon="-1.52585">
        <ele>13.59</ele>
        <time>2020-05-27T15:36:19Z</time>
      </trkpt>
      <trkpt lat="47.11973" lon="-1.52578">
        <ele>13.26</ele>
        <time>2020-05-27T15:36:21Z</time>
      </trkpt>
      <trkpt lat="47.11957" lon="-1.5257">
        <ele>12.5</ele>
        <time>2020-05-27T15:36:23Z</time>
      </trkpt>
      <trkpt lat="47.11942" lon="-1.52561">
        <ele>12.54</ele>
        <time>2020-05-27T15:36:25Z</time>
      </trkpt>
      <trkpt lat="47.11927" lon="-1.52551">
        <ele>12.17</ele>
        <time>2020-05-27T15:36:27Z</time>
      </trkpt>
      <trkpt lat="47.11918" lon="-1.52545">
        <ele>12.06</ele>
        <time>2020-05-27T15:36:28Z</time>
      </trkpt>
      <trkpt lat="47.11904" lon="-1.52533">
        <ele>11.04</ele>
        <time>2020-05-27T15:36:30Z</time>
      </trkpt>
      <trkpt lat="47.1189" lon="-1.5252">
        <ele>10.73</ele>
        <time>2020-05-27T15:36:32Z</time>
      </trkpt>
      <trkpt lat="47.11879" lon="-1.52507">
        <ele>11.06</ele>
        <time>2020-05-27T15:36:34Z</time>
      </trkpt>
      <trkpt lat="47.1187" lon="-1.52493">
        <ele>12.28</ele>
        <time>2020-05-27T15:36:36Z</time>
      </trkpt>
      <trkpt lat="47.11862" lon="-1.52482">
        <ele>12.98</ele>
        <time>2020-05-27T15:36:38Z</time>
      </trkpt>
      <trkpt lat="47.11854" lon="-1.52471">
        <ele>12.13</ele>
        <time>2020-05-27T15:36:40Z</time>
      </trkpt>
      <trkpt lat="47.11846" lon="-1.52461">
        <ele>11.13</ele>
        <time>2020-05-27T15:36:42Z</time>
      </trkpt>
      <trkpt lat="47.11836" lon="-1.52446">
        <ele>11.49</ele>
        <time>2020-05-27T15:36:45Z</time>
      </trkpt>
      <trkpt lat="47.11827" lon="-1.52434">
        <ele>11.59</ele>
        <time>2020-05-27T15:36:47Z</time>
      </trkpt>
      <trkpt lat="47.11817" lon="-1.52421">
        <ele>12.22</ele>
        <time>2020-05-27T15:36:50Z</time>
      </trkpt>
      <trkpt lat="47.11808" lon="-1.52409">
        <ele>12.53</ele>
        <time>2020-05-27T15:36:52Z</time>
      </trkpt>
      <trkpt lat="47.11801" lon="-1.52399">
        <ele>13.59</ele>
        <time>2020-05-27T15:36:54Z</time>
      </trkpt>
      <trkpt lat="47.11794" lon="-1.52389">
        <ele>13.49</ele>
        <time>2020-05-27T15:36:56Z</time>
      </trkpt>
      <trkpt lat="47.11785" lon="-1.52377">
        <ele>13.86</ele>
        <time>2020-05-27T15:36:58Z</time>
      </trkpt>
      <trkpt lat="47.11775" lon="-1.52364">
        <ele>14.96</ele>
        <time>2020-05-27T15:37:01Z</time>
      </trkpt>
      <trkpt lat="47.11767" lon="-1.52354">
        <ele>15.35</ele>
        <time>2020-05-27T15:37:03Z</time>
      </trkpt>
      <trkpt lat="47.11759" lon="-1.52344">
        <ele>16.03</ele>
        <time>2020-05-27T15:37:05Z</time>
      </trkpt>
      <trkpt lat="47.11751" lon="-1.52333">
        <ele>16.94</ele>
        <time>2020-05-27T15:37:07Z</time>
      </trkpt>
      <trkpt lat="47.11741" lon="-1.52321">
        <ele>17.39</ele>
        <time>2020-05-27T15:37:10Z</time>
      </trkpt>
      <trkpt lat="47.11734" lon="-1.52312">
        <ele>17.17</ele>
        <time>2020-05-27T15:37:12Z</time>
      </trkpt>
      <trkpt lat="47.11727" lon="-1.52303">
        <ele>16.18</ele>
        <time>2020-05-27T15:37:14Z</time>
      </trkpt>
      <trkpt lat="47.11718" lon="-1.52293">
        <ele>16.33</ele>
        <time>2020-05-27T15:37:16Z</time>
      </trkpt>
      <trkpt lat="47.1171" lon="-1.52287">
        <ele>17.26</ele>
        <time>2020-05-27T15:37:18Z</time>
      </trkpt>
      <trkpt lat="47.117" lon="-1.5228">
        <ele>18.46</ele>
        <time>2020-05-27T15:37:20Z</time>
      </trkpt>
      <trkpt lat="47.1169" lon="-1.52275">
        <ele>19.74</ele>
        <time>2020-05-27T15:37:22Z</time>
      </trkpt>
      <trkpt lat="47.1168" lon="-1.52269">
        <ele>19.61</ele>
        <time>2020-05-27T15:37:24Z</time>
      </trkpt>
      <trkpt lat="47.11666" lon="-1.52261">
        <ele>18.42</ele>
        <time>2020-05-27T15:37:26Z</time>
      </trkpt>
      <trkpt lat="47.11652" lon="-1.52253">
        <ele>16.77</ele>
        <time>2020-05-27T15:37:28Z</time>
      </trkpt>
      <trkpt lat="47.11636" lon="-1.52244">
        <ele>15.15</ele>
        <time>2020-05-27T15:37:30Z</time>
      </trkpt>
      <trkpt lat="47.11622" lon="-1.52236">
        <ele>14.5</ele>
        <time>2020-05-27T15:37:32Z</time>
      </trkpt>
      <trkpt lat="47.11609" lon="-1.52229">
        <ele>14</ele>
        <time>2020-05-27T15:37:34Z</time>
      </trkpt>
      <trkpt lat="47.11597" lon="-1.5222">
        <ele>13.13</ele>
        <time>2020-05-27T15:37:36Z</time>
      </trkpt>
      <trkpt lat="47.11585" lon="-1.5221">
        <ele>12.77</ele>
        <time>2020-05-27T15:37:38Z</time>
      </trkpt>
      <trkpt lat="47.11573" lon="-1.52196">
        <ele>12.01</ele>
        <time>2020-05-27T15:37:40Z</time>
      </trkpt>
      <trkpt lat="47.11563" lon="-1.52182">
        <ele>11.31</ele>
        <time>2020-05-27T15:37:42Z</time>
      </trkpt>
      <trkpt lat="47.11553" lon="-1.52168">
        <ele>11.06</ele>
        <time>2020-05-27T15:37:44Z</time>
      </trkpt>
      <trkpt lat="47.11545" lon="-1.52153">
        <ele>10.66</ele>
        <time>2020-05-27T15:37:46Z</time>
      </trkpt>
      <trkpt lat="47.11535" lon="-1.52135">
        <ele>10.32</ele>
        <time>2020-05-27T15:37:48Z</time>
      </trkpt>
      <trkpt lat="47.11527" lon="-1.52118">
        <ele>10.11</ele>
        <time>2020-05-27T15:37:50Z</time>
      </trkpt>
      <trkpt lat="47.1152" lon="-1.52103">
        <ele>10.08</ele>
        <time>2020-05-27T15:37:52Z</time>
      </trkpt>
      <trkpt lat="47.11512" lon="-1.52085">
        <ele>9.59</ele>
        <time>2020-05-27T15:37:54Z</time>
      </trkpt>
      <trkpt lat="47.11503" lon="-1.5207">
        <ele>9.15</ele>
        <time>2020-05-27T15:37:56Z</time>
      </trkpt>
      <trkpt lat="47.11495" lon="-1.52055">
        <ele>8.92</ele>
        <time>2020-05-27T15:37:58Z</time>
      </trkpt>
      <trkpt lat="47.11486" lon="-1.52037">
        <ele>8.95</ele>
        <time>2020-05-27T15:38:00Z</time>
      </trkpt>
      <trkpt lat="47.11478" lon="-1.52022">
        <ele>8.87</ele>
        <time>2020-05-27T15:38:02Z</time>
      </trkpt>
      <trkpt lat="47.11469" lon="-1.52007">
        <ele>9.01</ele>
        <time>2020-05-27T15:38:04Z</time>
      </trkpt>
      <trkpt lat="47.11461" lon="-1.51992">
        <ele>8.39</ele>
        <time>2020-05-27T15:38:06Z</time>
      </trkpt>
      <trkpt lat="47.11451" lon="-1.51975">
        <ele>7.92</ele>
        <time>2020-05-27T15:38:08Z</time>
      </trkpt>
      <trkpt lat="47.11442" lon="-1.51961">
        <ele>8.34</ele>
        <time>2020-05-27T15:38:10Z</time>
      </trkpt>
      <trkpt lat="47.11433" lon="-1.51944">
        <ele>8.55</ele>
        <time>2020-05-27T15:38:12Z</time>
      </trkpt>
      <trkpt lat="47.11425" lon="-1.51927">
        <ele>8.89</ele>
        <time>2020-05-27T15:38:14Z</time>
      </trkpt>
      <trkpt lat="47.11416" lon="-1.51913">
        <ele>8.28</ele>
        <time>2020-05-27T15:38:16Z</time>
      </trkpt>
      <trkpt lat="47.11408" lon="-1.51899">
        <ele>7.77</ele>
        <time>2020-05-27T15:38:18Z</time>
      </trkpt>
      <trkpt lat="47.114" lon="-1.51883">
        <ele>7.65</ele>
        <time>2020-05-27T15:38:20Z</time>
      </trkpt>
      <trkpt lat="47.11391" lon="-1.51869">
        <ele>7.33</ele>
        <time>2020-05-27T15:38:22Z</time>
      </trkpt>
      <trkpt lat="47.11383" lon="-1.51853">
        <ele>6.56</ele>
        <time>2020-05-27T15:38:24Z</time>
      </trkpt>
      <trkpt lat="47.11375" lon="-1.51839">
        <ele>6.52</ele>
        <time>2020-05-27T15:38:26Z</time>
      </trkpt>
      <trkpt lat="47.11366" lon="-1.51823">
        <ele>6.56</ele>
        <time>2020-05-27T15:38:28Z</time>
      </trkpt>
      <trkpt lat="47.11358" lon="-1.51809">
        <ele>6.04</ele>
        <time>2020-05-27T15:38:30Z</time>
      </trkpt>
      <trkpt lat="47.11349" lon="-1.51796">
        <ele>5.75</ele>
        <time>2020-05-27T15:38:32Z</time>
      </trkpt>
      <trkpt lat="47.11339" lon="-1.51784">
        <ele>5.47</ele>
        <time>2020-05-27T15:38:34Z</time>
      </trkpt>
      <trkpt lat="47.11328" lon="-1.51773">
        <ele>6.42</ele>
        <time>2020-05-27T15:38:36Z</time>
      </trkpt>
      <trkpt lat="47.11317" lon="-1.51765">
        <ele>7.6</ele>
        <time>2020-05-27T15:38:38Z</time>
      </trkpt>
      <trkpt lat="47.11305" lon="-1.51756">
        <ele>8.48</ele>
        <time>2020-05-27T15:38:40Z</time>
      </trkpt>
      <trkpt lat="47.11296" lon="-1.51747">
        <ele>8.24</ele>
        <time>2020-05-27T15:38:42Z</time>
      </trkpt>
      <trkpt lat="47.11285" lon="-1.51738">
        <ele>8.85</ele>
        <time>2020-05-27T15:38:44Z</time>
      </trkpt>
      <trkpt lat="47.11275" lon="-1.51729">
        <ele>9.03</ele>
        <time>2020-05-27T15:38:46Z</time>
      </trkpt>
      <trkpt lat="47.11263" lon="-1.5172">
        <ele>8.28</ele>
        <time>2020-05-27T15:38:48Z</time>
      </trkpt>
      <trkpt lat="47.11253" lon="-1.51712">
        <ele>8.51</ele>
        <time>2020-05-27T15:38:50Z</time>
      </trkpt>
      <trkpt lat="47.11242" lon="-1.51703">
        <ele>8.05</ele>
        <time>2020-05-27T15:38:52Z</time>
      </trkpt>
      <trkpt lat="47.1123" lon="-1.51693">
        <ele>8.98</ele>
        <time>2020-05-27T15:38:55Z</time>
      </trkpt>
      <trkpt lat="47.1122" lon="-1.51685">
        <ele>8.76</ele>
        <time>2020-05-27T15:38:57Z</time>
      </trkpt>
      <trkpt lat="47.1121" lon="-1.51675">
        <ele>9</ele>
        <time>2020-05-27T15:38:59Z</time>
      </trkpt>
      <trkpt lat="47.112" lon="-1.51666">
        <ele>9.26</ele>
        <time>2020-05-27T15:39:01Z</time>
      </trkpt>
      <trkpt lat="47.1119" lon="-1.51658">
        <ele>11.54</ele>
        <time>2020-05-27T15:39:03Z</time>
      </trkpt>
      <trkpt lat="47.11181" lon="-1.51648">
        <ele>12.36</ele>
        <time>2020-05-27T15:39:05Z</time>
      </trkpt>
      <trkpt lat="47.11174" lon="-1.51638">
        <ele>12.89</ele>
        <time>2020-05-27T15:39:07Z</time>
      </trkpt>
      <trkpt lat="47.11167" lon="-1.51626">
        <ele>12.45</ele>
        <time>2020-05-27T15:39:09Z</time>
      </trkpt>
      <trkpt lat="47.11158" lon="-1.51612">
        <ele>12.63</ele>
        <time>2020-05-27T15:39:12Z</time>
      </trkpt>
      <trkpt lat="47.1115" lon="-1.516">
        <ele>12.42</ele>
        <time>2020-05-27T15:39:14Z</time>
      </trkpt>
      <trkpt lat="47.11144" lon="-1.51589">
        <ele>11.99</ele>
        <time>2020-05-27T15:39:16Z</time>
      </trkpt>
      <trkpt lat="47.11138" lon="-1.51578">
        <ele>12.21</ele>
        <time>2020-05-27T15:39:18Z</time>
      </trkpt>
      <trkpt lat="47.11131" lon="-1.51566">
        <ele>13.88</ele>
        <time>2020-05-27T15:39:20Z</time>
      </trkpt>
      <trkpt lat="47.11122" lon="-1.51552">
        <ele>16.14</ele>
        <time>2020-05-27T15:39:22Z</time>
      </trkpt>
      <trkpt lat="47.11115" lon="-1.51541">
        <ele>17.61</ele>
        <time>2020-05-27T15:39:24Z</time>
      </trkpt>
      <trkpt lat="47.11108" lon="-1.51529">
        <ele>18.18</ele>
        <time>2020-05-27T15:39:26Z</time>
      </trkpt>
      <trkpt lat="47.111" lon="-1.51517">
        <ele>18.26</ele>
        <time>2020-05-27T15:39:28Z</time>
      </trkpt>
      <trkpt lat="47.1109" lon="-1.51502">
        <ele>18.08</ele>
        <time>2020-05-27T15:39:31Z</time>
      </trkpt>
      <trkpt lat="47.11083" lon="-1.51493">
        <ele>17.84</ele>
        <time>2020-05-27T15:39:33Z</time>
      </trkpt>
      <trkpt lat="47.11074" lon="-1.51483">
        <ele>17.93</ele>
        <time>2020-05-27T15:39:35Z</time>
      </trkpt>
      <trkpt lat="47.11065" lon="-1.51472">
        <ele>17.56</ele>
        <time>2020-05-27T15:39:37Z</time>
      </trkpt>
      <trkpt lat="47.11055" lon="-1.51462">
        <ele>17.21</ele>
        <time>2020-05-27T15:39:39Z</time>
      </trkpt>
      <trkpt lat="47.11047" lon="-1.51454">
        <ele>16.66</ele>
        <time>2020-05-27T15:39:41Z</time>
      </trkpt>
      <trkpt lat="47.11039" lon="-1.51446">
        <ele>17.62</ele>
        <time>2020-05-27T15:39:43Z</time>
      </trkpt>
      <trkpt lat="47.1103" lon="-1.51437">
        <ele>18.33</ele>
        <time>2020-05-27T15:39:45Z</time>
      </trkpt>
      <trkpt lat="47.1102" lon="-1.51428">
        <ele>19.27</ele>
        <time>2020-05-27T15:39:47Z</time>
      </trkpt>
      <trkpt lat="47.11009" lon="-1.51419">
        <ele>20.23</ele>
        <time>2020-05-27T15:39:49Z</time>
      </trkpt>
      <trkpt lat="47.11001" lon="-1.51411">
        <ele>20.51</ele>
        <time>2020-05-27T15:39:51Z</time>
      </trkpt>
      <trkpt lat="47.10993" lon="-1.51404">
        <ele>20.65</ele>
        <time>2020-05-27T15:39:53Z</time>
      </trkpt>
      <trkpt lat="47.10984" lon="-1.51394">
        <ele>20.61</ele>
        <time>2020-05-27T15:39:55Z</time>
      </trkpt>
      <trkpt lat="47.10974" lon="-1.51385">
        <ele>19.4</ele>
        <time>2020-05-27T15:39:57Z</time>
      </trkpt>
      <trkpt lat="47.10965" lon="-1.51376">
        <ele>18.07</ele>
        <time>2020-05-27T15:39:59Z</time>
      </trkpt>
      <trkpt lat="47.10956" lon="-1.51368">
        <ele>17.65</ele>
        <time>2020-05-27T15:40:01Z</time>
      </trkpt>
      <trkpt lat="47.10945" lon="-1.51359">
        <ele>18</ele>
        <time>2020-05-27T15:40:03Z</time>
      </trkpt>
      <trkpt lat="47.10934" lon="-1.51349">
        <ele>17.4</ele>
        <time>2020-05-27T15:40:05Z</time>
      </trkpt>
      <trkpt lat="47.10924" lon="-1.51339">
        <ele>16.58</ele>
        <time>2020-05-27T15:40:07Z</time>
      </trkpt>
      <trkpt lat="47.10915" lon="-1.5133">
        <ele>16.75</ele>
        <time>2020-05-27T15:40:09Z</time>
      </trkpt>
      <trkpt lat="47.10907" lon="-1.51321">
        <ele>17.9</ele>
        <time>2020-05-27T15:40:11Z</time>
      </trkpt>
      <trkpt lat="47.10896" lon="-1.51312">
        <ele>17.71</ele>
        <time>2020-05-27T15:40:13Z</time>
      </trkpt>
      <trkpt lat="47.10887" lon="-1.51303">
        <ele>17.87</ele>
        <time>2020-05-27T15:40:15Z</time>
      </trkpt>
      <trkpt lat="47.10877" lon="-1.51293">
        <ele>18.01</ele>
        <time>2020-05-27T15:40:17Z</time>
      </trkpt>
      <trkpt lat="47.10868" lon="-1.51284">
        <ele>18.73</ele>
        <time>2020-05-27T15:40:19Z</time>
      </trkpt>
      <trkpt lat="47.10858" lon="-1.51275">
        <ele>19.22</ele>
        <time>2020-05-27T15:40:21Z</time>
      </trkpt>
      <trkpt lat="47.10848" lon="-1.51266">
        <ele>19.78</ele>
        <time>2020-05-27T15:40:23Z</time>
      </trkpt>
      <trkpt lat="47.10839" lon="-1.51257">
        <ele>20.15</ele>
        <time>2020-05-27T15:40:25Z</time>
      </trkpt>
      <trkpt lat="47.10828" lon="-1.51247">
        <ele>19.43</ele>
        <time>2020-05-27T15:40:27Z</time>
      </trkpt>
      <trkpt lat="47.10816" lon="-1.51236">
        <ele>18.79</ele>
        <time>2020-05-27T15:40:29Z</time>
      </trkpt>
      <trkpt lat="47.10806" lon="-1.51226">
        <ele>18.59</ele>
        <time>2020-05-27T15:40:31Z</time>
      </trkpt>
      <trkpt lat="47.10796" lon="-1.51215">
        <ele>18.18</ele>
        <time>2020-05-27T15:40:33Z</time>
      </trkpt>
      <trkpt lat="47.10787" lon="-1.51207">
        <ele>18.76</ele>
        <time>2020-05-27T15:40:35Z</time>
      </trkpt>
      <trkpt lat="47.10778" lon="-1.51197">
        <ele>18.74</ele>
        <time>2020-05-27T15:40:37Z</time>
      </trkpt>
      <trkpt lat="47.10767" lon="-1.51188">
        <ele>18.8</ele>
        <time>2020-05-27T15:40:39Z</time>
      </trkpt>
      <trkpt lat="47.10756" lon="-1.51177">
        <ele>18.55</ele>
        <time>2020-05-27T15:40:41Z</time>
      </trkpt>
      <trkpt lat="47.10746" lon="-1.51167">
        <ele>18.37</ele>
        <time>2020-05-27T15:40:43Z</time>
      </trkpt>
      <trkpt lat="47.10735" lon="-1.51157">
        <ele>17.7</ele>
        <time>2020-05-27T15:40:45Z</time>
      </trkpt>
      <trkpt lat="47.10725" lon="-1.51147">
        <ele>17.12</ele>
        <time>2020-05-27T15:40:47Z</time>
      </trkpt>
      <trkpt lat="47.10714" lon="-1.51136">
        <ele>17.56</ele>
        <time>2020-05-27T15:40:49Z</time>
      </trkpt>
      <trkpt lat="47.10703" lon="-1.51126">
        <ele>17.81</ele>
        <time>2020-05-27T15:40:51Z</time>
      </trkpt>
      <trkpt lat="47.10694" lon="-1.51116">
        <ele>18.4</ele>
        <time>2020-05-27T15:40:53Z</time>
      </trkpt>
      <trkpt lat="47.10685" lon="-1.51102">
        <ele>18.15</ele>
        <time>2020-05-27T15:40:55Z</time>
      </trkpt>
      <trkpt lat="47.10678" lon="-1.51086">
        <ele>18.3</ele>
        <time>2020-05-27T15:40:57Z</time>
      </trkpt>
      <trkpt lat="47.10671" lon="-1.51068">
        <ele>17.77</ele>
        <time>2020-05-27T15:40:59Z</time>
      </trkpt>
      <trkpt lat="47.10665" lon="-1.5105">
        <ele>18.14</ele>
        <time>2020-05-27T15:41:01Z</time>
      </trkpt>
      <trkpt lat="47.10658" lon="-1.5103">
        <ele>18.21</ele>
        <time>2020-05-27T15:41:03Z</time>
      </trkpt>
      <trkpt lat="47.10652" lon="-1.51011">
        <ele>17.41</ele>
        <time>2020-05-27T15:41:05Z</time>
      </trkpt>
      <trkpt lat="47.10644" lon="-1.50993">
        <ele>16.35</ele>
        <time>2020-05-27T15:41:07Z</time>
      </trkpt>
      <trkpt lat="47.10635" lon="-1.50979">
        <ele>15.46</ele>
        <time>2020-05-27T15:41:09Z</time>
      </trkpt>
      <trkpt lat="47.10622" lon="-1.50963">
        <ele>13.91</ele>
        <time>2020-05-27T15:41:11Z</time>
      </trkpt>
      <trkpt lat="47.10609" lon="-1.50949">
        <ele>13.69</ele>
        <time>2020-05-27T15:41:13Z</time>
      </trkpt>
      <trkpt lat="47.10596" lon="-1.50936">
        <ele>12.82</ele>
        <time>2020-05-27T15:41:15Z</time>
      </trkpt>
      <trkpt lat="47.10584" lon="-1.50923">
        <ele>12.34</ele>
        <time>2020-05-27T15:41:17Z</time>
      </trkpt>
      <trkpt lat="47.10571" lon="-1.5091">
        <ele>11.99</ele>
        <time>2020-05-27T15:41:19Z</time>
      </trkpt>
      <trkpt lat="47.10558" lon="-1.50898">
        <ele>11.86</ele>
        <time>2020-05-27T15:41:21Z</time>
      </trkpt>
      <trkpt lat="47.10546" lon="-1.50885">
        <ele>11.6</ele>
        <time>2020-05-27T15:41:23Z</time>
      </trkpt>
      <trkpt lat="47.10535" lon="-1.50872">
        <ele>12.11</ele>
        <time>2020-05-27T15:41:25Z</time>
      </trkpt>
      <trkpt lat="47.10525" lon="-1.50859">
        <ele>12.99</ele>
        <time>2020-05-27T15:41:27Z</time>
      </trkpt>
      <trkpt lat="47.10515" lon="-1.50845">
        <ele>14.15</ele>
        <time>2020-05-27T15:41:29Z</time>
      </trkpt>
      <trkpt lat="47.10506" lon="-1.50829">
        <ele>14.43</ele>
        <time>2020-05-27T15:41:31Z</time>
      </trkpt>
      <trkpt lat="47.10495" lon="-1.5081">
        <ele>13.98</ele>
        <time>2020-05-27T15:41:33Z</time>
      </trkpt>
      <trkpt lat="47.10486" lon="-1.50793">
        <ele>13.42</ele>
        <time>2020-05-27T15:41:35Z</time>
      </trkpt>
      <trkpt lat="47.10477" lon="-1.50776">
        <ele>12.05</ele>
        <time>2020-05-27T15:41:37Z</time>
      </trkpt>
      <trkpt lat="47.10468" lon="-1.50757">
        <ele>11.28</ele>
        <time>2020-05-27T15:41:39Z</time>
      </trkpt>
      <trkpt lat="47.10462" lon="-1.50739">
        <ele>10.89</ele>
        <time>2020-05-27T15:41:41Z</time>
      </trkpt>
      <trkpt lat="47.10458" lon="-1.50721">
        <ele>10.56</ele>
        <time>2020-05-27T15:41:43Z</time>
      </trkpt>
      <trkpt lat="47.10453" lon="-1.50702">
        <ele>10.48</ele>
        <time>2020-05-27T15:41:45Z</time>
      </trkpt>
      <trkpt lat="47.10449" lon="-1.50685">
        <ele>10.76</ele>
        <time>2020-05-27T15:41:47Z</time>
      </trkpt>
      <trkpt lat="47.10445" lon="-1.50668">
        <ele>11.18</ele>
        <time>2020-05-27T15:41:49Z</time>
      </trkpt>
      <trkpt lat="47.10439" lon="-1.50651">
        <ele>11.61</ele>
        <time>2020-05-27T15:41:51Z</time>
      </trkpt>
      <trkpt lat="47.1043" lon="-1.50638">
        <ele>12.32</ele>
        <time>2020-05-27T15:41:53Z</time>
      </trkpt>
      <trkpt lat="47.1042" lon="-1.50626">
        <ele>11.83</ele>
        <time>2020-05-27T15:41:55Z</time>
      </trkpt>
      <trkpt lat="47.10409" lon="-1.50615">
        <ele>10.72</ele>
        <time>2020-05-27T15:41:57Z</time>
      </trkpt>
      <trkpt lat="47.10398" lon="-1.50607">
        <ele>10.92</ele>
        <time>2020-05-27T15:41:59Z</time>
      </trkpt>
      <trkpt lat="47.10387" lon="-1.50597">
        <ele>11.09</ele>
        <time>2020-05-27T15:42:01Z</time>
      </trkpt>
      <trkpt lat="47.10377" lon="-1.50587">
        <ele>10.21</ele>
        <time>2020-05-27T15:42:03Z</time>
      </trkpt>
      <trkpt lat="47.10369" lon="-1.50577">
        <ele>9.69</ele>
        <time>2020-05-27T15:42:05Z</time>
      </trkpt>
      <trkpt lat="47.10361" lon="-1.50565">
        <ele>9.8</ele>
        <time>2020-05-27T15:42:07Z</time>
      </trkpt>
      <trkpt lat="47.10352" lon="-1.50552">
        <ele>10.02</ele>
        <time>2020-05-27T15:42:09Z</time>
      </trkpt>
      <trkpt lat="47.10344" lon="-1.50538">
        <ele>10.13</ele>
        <time>2020-05-27T15:42:11Z</time>
      </trkpt>
      <trkpt lat="47.10335" lon="-1.50522">
        <ele>9.66</ele>
        <time>2020-05-27T15:42:13Z</time>
      </trkpt>
      <trkpt lat="47.10328" lon="-1.50509">
        <ele>9.48</ele>
        <time>2020-05-27T15:42:15Z</time>
      </trkpt>
      <trkpt lat="47.1032" lon="-1.50496">
        <ele>8.82</ele>
        <time>2020-05-27T15:42:17Z</time>
      </trkpt>
      <trkpt lat="47.10312" lon="-1.50485">
        <ele>9.38</ele>
        <time>2020-05-27T15:42:19Z</time>
      </trkpt>
      <trkpt lat="47.10304" lon="-1.50471">
        <ele>9.19</ele>
        <time>2020-05-27T15:42:21Z</time>
      </trkpt>
      <trkpt lat="47.10295" lon="-1.50457">
        <ele>9.6</ele>
        <time>2020-05-27T15:42:23Z</time>
      </trkpt>
      <trkpt lat="47.10288" lon="-1.50446">
        <ele>9.09</ele>
        <time>2020-05-27T15:42:25Z</time>
      </trkpt>
      <trkpt lat="47.10282" lon="-1.50435">
        <ele>9.14</ele>
        <time>2020-05-27T15:42:27Z</time>
      </trkpt>
      <trkpt lat="47.10273" lon="-1.5042">
        <ele>8.27</ele>
        <time>2020-05-27T15:42:29Z</time>
      </trkpt>
      <trkpt lat="47.10265" lon="-1.50407">
        <ele>8.09</ele>
        <time>2020-05-27T15:42:31Z</time>
      </trkpt>
      <trkpt lat="47.10257" lon="-1.50394">
        <ele>9.34</ele>
        <time>2020-05-27T15:42:33Z</time>
      </trkpt>
      <trkpt lat="47.10249" lon="-1.5038">
        <ele>9.89</ele>
        <time>2020-05-27T15:42:35Z</time>
      </trkpt>
      <trkpt lat="47.10241" lon="-1.50367">
        <ele>10.39</ele>
        <time>2020-05-27T15:42:37Z</time>
      </trkpt>
      <trkpt lat="47.10235" lon="-1.50356">
        <ele>10.04</ele>
        <time>2020-05-27T15:42:39Z</time>
      </trkpt>
      <trkpt lat="47.10227" lon="-1.50342">
        <ele>9.19</ele>
        <time>2020-05-27T15:42:41Z</time>
      </trkpt>
      <trkpt lat="47.1022" lon="-1.50331">
        <ele>9.77</ele>
        <time>2020-05-27T15:42:43Z</time>
      </trkpt>
      <trkpt lat="47.10212" lon="-1.50321">
        <ele>10.5</ele>
        <time>2020-05-27T15:42:45Z</time>
      </trkpt>
      <trkpt lat="47.10201" lon="-1.50306">
        <ele>12.68</ele>
        <time>2020-05-27T15:42:48Z</time>
      </trkpt>
      <trkpt lat="47.10192" lon="-1.50296">
        <ele>14.05</ele>
        <time>2020-05-27T15:42:50Z</time>
      </trkpt>
      <trkpt lat="47.10184" lon="-1.50288">
        <ele>14.48</ele>
        <time>2020-05-27T15:42:52Z</time>
      </trkpt>
      <trkpt lat="47.10175" lon="-1.5028">
        <ele>14.79</ele>
        <time>2020-05-27T15:42:54Z</time>
      </trkpt>
      <trkpt lat="47.10164" lon="-1.50273">
        <ele>14.61</ele>
        <time>2020-05-27T15:42:56Z</time>
      </trkpt>
      <trkpt lat="47.10152" lon="-1.50265">
        <ele>14.17</ele>
        <time>2020-05-27T15:42:58Z</time>
      </trkpt>
      <trkpt lat="47.10143" lon="-1.50259">
        <ele>14.46</ele>
        <time>2020-05-27T15:43:00Z</time>
      </trkpt>
      <trkpt lat="47.10134" lon="-1.50253">
        <ele>15.64</ele>
        <time>2020-05-27T15:43:02Z</time>
      </trkpt>
      <trkpt lat="47.10125" lon="-1.50247">
        <ele>16.46</ele>
        <time>2020-05-27T15:43:04Z</time>
      </trkpt>
      <trkpt lat="47.10114" lon="-1.50239">
        <ele>15.93</ele>
        <time>2020-05-27T15:43:06Z</time>
      </trkpt>
      <trkpt lat="47.10106" lon="-1.50233">
        <ele>16.27</ele>
        <time>2020-05-27T15:43:08Z</time>
      </trkpt>
      <trkpt lat="47.10097" lon="-1.50225">
        <ele>16.77</ele>
        <time>2020-05-27T15:43:10Z</time>
      </trkpt>
      <trkpt lat="47.1009" lon="-1.50214">
        <ele>16.4</ele>
        <time>2020-05-27T15:43:12Z</time>
      </trkpt>
      <trkpt lat="47.10085" lon="-1.502">
        <ele>16.19</ele>
        <time>2020-05-27T15:43:14Z</time>
      </trkpt>
      <trkpt lat="47.10081" lon="-1.50186">
        <ele>17.34</ele>
        <time>2020-05-27T15:43:16Z</time>
      </trkpt>
      <trkpt lat="47.1008" lon="-1.50171">
        <ele>17.73</ele>
        <time>2020-05-27T15:43:18Z</time>
      </trkpt>
      <trkpt lat="47.1008" lon="-1.50154">
        <ele>17.91</ele>
        <time>2020-05-27T15:43:20Z</time>
      </trkpt>
      <trkpt lat="47.10079" lon="-1.50137">
        <ele>18.24</ele>
        <time>2020-05-27T15:43:22Z</time>
      </trkpt>
      <trkpt lat="47.10079" lon="-1.50122">
        <ele>17.76</ele>
        <time>2020-05-27T15:43:24Z</time>
      </trkpt>
      <trkpt lat="47.10078" lon="-1.50107">
        <ele>17.32</ele>
        <time>2020-05-27T15:43:26Z</time>
      </trkpt>
      <trkpt lat="47.10078" lon="-1.50093">
        <ele>16.92</ele>
        <time>2020-05-27T15:43:28Z</time>
      </trkpt>
      <trkpt lat="47.10077" lon="-1.50079">
        <ele>17.1</ele>
        <time>2020-05-27T15:43:30Z</time>
      </trkpt>
      <trkpt lat="47.10077" lon="-1.50064">
        <ele>17.63</ele>
        <time>2020-05-27T15:43:32Z</time>
      </trkpt>
      <trkpt lat="47.10076" lon="-1.50044">
        <ele>19.83</ele>
        <time>2020-05-27T15:43:35Z</time>
      </trkpt>
      <trkpt lat="47.10076" lon="-1.50023">
        <ele>21.32</ele>
        <time>2020-05-27T15:43:38Z</time>
      </trkpt>
      <trkpt lat="47.10076" lon="-1.50008">
        <ele>21.2</ele>
        <time>2020-05-27T15:43:40Z</time>
      </trkpt>
      <trkpt lat="47.10076" lon="-1.49994">
        <ele>21.1</ele>
        <time>2020-05-27T15:43:42Z</time>
      </trkpt>
      <trkpt lat="47.10076" lon="-1.49977">
        <ele>21.43</ele>
        <time>2020-05-27T15:43:44Z</time>
      </trkpt>
      <trkpt lat="47.10076" lon="-1.49961">
        <ele>21.01</ele>
        <time>2020-05-27T15:43:46Z</time>
      </trkpt>
      <trkpt lat="47.10075" lon="-1.49948">
        <ele>21.56</ele>
        <time>2020-05-27T15:43:48Z</time>
      </trkpt>
      <trkpt lat="47.10074" lon="-1.49932">
        <ele>21.07</ele>
        <time>2020-05-27T15:43:50Z</time>
      </trkpt>
      <trkpt lat="47.10072" lon="-1.49915">
        <ele>20.31</ele>
        <time>2020-05-27T15:43:52Z</time>
      </trkpt>
      <trkpt lat="47.10069" lon="-1.49899">
        <ele>20.44</ele>
        <time>2020-05-27T15:43:54Z</time>
      </trkpt>
      <trkpt lat="47.10065" lon="-1.49882">
        <ele>19.73</ele>
        <time>2020-05-27T15:43:56Z</time>
      </trkpt>
      <trkpt lat="47.1006" lon="-1.49865">
        <ele>19.26</ele>
        <time>2020-05-27T15:43:58Z</time>
      </trkpt>
      <trkpt lat="47.10054" lon="-1.4985">
        <ele>18.83</ele>
        <time>2020-05-27T15:44:00Z</time>
      </trkpt>
      <trkpt lat="47.10047" lon="-1.49834">
        <ele>18.57</ele>
        <time>2020-05-27T15:44:02Z</time>
      </trkpt>
      <trkpt lat="47.1004" lon="-1.49818">
        <ele>18.4</ele>
        <time>2020-05-27T15:44:04Z</time>
      </trkpt>
      <trkpt lat="47.10033" lon="-1.49803">
        <ele>18.41</ele>
        <time>2020-05-27T15:44:06Z</time>
      </trkpt>
      <trkpt lat="47.10026" lon="-1.49787">
        <ele>18.22</ele>
        <time>2020-05-27T15:44:08Z</time>
      </trkpt>
      <trkpt lat="47.10019" lon="-1.49771">
        <ele>18.11</ele>
        <time>2020-05-27T15:44:10Z</time>
      </trkpt>
      <trkpt lat="47.10012" lon="-1.49756">
        <ele>17.98</ele>
        <time>2020-05-27T15:44:12Z</time>
      </trkpt>
      <trkpt lat="47.10006" lon="-1.49741">
        <ele>17.52</ele>
        <time>2020-05-27T15:44:14Z</time>
      </trkpt>
      <trkpt lat="47.09999" lon="-1.49726">
        <ele>17.73</ele>
        <time>2020-05-27T15:44:16Z</time>
      </trkpt>
      <trkpt lat="47.09992" lon="-1.49711">
        <ele>18.36</ele>
        <time>2020-05-27T15:44:18Z</time>
      </trkpt>
      <trkpt lat="47.09984" lon="-1.49694">
        <ele>18.9</ele>
        <time>2020-05-27T15:44:20Z</time>
      </trkpt>
      <trkpt lat="47.09977" lon="-1.4968">
        <ele>19.34</ele>
        <time>2020-05-27T15:44:22Z</time>
      </trkpt>
      <trkpt lat="47.0997" lon="-1.49666">
        <ele>19.42</ele>
        <time>2020-05-27T15:44:24Z</time>
      </trkpt>
      <trkpt lat="47.09965" lon="-1.49652">
        <ele>18.68</ele>
        <time>2020-05-27T15:44:26Z</time>
      </trkpt>
      <trkpt lat="47.09957" lon="-1.49636">
        <ele>19.29</ele>
        <time>2020-05-27T15:44:28Z</time>
      </trkpt>
      <trkpt lat="47.0995" lon="-1.49621">
        <ele>20.66</ele>
        <time>2020-05-27T15:44:30Z</time>
      </trkpt>
      <trkpt lat="47.09944" lon="-1.49606">
        <ele>22.26</ele>
        <time>2020-05-27T15:44:32Z</time>
      </trkpt>
      <trkpt lat="47.09938" lon="-1.49592">
        <ele>23.42</ele>
        <time>2020-05-27T15:44:34Z</time>
      </trkpt>
      <trkpt lat="47.09932" lon="-1.49578">
        <ele>23.53</ele>
        <time>2020-05-27T15:44:36Z</time>
      </trkpt>
      <trkpt lat="47.09927" lon="-1.49564">
        <ele>22.97</ele>
        <time>2020-05-27T15:44:38Z</time>
      </trkpt>
      <trkpt lat="47.09921" lon="-1.49549">
        <ele>22.04</ele>
        <time>2020-05-27T15:44:40Z</time>
      </trkpt>
      <trkpt lat="47.09915" lon="-1.49536">
        <ele>21.41</ele>
        <time>2020-05-27T15:44:42Z</time>
      </trkpt>
      <trkpt lat="47.0991" lon="-1.49523">
        <ele>21.28</ele>
        <time>2020-05-27T15:44:43Z</time>
      </trkpt>
      <trkpt lat="47.09904" lon="-1.49509">
        <ele>21.65</ele>
        <time>2020-05-27T15:44:45Z</time>
      </trkpt>
      <trkpt lat="47.09898" lon="-1.49495">
        <ele>21.71</ele>
        <time>2020-05-27T15:44:47Z</time>
      </trkpt>
      <trkpt lat="47.09892" lon="-1.49481">
        <ele>22.13</ele>
        <time>2020-05-27T15:44:49Z</time>
      </trkpt>
      <trkpt lat="47.09887" lon="-1.49466">
        <ele>22.34</ele>
        <time>2020-05-27T15:44:51Z</time>
      </trkpt>
      <trkpt lat="47.09881" lon="-1.49451">
        <ele>22.23</ele>
        <time>2020-05-27T15:44:53Z</time>
      </trkpt>
      <trkpt lat="47.09876" lon="-1.49438">
        <ele>22.31</ele>
        <time>2020-05-27T15:44:55Z</time>
      </trkpt>
      <trkpt lat="47.09875" lon="-1.49422">
        <ele>22.37</ele>
        <time>2020-05-27T15:44:57Z</time>
      </trkpt>
      <trkpt lat="47.09874" lon="-1.49406">
        <ele>22.24</ele>
        <time>2020-05-27T15:44:59Z</time>
      </trkpt>
      <trkpt lat="47.09872" lon="-1.49389">
        <ele>20.99</ele>
        <time>2020-05-27T15:45:01Z</time>
      </trkpt>
      <trkpt lat="47.0987" lon="-1.49372">
        <ele>19.67</ele>
        <time>2020-05-27T15:45:03Z</time>
      </trkpt>
      <trkpt lat="47.09868" lon="-1.49357">
        <ele>19.03</ele>
        <time>2020-05-27T15:45:05Z</time>
      </trkpt>
      <trkpt lat="47.09865" lon="-1.49341">
        <ele>19.06</ele>
        <time>2020-05-27T15:45:07Z</time>
      </trkpt>
      <trkpt lat="47.09863" lon="-1.49326">
        <ele>18.91</ele>
        <time>2020-05-27T15:45:09Z</time>
      </trkpt>
      <trkpt lat="47.0986" lon="-1.49308">
        <ele>18.71</ele>
        <time>2020-05-27T15:45:11Z</time>
      </trkpt>
      <trkpt lat="47.09857" lon="-1.49287">
        <ele>19.93</ele>
        <time>2020-05-27T15:45:14Z</time>
      </trkpt>
      <trkpt lat="47.09856" lon="-1.49273">
        <ele>19.23</ele>
        <time>2020-05-27T15:45:16Z</time>
      </trkpt>
      <trkpt lat="47.09855" lon="-1.49256">
        <ele>19.52</ele>
        <time>2020-05-27T15:45:18Z</time>
      </trkpt>
      <trkpt lat="47.09854" lon="-1.49239">
        <ele>19.67</ele>
        <time>2020-05-27T15:45:20Z</time>
      </trkpt>
      <trkpt lat="47.09853" lon="-1.49223">
        <ele>19.38</ele>
        <time>2020-05-27T15:45:22Z</time>
      </trkpt>
      <trkpt lat="47.09853" lon="-1.49207">
        <ele>19.17</ele>
        <time>2020-05-27T15:45:24Z</time>
      </trkpt>
      <trkpt lat="47.09853" lon="-1.49189">
        <ele>17.66</ele>
        <time>2020-05-27T15:45:26Z</time>
      </trkpt>
      <trkpt lat="47.09853" lon="-1.49173">
        <ele>16.14</ele>
        <time>2020-05-27T15:45:28Z</time>
      </trkpt>
      <trkpt lat="47.09853" lon="-1.49153">
        <ele>16.12</ele>
        <time>2020-05-27T15:45:31Z</time>
      </trkpt>
      <trkpt lat="47.09852" lon="-1.49136">
        <ele>16.93</ele>
        <time>2020-05-27T15:45:33Z</time>
      </trkpt>
      <trkpt lat="47.09852" lon="-1.49119">
        <ele>17.98</ele>
        <time>2020-05-27T15:45:35Z</time>
      </trkpt>
      <trkpt lat="47.09852" lon="-1.49104">
        <ele>18.74</ele>
        <time>2020-05-27T15:45:37Z</time>
      </trkpt>
      <trkpt lat="47.09853" lon="-1.49089">
        <ele>19.09</ele>
        <time>2020-05-27T15:45:39Z</time>
      </trkpt>
      <trkpt lat="47.09853" lon="-1.49072">
        <ele>18.77</ele>
        <time>2020-05-27T15:45:41Z</time>
      </trkpt>
      <trkpt lat="47.09851" lon="-1.49057">
        <ele>18.9</ele>
        <time>2020-05-27T15:45:43Z</time>
      </trkpt>
      <trkpt lat="47.09847" lon="-1.49041">
        <ele>19.3</ele>
        <time>2020-05-27T15:45:45Z</time>
      </trkpt>
      <trkpt lat="47.09841" lon="-1.49029">
        <ele>19.49</ele>
        <time>2020-05-27T15:45:47Z</time>
      </trkpt>
      <trkpt lat="47.09835" lon="-1.49015">
        <ele>20.02</ele>
        <time>2020-05-27T15:45:49Z</time>
      </trkpt>
      <trkpt lat="47.09827" lon="-1.49002">
        <ele>20.46</ele>
        <time>2020-05-27T15:45:51Z</time>
      </trkpt>
      <trkpt lat="47.09821" lon="-1.48989">
        <ele>20.49</ele>
        <time>2020-05-27T15:45:53Z</time>
      </trkpt>
      <trkpt lat="47.09816" lon="-1.48974">
        <ele>19.91</ele>
        <time>2020-05-27T15:45:55Z</time>
      </trkpt>
      <trkpt lat="47.09812" lon="-1.48961">
        <ele>19</ele>
        <time>2020-05-27T15:45:57Z</time>
      </trkpt>
      <trkpt lat="47.098" lon="-1.4896">
        <ele>18.66</ele>
        <time>2020-05-27T15:46:01Z</time>
      </trkpt>
      <trkpt lat="47.09792" lon="-1.4895">
        <ele>18.39</ele>
        <time>2020-05-27T15:46:07Z</time>
      </trkpt>
      <trkpt lat="47.09794" lon="-1.48936">
        <ele>18.2</ele>
        <time>2020-05-27T15:46:09Z</time>
      </trkpt>
      <trkpt lat="47.09796" lon="-1.4892">
        <ele>17.85</ele>
        <time>2020-05-27T15:46:11Z</time>
      </trkpt>
      <trkpt lat="47.09798" lon="-1.48904">
        <ele>17.29</ele>
        <time>2020-05-27T15:46:13Z</time>
      </trkpt>
      <trkpt lat="47.09793" lon="-1.48887">
        <ele>16.4</ele>
        <time>2020-05-27T15:46:15Z</time>
      </trkpt>
      <trkpt lat="47.09789" lon="-1.48872">
        <ele>16.11</ele>
        <time>2020-05-27T15:46:17Z</time>
      </trkpt>
      <trkpt lat="47.09783" lon="-1.48856">
        <ele>16.67</ele>
        <time>2020-05-27T15:46:19Z</time>
      </trkpt>
      <trkpt lat="47.09777" lon="-1.4884">
        <ele>16.73</ele>
        <time>2020-05-27T15:46:21Z</time>
      </trkpt>
      <trkpt lat="47.09773" lon="-1.48827">
        <ele>16.79</ele>
        <time>2020-05-27T15:46:23Z</time>
      </trkpt>
      <trkpt lat="47.09768" lon="-1.48812">
        <ele>16.4</ele>
        <time>2020-05-27T15:46:25Z</time>
      </trkpt>
      <trkpt lat="47.09765" lon="-1.48796">
        <ele>15.94</ele>
        <time>2020-05-27T15:46:27Z</time>
      </trkpt>
      <trkpt lat="47.09763" lon="-1.48777">
        <ele>16.99</ele>
        <time>2020-05-27T15:46:29Z</time>
      </trkpt>
      <trkpt lat="47.09764" lon="-1.4876">
        <ele>18.83</ele>
        <time>2020-05-27T15:46:31Z</time>
      </trkpt>
      <trkpt lat="47.0977" lon="-1.48748">
        <ele>20.17</ele>
        <time>2020-05-27T15:46:33Z</time>
      </trkpt>
      <trkpt lat="47.09777" lon="-1.48738">
        <ele>20.52</ele>
        <time>2020-05-27T15:46:35Z</time>
      </trkpt>
      <trkpt lat="47.09787" lon="-1.48727">
        <ele>20</ele>
        <time>2020-05-27T15:46:37Z</time>
      </trkpt>
      <trkpt lat="47.09795" lon="-1.48715">
        <ele>17.99</ele>
        <time>2020-05-27T15:46:39Z</time>
      </trkpt>
      <trkpt lat="47.09803" lon="-1.48703">
        <ele>17.47</ele>
        <time>2020-05-27T15:46:41Z</time>
      </trkpt>
      <trkpt lat="47.0981" lon="-1.4869">
        <ele>17.7</ele>
        <time>2020-05-27T15:46:43Z</time>
      </trkpt>
      <trkpt lat="47.09815" lon="-1.48676">
        <ele>17.18</ele>
        <time>2020-05-27T15:46:45Z</time>
      </trkpt>
      <trkpt lat="47.09822" lon="-1.48664">
        <ele>16.82</ele>
        <time>2020-05-27T15:46:47Z</time>
      </trkpt>
      <trkpt lat="47.0983" lon="-1.48648">
        <ele>16.92</ele>
        <time>2020-05-27T15:46:49Z</time>
      </trkpt>
      <trkpt lat="47.09839" lon="-1.48631">
        <ele>16.45</ele>
        <time>2020-05-27T15:46:52Z</time>
      </trkpt>
      <trkpt lat="47.09846" lon="-1.48619">
        <ele>15.07</ele>
        <time>2020-05-27T15:46:54Z</time>
      </trkpt>
      <trkpt lat="47.09854" lon="-1.48606">
        <ele>13.87</ele>
        <time>2020-05-27T15:46:56Z</time>
      </trkpt>
      <trkpt lat="47.09858" lon="-1.48594">
        <ele>13.04</ele>
        <time>2020-05-27T15:46:58Z</time>
      </trkpt>
      <trkpt lat="47.09864" lon="-1.48576">
        <ele>12.29</ele>
        <time>2020-05-27T15:47:00Z</time>
      </trkpt>
      <trkpt lat="47.09867" lon="-1.4856">
        <ele>12.48</ele>
        <time>2020-05-27T15:47:02Z</time>
      </trkpt>
      <trkpt lat="47.09868" lon="-1.48544">
        <ele>12.42</ele>
        <time>2020-05-27T15:47:04Z</time>
      </trkpt>
      <trkpt lat="47.09869" lon="-1.48527">
        <ele>12.16</ele>
        <time>2020-05-27T15:47:06Z</time>
      </trkpt>
      <trkpt lat="47.09869" lon="-1.48511">
        <ele>11.89</ele>
        <time>2020-05-27T15:47:08Z</time>
      </trkpt>
      <trkpt lat="47.09868" lon="-1.48495">
        <ele>12.58</ele>
        <time>2020-05-27T15:47:10Z</time>
      </trkpt>
      <trkpt lat="47.09866" lon="-1.48478">
        <ele>12.89</ele>
        <time>2020-05-27T15:47:12Z</time>
      </trkpt>
      <trkpt lat="47.09864" lon="-1.48462">
        <ele>13.59</ele>
        <time>2020-05-27T15:47:14Z</time>
      </trkpt>
      <trkpt lat="47.09861" lon="-1.48445">
        <ele>14.86</ele>
        <time>2020-05-27T15:47:16Z</time>
      </trkpt>
      <trkpt lat="47.09859" lon="-1.48429">
        <ele>15.57</ele>
        <time>2020-05-27T15:47:18Z</time>
      </trkpt>
      <trkpt lat="47.09857" lon="-1.4841">
        <ele>14.94</ele>
        <time>2020-05-27T15:47:20Z</time>
      </trkpt>
      <trkpt lat="47.09856" lon="-1.48395">
        <ele>15</ele>
        <time>2020-05-27T15:47:22Z</time>
      </trkpt>
      <trkpt lat="47.09854" lon="-1.48377">
        <ele>15.48</ele>
        <time>2020-05-27T15:47:24Z</time>
      </trkpt>
      <trkpt lat="47.09852" lon="-1.48358">
        <ele>15.85</ele>
        <time>2020-05-27T15:47:26Z</time>
      </trkpt>
      <trkpt lat="47.09851" lon="-1.48341">
        <ele>16.37</ele>
        <time>2020-05-27T15:47:28Z</time>
      </trkpt>
      <trkpt lat="47.0985" lon="-1.48326">
        <ele>16.44</ele>
        <time>2020-05-27T15:47:30Z</time>
      </trkpt>
      <trkpt lat="47.09849" lon="-1.48309">
        <ele>16.18</ele>
        <time>2020-05-27T15:47:32Z</time>
      </trkpt>
      <trkpt lat="47.09848" lon="-1.48292">
        <ele>17.38</ele>
        <time>2020-05-27T15:47:34Z</time>
      </trkpt>
      <trkpt lat="47.09846" lon="-1.48277">
        <ele>18.65</ele>
        <time>2020-05-27T15:47:36Z</time>
      </trkpt>
      <trkpt lat="47.09844" lon="-1.4826">
        <ele>18.77</ele>
        <time>2020-05-27T15:47:38Z</time>
      </trkpt>
      <trkpt lat="47.09842" lon="-1.48242">
        <ele>18.62</ele>
        <time>2020-05-27T15:47:40Z</time>
      </trkpt>
      <trkpt lat="47.09841" lon="-1.48226">
        <ele>18.96</ele>
        <time>2020-05-27T15:47:42Z</time>
      </trkpt>
      <trkpt lat="47.0984" lon="-1.4821">
        <ele>17.7</ele>
        <time>2020-05-27T15:47:44Z</time>
      </trkpt>
      <trkpt lat="47.09839" lon="-1.4819">
        <ele>17.63</ele>
        <time>2020-05-27T15:47:47Z</time>
      </trkpt>
      <trkpt lat="47.0984" lon="-1.48172">
        <ele>17.22</ele>
        <time>2020-05-27T15:47:49Z</time>
      </trkpt>
      <trkpt lat="47.09841" lon="-1.48153">
        <ele>17.38</ele>
        <time>2020-05-27T15:47:51Z</time>
      </trkpt>
      <trkpt lat="47.09842" lon="-1.48136">
        <ele>17.95</ele>
        <time>2020-05-27T15:47:53Z</time>
      </trkpt>
      <trkpt lat="47.09844" lon="-1.48117">
        <ele>17.31</ele>
        <time>2020-05-27T15:47:55Z</time>
      </trkpt>
      <trkpt lat="47.09844" lon="-1.481">
        <ele>17.05</ele>
        <time>2020-05-27T15:47:57Z</time>
      </trkpt>
      <trkpt lat="47.09843" lon="-1.48084">
        <ele>17.11</ele>
        <time>2020-05-27T15:47:59Z</time>
      </trkpt>
      <trkpt lat="47.09842" lon="-1.48069">
        <ele>17.32</ele>
        <time>2020-05-27T15:48:01Z</time>
      </trkpt>
      <trkpt lat="47.09841" lon="-1.48052">
        <ele>17.5</ele>
        <time>2020-05-27T15:48:03Z</time>
      </trkpt>
      <trkpt lat="47.0984" lon="-1.48035">
        <ele>19</ele>
        <time>2020-05-27T15:48:05Z</time>
      </trkpt>
      <trkpt lat="47.09838" lon="-1.48018">
        <ele>20.57</ele>
        <time>2020-05-27T15:48:07Z</time>
      </trkpt>
      <trkpt lat="47.09837" lon="-1.48003">
        <ele>21.39</ele>
        <time>2020-05-27T15:48:09Z</time>
      </trkpt>
      <trkpt lat="47.09835" lon="-1.47988">
        <ele>21.92</ele>
        <time>2020-05-27T15:48:11Z</time>
      </trkpt>
      <trkpt lat="47.09833" lon="-1.47974">
        <ele>21.68</ele>
        <time>2020-05-27T15:48:13Z</time>
      </trkpt>
      <trkpt lat="47.09832" lon="-1.47958">
        <ele>21.05</ele>
        <time>2020-05-27T15:48:15Z</time>
      </trkpt>
      <trkpt lat="47.09831" lon="-1.4794">
        <ele>20.72</ele>
        <time>2020-05-27T15:48:17Z</time>
      </trkpt>
      <trkpt lat="47.09829" lon="-1.47922">
        <ele>20.74</ele>
        <time>2020-05-27T15:48:19Z</time>
      </trkpt>
      <trkpt lat="47.09827" lon="-1.47906">
        <ele>20.59</ele>
        <time>2020-05-27T15:48:21Z</time>
      </trkpt>
      <trkpt lat="47.09826" lon="-1.47886">
        <ele>21.86</ele>
        <time>2020-05-27T15:48:24Z</time>
      </trkpt>
      <trkpt lat="47.09825" lon="-1.4787">
        <ele>22.32</ele>
        <time>2020-05-27T15:48:26Z</time>
      </trkpt>
      <trkpt lat="47.09824" lon="-1.47854">
        <ele>21.76</ele>
        <time>2020-05-27T15:48:28Z</time>
      </trkpt>
      <trkpt lat="47.09824" lon="-1.47837">
        <ele>20.31</ele>
        <time>2020-05-27T15:48:30Z</time>
      </trkpt>
      <trkpt lat="47.09824" lon="-1.47822">
        <ele>20.25</ele>
        <time>2020-05-27T15:48:32Z</time>
      </trkpt>
      <trkpt lat="47.09824" lon="-1.47807">
        <ele>20.07</ele>
        <time>2020-05-27T15:48:34Z</time>
      </trkpt>
      <trkpt lat="47.09823" lon="-1.47791">
        <ele>20.65</ele>
        <time>2020-05-27T15:48:36Z</time>
      </trkpt>
      <trkpt lat="47.09822" lon="-1.47775">
        <ele>20.52</ele>
        <time>2020-05-27T15:48:38Z</time>
      </trkpt>
      <trkpt lat="47.09821" lon="-1.47756">
        <ele>19.97</ele>
        <time>2020-05-27T15:48:40Z</time>
      </trkpt>
      <trkpt lat="47.09819" lon="-1.4774">
        <ele>19.95</ele>
        <time>2020-05-27T15:48:42Z</time>
      </trkpt>
      <trkpt lat="47.09818" lon="-1.47726">
        <ele>19.7</ele>
        <time>2020-05-27T15:48:44Z</time>
      </trkpt>
      <trkpt lat="47.09817" lon="-1.47707">
        <ele>19.51</ele>
        <time>2020-05-27T15:48:47Z</time>
      </trkpt>
      <trkpt lat="47.09817" lon="-1.47689">
        <ele>19.39</ele>
        <time>2020-05-27T15:48:49Z</time>
      </trkpt>
      <trkpt lat="47.09818" lon="-1.47674">
        <ele>19</ele>
        <time>2020-05-27T15:48:51Z</time>
      </trkpt>
      <trkpt lat="47.09819" lon="-1.47658">
        <ele>19.69</ele>
        <time>2020-05-27T15:48:53Z</time>
      </trkpt>
      <trkpt lat="47.0982" lon="-1.47644">
        <ele>21.38</ele>
        <time>2020-05-27T15:48:55Z</time>
      </trkpt>
      <trkpt lat="47.09822" lon="-1.47631">
        <ele>22.66</ele>
        <time>2020-05-27T15:48:57Z</time>
      </trkpt>
      <trkpt lat="47.09824" lon="-1.47617">
        <ele>23.11</ele>
        <time>2020-05-27T15:48:59Z</time>
      </trkpt>
      <trkpt lat="47.09828" lon="-1.47599">
        <ele>23.95</ele>
        <time>2020-05-27T15:49:02Z</time>
      </trkpt>
      <trkpt lat="47.09833" lon="-1.47581">
        <ele>23.78</ele>
        <time>2020-05-27T15:49:05Z</time>
      </trkpt>
      <trkpt lat="47.09838" lon="-1.47568">
        <ele>23.54</ele>
        <time>2020-05-27T15:49:07Z</time>
      </trkpt>
      <trkpt lat="47.09845" lon="-1.4755">
        <ele>25.17</ele>
        <time>2020-05-27T15:49:10Z</time>
      </trkpt>
      <trkpt lat="47.09852" lon="-1.47533">
        <ele>26.75</ele>
        <time>2020-05-27T15:49:13Z</time>
      </trkpt>
      <trkpt lat="47.09859" lon="-1.47519">
        <ele>26.97</ele>
        <time>2020-05-27T15:49:16Z</time>
      </trkpt>
      <trkpt lat="47.09867" lon="-1.47504">
        <ele>26.82</ele>
        <time>2020-05-27T15:49:19Z</time>
      </trkpt>
      <trkpt lat="47.09873" lon="-1.47494">
        <ele>27.47</ele>
        <time>2020-05-27T15:49:21Z</time>
      </trkpt>
      <trkpt lat="47.09879" lon="-1.47482">
        <ele>26.79</ele>
        <time>2020-05-27T15:49:24Z</time>
      </trkpt>
      <trkpt lat="47.09886" lon="-1.47466">
        <ele>27.64</ele>
        <time>2020-05-27T15:49:27Z</time>
      </trkpt>
      <trkpt lat="47.09893" lon="-1.47454">
        <ele>28.57</ele>
        <time>2020-05-27T15:49:29Z</time>
      </trkpt>
      <trkpt lat="47.09902" lon="-1.47439">
        <ele>28.64</ele>
        <time>2020-05-27T15:49:32Z</time>
      </trkpt>
      <trkpt lat="47.09908" lon="-1.47428">
        <ele>28.46</ele>
        <time>2020-05-27T15:49:34Z</time>
      </trkpt>
      <trkpt lat="47.09917" lon="-1.47414">
        <ele>28.75</ele>
        <time>2020-05-27T15:49:37Z</time>
      </trkpt>
      <trkpt lat="47.09924" lon="-1.474">
        <ele>28.78</ele>
        <time>2020-05-27T15:49:40Z</time>
      </trkpt>
      <trkpt lat="47.09933" lon="-1.47385">
        <ele>29.17</ele>
        <time>2020-05-27T15:49:43Z</time>
      </trkpt>
      <trkpt lat="47.0994" lon="-1.47374">
        <ele>30.85</ele>
        <time>2020-05-27T15:49:45Z</time>
      </trkpt>
      <trkpt lat="47.09948" lon="-1.47359">
        <ele>29.75</ele>
        <time>2020-05-27T15:49:48Z</time>
      </trkpt>
      <trkpt lat="47.09955" lon="-1.47346">
        <ele>27.57</ele>
        <time>2020-05-27T15:49:51Z</time>
      </trkpt>
      <trkpt lat="47.09964" lon="-1.47331">
        <ele>27.57</ele>
        <time>2020-05-27T15:49:54Z</time>
      </trkpt>
      <trkpt lat="47.09971" lon="-1.47316">
        <ele>29.02</ele>
        <time>2020-05-27T15:49:57Z</time>
      </trkpt>
      <trkpt lat="47.0998" lon="-1.47301">
        <ele>31.61</ele>
        <time>2020-05-27T15:50:00Z</time>
      </trkpt>
      <trkpt lat="47.09986" lon="-1.4729">
        <ele>32.99</ele>
        <time>2020-05-27T15:50:02Z</time>
      </trkpt>
      <trkpt lat="47.09994" lon="-1.47275">
        <ele>34.82</ele>
        <time>2020-05-27T15:50:05Z</time>
      </trkpt>
      <trkpt lat="47.10002" lon="-1.47259">
        <ele>34.25</ele>
        <time>2020-05-27T15:50:08Z</time>
      </trkpt>
      <trkpt lat="47.1001" lon="-1.47245">
        <ele>32.09</ele>
        <time>2020-05-27T15:50:11Z</time>
      </trkpt>
      <trkpt lat="47.10016" lon="-1.47235">
        <ele>31.31</ele>
        <time>2020-05-27T15:50:13Z</time>
      </trkpt>
      <trkpt lat="47.10022" lon="-1.47223">
        <ele>31.54</ele>
        <time>2020-05-27T15:50:15Z</time>
      </trkpt>
      <trkpt lat="47.10028" lon="-1.47212">
        <ele>30.92</ele>
        <time>2020-05-27T15:50:17Z</time>
      </trkpt>
      <trkpt lat="47.10035" lon="-1.47201">
        <ele>29.67</ele>
        <time>2020-05-27T15:50:19Z</time>
      </trkpt>
      <trkpt lat="47.10043" lon="-1.47187">
        <ele>28.93</ele>
        <time>2020-05-27T15:50:21Z</time>
      </trkpt>
      <trkpt lat="47.10051" lon="-1.47173">
        <ele>28.86</ele>
        <time>2020-05-27T15:50:23Z</time>
      </trkpt>
      <trkpt lat="47.10057" lon="-1.47161">
        <ele>28.34</ele>
        <time>2020-05-27T15:50:25Z</time>
      </trkpt>
      <trkpt lat="47.10063" lon="-1.47146">
        <ele>27.75</ele>
        <time>2020-05-27T15:50:27Z</time>
      </trkpt>
      <trkpt lat="47.10068" lon="-1.47133">
        <ele>27.73</ele>
        <time>2020-05-27T15:50:29Z</time>
      </trkpt>
      <trkpt lat="47.10073" lon="-1.47118">
        <ele>27.92</ele>
        <time>2020-05-27T15:50:31Z</time>
      </trkpt>
      <trkpt lat="47.10079" lon="-1.47103">
        <ele>28.22</ele>
        <time>2020-05-27T15:50:33Z</time>
      </trkpt>
      <trkpt lat="47.10084" lon="-1.47086">
        <ele>27.76</ele>
        <time>2020-05-27T15:50:35Z</time>
      </trkpt>
      <trkpt lat="47.10087" lon="-1.47073">
        <ele>27.87</ele>
        <time>2020-05-27T15:50:37Z</time>
      </trkpt>
      <trkpt lat="47.10092" lon="-1.47057">
        <ele>27.31</ele>
        <time>2020-05-27T15:50:39Z</time>
      </trkpt>
      <trkpt lat="47.10096" lon="-1.47044">
        <ele>26.6</ele>
        <time>2020-05-27T15:50:41Z</time>
      </trkpt>
      <trkpt lat="47.10099" lon="-1.4703">
        <ele>26.84</ele>
        <time>2020-05-27T15:50:43Z</time>
      </trkpt>
      <trkpt lat="47.10102" lon="-1.47017">
        <ele>28.15</ele>
        <time>2020-05-27T15:50:45Z</time>
      </trkpt>
      <trkpt lat="47.10106" lon="-1.46999">
        <ele>29.01</ele>
        <time>2020-05-27T15:50:48Z</time>
      </trkpt>
      <trkpt lat="47.1011" lon="-1.46981">
        <ele>29.54</ele>
        <time>2020-05-27T15:50:51Z</time>
      </trkpt>
      <trkpt lat="47.10114" lon="-1.46964">
        <ele>29.74</ele>
        <time>2020-05-27T15:50:54Z</time>
      </trkpt>
      <trkpt lat="47.10118" lon="-1.46946">
        <ele>30.06</ele>
        <time>2020-05-27T15:50:57Z</time>
      </trkpt>
      <trkpt lat="47.10121" lon="-1.46933">
        <ele>30.82</ele>
        <time>2020-05-27T15:50:59Z</time>
      </trkpt>
      <trkpt lat="47.10126" lon="-1.46916">
        <ele>33.55</ele>
        <time>2020-05-27T15:51:02Z</time>
      </trkpt>
      <trkpt lat="47.10128" lon="-1.46903">
        <ele>33.78</ele>
        <time>2020-05-27T15:51:04Z</time>
      </trkpt>
      <trkpt lat="47.10131" lon="-1.4689">
        <ele>33.31</ele>
        <time>2020-05-27T15:51:06Z</time>
      </trkpt>
      <trkpt lat="47.10136" lon="-1.46875">
        <ele>33.44</ele>
        <time>2020-05-27T15:51:09Z</time>
      </trkpt>
      <trkpt lat="47.1014" lon="-1.46858">
        <ele>35.12</ele>
        <time>2020-05-27T15:51:12Z</time>
      </trkpt>
      <trkpt lat="47.10143" lon="-1.46844">
        <ele>35.42</ele>
        <time>2020-05-27T15:51:14Z</time>
      </trkpt>
      <trkpt lat="47.10145" lon="-1.46832">
        <ele>34.75</ele>
        <time>2020-05-27T15:51:16Z</time>
      </trkpt>
      <trkpt lat="47.10151" lon="-1.46815">
        <ele>34.98</ele>
        <time>2020-05-27T15:51:19Z</time>
      </trkpt>
      <trkpt lat="47.10155" lon="-1.46798">
        <ele>35.58</ele>
        <time>2020-05-27T15:51:22Z</time>
      </trkpt>
      <trkpt lat="47.1016" lon="-1.46781">
        <ele>33.71</ele>
        <time>2020-05-27T15:51:25Z</time>
      </trkpt>
      <trkpt lat="47.10162" lon="-1.46764">
        <ele>33.17</ele>
        <time>2020-05-27T15:51:28Z</time>
      </trkpt>
      <trkpt lat="47.10165" lon="-1.46746">
        <ele>34.27</ele>
        <time>2020-05-27T15:51:31Z</time>
      </trkpt>
      <trkpt lat="47.10167" lon="-1.46731">
        <ele>35.89</ele>
        <time>2020-05-27T15:51:34Z</time>
      </trkpt>
      <trkpt lat="47.1017" lon="-1.46718">
        <ele>37.22</ele>
        <time>2020-05-27T15:51:36Z</time>
      </trkpt>
      <trkpt lat="47.10172" lon="-1.46705">
        <ele>37.52</ele>
        <time>2020-05-27T15:51:38Z</time>
      </trkpt>
      <trkpt lat="47.10173" lon="-1.46691">
        <ele>37.39</ele>
        <time>2020-05-27T15:51:40Z</time>
      </trkpt>
      <trkpt lat="47.10175" lon="-1.46673">
        <ele>37.38</ele>
        <time>2020-05-27T15:51:43Z</time>
      </trkpt>
      <trkpt lat="47.10176" lon="-1.46659">
        <ele>36.33</ele>
        <time>2020-05-27T15:51:45Z</time>
      </trkpt>
      <trkpt lat="47.10179" lon="-1.46642">
        <ele>35.23</ele>
        <time>2020-05-27T15:51:48Z</time>
      </trkpt>
      <trkpt lat="47.1018" lon="-1.46628">
        <ele>34.93</ele>
        <time>2020-05-27T15:51:50Z</time>
      </trkpt>
      <trkpt lat="47.10183" lon="-1.4661">
        <ele>35.83</ele>
        <time>2020-05-27T15:51:53Z</time>
      </trkpt>
      <trkpt lat="47.10186" lon="-1.46593">
        <ele>35.42</ele>
        <time>2020-05-27T15:51:56Z</time>
      </trkpt>
      <trkpt lat="47.10188" lon="-1.46579">
        <ele>35.4</ele>
        <time>2020-05-27T15:51:58Z</time>
      </trkpt>
      <trkpt lat="47.1019" lon="-1.46562">
        <ele>38.57</ele>
        <time>2020-05-27T15:52:01Z</time>
      </trkpt>
      <trkpt lat="47.10192" lon="-1.46545">
        <ele>40.54</ele>
        <time>2020-05-27T15:52:04Z</time>
      </trkpt>
      <trkpt lat="47.10193" lon="-1.46529">
        <ele>42.04</ele>
        <time>2020-05-27T15:52:07Z</time>
      </trkpt>
      <trkpt lat="47.10193" lon="-1.46512">
        <ele>42.08</ele>
        <time>2020-05-27T15:52:10Z</time>
      </trkpt>
      <trkpt lat="47.10194" lon="-1.46495">
        <ele>43.57</ele>
        <time>2020-05-27T15:52:13Z</time>
      </trkpt>
      <trkpt lat="47.10194" lon="-1.46478">
        <ele>44.46</ele>
        <time>2020-05-27T15:52:16Z</time>
      </trkpt>
      <trkpt lat="47.10196" lon="-1.46461">
        <ele>44.56</ele>
        <time>2020-05-27T15:52:19Z</time>
      </trkpt>
      <trkpt lat="47.10198" lon="-1.46444">
        <ele>45.2</ele>
        <time>2020-05-27T15:52:22Z</time>
      </trkpt>
      <trkpt lat="47.10199" lon="-1.46427">
        <ele>45.33</ele>
        <time>2020-05-27T15:52:25Z</time>
      </trkpt>
      <trkpt lat="47.10199" lon="-1.46413">
        <ele>44.89</ele>
        <time>2020-05-27T15:52:28Z</time>
      </trkpt>
      <trkpt lat="47.10201" lon="-1.46397">
        <ele>44.52</ele>
        <time>2020-05-27T15:52:31Z</time>
      </trkpt>
      <trkpt lat="47.10204" lon="-1.46378">
        <ele>45.69</ele>
        <time>2020-05-27T15:52:34Z</time>
      </trkpt>
      <trkpt lat="47.10207" lon="-1.46364">
        <ele>45.82</ele>
        <time>2020-05-27T15:52:37Z</time>
      </trkpt>
      <trkpt lat="47.10211" lon="-1.46351">
        <ele>45.16</ele>
        <time>2020-05-27T15:52:40Z</time>
      </trkpt>
      <trkpt lat="47.10216" lon="-1.4634">
        <ele>44.02</ele>
        <time>2020-05-27T15:52:42Z</time>
      </trkpt>
      <trkpt lat="47.10224" lon="-1.46328">
        <ele>43.43</ele>
        <time>2020-05-27T15:52:45Z</time>
      </trkpt>
      <trkpt lat="47.10232" lon="-1.46315">
        <ele>42.22</ele>
        <time>2020-05-27T15:52:48Z</time>
      </trkpt>
      <trkpt lat="47.10241" lon="-1.46301">
        <ele>40.83</ele>
        <time>2020-05-27T15:52:51Z</time>
      </trkpt>
      <trkpt lat="47.10248" lon="-1.46291">
        <ele>41.49</ele>
        <time>2020-05-27T15:52:53Z</time>
      </trkpt>
      <trkpt lat="47.10255" lon="-1.4628">
        <ele>42.86</ele>
        <time>2020-05-27T15:52:56Z</time>
      </trkpt>
      <trkpt lat="47.10262" lon="-1.4627">
        <ele>43.64</ele>
        <time>2020-05-27T15:52:58Z</time>
      </trkpt>
      <trkpt lat="47.10271" lon="-1.46257">
        <ele>45.39</ele>
        <time>2020-05-27T15:53:01Z</time>
      </trkpt>
      <trkpt lat="47.10277" lon="-1.46248">
        <ele>46.54</ele>
        <time>2020-05-27T15:53:03Z</time>
      </trkpt>
      <trkpt lat="47.10284" lon="-1.46237">
        <ele>46.79</ele>
        <time>2020-05-27T15:53:06Z</time>
      </trkpt>
      <trkpt lat="47.1029" lon="-1.46226">
        <ele>46.7</ele>
        <time>2020-05-27T15:53:09Z</time>
      </trkpt>
      <trkpt lat="47.10287" lon="-1.4621">
        <ele>46.55</ele>
        <time>2020-05-27T15:53:13Z</time>
      </trkpt>
      <trkpt lat="47.10279" lon="-1.46195">
        <ele>46.25</ele>
        <time>2020-05-27T15:53:16Z</time>
      </trkpt>
      <trkpt lat="47.10272" lon="-1.46182">
        <ele>46.63</ele>
        <time>2020-05-27T15:53:18Z</time>
      </trkpt>
      <trkpt lat="47.10264" lon="-1.46169">
        <ele>47.51</ele>
        <time>2020-05-27T15:53:20Z</time>
      </trkpt>
      <trkpt lat="47.10257" lon="-1.46156">
        <ele>48.33</ele>
        <time>2020-05-27T15:53:22Z</time>
      </trkpt>
      <trkpt lat="47.1025" lon="-1.46144">
        <ele>48.72</ele>
        <time>2020-05-27T15:53:24Z</time>
      </trkpt>
      <trkpt lat="47.10243" lon="-1.46131">
        <ele>48.44</ele>
        <time>2020-05-27T15:53:26Z</time>
      </trkpt>
      <trkpt lat="47.10236" lon="-1.46118">
        <ele>48.67</ele>
        <time>2020-05-27T15:53:28Z</time>
      </trkpt>
      <trkpt lat="47.1023" lon="-1.46107">
        <ele>49.48</ele>
        <time>2020-05-27T15:53:30Z</time>
      </trkpt>
      <trkpt lat="47.10223" lon="-1.46094">
        <ele>50.84</ele>
        <time>2020-05-27T15:53:32Z</time>
      </trkpt>
      <trkpt lat="47.10215" lon="-1.46081">
        <ele>50.66</ele>
        <time>2020-05-27T15:53:34Z</time>
      </trkpt>
      <trkpt lat="47.10209" lon="-1.4607">
        <ele>50.99</ele>
        <time>2020-05-27T15:53:36Z</time>
      </trkpt>
      <trkpt lat="47.10202" lon="-1.46056">
        <ele>51.7</ele>
        <time>2020-05-27T15:53:38Z</time>
      </trkpt>
      <trkpt lat="47.10195" lon="-1.46043">
        <ele>51.55</ele>
        <time>2020-05-27T15:53:40Z</time>
      </trkpt>
      <trkpt lat="47.10188" lon="-1.4603">
        <ele>51.44</ele>
        <time>2020-05-27T15:53:42Z</time>
      </trkpt>
      <trkpt lat="47.1018" lon="-1.46017">
        <ele>50.82</ele>
        <time>2020-05-27T15:53:44Z</time>
      </trkpt>
      <trkpt lat="47.10173" lon="-1.46005">
        <ele>50.66</ele>
        <time>2020-05-27T15:53:46Z</time>
      </trkpt>
      <trkpt lat="47.10166" lon="-1.45992">
        <ele>50.1</ele>
        <time>2020-05-27T15:53:48Z</time>
      </trkpt>
      <trkpt lat="47.10159" lon="-1.45979">
        <ele>49.71</ele>
        <time>2020-05-27T15:53:50Z</time>
      </trkpt>
      <trkpt lat="47.10152" lon="-1.45968">
        <ele>49.54</ele>
        <time>2020-05-27T15:53:52Z</time>
      </trkpt>
      <trkpt lat="47.10145" lon="-1.45956">
        <ele>49.21</ele>
        <time>2020-05-27T15:53:54Z</time>
      </trkpt>
      <trkpt lat="47.10138" lon="-1.45941">
        <ele>49.44</ele>
        <time>2020-05-27T15:53:56Z</time>
      </trkpt>
      <trkpt lat="47.1013" lon="-1.45926">
        <ele>49.66</ele>
        <time>2020-05-27T15:53:58Z</time>
      </trkpt>
      <trkpt lat="47.10123" lon="-1.45914">
        <ele>49.59</ele>
        <time>2020-05-27T15:54:00Z</time>
      </trkpt>
      <trkpt lat="47.10115" lon="-1.45902">
        <ele>48.33</ele>
        <time>2020-05-27T15:54:02Z</time>
      </trkpt>
      <trkpt lat="47.10108" lon="-1.45889">
        <ele>47.88</ele>
        <time>2020-05-27T15:54:04Z</time>
      </trkpt>
      <trkpt lat="47.101" lon="-1.45876">
        <ele>47.9</ele>
        <time>2020-05-27T15:54:06Z</time>
      </trkpt>
      <trkpt lat="47.10091" lon="-1.4586">
        <ele>48.16</ele>
        <time>2020-05-27T15:54:08Z</time>
      </trkpt>
      <trkpt lat="47.10084" lon="-1.45846">
        <ele>48.19</ele>
        <time>2020-05-27T15:54:10Z</time>
      </trkpt>
      <trkpt lat="47.10076" lon="-1.45831">
        <ele>49.2</ele>
        <time>2020-05-27T15:54:12Z</time>
      </trkpt>
      <trkpt lat="47.10068" lon="-1.45815">
        <ele>50.46</ele>
        <time>2020-05-27T15:54:14Z</time>
      </trkpt>
      <trkpt lat="47.1006" lon="-1.45798">
        <ele>51.08</ele>
        <time>2020-05-27T15:54:16Z</time>
      </trkpt>
      <trkpt lat="47.1005" lon="-1.45781">
        <ele>51.45</ele>
        <time>2020-05-27T15:54:18Z</time>
      </trkpt>
      <trkpt lat="47.10042" lon="-1.45767">
        <ele>51.9</ele>
        <time>2020-05-27T15:54:20Z</time>
      </trkpt>
      <trkpt lat="47.10034" lon="-1.45752">
        <ele>51.64</ele>
        <time>2020-05-27T15:54:22Z</time>
      </trkpt>
      <trkpt lat="47.10026" lon="-1.45734">
        <ele>51.04</ele>
        <time>2020-05-27T15:54:24Z</time>
      </trkpt>
      <trkpt lat="47.10018" lon="-1.45718">
        <ele>50.46</ele>
        <time>2020-05-27T15:54:26Z</time>
      </trkpt>
      <trkpt lat="47.1001" lon="-1.45703">
        <ele>50.54</ele>
        <time>2020-05-27T15:54:28Z</time>
      </trkpt>
      <trkpt lat="47.10002" lon="-1.45687">
        <ele>50.65</ele>
        <time>2020-05-27T15:54:30Z</time>
      </trkpt>
      <trkpt lat="47.09994" lon="-1.45671">
        <ele>50.36</ele>
        <time>2020-05-27T15:54:32Z</time>
      </trkpt>
      <trkpt lat="47.09985" lon="-1.45655">
        <ele>50.32</ele>
        <time>2020-05-27T15:54:34Z</time>
      </trkpt>
      <trkpt lat="47.09978" lon="-1.4564">
        <ele>50.54</ele>
        <time>2020-05-27T15:54:37Z</time>
      </trkpt>
      <trkpt lat="47.09969" lon="-1.45625">
        <ele>50.17</ele>
        <time>2020-05-27T15:54:38Z</time>
      </trkpt>
      <trkpt lat="47.09961" lon="-1.45609">
        <ele>49.63</ele>
        <time>2020-05-27T15:54:40Z</time>
      </trkpt>
      <trkpt lat="47.09953" lon="-1.45592">
        <ele>49.34</ele>
        <time>2020-05-27T15:54:42Z</time>
      </trkpt>
      <trkpt lat="47.09945" lon="-1.45577">
        <ele>48.77</ele>
        <time>2020-05-27T15:54:44Z</time>
      </trkpt>
      <trkpt lat="47.09939" lon="-1.45562">
        <ele>48.96</ele>
        <time>2020-05-27T15:54:46Z</time>
      </trkpt>
      <trkpt lat="47.09931" lon="-1.45547">
        <ele>49.23</ele>
        <time>2020-05-27T15:54:48Z</time>
      </trkpt>
      <trkpt lat="47.09924" lon="-1.45532">
        <ele>49.54</ele>
        <time>2020-05-27T15:54:50Z</time>
      </trkpt>
      <trkpt lat="47.09917" lon="-1.45516">
        <ele>49.45</ele>
        <time>2020-05-27T15:54:52Z</time>
      </trkpt>
      <trkpt lat="47.09909" lon="-1.45499">
        <ele>49.43</ele>
        <time>2020-05-27T15:54:54Z</time>
      </trkpt>
      <trkpt lat="47.09901" lon="-1.45481">
        <ele>49.4</ele>
        <time>2020-05-27T15:54:56Z</time>
      </trkpt>
      <trkpt lat="47.09894" lon="-1.45465">
        <ele>49.09</ele>
        <time>2020-05-27T15:54:58Z</time>
      </trkpt>
      <trkpt lat="47.09887" lon="-1.45447">
        <ele>48.87</ele>
        <time>2020-05-27T15:55:00Z</time>
      </trkpt>
      <trkpt lat="47.0988" lon="-1.45432">
        <ele>49</ele>
        <time>2020-05-27T15:55:03Z</time>
      </trkpt>
      <trkpt lat="47.09873" lon="-1.45415">
        <ele>48.37</ele>
        <time>2020-05-27T15:55:05Z</time>
      </trkpt>
      <trkpt lat="47.09865" lon="-1.45398">
        <ele>47.95</ele>
        <time>2020-05-27T15:55:07Z</time>
      </trkpt>
      <trkpt lat="47.09858" lon="-1.45381">
        <ele>48.03</ele>
        <time>2020-05-27T15:55:09Z</time>
      </trkpt>
      <trkpt lat="47.09852" lon="-1.45366">
        <ele>48.63</ele>
        <time>2020-05-27T15:55:11Z</time>
      </trkpt>
      <trkpt lat="47.09843" lon="-1.45347">
        <ele>49.03</ele>
        <time>2020-05-27T15:55:13Z</time>
      </trkpt>
      <trkpt lat="47.09835" lon="-1.45329">
        <ele>49.75</ele>
        <time>2020-05-27T15:55:15Z</time>
      </trkpt>
      <trkpt lat="47.09827" lon="-1.45312">
        <ele>49.6</ele>
        <time>2020-05-27T15:55:17Z</time>
      </trkpt>
      <trkpt lat="47.0982" lon="-1.45296">
        <ele>48.68</ele>
        <time>2020-05-27T15:55:19Z</time>
      </trkpt>
      <trkpt lat="47.09813" lon="-1.4528">
        <ele>47.4</ele>
        <time>2020-05-27T15:55:21Z</time>
      </trkpt>
      <trkpt lat="47.09806" lon="-1.45262">
        <ele>46.29</ele>
        <time>2020-05-27T15:55:23Z</time>
      </trkpt>
      <trkpt lat="47.09798" lon="-1.45246">
        <ele>45.6</ele>
        <time>2020-05-27T15:55:25Z</time>
      </trkpt>
      <trkpt lat="47.09791" lon="-1.45229">
        <ele>45.41</ele>
        <time>2020-05-27T15:55:27Z</time>
      </trkpt>
      <trkpt lat="47.09783" lon="-1.45213">
        <ele>45.82</ele>
        <time>2020-05-27T15:55:29Z</time>
      </trkpt>
      <trkpt lat="47.09776" lon="-1.45196">
        <ele>45.16</ele>
        <time>2020-05-27T15:55:31Z</time>
      </trkpt>
      <trkpt lat="47.09769" lon="-1.4518">
        <ele>45.52</ele>
        <time>2020-05-27T15:55:33Z</time>
      </trkpt>
      <trkpt lat="47.09761" lon="-1.45165">
        <ele>45.3</ele>
        <time>2020-05-27T15:55:35Z</time>
      </trkpt>
      <trkpt lat="47.09753" lon="-1.45148">
        <ele>45.05</ele>
        <time>2020-05-27T15:55:37Z</time>
      </trkpt>
      <trkpt lat="47.09747" lon="-1.45134">
        <ele>45.19</ele>
        <time>2020-05-27T15:55:39Z</time>
      </trkpt>
      <trkpt lat="47.09739" lon="-1.45117">
        <ele>45.62</ele>
        <time>2020-05-27T15:55:41Z</time>
      </trkpt>
      <trkpt lat="47.09731" lon="-1.451">
        <ele>45.38</ele>
        <time>2020-05-27T15:55:43Z</time>
      </trkpt>
      <trkpt lat="47.09724" lon="-1.45085">
        <ele>45.72</ele>
        <time>2020-05-27T15:55:45Z</time>
      </trkpt>
      <trkpt lat="47.09716" lon="-1.45068">
        <ele>46.11</ele>
        <time>2020-05-27T15:55:47Z</time>
      </trkpt>
      <trkpt lat="47.09709" lon="-1.45052">
        <ele>46.05</ele>
        <time>2020-05-27T15:55:49Z</time>
      </trkpt>
      <trkpt lat="47.097" lon="-1.45035">
        <ele>46.25</ele>
        <time>2020-05-27T15:55:51Z</time>
      </trkpt>
      <trkpt lat="47.09693" lon="-1.45019">
        <ele>46.16</ele>
        <time>2020-05-27T15:55:53Z</time>
      </trkpt>
      <trkpt lat="47.09685" lon="-1.45002">
        <ele>45.83</ele>
        <time>2020-05-27T15:55:55Z</time>
      </trkpt>
      <trkpt lat="47.09677" lon="-1.44987">
        <ele>45.24</ele>
        <time>2020-05-27T15:55:57Z</time>
      </trkpt>
      <trkpt lat="47.09669" lon="-1.44974">
        <ele>44.93</ele>
        <time>2020-05-27T15:55:59Z</time>
      </trkpt>
      <trkpt lat="47.09658" lon="-1.44965">
        <ele>44.62</ele>
        <time>2020-05-27T15:56:01Z</time>
      </trkpt>
      <trkpt lat="47.09646" lon="-1.44961">
        <ele>44.81</ele>
        <time>2020-05-27T15:56:03Z</time>
      </trkpt>
      <trkpt lat="47.09635" lon="-1.4495">
        <ele>45.42</ele>
        <time>2020-05-27T15:56:05Z</time>
      </trkpt>
      <trkpt lat="47.0963" lon="-1.44932">
        <ele>46.65</ele>
        <time>2020-05-27T15:56:07Z</time>
      </trkpt>
      <trkpt lat="47.09631" lon="-1.44913">
        <ele>48.04</ele>
        <time>2020-05-27T15:56:09Z</time>
      </trkpt>
      <trkpt lat="47.09639" lon="-1.44894">
        <ele>48.31</ele>
        <time>2020-05-27T15:56:11Z</time>
      </trkpt>
      <trkpt lat="47.09652" lon="-1.44882">
        <ele>48.68</ele>
        <time>2020-05-27T15:56:13Z</time>
      </trkpt>
      <trkpt lat="47.09665" lon="-1.4487">
        <ele>48.59</ele>
        <time>2020-05-27T15:56:15Z</time>
      </trkpt>
      <trkpt lat="47.09674" lon="-1.44857">
        <ele>48.19</ele>
        <time>2020-05-27T15:56:17Z</time>
      </trkpt>
      <trkpt lat="47.09682" lon="-1.44841">
        <ele>47.55</ele>
        <time>2020-05-27T15:56:19Z</time>
      </trkpt>
      <trkpt lat="47.09686" lon="-1.44823">
        <ele>46.05</ele>
        <time>2020-05-27T15:56:21Z</time>
      </trkpt>
      <trkpt lat="47.09688" lon="-1.44804">
        <ele>45.59</ele>
        <time>2020-05-27T15:56:23Z</time>
      </trkpt>
      <trkpt lat="47.09685" lon="-1.44787">
        <ele>45.92</ele>
        <time>2020-05-27T15:56:25Z</time>
      </trkpt>
      <trkpt lat="47.0968" lon="-1.44773">
        <ele>45.92</ele>
        <time>2020-05-27T15:56:27Z</time>
      </trkpt>
      <trkpt lat="47.09673" lon="-1.44759">
        <ele>45.73</ele>
        <time>2020-05-27T15:56:29Z</time>
      </trkpt>
      <trkpt lat="47.09665" lon="-1.44748">
        <ele>45.9</ele>
        <time>2020-05-27T15:56:31Z</time>
      </trkpt>
      <trkpt lat="47.09657" lon="-1.44736">
        <ele>46.34</ele>
        <time>2020-05-27T15:56:33Z</time>
      </trkpt>
      <trkpt lat="47.09651" lon="-1.44724">
        <ele>46.18</ele>
        <time>2020-05-27T15:56:35Z</time>
      </trkpt>
      <trkpt lat="47.09647" lon="-1.44712">
        <ele>45.91</ele>
        <time>2020-05-27T15:56:37Z</time>
      </trkpt>
      <trkpt lat="47.09645" lon="-1.44698">
        <ele>44.99</ele>
        <time>2020-05-27T15:56:39Z</time>
      </trkpt>
      <trkpt lat="47.09643" lon="-1.44682">
        <ele>43.86</ele>
        <time>2020-05-27T15:56:41Z</time>
      </trkpt>
      <trkpt lat="47.09644" lon="-1.44669">
        <ele>43.89</ele>
        <time>2020-05-27T15:56:43Z</time>
      </trkpt>
      <trkpt lat="47.09647" lon="-1.44654">
        <ele>45.47</ele>
        <time>2020-05-27T15:56:45Z</time>
      </trkpt>
      <trkpt lat="47.09652" lon="-1.44641">
        <ele>46.01</ele>
        <time>2020-05-27T15:56:47Z</time>
      </trkpt>
      <trkpt lat="47.09657" lon="-1.44628">
        <ele>45.56</ele>
        <time>2020-05-27T15:56:49Z</time>
      </trkpt>
      <trkpt lat="47.09664" lon="-1.44618">
        <ele>45.24</ele>
        <time>2020-05-27T15:56:51Z</time>
      </trkpt>
      <trkpt lat="47.09675" lon="-1.44606">
        <ele>44.9</ele>
        <time>2020-05-27T15:56:53Z</time>
      </trkpt>
      <trkpt lat="47.09686" lon="-1.44597">
        <ele>44.92</ele>
        <time>2020-05-27T15:56:55Z</time>
      </trkpt>
      <trkpt lat="47.09697" lon="-1.44589">
        <ele>45.06</ele>
        <time>2020-05-27T15:56:57Z</time>
      </trkpt>
      <trkpt lat="47.09709" lon="-1.44581">
        <ele>45.26</ele>
        <time>2020-05-27T15:56:59Z</time>
      </trkpt>
      <trkpt lat="47.09721" lon="-1.44574">
        <ele>45.67</ele>
        <time>2020-05-27T15:57:01Z</time>
      </trkpt>
      <trkpt lat="47.09734" lon="-1.44568">
        <ele>46.08</ele>
        <time>2020-05-27T15:57:03Z</time>
      </trkpt>
      <trkpt lat="47.09747" lon="-1.44561">
        <ele>46.27</ele>
        <time>2020-05-27T15:57:05Z</time>
      </trkpt>
      <trkpt lat="47.09761" lon="-1.44554">
        <ele>45.63</ele>
        <time>2020-05-27T15:57:07Z</time>
      </trkpt>
      <trkpt lat="47.09775" lon="-1.44548">
        <ele>45.44</ele>
        <time>2020-05-27T15:57:09Z</time>
      </trkpt>
      <trkpt lat="47.09788" lon="-1.44544">
        <ele>44.58</ele>
        <time>2020-05-27T15:57:11Z</time>
      </trkpt>
      <trkpt lat="47.098" lon="-1.4454">
        <ele>43.85</ele>
        <time>2020-05-27T15:57:13Z</time>
      </trkpt>
      <trkpt lat="47.09813" lon="-1.44536">
        <ele>43.03</ele>
        <time>2020-05-27T15:57:15Z</time>
      </trkpt>
      <trkpt lat="47.09827" lon="-1.44531">
        <ele>42.58</ele>
        <time>2020-05-27T15:57:17Z</time>
      </trkpt>
      <trkpt lat="47.09842" lon="-1.44525">
        <ele>42.93</ele>
        <time>2020-05-27T15:57:19Z</time>
      </trkpt>
      <trkpt lat="47.09857" lon="-1.44521">
        <ele>43.5</ele>
        <time>2020-05-27T15:57:21Z</time>
      </trkpt>
      <trkpt lat="47.09872" lon="-1.44515">
        <ele>43.75</ele>
        <time>2020-05-27T15:57:23Z</time>
      </trkpt>
      <trkpt lat="47.09886" lon="-1.44509">
        <ele>43.39</ele>
        <time>2020-05-27T15:57:25Z</time>
      </trkpt>
      <trkpt lat="47.09902" lon="-1.44502">
        <ele>42.81</ele>
        <time>2020-05-27T15:57:27Z</time>
      </trkpt>
      <trkpt lat="47.09917" lon="-1.44497">
        <ele>42.94</ele>
        <time>2020-05-27T15:57:29Z</time>
      </trkpt>
      <trkpt lat="47.09932" lon="-1.44491">
        <ele>42.73</ele>
        <time>2020-05-27T15:57:31Z</time>
      </trkpt>
      <trkpt lat="47.09946" lon="-1.44487">
        <ele>41.27</ele>
        <time>2020-05-27T15:57:33Z</time>
      </trkpt>
      <trkpt lat="47.09961" lon="-1.44481">
        <ele>39.43</ele>
        <time>2020-05-27T15:57:35Z</time>
      </trkpt>
      <trkpt lat="47.09976" lon="-1.44476">
        <ele>37.88</ele>
        <time>2020-05-27T15:57:37Z</time>
      </trkpt>
      <trkpt lat="47.09991" lon="-1.44471">
        <ele>35.86</ele>
        <time>2020-05-27T15:57:39Z</time>
      </trkpt>
      <trkpt lat="47.10006" lon="-1.44466">
        <ele>34.13</ele>
        <time>2020-05-27T15:57:41Z</time>
      </trkpt>
      <trkpt lat="47.10022" lon="-1.44459">
        <ele>32.2</ele>
        <time>2020-05-27T15:57:43Z</time>
      </trkpt>
      <trkpt lat="47.10037" lon="-1.44454">
        <ele>31.35</ele>
        <time>2020-05-27T15:57:45Z</time>
      </trkpt>
      <trkpt lat="47.10051" lon="-1.44448">
        <ele>30.46</ele>
        <time>2020-05-27T15:57:47Z</time>
      </trkpt>
      <trkpt lat="47.10066" lon="-1.44443">
        <ele>29.05</ele>
        <time>2020-05-27T15:57:49Z</time>
      </trkpt>
      <trkpt lat="47.10082" lon="-1.44437">
        <ele>27.63</ele>
        <time>2020-05-27T15:57:51Z</time>
      </trkpt>
      <trkpt lat="47.10096" lon="-1.44431">
        <ele>27.72</ele>
        <time>2020-05-27T15:57:53Z</time>
      </trkpt>
      <trkpt lat="47.10111" lon="-1.44425">
        <ele>27.67</ele>
        <time>2020-05-27T15:57:55Z</time>
      </trkpt>
      <trkpt lat="47.10125" lon="-1.44418">
        <ele>28.15</ele>
        <time>2020-05-27T15:57:57Z</time>
      </trkpt>
      <trkpt lat="47.10139" lon="-1.44408">
        <ele>28.12</ele>
        <time>2020-05-27T15:57:59Z</time>
      </trkpt>
      <trkpt lat="47.10152" lon="-1.44396">
        <ele>27.62</ele>
        <time>2020-05-27T15:58:01Z</time>
      </trkpt>
      <trkpt lat="47.10164" lon="-1.44383">
        <ele>27.3</ele>
        <time>2020-05-27T15:58:03Z</time>
      </trkpt>
      <trkpt lat="47.10177" lon="-1.44369">
        <ele>27.16</ele>
        <time>2020-05-27T15:58:05Z</time>
      </trkpt>
      <trkpt lat="47.10188" lon="-1.44356">
        <ele>27.58</ele>
        <time>2020-05-27T15:58:07Z</time>
      </trkpt>
      <trkpt lat="47.10199" lon="-1.44341">
        <ele>27.82</ele>
        <time>2020-05-27T15:58:09Z</time>
      </trkpt>
      <trkpt lat="47.10208" lon="-1.4433">
        <ele>28.38</ele>
        <time>2020-05-27T15:58:11Z</time>
      </trkpt>
      <trkpt lat="47.10219" lon="-1.44318">
        <ele>28.27</ele>
        <time>2020-05-27T15:58:13Z</time>
      </trkpt>
      <trkpt lat="47.10229" lon="-1.44305">
        <ele>28.9</ele>
        <time>2020-05-27T15:58:15Z</time>
      </trkpt>
      <trkpt lat="47.1024" lon="-1.44291">
        <ele>29.33</ele>
        <time>2020-05-27T15:58:17Z</time>
      </trkpt>
      <trkpt lat="47.1025" lon="-1.44278">
        <ele>29.98</ele>
        <time>2020-05-27T15:58:19Z</time>
      </trkpt>
      <trkpt lat="47.10261" lon="-1.44265">
        <ele>29.87</ele>
        <time>2020-05-27T15:58:21Z</time>
      </trkpt>
      <trkpt lat="47.10272" lon="-1.44253">
        <ele>28.31</ele>
        <time>2020-05-27T15:58:23Z</time>
      </trkpt>
      <trkpt lat="47.10284" lon="-1.44241">
        <ele>26.25</ele>
        <time>2020-05-27T15:58:25Z</time>
      </trkpt>
      <trkpt lat="47.10295" lon="-1.44232">
        <ele>24.95</ele>
        <time>2020-05-27T15:58:27Z</time>
      </trkpt>
      <trkpt lat="47.10307" lon="-1.44225">
        <ele>24.56</ele>
        <time>2020-05-27T15:58:29Z</time>
      </trkpt>
      <trkpt lat="47.1032" lon="-1.44219">
        <ele>24.2</ele>
        <time>2020-05-27T15:58:31Z</time>
      </trkpt>
      <trkpt lat="47.10334" lon="-1.44212">
        <ele>23.67</ele>
        <time>2020-05-27T15:58:33Z</time>
      </trkpt>
      <trkpt lat="47.10347" lon="-1.44207">
        <ele>23.58</ele>
        <time>2020-05-27T15:58:35Z</time>
      </trkpt>
      <trkpt lat="47.1036" lon="-1.44203">
        <ele>23.54</ele>
        <time>2020-05-27T15:58:37Z</time>
      </trkpt>
      <trkpt lat="47.10372" lon="-1.44198">
        <ele>23.39</ele>
        <time>2020-05-27T15:58:39Z</time>
      </trkpt>
      <trkpt lat="47.10382" lon="-1.44193">
        <ele>22.91</ele>
        <time>2020-05-27T15:58:41Z</time>
      </trkpt>
      <trkpt lat="47.10396" lon="-1.44187">
        <ele>22.27</ele>
        <time>2020-05-27T15:58:43Z</time>
      </trkpt>
      <trkpt lat="47.10409" lon="-1.44181">
        <ele>21.89</ele>
        <time>2020-05-27T15:58:45Z</time>
      </trkpt>
      <trkpt lat="47.10421" lon="-1.44175">
        <ele>22.18</ele>
        <time>2020-05-27T15:58:47Z</time>
      </trkpt>
      <trkpt lat="47.10433" lon="-1.44168">
        <ele>23.13</ele>
        <time>2020-05-27T15:58:49Z</time>
      </trkpt>
      <trkpt lat="47.10445" lon="-1.44162">
        <ele>24.78</ele>
        <time>2020-05-27T15:58:51Z</time>
      </trkpt>
      <trkpt lat="47.10457" lon="-1.44155">
        <ele>25.45</ele>
        <time>2020-05-27T15:58:53Z</time>
      </trkpt>
      <trkpt lat="47.10467" lon="-1.4415">
        <ele>25.72</ele>
        <time>2020-05-27T15:58:55Z</time>
      </trkpt>
      <trkpt lat="47.10479" lon="-1.44144">
        <ele>26.82</ele>
        <time>2020-05-27T15:58:57Z</time>
      </trkpt>
      <trkpt lat="47.1049" lon="-1.44139">
        <ele>27.3</ele>
        <time>2020-05-27T15:58:59Z</time>
      </trkpt>
      <trkpt lat="47.10501" lon="-1.44133">
        <ele>27.55</ele>
        <time>2020-05-27T15:59:01Z</time>
      </trkpt>
      <trkpt lat="47.10513" lon="-1.44125">
        <ele>27.58</ele>
        <time>2020-05-27T15:59:03Z</time>
      </trkpt>
      <trkpt lat="47.10524" lon="-1.44117">
        <ele>27.78</ele>
        <time>2020-05-27T15:59:05Z</time>
      </trkpt>
      <trkpt lat="47.10534" lon="-1.44109">
        <ele>28.75</ele>
        <time>2020-05-27T15:59:07Z</time>
      </trkpt>
      <trkpt lat="47.10544" lon="-1.44101">
        <ele>28.64</ele>
        <time>2020-05-27T15:59:09Z</time>
      </trkpt>
      <trkpt lat="47.10554" lon="-1.44092">
        <ele>28.76</ele>
        <time>2020-05-27T15:59:11Z</time>
      </trkpt>
      <trkpt lat="47.10564" lon="-1.44082">
        <ele>29.01</ele>
        <time>2020-05-27T15:59:13Z</time>
      </trkpt>
      <trkpt lat="47.10571" lon="-1.44075">
        <ele>28.66</ele>
        <time>2020-05-27T15:59:15Z</time>
      </trkpt>
      <trkpt lat="47.10579" lon="-1.44066">
        <ele>28.52</ele>
        <time>2020-05-27T15:59:17Z</time>
      </trkpt>
      <trkpt lat="47.10588" lon="-1.44057">
        <ele>28.13</ele>
        <time>2020-05-27T15:59:19Z</time>
      </trkpt>
      <trkpt lat="47.10598" lon="-1.44047">
        <ele>27.68</ele>
        <time>2020-05-27T15:59:21Z</time>
      </trkpt>
      <trkpt lat="47.10607" lon="-1.44039">
        <ele>27.62</ele>
        <time>2020-05-27T15:59:23Z</time>
      </trkpt>
      <trkpt lat="47.10619" lon="-1.44031">
        <ele>27.61</ele>
        <time>2020-05-27T15:59:25Z</time>
      </trkpt>
      <trkpt lat="47.10629" lon="-1.44025">
        <ele>27.97</ele>
        <time>2020-05-27T15:59:27Z</time>
      </trkpt>
      <trkpt lat="47.10638" lon="-1.44019">
        <ele>29.22</ele>
        <time>2020-05-27T15:59:29Z</time>
      </trkpt>
      <trkpt lat="47.10648" lon="-1.44013">
        <ele>29.55</ele>
        <time>2020-05-27T15:59:31Z</time>
      </trkpt>
      <trkpt lat="47.10661" lon="-1.44006">
        <ele>30.01</ele>
        <time>2020-05-27T15:59:34Z</time>
      </trkpt>
      <trkpt lat="47.1067" lon="-1.44001">
        <ele>29.89</ele>
        <time>2020-05-27T15:59:36Z</time>
      </trkpt>
      <trkpt lat="47.1068" lon="-1.43995">
        <ele>30.65</ele>
        <time>2020-05-27T15:59:38Z</time>
      </trkpt>
      <trkpt lat="47.10691" lon="-1.43989">
        <ele>30.89</ele>
        <time>2020-05-27T15:59:40Z</time>
      </trkpt>
      <trkpt lat="47.107" lon="-1.43983">
        <ele>32.16</ele>
        <time>2020-05-27T15:59:42Z</time>
      </trkpt>
      <trkpt lat="47.10709" lon="-1.43977">
        <ele>33.4</ele>
        <time>2020-05-27T15:59:44Z</time>
      </trkpt>
      <trkpt lat="47.1072" lon="-1.4397">
        <ele>33.76</ele>
        <time>2020-05-27T15:59:46Z</time>
      </trkpt>
      <trkpt lat="47.1073" lon="-1.43961">
        <ele>33.17</ele>
        <time>2020-05-27T15:59:48Z</time>
      </trkpt>
      <trkpt lat="47.10738" lon="-1.43953">
        <ele>33.97</ele>
        <time>2020-05-27T15:59:50Z</time>
      </trkpt>
      <trkpt lat="47.10747" lon="-1.43943">
        <ele>35.15</ele>
        <time>2020-05-27T15:59:52Z</time>
      </trkpt>
      <trkpt lat="47.10756" lon="-1.43934">
        <ele>35.45</ele>
        <time>2020-05-27T15:59:54Z</time>
      </trkpt>
      <trkpt lat="47.10764" lon="-1.43925">
        <ele>35.43</ele>
        <time>2020-05-27T15:59:56Z</time>
      </trkpt>
      <trkpt lat="47.10773" lon="-1.43918">
        <ele>34.69</ele>
        <time>2020-05-27T15:59:58Z</time>
      </trkpt>
      <trkpt lat="47.10781" lon="-1.43912">
        <ele>35.37</ele>
        <time>2020-05-27T16:00:00Z</time>
      </trkpt>
      <trkpt lat="47.10791" lon="-1.43904">
        <ele>36.19</ele>
        <time>2020-05-27T16:00:02Z</time>
      </trkpt>
      <trkpt lat="47.10799" lon="-1.43896">
        <ele>37.19</ele>
        <time>2020-05-27T16:00:04Z</time>
      </trkpt>
      <trkpt lat="47.10811" lon="-1.43886">
        <ele>35.75</ele>
        <time>2020-05-27T16:00:07Z</time>
      </trkpt>
      <trkpt lat="47.10821" lon="-1.43876">
        <ele>36.02</ele>
        <time>2020-05-27T16:00:10Z</time>
      </trkpt>
      <trkpt lat="47.10834" lon="-1.43866">
        <ele>36.54</ele>
        <time>2020-05-27T16:00:13Z</time>
      </trkpt>
      <trkpt lat="47.10842" lon="-1.43857">
        <ele>36.49</ele>
        <time>2020-05-27T16:00:15Z</time>
      </trkpt>
      <trkpt lat="47.1085" lon="-1.43849">
        <ele>35.52</ele>
        <time>2020-05-27T16:00:17Z</time>
      </trkpt>
      <trkpt lat="47.10859" lon="-1.43841">
        <ele>33.75</ele>
        <time>2020-05-27T16:00:19Z</time>
      </trkpt>
      <trkpt lat="47.10871" lon="-1.43832">
        <ele>31.61</ele>
        <time>2020-05-27T16:00:22Z</time>
      </trkpt>
      <trkpt lat="47.1088" lon="-1.43824">
        <ele>31.41</ele>
        <time>2020-05-27T16:00:24Z</time>
      </trkpt>
      <trkpt lat="47.10889" lon="-1.43814">
        <ele>31.48</ele>
        <time>2020-05-27T16:00:26Z</time>
      </trkpt>
      <trkpt lat="47.10897" lon="-1.43805">
        <ele>31.89</ele>
        <time>2020-05-27T16:00:28Z</time>
      </trkpt>
      <trkpt lat="47.10905" lon="-1.43797">
        <ele>32.24</ele>
        <time>2020-05-27T16:00:30Z</time>
      </trkpt>
      <trkpt lat="47.10913" lon="-1.43788">
        <ele>32.55</ele>
        <time>2020-05-27T16:00:32Z</time>
      </trkpt>
      <trkpt lat="47.10921" lon="-1.43781">
        <ele>31.85</ele>
        <time>2020-05-27T16:00:34Z</time>
      </trkpt>
      <trkpt lat="47.10928" lon="-1.43772">
        <ele>31.47</ele>
        <time>2020-05-27T16:00:36Z</time>
      </trkpt>
      <trkpt lat="47.10936" lon="-1.43764">
        <ele>30.49</ele>
        <time>2020-05-27T16:00:38Z</time>
      </trkpt>
      <trkpt lat="47.10945" lon="-1.43756">
        <ele>30.28</ele>
        <time>2020-05-27T16:00:40Z</time>
      </trkpt>
      <trkpt lat="47.10952" lon="-1.43749">
        <ele>30.44</ele>
        <time>2020-05-27T16:00:42Z</time>
      </trkpt>
      <trkpt lat="47.10961" lon="-1.4374">
        <ele>29.37</ele>
        <time>2020-05-27T16:00:44Z</time>
      </trkpt>
      <trkpt lat="47.1097" lon="-1.43732">
        <ele>28.28</ele>
        <time>2020-05-27T16:00:46Z</time>
      </trkpt>
      <trkpt lat="47.10979" lon="-1.43725">
        <ele>28.24</ele>
        <time>2020-05-27T16:00:48Z</time>
      </trkpt>
      <trkpt lat="47.10991" lon="-1.43713">
        <ele>28.78</ele>
        <time>2020-05-27T16:00:51Z</time>
      </trkpt>
      <trkpt lat="47.11" lon="-1.43703">
        <ele>28.49</ele>
        <time>2020-05-27T16:00:53Z</time>
      </trkpt>
      <trkpt lat="47.11008" lon="-1.43693">
        <ele>28.87</ele>
        <time>2020-05-27T16:00:55Z</time>
      </trkpt>
      <trkpt lat="47.11015" lon="-1.43684">
        <ele>29</ele>
        <time>2020-05-27T16:00:57Z</time>
      </trkpt>
      <trkpt lat="47.11024" lon="-1.43674">
        <ele>29.57</ele>
        <time>2020-05-27T16:00:59Z</time>
      </trkpt>
      <trkpt lat="47.11031" lon="-1.43665">
        <ele>29.26</ele>
        <time>2020-05-27T16:01:01Z</time>
      </trkpt>
      <trkpt lat="47.11038" lon="-1.43654">
        <ele>29.31</ele>
        <time>2020-05-27T16:01:03Z</time>
      </trkpt>
      <trkpt lat="47.11045" lon="-1.43643">
        <ele>29.87</ele>
        <time>2020-05-27T16:01:05Z</time>
      </trkpt>
      <trkpt lat="47.11053" lon="-1.43632">
        <ele>30.13</ele>
        <time>2020-05-27T16:01:07Z</time>
      </trkpt>
      <trkpt lat="47.11061" lon="-1.43623">
        <ele>30.56</ele>
        <time>2020-05-27T16:01:09Z</time>
      </trkpt>
      <trkpt lat="47.11069" lon="-1.43613">
        <ele>30.89</ele>
        <time>2020-05-27T16:01:11Z</time>
      </trkpt>
      <trkpt lat="47.11077" lon="-1.43605">
        <ele>31.23</ele>
        <time>2020-05-27T16:01:13Z</time>
      </trkpt>
      <trkpt lat="47.11084" lon="-1.43596">
        <ele>31.91</ele>
        <time>2020-05-27T16:01:15Z</time>
      </trkpt>
      <trkpt lat="47.11093" lon="-1.43588">
        <ele>32.18</ele>
        <time>2020-05-27T16:01:17Z</time>
      </trkpt>
      <trkpt lat="47.11102" lon="-1.43578">
        <ele>31.92</ele>
        <time>2020-05-27T16:01:19Z</time>
      </trkpt>
      <trkpt lat="47.11109" lon="-1.43568">
        <ele>32.08</ele>
        <time>2020-05-27T16:01:21Z</time>
      </trkpt>
      <trkpt lat="47.11116" lon="-1.43558">
        <ele>32.37</ele>
        <time>2020-05-27T16:01:23Z</time>
      </trkpt>
      <trkpt lat="47.11123" lon="-1.43547">
        <ele>32.9</ele>
        <time>2020-05-27T16:01:25Z</time>
      </trkpt>
      <trkpt lat="47.1113" lon="-1.43536">
        <ele>32.72</ele>
        <time>2020-05-27T16:01:27Z</time>
      </trkpt>
      <trkpt lat="47.11136" lon="-1.43525">
        <ele>32.8</ele>
        <time>2020-05-27T16:01:29Z</time>
      </trkpt>
      <trkpt lat="47.11144" lon="-1.4351">
        <ele>32.93</ele>
        <time>2020-05-27T16:01:32Z</time>
      </trkpt>
      <trkpt lat="47.1115" lon="-1.43498">
        <ele>33.86</ele>
        <time>2020-05-27T16:01:34Z</time>
      </trkpt>
      <trkpt lat="47.11156" lon="-1.43487">
        <ele>34.24</ele>
        <time>2020-05-27T16:01:36Z</time>
      </trkpt>
      <trkpt lat="47.11165" lon="-1.43472">
        <ele>35.49</ele>
        <time>2020-05-27T16:01:39Z</time>
      </trkpt>
      <trkpt lat="47.1117" lon="-1.43461">
        <ele>36.47</ele>
        <time>2020-05-27T16:01:41Z</time>
      </trkpt>
      <trkpt lat="47.11177" lon="-1.43449">
        <ele>36.78</ele>
        <time>2020-05-27T16:01:43Z</time>
      </trkpt>
      <trkpt lat="47.11183" lon="-1.43439">
        <ele>36.8</ele>
        <time>2020-05-27T16:01:45Z</time>
      </trkpt>
      <trkpt lat="47.11191" lon="-1.43424">
        <ele>35.48</ele>
        <time>2020-05-27T16:01:48Z</time>
      </trkpt>
      <trkpt lat="47.11199" lon="-1.43413">
        <ele>35.24</ele>
        <time>2020-05-27T16:01:50Z</time>
      </trkpt>
      <trkpt lat="47.11206" lon="-1.43402">
        <ele>35.99</ele>
        <time>2020-05-27T16:01:52Z</time>
      </trkpt>
      <trkpt lat="47.11212" lon="-1.4339">
        <ele>36.25</ele>
        <time>2020-05-27T16:01:54Z</time>
      </trkpt>
      <trkpt lat="47.11221" lon="-1.43374">
        <ele>36.49</ele>
        <time>2020-05-27T16:01:57Z</time>
      </trkpt>
      <trkpt lat="47.11228" lon="-1.43363">
        <ele>37.11</ele>
        <time>2020-05-27T16:01:59Z</time>
      </trkpt>
      <trkpt lat="47.11235" lon="-1.43352">
        <ele>37.47</ele>
        <time>2020-05-27T16:02:01Z</time>
      </trkpt>
      <trkpt lat="47.11242" lon="-1.4334">
        <ele>37.51</ele>
        <time>2020-05-27T16:02:03Z</time>
      </trkpt>
      <trkpt lat="47.11249" lon="-1.43329">
        <ele>37.73</ele>
        <time>2020-05-27T16:02:05Z</time>
      </trkpt>
      <trkpt lat="47.11256" lon="-1.43318">
        <ele>37.31</ele>
        <time>2020-05-27T16:02:07Z</time>
      </trkpt>
      <trkpt lat="47.11264" lon="-1.43308">
        <ele>37.64</ele>
        <time>2020-05-27T16:02:09Z</time>
      </trkpt>
      <trkpt lat="47.11271" lon="-1.43299">
        <ele>37.88</ele>
        <time>2020-05-27T16:02:11Z</time>
      </trkpt>
      <trkpt lat="47.11279" lon="-1.43288">
        <ele>38.28</ele>
        <time>2020-05-27T16:02:13Z</time>
      </trkpt>
      <trkpt lat="47.11287" lon="-1.43278">
        <ele>39.5</ele>
        <time>2020-05-27T16:02:15Z</time>
      </trkpt>
      <trkpt lat="47.11297" lon="-1.43268">
        <ele>39.94</ele>
        <time>2020-05-27T16:02:17Z</time>
      </trkpt>
      <trkpt lat="47.11306" lon="-1.43258">
        <ele>39.97</ele>
        <time>2020-05-27T16:02:19Z</time>
      </trkpt>
      <trkpt lat="47.11315" lon="-1.43248">
        <ele>39.06</ele>
        <time>2020-05-27T16:02:21Z</time>
      </trkpt>
      <trkpt lat="47.11323" lon="-1.43238">
        <ele>39.08</ele>
        <time>2020-05-27T16:02:23Z</time>
      </trkpt>
      <trkpt lat="47.11333" lon="-1.43228">
        <ele>39.76</ele>
        <time>2020-05-27T16:02:25Z</time>
      </trkpt>
      <trkpt lat="47.11341" lon="-1.43218">
        <ele>40.01</ele>
        <time>2020-05-27T16:02:27Z</time>
      </trkpt>
      <trkpt lat="47.11348" lon="-1.43208">
        <ele>39.32</ele>
        <time>2020-05-27T16:02:29Z</time>
      </trkpt>
      <trkpt lat="47.11356" lon="-1.43197">
        <ele>39.12</ele>
        <time>2020-05-27T16:02:31Z</time>
      </trkpt>
      <trkpt lat="47.11364" lon="-1.43187">
        <ele>38.47</ele>
        <time>2020-05-27T16:02:33Z</time>
      </trkpt>
      <trkpt lat="47.11373" lon="-1.43177">
        <ele>38.31</ele>
        <time>2020-05-27T16:02:35Z</time>
      </trkpt>
      <trkpt lat="47.11382" lon="-1.43166">
        <ele>37.36</ele>
        <time>2020-05-27T16:02:37Z</time>
      </trkpt>
      <trkpt lat="47.11391" lon="-1.43153">
        <ele>35.91</ele>
        <time>2020-05-27T16:02:39Z</time>
      </trkpt>
      <trkpt lat="47.11399" lon="-1.43142">
        <ele>35.89</ele>
        <time>2020-05-27T16:02:41Z</time>
      </trkpt>
      <trkpt lat="47.11408" lon="-1.4313">
        <ele>37.75</ele>
        <time>2020-05-27T16:02:43Z</time>
      </trkpt>
      <trkpt lat="47.11418" lon="-1.43119">
        <ele>39.01</ele>
        <time>2020-05-27T16:02:45Z</time>
      </trkpt>
      <trkpt lat="47.11428" lon="-1.43107">
        <ele>39.45</ele>
        <time>2020-05-27T16:02:47Z</time>
      </trkpt>
      <trkpt lat="47.11436" lon="-1.43098">
        <ele>39.41</ele>
        <time>2020-05-27T16:02:49Z</time>
      </trkpt>
      <trkpt lat="47.11447" lon="-1.43086">
        <ele>39.35</ele>
        <time>2020-05-27T16:02:51Z</time>
      </trkpt>
      <trkpt lat="47.11457" lon="-1.43077">
        <ele>38.93</ele>
        <time>2020-05-27T16:02:53Z</time>
      </trkpt>
      <trkpt lat="47.11467" lon="-1.43067">
        <ele>38.27</ele>
        <time>2020-05-27T16:02:55Z</time>
      </trkpt>
      <trkpt lat="47.11479" lon="-1.43056">
        <ele>38.07</ele>
        <time>2020-05-27T16:02:57Z</time>
      </trkpt>
      <trkpt lat="47.11491" lon="-1.43046">
        <ele>37.84</ele>
        <time>2020-05-27T16:02:59Z</time>
      </trkpt>
      <trkpt lat="47.11502" lon="-1.43036">
        <ele>38.27</ele>
        <time>2020-05-27T16:03:01Z</time>
      </trkpt>
      <trkpt lat="47.11513" lon="-1.43025">
        <ele>37.41</ele>
        <time>2020-05-27T16:03:03Z</time>
      </trkpt>
      <trkpt lat="47.11526" lon="-1.43014">
        <ele>36.31</ele>
        <time>2020-05-27T16:03:05Z</time>
      </trkpt>
      <trkpt lat="47.11538" lon="-1.43002">
        <ele>35.54</ele>
        <time>2020-05-27T16:03:07Z</time>
      </trkpt>
      <trkpt lat="47.11551" lon="-1.4299">
        <ele>35.49</ele>
        <time>2020-05-27T16:03:09Z</time>
      </trkpt>
      <trkpt lat="47.11562" lon="-1.42981">
        <ele>35.78</ele>
        <time>2020-05-27T16:03:11Z</time>
      </trkpt>
      <trkpt lat="47.11574" lon="-1.42969">
        <ele>34.71</ele>
        <time>2020-05-27T16:03:13Z</time>
      </trkpt>
      <trkpt lat="47.11585" lon="-1.42959">
        <ele>33.65</ele>
        <time>2020-05-27T16:03:15Z</time>
      </trkpt>
      <trkpt lat="47.11597" lon="-1.42947">
        <ele>32.55</ele>
        <time>2020-05-27T16:03:17Z</time>
      </trkpt>
      <trkpt lat="47.11611" lon="-1.42934">
        <ele>31.54</ele>
        <time>2020-05-27T16:03:19Z</time>
      </trkpt>
      <trkpt lat="47.11623" lon="-1.4292">
        <ele>30.51</ele>
        <time>2020-05-27T16:03:21Z</time>
      </trkpt>
      <trkpt lat="47.11633" lon="-1.42906">
        <ele>29.33</ele>
        <time>2020-05-27T16:03:23Z</time>
      </trkpt>
      <trkpt lat="47.11639" lon="-1.42888">
        <ele>28.51</ele>
        <time>2020-05-27T16:03:25Z</time>
      </trkpt>
      <trkpt lat="47.11647" lon="-1.42871">
        <ele>28.22</ele>
        <time>2020-05-27T16:03:27Z</time>
      </trkpt>
      <trkpt lat="47.11654" lon="-1.42857">
        <ele>27.96</ele>
        <time>2020-05-27T16:03:29Z</time>
      </trkpt>
      <trkpt lat="47.11662" lon="-1.4284">
        <ele>27.4</ele>
        <time>2020-05-27T16:03:31Z</time>
      </trkpt>
      <trkpt lat="47.11669" lon="-1.42826">
        <ele>27.04</ele>
        <time>2020-05-27T16:03:33Z</time>
      </trkpt>
      <trkpt lat="47.11676" lon="-1.4281">
        <ele>26.87</ele>
        <time>2020-05-27T16:03:35Z</time>
      </trkpt>
      <trkpt lat="47.11682" lon="-1.42794">
        <ele>28.39</ele>
        <time>2020-05-27T16:03:37Z</time>
      </trkpt>
      <trkpt lat="47.11687" lon="-1.42779">
        <ele>29.27</ele>
        <time>2020-05-27T16:03:39Z</time>
      </trkpt>
      <trkpt lat="47.1169" lon="-1.42766">
        <ele>29.85</ele>
        <time>2020-05-27T16:03:41Z</time>
      </trkpt>
      <trkpt lat="47.11693" lon="-1.4275">
        <ele>30.16</ele>
        <time>2020-05-27T16:03:44Z</time>
      </trkpt>
      <trkpt lat="47.11697" lon="-1.42735">
        <ele>30.19</ele>
        <time>2020-05-27T16:03:47Z</time>
      </trkpt>
      <trkpt lat="47.11701" lon="-1.42721">
        <ele>30.32</ele>
        <time>2020-05-27T16:03:50Z</time>
      </trkpt>
      <trkpt lat="47.11709" lon="-1.42707">
        <ele>30.41</ele>
        <time>2020-05-27T16:03:53Z</time>
      </trkpt>
      <trkpt lat="47.11717" lon="-1.427">
        <ele>30.67</ele>
        <time>2020-05-27T16:03:56Z</time>
      </trkpt>
      <trkpt lat="47.11727" lon="-1.4269">
        <ele>31.24</ele>
        <time>2020-05-27T16:03:59Z</time>
      </trkpt>
      <trkpt lat="47.11735" lon="-1.42685">
        <ele>30.84</ele>
        <time>2020-05-27T16:04:02Z</time>
      </trkpt>
      <trkpt lat="47.11746" lon="-1.42678">
        <ele>30.67</ele>
        <time>2020-05-27T16:04:05Z</time>
      </trkpt>
      <trkpt lat="47.11757" lon="-1.4267">
        <ele>30.61</ele>
        <time>2020-05-27T16:04:08Z</time>
      </trkpt>
      <trkpt lat="47.11767" lon="-1.42665">
        <ele>30.63</ele>
        <time>2020-05-27T16:04:11Z</time>
      </trkpt>
      <trkpt lat="47.11776" lon="-1.4266">
        <ele>30.61</ele>
        <time>2020-05-27T16:04:14Z</time>
      </trkpt>
      <trkpt lat="47.11785" lon="-1.42654">
        <ele>30.54</ele>
        <time>2020-05-27T16:04:17Z</time>
      </trkpt>
      <trkpt lat="47.11794" lon="-1.42649">
        <ele>30.6</ele>
        <time>2020-05-27T16:04:19Z</time>
      </trkpt>
      <trkpt lat="47.11805" lon="-1.42644">
        <ele>30.67</ele>
        <time>2020-05-27T16:04:22Z</time>
      </trkpt>
      <trkpt lat="47.11814" lon="-1.42638">
        <ele>30.99</ele>
        <time>2020-05-27T16:04:25Z</time>
      </trkpt>
      <trkpt lat="47.11822" lon="-1.42632">
        <ele>31.31</ele>
        <time>2020-05-27T16:04:28Z</time>
      </trkpt>
      <trkpt lat="47.11831" lon="-1.42625">
        <ele>31.74</ele>
        <time>2020-05-27T16:04:31Z</time>
      </trkpt>
      <trkpt lat="47.1184" lon="-1.42619">
        <ele>32.26</ele>
        <time>2020-05-27T16:04:34Z</time>
      </trkpt>
      <trkpt lat="47.1185" lon="-1.42611">
        <ele>33.1</ele>
        <time>2020-05-27T16:04:37Z</time>
      </trkpt>
      <trkpt lat="47.11861" lon="-1.42604">
        <ele>33.76</ele>
        <time>2020-05-27T16:04:40Z</time>
      </trkpt>
      <trkpt lat="47.11871" lon="-1.42596">
        <ele>34.37</ele>
        <time>2020-05-27T16:04:43Z</time>
      </trkpt>
      <trkpt lat="47.11881" lon="-1.42586">
        <ele>35.08</ele>
        <time>2020-05-27T16:04:46Z</time>
      </trkpt>
      <trkpt lat="47.11889" lon="-1.42577">
        <ele>35.97</ele>
        <time>2020-05-27T16:04:49Z</time>
      </trkpt>
      <trkpt lat="47.119" lon="-1.42566">
        <ele>38.36</ele>
        <time>2020-05-27T16:04:52Z</time>
      </trkpt>
      <trkpt lat="47.11908" lon="-1.42557">
        <ele>42.06</ele>
        <time>2020-05-27T16:04:55Z</time>
      </trkpt>
      <trkpt lat="47.11918" lon="-1.42547">
        <ele>45.8</ele>
        <time>2020-05-27T16:04:58Z</time>
      </trkpt>
      <trkpt lat="47.11928" lon="-1.42537">
        <ele>46.17</ele>
        <time>2020-05-27T16:05:01Z</time>
      </trkpt>
      <trkpt lat="47.11937" lon="-1.42528">
        <ele>47.92</ele>
        <time>2020-05-27T16:05:05Z</time>
      </trkpt>
      <trkpt lat="47.11947" lon="-1.42518">
        <ele>47.82</ele>
        <time>2020-05-27T16:05:08Z</time>
      </trkpt>
      <trkpt lat="47.11955" lon="-1.42511">
        <ele>48.44</ele>
        <time>2020-05-27T16:05:10Z</time>
      </trkpt>
      <trkpt lat="47.11964" lon="-1.42501">
        <ele>48.57</ele>
        <time>2020-05-27T16:05:13Z</time>
      </trkpt>
      <trkpt lat="47.11976" lon="-1.42491">
        <ele>50.14</ele>
        <time>2020-05-27T16:05:16Z</time>
      </trkpt>
      <trkpt lat="47.11986" lon="-1.42481">
        <ele>50.51</ele>
        <time>2020-05-27T16:05:19Z</time>
      </trkpt>
      <trkpt lat="47.11997" lon="-1.42469">
        <ele>51</ele>
        <time>2020-05-27T16:05:22Z</time>
      </trkpt>
      <trkpt lat="47.12006" lon="-1.4246">
        <ele>50.08</ele>
        <time>2020-05-27T16:05:24Z</time>
      </trkpt>
      <trkpt lat="47.12015" lon="-1.42453">
        <ele>50.57</ele>
        <time>2020-05-27T16:05:26Z</time>
      </trkpt>
      <trkpt lat="47.12024" lon="-1.42444">
        <ele>50.91</ele>
        <time>2020-05-27T16:05:28Z</time>
      </trkpt>
      <trkpt lat="47.12033" lon="-1.42436">
        <ele>50.98</ele>
        <time>2020-05-27T16:05:30Z</time>
      </trkpt>
      <trkpt lat="47.12041" lon="-1.42428">
        <ele>50.34</ele>
        <time>2020-05-27T16:05:32Z</time>
      </trkpt>
      <trkpt lat="47.12051" lon="-1.42414">
        <ele>49.82</ele>
        <time>2020-05-27T16:05:35Z</time>
      </trkpt>
      <trkpt lat="47.12058" lon="-1.42404">
        <ele>50.08</ele>
        <time>2020-05-27T16:05:37Z</time>
      </trkpt>
      <trkpt lat="47.12066" lon="-1.42386">
        <ele>48.24</ele>
        <time>2020-05-27T16:05:40Z</time>
      </trkpt>
      <trkpt lat="47.12071" lon="-1.42371">
        <ele>47.79</ele>
        <time>2020-05-27T16:05:42Z</time>
      </trkpt>
      <trkpt lat="47.12076" lon="-1.42356">
        <ele>48.24</ele>
        <time>2020-05-27T16:05:44Z</time>
      </trkpt>
      <trkpt lat="47.1208" lon="-1.42342">
        <ele>48.81</ele>
        <time>2020-05-27T16:05:46Z</time>
      </trkpt>
      <trkpt lat="47.12084" lon="-1.42327">
        <ele>48.87</ele>
        <time>2020-05-27T16:05:48Z</time>
      </trkpt>
      <trkpt lat="47.12088" lon="-1.42312">
        <ele>49.41</ele>
        <time>2020-05-27T16:05:50Z</time>
      </trkpt>
      <trkpt lat="47.12093" lon="-1.42298">
        <ele>49.71</ele>
        <time>2020-05-27T16:05:52Z</time>
      </trkpt>
      <trkpt lat="47.12097" lon="-1.42284">
        <ele>49.65</ele>
        <time>2020-05-27T16:05:54Z</time>
      </trkpt>
      <trkpt lat="47.12103" lon="-1.42267">
        <ele>50.24</ele>
        <time>2020-05-27T16:05:56Z</time>
      </trkpt>
      <trkpt lat="47.12108" lon="-1.42247">
        <ele>49</ele>
        <time>2020-05-27T16:05:59Z</time>
      </trkpt>
      <trkpt lat="47.12112" lon="-1.42234">
        <ele>48.77</ele>
        <time>2020-05-27T16:06:01Z</time>
      </trkpt>
      <trkpt lat="47.12117" lon="-1.42218">
        <ele>48.56</ele>
        <time>2020-05-27T16:06:03Z</time>
      </trkpt>
      <trkpt lat="47.12122" lon="-1.42205">
        <ele>48.63</ele>
        <time>2020-05-27T16:06:05Z</time>
      </trkpt>
      <trkpt lat="47.12128" lon="-1.42192">
        <ele>49.4</ele>
        <time>2020-05-27T16:06:07Z</time>
      </trkpt>
      <trkpt lat="47.12136" lon="-1.4218">
        <ele>49.46</ele>
        <time>2020-05-27T16:06:09Z</time>
      </trkpt>
      <trkpt lat="47.12144" lon="-1.42171">
        <ele>49.92</ele>
        <time>2020-05-27T16:06:11Z</time>
      </trkpt>
      <trkpt lat="47.12154" lon="-1.42163">
        <ele>49.67</ele>
        <time>2020-05-27T16:06:13Z</time>
      </trkpt>
      <trkpt lat="47.12164" lon="-1.42156">
        <ele>50.02</ele>
        <time>2020-05-27T16:06:15Z</time>
      </trkpt>
      <trkpt lat="47.12174" lon="-1.42151">
        <ele>50.51</ele>
        <time>2020-05-27T16:06:17Z</time>
      </trkpt>
      <trkpt lat="47.12184" lon="-1.42145">
        <ele>51.29</ele>
        <time>2020-05-27T16:06:19Z</time>
      </trkpt>
      <trkpt lat="47.12194" lon="-1.42139">
        <ele>51.3</ele>
        <time>2020-05-27T16:06:21Z</time>
      </trkpt>
      <trkpt lat="47.12205" lon="-1.42134">
        <ele>51.81</ele>
        <time>2020-05-27T16:06:23Z</time>
      </trkpt>
      <trkpt lat="47.12217" lon="-1.42129">
        <ele>52.48</ele>
        <time>2020-05-27T16:06:25Z</time>
      </trkpt>
      <trkpt lat="47.12227" lon="-1.42122">
        <ele>51.77</ele>
        <time>2020-05-27T16:06:27Z</time>
      </trkpt>
      <trkpt lat="47.12237" lon="-1.42113">
        <ele>50.8</ele>
        <time>2020-05-27T16:06:29Z</time>
      </trkpt>
      <trkpt lat="47.12247" lon="-1.42103">
        <ele>50.08</ele>
        <time>2020-05-27T16:06:31Z</time>
      </trkpt>
      <trkpt lat="47.12256" lon="-1.42095">
        <ele>49.72</ele>
        <time>2020-05-27T16:06:33Z</time>
      </trkpt>
      <trkpt lat="47.12264" lon="-1.42088">
        <ele>50.36</ele>
        <time>2020-05-27T16:06:35Z</time>
      </trkpt>
      <trkpt lat="47.12274" lon="-1.4208">
        <ele>50.45</ele>
        <time>2020-05-27T16:06:37Z</time>
      </trkpt>
      <trkpt lat="47.12283" lon="-1.42072">
        <ele>50.25</ele>
        <time>2020-05-27T16:06:39Z</time>
      </trkpt>
      <trkpt lat="47.12294" lon="-1.42062">
        <ele>50.34</ele>
        <time>2020-05-27T16:06:41Z</time>
      </trkpt>
      <trkpt lat="47.12305" lon="-1.42053">
        <ele>49.59</ele>
        <time>2020-05-27T16:06:43Z</time>
      </trkpt>
      <trkpt lat="47.12316" lon="-1.42046">
        <ele>48.55</ele>
        <time>2020-05-27T16:06:45Z</time>
      </trkpt>
      <trkpt lat="47.12326" lon="-1.4204">
        <ele>47.19</ele>
        <time>2020-05-27T16:06:47Z</time>
      </trkpt>
      <trkpt lat="47.12335" lon="-1.42043">
        <ele>46.36</ele>
        <time>2020-05-27T16:06:49Z</time>
      </trkpt>
      <trkpt lat="47.12344" lon="-1.42048">
        <ele>46.51</ele>
        <time>2020-05-27T16:06:52Z</time>
      </trkpt>
      <trkpt lat="47.12356" lon="-1.4204">
        <ele>47.46</ele>
        <time>2020-05-27T16:06:55Z</time>
      </trkpt>
      <trkpt lat="47.12365" lon="-1.42033">
        <ele>48.31</ele>
        <time>2020-05-27T16:06:57Z</time>
      </trkpt>
      <trkpt lat="47.12374" lon="-1.42026">
        <ele>48.38</ele>
        <time>2020-05-27T16:06:59Z</time>
      </trkpt>
      <trkpt lat="47.12383" lon="-1.42019">
        <ele>48.19</ele>
        <time>2020-05-27T16:07:01Z</time>
      </trkpt>
      <trkpt lat="47.12392" lon="-1.4201">
        <ele>48.08</ele>
        <time>2020-05-27T16:07:03Z</time>
      </trkpt>
      <trkpt lat="47.124" lon="-1.41999">
        <ele>47.35</ele>
        <time>2020-05-27T16:07:05Z</time>
      </trkpt>
      <trkpt lat="47.12409" lon="-1.41986">
        <ele>46.22</ele>
        <time>2020-05-27T16:07:07Z</time>
      </trkpt>
      <trkpt lat="47.12418" lon="-1.41971">
        <ele>46.17</ele>
        <time>2020-05-27T16:07:09Z</time>
      </trkpt>
      <trkpt lat="47.12428" lon="-1.41957">
        <ele>46.64</ele>
        <time>2020-05-27T16:07:11Z</time>
      </trkpt>
      <trkpt lat="47.12439" lon="-1.41941">
        <ele>46.33</ele>
        <time>2020-05-27T16:07:13Z</time>
      </trkpt>
      <trkpt lat="47.12449" lon="-1.41928">
        <ele>45.68</ele>
        <time>2020-05-27T16:07:15Z</time>
      </trkpt>
      <trkpt lat="47.12458" lon="-1.41917">
        <ele>44.69</ele>
        <time>2020-05-27T16:07:17Z</time>
      </trkpt>
      <trkpt lat="47.12467" lon="-1.41906">
        <ele>44.71</ele>
        <time>2020-05-27T16:07:19Z</time>
      </trkpt>
      <trkpt lat="47.12478" lon="-1.41894">
        <ele>44.97</ele>
        <time>2020-05-27T16:07:21Z</time>
      </trkpt>
      <trkpt lat="47.12489" lon="-1.41884">
        <ele>44.3</ele>
        <time>2020-05-27T16:07:23Z</time>
      </trkpt>
      <trkpt lat="47.125" lon="-1.41875">
        <ele>43.31</ele>
        <time>2020-05-27T16:07:25Z</time>
      </trkpt>
      <trkpt lat="47.12513" lon="-1.41867">
        <ele>42.38</ele>
        <time>2020-05-27T16:07:27Z</time>
      </trkpt>
      <trkpt lat="47.12524" lon="-1.41862">
        <ele>41.55</ele>
        <time>2020-05-27T16:07:29Z</time>
      </trkpt>
      <trkpt lat="47.12536" lon="-1.41857">
        <ele>41.52</ele>
        <time>2020-05-27T16:07:31Z</time>
      </trkpt>
      <trkpt lat="47.12551" lon="-1.41851">
        <ele>41.25</ele>
        <time>2020-05-27T16:07:33Z</time>
      </trkpt>
      <trkpt lat="47.12564" lon="-1.4184">
        <ele>41.35</ele>
        <time>2020-05-27T16:07:35Z</time>
      </trkpt>
      <trkpt lat="47.12574" lon="-1.41824">
        <ele>41</ele>
        <time>2020-05-27T16:07:37Z</time>
      </trkpt>
      <trkpt lat="47.12579" lon="-1.41806">
        <ele>40.61</ele>
        <time>2020-05-27T16:07:39Z</time>
      </trkpt>
      <trkpt lat="47.12583" lon="-1.41786">
        <ele>40.54</ele>
        <time>2020-05-27T16:07:41Z</time>
      </trkpt>
      <trkpt lat="47.12588" lon="-1.41766">
        <ele>40.77</ele>
        <time>2020-05-27T16:07:43Z</time>
      </trkpt>
      <trkpt lat="47.12597" lon="-1.41746">
        <ele>40.68</ele>
        <time>2020-05-27T16:07:45Z</time>
      </trkpt>
      <trkpt lat="47.12609" lon="-1.41735">
        <ele>40.59</ele>
        <time>2020-05-27T16:07:47Z</time>
      </trkpt>
      <trkpt lat="47.12624" lon="-1.41727">
        <ele>40.48</ele>
        <time>2020-05-27T16:07:49Z</time>
      </trkpt>
      <trkpt lat="47.12639" lon="-1.41722">
        <ele>39.17</ele>
        <time>2020-05-27T16:07:51Z</time>
      </trkpt>
      <trkpt lat="47.12655" lon="-1.41714">
        <ele>37.12</ele>
        <time>2020-05-27T16:07:53Z</time>
      </trkpt>
      <trkpt lat="47.12664" lon="-1.41707">
        <ele>36.07</ele>
        <time>2020-05-27T16:07:54Z</time>
      </trkpt>
      <trkpt lat="47.12672" lon="-1.41701">
        <ele>35.15</ele>
        <time>2020-05-27T16:07:55Z</time>
      </trkpt>
      <trkpt lat="47.1268" lon="-1.41694">
        <ele>34.06</ele>
        <time>2020-05-27T16:07:56Z</time>
      </trkpt>
      <trkpt lat="47.12689" lon="-1.41686">
        <ele>32.88</ele>
        <time>2020-05-27T16:07:57Z</time>
      </trkpt>
      <trkpt lat="47.12698" lon="-1.4168">
        <ele>31.59</ele>
        <time>2020-05-27T16:07:58Z</time>
      </trkpt>
      <trkpt lat="47.12716" lon="-1.41674">
        <ele>29.92</ele>
        <time>2020-05-27T16:08:00Z</time>
      </trkpt>
      <trkpt lat="47.12725" lon="-1.41673">
        <ele>29.59</ele>
        <time>2020-05-27T16:08:01Z</time>
      </trkpt>
      <trkpt lat="47.12736" lon="-1.41672">
        <ele>29.4</ele>
        <time>2020-05-27T16:08:02Z</time>
      </trkpt>
      <trkpt lat="47.12746" lon="-1.41671">
        <ele>29.34</ele>
        <time>2020-05-27T16:08:03Z</time>
      </trkpt>
      <trkpt lat="47.12755" lon="-1.4167">
        <ele>29.13</ele>
        <time>2020-05-27T16:08:04Z</time>
      </trkpt>
      <trkpt lat="47.12764" lon="-1.41664">
        <ele>28.93</ele>
        <time>2020-05-27T16:08:05Z</time>
      </trkpt>
      <trkpt lat="47.12772" lon="-1.41658">
        <ele>28.82</ele>
        <time>2020-05-27T16:08:06Z</time>
      </trkpt>
      <trkpt lat="47.12779" lon="-1.41647">
        <ele>28.07</ele>
        <time>2020-05-27T16:08:07Z</time>
      </trkpt>
      <trkpt lat="47.1278" lon="-1.41632">
        <ele>27.41</ele>
        <time>2020-05-27T16:08:08Z</time>
      </trkpt>
      <trkpt lat="47.12778" lon="-1.41618">
        <ele>27</ele>
        <time>2020-05-27T16:08:09Z</time>
      </trkpt>
      <trkpt lat="47.12773" lon="-1.41606">
        <ele>26.64</ele>
        <time>2020-05-27T16:08:10Z</time>
      </trkpt>
      <trkpt lat="47.12764" lon="-1.41596">
        <ele>26.36</ele>
        <time>2020-05-27T16:08:11Z</time>
      </trkpt>
      <trkpt lat="47.12755" lon="-1.41591">
        <ele>25.61</ele>
        <time>2020-05-27T16:08:12Z</time>
      </trkpt>
      <trkpt lat="47.12746" lon="-1.4159">
        <ele>24.89</ele>
        <time>2020-05-27T16:08:13Z</time>
      </trkpt>
      <trkpt lat="47.12736" lon="-1.4159">
        <ele>24.35</ele>
        <time>2020-05-27T16:08:14Z</time>
      </trkpt>
      <trkpt lat="47.12727" lon="-1.41592">
        <ele>23.93</ele>
        <time>2020-05-27T16:08:15Z</time>
      </trkpt>
      <trkpt lat="47.12708" lon="-1.41591">
        <ele>23.27</ele>
        <time>2020-05-27T16:08:17Z</time>
      </trkpt>
      <trkpt lat="47.12698" lon="-1.41587">
        <ele>22.78</ele>
        <time>2020-05-27T16:08:18Z</time>
      </trkpt>
      <trkpt lat="47.12681" lon="-1.41578">
        <ele>21.56</ele>
        <time>2020-05-27T16:08:20Z</time>
      </trkpt>
      <trkpt lat="47.12671" lon="-1.41575">
        <ele>20.69</ele>
        <time>2020-05-27T16:08:21Z</time>
      </trkpt>
      <trkpt lat="47.12662" lon="-1.41573">
        <ele>19.74</ele>
        <time>2020-05-27T16:08:22Z</time>
      </trkpt>
      <trkpt lat="47.12652" lon="-1.4158">
        <ele>19.1</ele>
        <time>2020-05-27T16:08:23Z</time>
      </trkpt>
      <trkpt lat="47.12642" lon="-1.41582">
        <ele>18.39</ele>
        <time>2020-05-27T16:08:24Z</time>
      </trkpt>
      <trkpt lat="47.12633" lon="-1.41583">
        <ele>17.52</ele>
        <time>2020-05-27T16:08:25Z</time>
      </trkpt>
      <trkpt lat="47.12622" lon="-1.4158">
        <ele>16.91</ele>
        <time>2020-05-27T16:08:26Z</time>
      </trkpt>
      <trkpt lat="47.12611" lon="-1.41576">
        <ele>16.63</ele>
        <time>2020-05-27T16:08:27Z</time>
      </trkpt>
      <trkpt lat="47.12602" lon="-1.41568">
        <ele>16.44</ele>
        <time>2020-05-27T16:08:28Z</time>
      </trkpt>
      <trkpt lat="47.12595" lon="-1.41556">
        <ele>15.68</ele>
        <time>2020-05-27T16:08:29Z</time>
      </trkpt>
      <trkpt lat="47.12588" lon="-1.41544">
        <ele>14.85</ele>
        <time>2020-05-27T16:08:30Z</time>
      </trkpt>
      <trkpt lat="47.12582" lon="-1.41532">
        <ele>14.33</ele>
        <time>2020-05-27T16:08:31Z</time>
      </trkpt>
      <trkpt lat="47.12575" lon="-1.4152">
        <ele>13.63</ele>
        <time>2020-05-27T16:08:32Z</time>
      </trkpt>
      <trkpt lat="47.12568" lon="-1.41508">
        <ele>12.39</ele>
        <time>2020-05-27T16:08:33Z</time>
      </trkpt>
      <trkpt lat="47.12562" lon="-1.41497">
        <ele>11.3</ele>
        <time>2020-05-27T16:08:34Z</time>
      </trkpt>
      <trkpt lat="47.12552" lon="-1.41479">
        <ele>9.52</ele>
        <time>2020-05-27T16:08:36Z</time>
      </trkpt>
      <trkpt lat="47.12544" lon="-1.41465">
        <ele>7.97</ele>
        <time>2020-05-27T16:08:38Z</time>
      </trkpt>
      <trkpt lat="47.12536" lon="-1.41451">
        <ele>7.2</ele>
        <time>2020-05-27T16:08:40Z</time>
      </trkpt>
      <trkpt lat="47.12526" lon="-1.41436">
        <ele>6.76</ele>
        <time>2020-05-27T16:08:42Z</time>
      </trkpt>
      <trkpt lat="47.12527" lon="-1.41416">
        <ele>5.89</ele>
        <time>2020-05-27T16:08:44Z</time>
      </trkpt>
      <trkpt lat="47.12534" lon="-1.414">
        <ele>4.4</ele>
        <time>2020-05-27T16:08:46Z</time>
      </trkpt>
      <trkpt lat="47.12541" lon="-1.41389">
        <ele>3.45</ele>
        <time>2020-05-27T16:08:48Z</time>
      </trkpt>
      <trkpt lat="47.12549" lon="-1.41378">
        <ele>3.57</ele>
        <time>2020-05-27T16:08:50Z</time>
      </trkpt>
      <trkpt lat="47.12557" lon="-1.41367">
        <ele>3.55</ele>
        <time>2020-05-27T16:08:52Z</time>
      </trkpt>
      <trkpt lat="47.12565" lon="-1.41357">
        <ele>3.53</ele>
        <time>2020-05-27T16:08:54Z</time>
      </trkpt>
      <trkpt lat="47.12572" lon="-1.41346">
        <ele>4.34</ele>
        <time>2020-05-27T16:08:56Z</time>
      </trkpt>
      <trkpt lat="47.12579" lon="-1.41334">
        <ele>4.61</ele>
        <time>2020-05-27T16:08:58Z</time>
      </trkpt>
      <trkpt lat="47.12586" lon="-1.41324">
        <ele>5.98</ele>
        <time>2020-05-27T16:09:00Z</time>
      </trkpt>
      <trkpt lat="47.12596" lon="-1.41312">
        <ele>9.57</ele>
        <time>2020-05-27T16:09:03Z</time>
      </trkpt>
      <trkpt lat="47.12602" lon="-1.41301">
        <ele>11.46</ele>
        <time>2020-05-27T16:09:05Z</time>
      </trkpt>
      <trkpt lat="47.1261" lon="-1.41288">
        <ele>13.23</ele>
        <time>2020-05-27T16:09:08Z</time>
      </trkpt>
      <trkpt lat="47.1262" lon="-1.41281">
        <ele>14.15</ele>
        <time>2020-05-27T16:09:11Z</time>
      </trkpt>
      <trkpt lat="47.12631" lon="-1.41278">
        <ele>14.77</ele>
        <time>2020-05-27T16:09:14Z</time>
      </trkpt>
      <trkpt lat="47.12643" lon="-1.41273">
        <ele>16.71</ele>
        <time>2020-05-27T16:09:17Z</time>
      </trkpt>
      <trkpt lat="47.12652" lon="-1.41268">
        <ele>17.11</ele>
        <time>2020-05-27T16:09:19Z</time>
      </trkpt>
      <trkpt lat="47.12662" lon="-1.41263">
        <ele>17.2</ele>
        <time>2020-05-27T16:09:22Z</time>
      </trkpt>
      <trkpt lat="47.12672" lon="-1.41261">
        <ele>18.13</ele>
        <time>2020-05-27T16:09:25Z</time>
      </trkpt>
      <trkpt lat="47.12682" lon="-1.41255">
        <ele>18.26</ele>
        <time>2020-05-27T16:09:28Z</time>
      </trkpt>
      <trkpt lat="47.12691" lon="-1.41249">
        <ele>17.15</ele>
        <time>2020-05-27T16:09:30Z</time>
      </trkpt>
      <trkpt lat="47.127" lon="-1.41244">
        <ele>15.86</ele>
        <time>2020-05-27T16:09:32Z</time>
      </trkpt>
      <trkpt lat="47.12709" lon="-1.41238">
        <ele>14.01</ele>
        <time>2020-05-27T16:09:34Z</time>
      </trkpt>
      <trkpt lat="47.12718" lon="-1.41231">
        <ele>12.23</ele>
        <time>2020-05-27T16:09:36Z</time>
      </trkpt>
      <trkpt lat="47.12726" lon="-1.41224">
        <ele>11.14</ele>
        <time>2020-05-27T16:09:38Z</time>
      </trkpt>
      <trkpt lat="47.12737" lon="-1.41214">
        <ele>10.95</ele>
        <time>2020-05-27T16:09:41Z</time>
      </trkpt>
      <trkpt lat="47.12747" lon="-1.41201">
        <ele>11.33</ele>
        <time>2020-05-27T16:09:44Z</time>
      </trkpt>
      <trkpt lat="47.12754" lon="-1.41186">
        <ele>12.7</ele>
        <time>2020-05-27T16:09:47Z</time>
      </trkpt>
      <trkpt lat="47.12762" lon="-1.41172">
        <ele>13.53</ele>
        <time>2020-05-27T16:09:49Z</time>
      </trkpt>
      <trkpt lat="47.12768" lon="-1.4116">
        <ele>14.72</ele>
        <time>2020-05-27T16:09:51Z</time>
      </trkpt>
      <trkpt lat="47.12774" lon="-1.41147">
        <ele>14.96</ele>
        <time>2020-05-27T16:09:54Z</time>
      </trkpt>
      <trkpt lat="47.12783" lon="-1.41134">
        <ele>15.24</ele>
        <time>2020-05-27T16:09:57Z</time>
      </trkpt>
      <trkpt lat="47.12789" lon="-1.41124">
        <ele>15.48</ele>
        <time>2020-05-27T16:09:59Z</time>
      </trkpt>
      <trkpt lat="47.12795" lon="-1.41114">
        <ele>15.84</ele>
        <time>2020-05-27T16:10:01Z</time>
      </trkpt>
      <trkpt lat="47.12801" lon="-1.41103">
        <ele>17.5</ele>
        <time>2020-05-27T16:10:03Z</time>
      </trkpt>
      <trkpt lat="47.12807" lon="-1.41092">
        <ele>19.86</ele>
        <time>2020-05-27T16:10:05Z</time>
      </trkpt>
      <trkpt lat="47.1281" lon="-1.41079">
        <ele>20.44</ele>
        <time>2020-05-27T16:10:07Z</time>
      </trkpt>
      <trkpt lat="47.12812" lon="-1.41063">
        <ele>23.37</ele>
        <time>2020-05-27T16:10:09Z</time>
      </trkpt>
      <trkpt lat="47.12812" lon="-1.41049">
        <ele>26.54</ele>
        <time>2020-05-27T16:10:11Z</time>
      </trkpt>
      <trkpt lat="47.12809" lon="-1.41036">
        <ele>29.71</ele>
        <time>2020-05-27T16:10:13Z</time>
      </trkpt>
      <trkpt lat="47.12804" lon="-1.4102">
        <ele>32.72</ele>
        <time>2020-05-27T16:10:16Z</time>
      </trkpt>
      <trkpt lat="47.12798" lon="-1.41009">
        <ele>34.02</ele>
        <time>2020-05-27T16:10:18Z</time>
      </trkpt>
      <trkpt lat="47.12793" lon="-1.40996">
        <ele>34.9</ele>
        <time>2020-05-27T16:10:20Z</time>
      </trkpt>
      <trkpt lat="47.12786" lon="-1.4098">
        <ele>36.03</ele>
        <time>2020-05-27T16:10:23Z</time>
      </trkpt>
      <trkpt lat="47.1278" lon="-1.40967">
        <ele>36.86</ele>
        <time>2020-05-27T16:10:26Z</time>
      </trkpt>
      <trkpt lat="47.12774" lon="-1.40951">
        <ele>38.05</ele>
        <time>2020-05-27T16:10:29Z</time>
      </trkpt>
      <trkpt lat="47.12767" lon="-1.40936">
        <ele>38.61</ele>
        <time>2020-05-27T16:10:32Z</time>
      </trkpt>
      <trkpt lat="47.12757" lon="-1.40925">
        <ele>39.1</ele>
        <time>2020-05-27T16:10:35Z</time>
      </trkpt>
      <trkpt lat="47.12746" lon="-1.40918">
        <ele>39.09</ele>
        <time>2020-05-27T16:10:38Z</time>
      </trkpt>
      <trkpt lat="47.12733" lon="-1.40914">
        <ele>41.1</ele>
        <time>2020-05-27T16:10:41Z</time>
      </trkpt>
      <trkpt lat="47.12721" lon="-1.40911">
        <ele>43.16</ele>
        <time>2020-05-27T16:10:44Z</time>
      </trkpt>
      <trkpt lat="47.12709" lon="-1.4091">
        <ele>45.04</ele>
        <time>2020-05-27T16:10:47Z</time>
      </trkpt>
      <trkpt lat="47.12697" lon="-1.40907">
        <ele>45.95</ele>
        <time>2020-05-27T16:10:50Z</time>
      </trkpt>
      <trkpt lat="47.12685" lon="-1.40905">
        <ele>45.93</ele>
        <time>2020-05-27T16:10:53Z</time>
      </trkpt>
      <trkpt lat="47.12672" lon="-1.40901">
        <ele>45.89</ele>
        <time>2020-05-27T16:10:56Z</time>
      </trkpt>
      <trkpt lat="47.1266" lon="-1.40899">
        <ele>46.51</ele>
        <time>2020-05-27T16:10:59Z</time>
      </trkpt>
      <trkpt lat="47.12647" lon="-1.40896">
        <ele>47.97</ele>
        <time>2020-05-27T16:11:02Z</time>
      </trkpt>
      <trkpt lat="47.12638" lon="-1.40894">
        <ele>48.58</ele>
        <time>2020-05-27T16:11:04Z</time>
      </trkpt>
      <trkpt lat="47.12625" lon="-1.40891">
        <ele>47.94</ele>
        <time>2020-05-27T16:11:07Z</time>
      </trkpt>
      <trkpt lat="47.12612" lon="-1.40888">
        <ele>47.89</ele>
        <time>2020-05-27T16:11:10Z</time>
      </trkpt>
      <trkpt lat="47.12601" lon="-1.40886">
        <ele>48.52</ele>
        <time>2020-05-27T16:11:13Z</time>
      </trkpt>
      <trkpt lat="47.12592" lon="-1.40884">
        <ele>48.71</ele>
        <time>2020-05-27T16:11:15Z</time>
      </trkpt>
      <trkpt lat="47.12579" lon="-1.40882">
        <ele>49.33</ele>
        <time>2020-05-27T16:11:18Z</time>
      </trkpt>
      <trkpt lat="47.12566" lon="-1.40878">
        <ele>49.65</ele>
        <time>2020-05-27T16:11:21Z</time>
      </trkpt>
      <trkpt lat="47.12557" lon="-1.40876">
        <ele>50.32</ele>
        <time>2020-05-27T16:11:23Z</time>
      </trkpt>
      <trkpt lat="47.12547" lon="-1.40875">
        <ele>51.19</ele>
        <time>2020-05-27T16:11:25Z</time>
      </trkpt>
      <trkpt lat="47.12538" lon="-1.40873">
        <ele>51.14</ele>
        <time>2020-05-27T16:11:27Z</time>
      </trkpt>
      <trkpt lat="47.12528" lon="-1.40871">
        <ele>51.27</ele>
        <time>2020-05-27T16:11:29Z</time>
      </trkpt>
      <trkpt lat="47.12519" lon="-1.40869">
        <ele>51.12</ele>
        <time>2020-05-27T16:11:31Z</time>
      </trkpt>
      <trkpt lat="47.12504" lon="-1.40865">
        <ele>51.3</ele>
        <time>2020-05-27T16:11:34Z</time>
      </trkpt>
      <trkpt lat="47.12494" lon="-1.40862">
        <ele>52.11</ele>
        <time>2020-05-27T16:11:36Z</time>
      </trkpt>
      <trkpt lat="47.12483" lon="-1.40858">
        <ele>52.13</ele>
        <time>2020-05-27T16:11:38Z</time>
      </trkpt>
      <trkpt lat="47.12472" lon="-1.40855">
        <ele>51.77</ele>
        <time>2020-05-27T16:11:40Z</time>
      </trkpt>
      <trkpt lat="47.1246" lon="-1.40851">
        <ele>51.49</ele>
        <time>2020-05-27T16:11:42Z</time>
      </trkpt>
      <trkpt lat="47.12449" lon="-1.40845">
        <ele>52.39</ele>
        <time>2020-05-27T16:11:44Z</time>
      </trkpt>
      <trkpt lat="47.12437" lon="-1.40837">
        <ele>52.71</ele>
        <time>2020-05-27T16:11:46Z</time>
      </trkpt>
      <trkpt lat="47.12426" lon="-1.40828">
        <ele>52.53</ele>
        <time>2020-05-27T16:11:48Z</time>
      </trkpt>
      <trkpt lat="47.12417" lon="-1.40817">
        <ele>52.62</ele>
        <time>2020-05-27T16:11:50Z</time>
      </trkpt>
      <trkpt lat="47.12408" lon="-1.40804">
        <ele>51.95</ele>
        <time>2020-05-27T16:11:52Z</time>
      </trkpt>
      <trkpt lat="47.12401" lon="-1.40791">
        <ele>51.13</ele>
        <time>2020-05-27T16:11:54Z</time>
      </trkpt>
      <trkpt lat="47.12391" lon="-1.40776">
        <ele>50.63</ele>
        <time>2020-05-27T16:11:56Z</time>
      </trkpt>
      <trkpt lat="47.12382" lon="-1.40762">
        <ele>50.38</ele>
        <time>2020-05-27T16:11:58Z</time>
      </trkpt>
      <trkpt lat="47.12376" lon="-1.40751">
        <ele>51.16</ele>
        <time>2020-05-27T16:12:00Z</time>
      </trkpt>
      <trkpt lat="47.12369" lon="-1.4074">
        <ele>52.07</ele>
        <time>2020-05-27T16:12:02Z</time>
      </trkpt>
      <trkpt lat="47.12363" lon="-1.40728">
        <ele>53.6</ele>
        <time>2020-05-27T16:12:04Z</time>
      </trkpt>
      <trkpt lat="47.12356" lon="-1.40716">
        <ele>54.53</ele>
        <time>2020-05-27T16:12:06Z</time>
      </trkpt>
      <trkpt lat="47.12347" lon="-1.40706">
        <ele>54.07</ele>
        <time>2020-05-27T16:12:08Z</time>
      </trkpt>
      <trkpt lat="47.12337" lon="-1.40697">
        <ele>54.07</ele>
        <time>2020-05-27T16:12:10Z</time>
      </trkpt>
      <trkpt lat="47.12325" lon="-1.4069">
        <ele>53.45</ele>
        <time>2020-05-27T16:12:12Z</time>
      </trkpt>
      <trkpt lat="47.12313" lon="-1.40685">
        <ele>53.32</ele>
        <time>2020-05-27T16:12:14Z</time>
      </trkpt>
      <trkpt lat="47.12302" lon="-1.40681">
        <ele>54.1</ele>
        <time>2020-05-27T16:12:16Z</time>
      </trkpt>
      <trkpt lat="47.12291" lon="-1.40675">
        <ele>55.38</ele>
        <time>2020-05-27T16:12:18Z</time>
      </trkpt>
      <trkpt lat="47.12283" lon="-1.40668">
        <ele>55.3</ele>
        <time>2020-05-27T16:12:20Z</time>
      </trkpt>
      <trkpt lat="47.12276" lon="-1.40655">
        <ele>55.17</ele>
        <time>2020-05-27T16:12:22Z</time>
      </trkpt>
      <trkpt lat="47.12269" lon="-1.4064">
        <ele>55.61</ele>
        <time>2020-05-27T16:12:24Z</time>
      </trkpt>
      <trkpt lat="47.12263" lon="-1.40626">
        <ele>55.09</ele>
        <time>2020-05-27T16:12:26Z</time>
      </trkpt>
      <trkpt lat="47.12258" lon="-1.40613">
        <ele>54</ele>
        <time>2020-05-27T16:12:28Z</time>
      </trkpt>
      <trkpt lat="47.12252" lon="-1.40597">
        <ele>52.73</ele>
        <time>2020-05-27T16:12:30Z</time>
      </trkpt>
      <trkpt lat="47.12247" lon="-1.40583">
        <ele>51.07</ele>
        <time>2020-05-27T16:12:32Z</time>
      </trkpt>
      <trkpt lat="47.12241" lon="-1.40568">
        <ele>49.64</ele>
        <time>2020-05-27T16:12:34Z</time>
      </trkpt>
      <trkpt lat="47.12236" lon="-1.40551">
        <ele>49.22</ele>
        <time>2020-05-27T16:12:36Z</time>
      </trkpt>
      <trkpt lat="47.12231" lon="-1.40535">
        <ele>49.5</ele>
        <time>2020-05-27T16:12:38Z</time>
      </trkpt>
      <trkpt lat="47.12227" lon="-1.40519">
        <ele>49.91</ele>
        <time>2020-05-27T16:12:40Z</time>
      </trkpt>
      <trkpt lat="47.12223" lon="-1.40499">
        <ele>50.94</ele>
        <time>2020-05-27T16:12:42Z</time>
      </trkpt>
      <trkpt lat="47.12221" lon="-1.40484">
        <ele>51.73</ele>
        <time>2020-05-27T16:12:44Z</time>
      </trkpt>
      <trkpt lat="47.12217" lon="-1.40466">
        <ele>52.28</ele>
        <time>2020-05-27T16:12:46Z</time>
      </trkpt>
      <trkpt lat="47.12214" lon="-1.40451">
        <ele>53.09</ele>
        <time>2020-05-27T16:12:48Z</time>
      </trkpt>
      <trkpt lat="47.12211" lon="-1.40436">
        <ele>53.45</ele>
        <time>2020-05-27T16:12:50Z</time>
      </trkpt>
      <trkpt lat="47.12208" lon="-1.40421">
        <ele>53.83</ele>
        <time>2020-05-27T16:12:52Z</time>
      </trkpt>
      <trkpt lat="47.12205" lon="-1.40404">
        <ele>53.97</ele>
        <time>2020-05-27T16:12:54Z</time>
      </trkpt>
      <trkpt lat="47.12202" lon="-1.40391">
        <ele>54.66</ele>
        <time>2020-05-27T16:12:56Z</time>
      </trkpt>
      <trkpt lat="47.12199" lon="-1.40376">
        <ele>55.64</ele>
        <time>2020-05-27T16:12:58Z</time>
      </trkpt>
      <trkpt lat="47.12196" lon="-1.40362">
        <ele>56.97</ele>
        <time>2020-05-27T16:13:00Z</time>
      </trkpt>
      <trkpt lat="47.12193" lon="-1.40345">
        <ele>56.65</ele>
        <time>2020-05-27T16:13:02Z</time>
      </trkpt>
      <trkpt lat="47.12189" lon="-1.40327">
        <ele>55.64</ele>
        <time>2020-05-27T16:13:05Z</time>
      </trkpt>
      <trkpt lat="47.12185" lon="-1.40312">
        <ele>54.54</ele>
        <time>2020-05-27T16:13:09Z</time>
      </trkpt>
      <trkpt lat="47.12192" lon="-1.403">
        <ele>54.98</ele>
        <time>2020-05-27T16:13:17Z</time>
      </trkpt>
      <trkpt lat="47.12202" lon="-1.40295">
        <ele>54.7</ele>
        <time>2020-05-27T16:13:19Z</time>
      </trkpt>
      <trkpt lat="47.12214" lon="-1.40289">
        <ele>54.64</ele>
        <time>2020-05-27T16:13:21Z</time>
      </trkpt>
      <trkpt lat="47.12227" lon="-1.40283">
        <ele>54.8</ele>
        <time>2020-05-27T16:13:23Z</time>
      </trkpt>
      <trkpt lat="47.12238" lon="-1.40278">
        <ele>55.85</ele>
        <time>2020-05-27T16:13:25Z</time>
      </trkpt>
      <trkpt lat="47.12247" lon="-1.40274">
        <ele>56.77</ele>
        <time>2020-05-27T16:13:27Z</time>
      </trkpt>
      <trkpt lat="47.12258" lon="-1.40268">
        <ele>56.3</ele>
        <time>2020-05-27T16:13:29Z</time>
      </trkpt>
      <trkpt lat="47.1227" lon="-1.40262">
        <ele>55.74</ele>
        <time>2020-05-27T16:13:31Z</time>
      </trkpt>
      <trkpt lat="47.12279" lon="-1.40257">
        <ele>56.57</ele>
        <time>2020-05-27T16:13:33Z</time>
      </trkpt>
      <trkpt lat="47.12291" lon="-1.40251">
        <ele>55.97</ele>
        <time>2020-05-27T16:13:35Z</time>
      </trkpt>
      <trkpt lat="47.12303" lon="-1.40245">
        <ele>56.06</ele>
        <time>2020-05-27T16:13:37Z</time>
      </trkpt>
      <trkpt lat="47.12314" lon="-1.4024">
        <ele>55.17</ele>
        <time>2020-05-27T16:13:39Z</time>
      </trkpt>
      <trkpt lat="47.12325" lon="-1.40235">
        <ele>54.49</ele>
        <time>2020-05-27T16:13:41Z</time>
      </trkpt>
      <trkpt lat="47.12337" lon="-1.4023">
        <ele>53.88</ele>
        <time>2020-05-27T16:13:43Z</time>
      </trkpt>
      <trkpt lat="47.12348" lon="-1.40226">
        <ele>53.41</ele>
        <time>2020-05-27T16:13:45Z</time>
      </trkpt>
      <trkpt lat="47.1236" lon="-1.4022">
        <ele>52.61</ele>
        <time>2020-05-27T16:13:47Z</time>
      </trkpt>
      <trkpt lat="47.12372" lon="-1.40216">
        <ele>50.79</ele>
        <time>2020-05-27T16:13:49Z</time>
      </trkpt>
      <trkpt lat="47.12384" lon="-1.40211">
        <ele>48.76</ele>
        <time>2020-05-27T16:13:51Z</time>
      </trkpt>
      <trkpt lat="47.12398" lon="-1.40205">
        <ele>46.86</ele>
        <time>2020-05-27T16:13:53Z</time>
      </trkpt>
      <trkpt lat="47.12411" lon="-1.40199">
        <ele>45.79</ele>
        <time>2020-05-27T16:13:55Z</time>
      </trkpt>
      <trkpt lat="47.12425" lon="-1.40193">
        <ele>45.1</ele>
        <time>2020-05-27T16:13:57Z</time>
      </trkpt>
      <trkpt lat="47.12439" lon="-1.40187">
        <ele>44.05</ele>
        <time>2020-05-27T16:13:59Z</time>
      </trkpt>
      <trkpt lat="47.12453" lon="-1.4018">
        <ele>42.79</ele>
        <time>2020-05-27T16:14:01Z</time>
      </trkpt>
      <trkpt lat="47.12469" lon="-1.40174">
        <ele>40.76</ele>
        <time>2020-05-27T16:14:03Z</time>
      </trkpt>
      <trkpt lat="47.12484" lon="-1.40167">
        <ele>39.27</ele>
        <time>2020-05-27T16:14:05Z</time>
      </trkpt>
      <trkpt lat="47.12496" lon="-1.40161">
        <ele>38.26</ele>
        <time>2020-05-27T16:14:07Z</time>
      </trkpt>
      <trkpt lat="47.12512" lon="-1.40156">
        <ele>38.01</ele>
        <time>2020-05-27T16:14:09Z</time>
      </trkpt>
      <trkpt lat="47.12525" lon="-1.40154">
        <ele>37.88</ele>
        <time>2020-05-27T16:14:11Z</time>
      </trkpt>
      <trkpt lat="47.12538" lon="-1.40155">
        <ele>38.19</ele>
        <time>2020-05-27T16:14:13Z</time>
      </trkpt>
      <trkpt lat="47.12552" lon="-1.40157">
        <ele>38.62</ele>
        <time>2020-05-27T16:14:15Z</time>
      </trkpt>
      <trkpt lat="47.12561" lon="-1.40159">
        <ele>38.86</ele>
        <time>2020-05-27T16:14:17Z</time>
      </trkpt>
      <trkpt lat="47.12576" lon="-1.40163">
        <ele>40.05</ele>
        <time>2020-05-27T16:14:18Z</time>
      </trkpt>
      <trkpt lat="47.12589" lon="-1.40168">
        <ele>40.84</ele>
        <time>2020-05-27T16:14:20Z</time>
      </trkpt>
      <trkpt lat="47.12603" lon="-1.40171">
        <ele>41.92</ele>
        <time>2020-05-27T16:14:22Z</time>
      </trkpt>
      <trkpt lat="47.12617" lon="-1.40171">
        <ele>42.13</ele>
        <time>2020-05-27T16:14:24Z</time>
      </trkpt>
      <trkpt lat="47.12631" lon="-1.40169">
        <ele>42.26</ele>
        <time>2020-05-27T16:14:26Z</time>
      </trkpt>
      <trkpt lat="47.12647" lon="-1.40167">
        <ele>41.54</ele>
        <time>2020-05-27T16:14:28Z</time>
      </trkpt>
      <trkpt lat="47.12661" lon="-1.40165">
        <ele>40.46</ele>
        <time>2020-05-27T16:14:31Z</time>
      </trkpt>
      <trkpt lat="47.12674" lon="-1.40162">
        <ele>39.42</ele>
        <time>2020-05-27T16:14:33Z</time>
      </trkpt>
      <trkpt lat="47.12687" lon="-1.40158">
        <ele>38.47</ele>
        <time>2020-05-27T16:14:35Z</time>
      </trkpt>
      <trkpt lat="47.12699" lon="-1.4015">
        <ele>38.02</ele>
        <time>2020-05-27T16:14:37Z</time>
      </trkpt>
      <trkpt lat="47.12713" lon="-1.40139">
        <ele>38.48</ele>
        <time>2020-05-27T16:14:39Z</time>
      </trkpt>
      <trkpt lat="47.12726" lon="-1.40126">
        <ele>38.69</ele>
        <time>2020-05-27T16:14:41Z</time>
      </trkpt>
      <trkpt lat="47.12737" lon="-1.40113">
        <ele>38.7</ele>
        <time>2020-05-27T16:14:43Z</time>
      </trkpt>
      <trkpt lat="47.12748" lon="-1.40101">
        <ele>38.56</ele>
        <time>2020-05-27T16:14:45Z</time>
      </trkpt>
      <trkpt lat="47.1276" lon="-1.40089">
        <ele>38.55</ele>
        <time>2020-05-27T16:14:47Z</time>
      </trkpt>
      <trkpt lat="47.12771" lon="-1.40077">
        <ele>38.05</ele>
        <time>2020-05-27T16:14:49Z</time>
      </trkpt>
      <trkpt lat="47.12784" lon="-1.40064">
        <ele>37.05</ele>
        <time>2020-05-27T16:14:51Z</time>
      </trkpt>
      <trkpt lat="47.12796" lon="-1.40052">
        <ele>35.84</ele>
        <time>2020-05-27T16:14:53Z</time>
      </trkpt>
      <trkpt lat="47.12808" lon="-1.4004">
        <ele>35.34</ele>
        <time>2020-05-27T16:14:55Z</time>
      </trkpt>
      <trkpt lat="47.12818" lon="-1.4003">
        <ele>35.71</ele>
        <time>2020-05-27T16:14:57Z</time>
      </trkpt>
      <trkpt lat="47.12828" lon="-1.4002">
        <ele>35.78</ele>
        <time>2020-05-27T16:14:59Z</time>
      </trkpt>
      <trkpt lat="47.12837" lon="-1.40012">
        <ele>35.58</ele>
        <time>2020-05-27T16:15:01Z</time>
      </trkpt>
      <trkpt lat="47.12848" lon="-1.40002">
        <ele>35.08</ele>
        <time>2020-05-27T16:15:03Z</time>
      </trkpt>
      <trkpt lat="47.12858" lon="-1.39992">
        <ele>34.11</ele>
        <time>2020-05-27T16:15:05Z</time>
      </trkpt>
      <trkpt lat="47.12868" lon="-1.39982">
        <ele>32.61</ele>
        <time>2020-05-27T16:15:07Z</time>
      </trkpt>
      <trkpt lat="47.12878" lon="-1.39974">
        <ele>31.63</ele>
        <time>2020-05-27T16:15:09Z</time>
      </trkpt>
      <trkpt lat="47.12889" lon="-1.39964">
        <ele>31.13</ele>
        <time>2020-05-27T16:15:11Z</time>
      </trkpt>
      <trkpt lat="47.12902" lon="-1.39956">
        <ele>32.01</ele>
        <time>2020-05-27T16:15:13Z</time>
      </trkpt>
      <trkpt lat="47.12917" lon="-1.39948">
        <ele>33.69</ele>
        <time>2020-05-27T16:15:15Z</time>
      </trkpt>
      <trkpt lat="47.1293" lon="-1.39942">
        <ele>35.7</ele>
        <time>2020-05-27T16:15:17Z</time>
      </trkpt>
      <trkpt lat="47.12942" lon="-1.39936">
        <ele>37.41</ele>
        <time>2020-05-27T16:15:19Z</time>
      </trkpt>
      <trkpt lat="47.12956" lon="-1.39931">
        <ele>39.22</ele>
        <time>2020-05-27T16:15:21Z</time>
      </trkpt>
      <trkpt lat="47.12966" lon="-1.39926">
        <ele>40.63</ele>
        <time>2020-05-27T16:15:23Z</time>
      </trkpt>
      <trkpt lat="47.12977" lon="-1.3992">
        <ele>42.01</ele>
        <time>2020-05-27T16:15:25Z</time>
      </trkpt>
      <trkpt lat="47.12985" lon="-1.39912">
        <ele>42.43</ele>
        <time>2020-05-27T16:15:27Z</time>
      </trkpt>
      <trkpt lat="47.12992" lon="-1.39903">
        <ele>41.71</ele>
        <time>2020-05-27T16:15:29Z</time>
      </trkpt>
      <trkpt lat="47.13004" lon="-1.39899">
        <ele>40.47</ele>
        <time>2020-05-27T16:15:32Z</time>
      </trkpt>
      <trkpt lat="47.13012" lon="-1.39916">
        <ele>39.15</ele>
        <time>2020-05-27T16:15:34Z</time>
      </trkpt>
      <trkpt lat="47.13021" lon="-1.39934">
        <ele>38.84</ele>
        <time>2020-05-27T16:15:36Z</time>
      </trkpt>
      <trkpt lat="47.1303" lon="-1.39951">
        <ele>38.57</ele>
        <time>2020-05-27T16:15:38Z</time>
      </trkpt>
      <trkpt lat="47.13041" lon="-1.39967">
        <ele>38.47</ele>
        <time>2020-05-27T16:15:40Z</time>
      </trkpt>
      <trkpt lat="47.13054" lon="-1.39982">
        <ele>37.55</ele>
        <time>2020-05-27T16:15:42Z</time>
      </trkpt>
      <trkpt lat="47.13067" lon="-1.39994">
        <ele>36.58</ele>
        <time>2020-05-27T16:15:44Z</time>
      </trkpt>
      <trkpt lat="47.13081" lon="-1.40005">
        <ele>36.28</ele>
        <time>2020-05-27T16:15:46Z</time>
      </trkpt>
      <trkpt lat="47.13093" lon="-1.40012">
        <ele>37</ele>
        <time>2020-05-27T16:15:48Z</time>
      </trkpt>
      <trkpt lat="47.13107" lon="-1.40018">
        <ele>37.44</ele>
        <time>2020-05-27T16:15:50Z</time>
      </trkpt>
      <trkpt lat="47.13123" lon="-1.40026">
        <ele>37.52</ele>
        <time>2020-05-27T16:15:52Z</time>
      </trkpt>
      <trkpt lat="47.13136" lon="-1.40033">
        <ele>38.05</ele>
        <time>2020-05-27T16:15:54Z</time>
      </trkpt>
      <trkpt lat="47.1315" lon="-1.40039">
        <ele>38.06</ele>
        <time>2020-05-27T16:15:56Z</time>
      </trkpt>
      <trkpt lat="47.13164" lon="-1.40045">
        <ele>38.61</ele>
        <time>2020-05-27T16:15:58Z</time>
      </trkpt>
      <trkpt lat="47.13176" lon="-1.40052">
        <ele>39.35</ele>
        <time>2020-05-27T16:16:00Z</time>
      </trkpt>
      <trkpt lat="47.13191" lon="-1.4006">
        <ele>39.23</ele>
        <time>2020-05-27T16:16:02Z</time>
      </trkpt>
      <trkpt lat="47.13204" lon="-1.40068">
        <ele>38.39</ele>
        <time>2020-05-27T16:16:04Z</time>
      </trkpt>
      <trkpt lat="47.13216" lon="-1.40076">
        <ele>37.16</ele>
        <time>2020-05-27T16:16:06Z</time>
      </trkpt>
      <trkpt lat="47.13227" lon="-1.40085">
        <ele>36.87</ele>
        <time>2020-05-27T16:16:08Z</time>
      </trkpt>
      <trkpt lat="47.13241" lon="-1.40095">
        <ele>37.07</ele>
        <time>2020-05-27T16:16:10Z</time>
      </trkpt>
      <trkpt lat="47.13252" lon="-1.40104">
        <ele>37.38</ele>
        <time>2020-05-27T16:16:12Z</time>
      </trkpt>
      <trkpt lat="47.13264" lon="-1.40113">
        <ele>37.54</ele>
        <time>2020-05-27T16:16:14Z</time>
      </trkpt>
      <trkpt lat="47.13275" lon="-1.40121">
        <ele>37.98</ele>
        <time>2020-05-27T16:16:16Z</time>
      </trkpt>
      <trkpt lat="47.13287" lon="-1.4013">
        <ele>38.69</ele>
        <time>2020-05-27T16:16:18Z</time>
      </trkpt>
      <trkpt lat="47.13298" lon="-1.40138">
        <ele>39.26</ele>
        <time>2020-05-27T16:16:20Z</time>
      </trkpt>
      <trkpt lat="47.1331" lon="-1.40148">
        <ele>38.87</ele>
        <time>2020-05-27T16:16:22Z</time>
      </trkpt>
      <trkpt lat="47.13321" lon="-1.40158">
        <ele>39.43</ele>
        <time>2020-05-27T16:16:24Z</time>
      </trkpt>
      <trkpt lat="47.13334" lon="-1.40168">
        <ele>40.61</ele>
        <time>2020-05-27T16:16:26Z</time>
      </trkpt>
      <trkpt lat="47.13346" lon="-1.40176">
        <ele>41.87</ele>
        <time>2020-05-27T16:16:28Z</time>
      </trkpt>
      <trkpt lat="47.13357" lon="-1.40182">
        <ele>42.4</ele>
        <time>2020-05-27T16:16:30Z</time>
      </trkpt>
      <trkpt lat="47.13372" lon="-1.40186">
        <ele>42.99</ele>
        <time>2020-05-27T16:16:32Z</time>
      </trkpt>
      <trkpt lat="47.13386" lon="-1.40189">
        <ele>43.3</ele>
        <time>2020-05-27T16:16:34Z</time>
      </trkpt>
      <trkpt lat="47.13398" lon="-1.40188">
        <ele>43.29</ele>
        <time>2020-05-27T16:16:36Z</time>
      </trkpt>
      <trkpt lat="47.13412" lon="-1.40188">
        <ele>42.36</ele>
        <time>2020-05-27T16:16:38Z</time>
      </trkpt>
      <trkpt lat="47.13426" lon="-1.40189">
        <ele>41.78</ele>
        <time>2020-05-27T16:16:40Z</time>
      </trkpt>
      <trkpt lat="47.1344" lon="-1.40191">
        <ele>41.69</ele>
        <time>2020-05-27T16:16:42Z</time>
      </trkpt>
      <trkpt lat="47.13454" lon="-1.40194">
        <ele>41.91</ele>
        <time>2020-05-27T16:16:44Z</time>
      </trkpt>
      <trkpt lat="47.13467" lon="-1.40198">
        <ele>41.13</ele>
        <time>2020-05-27T16:16:46Z</time>
      </trkpt>
      <trkpt lat="47.13478" lon="-1.40202">
        <ele>40.25</ele>
        <time>2020-05-27T16:16:48Z</time>
      </trkpt>
      <trkpt lat="47.13489" lon="-1.40208">
        <ele>39.6</ele>
        <time>2020-05-27T16:16:50Z</time>
      </trkpt>
      <trkpt lat="47.13503" lon="-1.40215">
        <ele>39.24</ele>
        <time>2020-05-27T16:16:52Z</time>
      </trkpt>
      <trkpt lat="47.13515" lon="-1.40221">
        <ele>39.03</ele>
        <time>2020-05-27T16:16:54Z</time>
      </trkpt>
      <trkpt lat="47.13528" lon="-1.40228">
        <ele>38.89</ele>
        <time>2020-05-27T16:16:56Z</time>
      </trkpt>
      <trkpt lat="47.13541" lon="-1.40234">
        <ele>38.82</ele>
        <time>2020-05-27T16:16:58Z</time>
      </trkpt>
      <trkpt lat="47.13553" lon="-1.4024">
        <ele>39.75</ele>
        <time>2020-05-27T16:17:00Z</time>
      </trkpt>
      <trkpt lat="47.13564" lon="-1.40245">
        <ele>40.45</ele>
        <time>2020-05-27T16:17:02Z</time>
      </trkpt>
      <trkpt lat="47.13577" lon="-1.40251">
        <ele>40.64</ele>
        <time>2020-05-27T16:17:04Z</time>
      </trkpt>
      <trkpt lat="47.13589" lon="-1.40256">
        <ele>40.73</ele>
        <time>2020-05-27T16:17:06Z</time>
      </trkpt>
      <trkpt lat="47.13601" lon="-1.40262">
        <ele>40.46</ele>
        <time>2020-05-27T16:17:08Z</time>
      </trkpt>
      <trkpt lat="47.13614" lon="-1.40268">
        <ele>40.92</ele>
        <time>2020-05-27T16:17:10Z</time>
      </trkpt>
      <trkpt lat="47.13627" lon="-1.40274">
        <ele>40.47</ele>
        <time>2020-05-27T16:17:12Z</time>
      </trkpt>
      <trkpt lat="47.13639" lon="-1.40279">
        <ele>39.8</ele>
        <time>2020-05-27T16:17:14Z</time>
      </trkpt>
      <trkpt lat="47.13651" lon="-1.40284">
        <ele>39.94</ele>
        <time>2020-05-27T16:17:16Z</time>
      </trkpt>
      <trkpt lat="47.13665" lon="-1.40287">
        <ele>40.73</ele>
        <time>2020-05-27T16:17:18Z</time>
      </trkpt>
      <trkpt lat="47.13678" lon="-1.40288">
        <ele>39.96</ele>
        <time>2020-05-27T16:17:20Z</time>
      </trkpt>
      <trkpt lat="47.13692" lon="-1.40287">
        <ele>39.74</ele>
        <time>2020-05-27T16:17:22Z</time>
      </trkpt>
      <trkpt lat="47.13706" lon="-1.40285">
        <ele>39.51</ele>
        <time>2020-05-27T16:17:24Z</time>
      </trkpt>
      <trkpt lat="47.13719" lon="-1.40282">
        <ele>39.25</ele>
        <time>2020-05-27T16:17:26Z</time>
      </trkpt>
      <trkpt lat="47.13732" lon="-1.4028">
        <ele>38.13</ele>
        <time>2020-05-27T16:17:28Z</time>
      </trkpt>
      <trkpt lat="47.13745" lon="-1.40278">
        <ele>37.41</ele>
        <time>2020-05-27T16:17:30Z</time>
      </trkpt>
      <trkpt lat="47.1376" lon="-1.40275">
        <ele>37.16</ele>
        <time>2020-05-27T16:17:32Z</time>
      </trkpt>
      <trkpt lat="47.13772" lon="-1.40273">
        <ele>37.11</ele>
        <time>2020-05-27T16:17:34Z</time>
      </trkpt>
      <trkpt lat="47.13786" lon="-1.4027">
        <ele>36.14</ele>
        <time>2020-05-27T16:17:36Z</time>
      </trkpt>
      <trkpt lat="47.13799" lon="-1.40268">
        <ele>35.39</ele>
        <time>2020-05-27T16:17:38Z</time>
      </trkpt>
      <trkpt lat="47.13811" lon="-1.40265">
        <ele>34.48</ele>
        <time>2020-05-27T16:17:40Z</time>
      </trkpt>
      <trkpt lat="47.13822" lon="-1.40263">
        <ele>33.77</ele>
        <time>2020-05-27T16:17:42Z</time>
      </trkpt>
      <trkpt lat="47.13833" lon="-1.40261">
        <ele>33.81</ele>
        <time>2020-05-27T16:17:44Z</time>
      </trkpt>
      <trkpt lat="47.13846" lon="-1.40258">
        <ele>33.96</ele>
        <time>2020-05-27T16:17:46Z</time>
      </trkpt>
      <trkpt lat="47.13856" lon="-1.40257">
        <ele>34.02</ele>
        <time>2020-05-27T16:17:48Z</time>
      </trkpt>
      <trkpt lat="47.13869" lon="-1.40253">
        <ele>35.16</ele>
        <time>2020-05-27T16:17:50Z</time>
      </trkpt>
      <trkpt lat="47.1388" lon="-1.40251">
        <ele>36.29</ele>
        <time>2020-05-27T16:17:52Z</time>
      </trkpt>
      <trkpt lat="47.1389" lon="-1.40249">
        <ele>36.52</ele>
        <time>2020-05-27T16:17:54Z</time>
      </trkpt>
      <trkpt lat="47.13901" lon="-1.40247">
        <ele>36.56</ele>
        <time>2020-05-27T16:17:56Z</time>
      </trkpt>
      <trkpt lat="47.13911" lon="-1.40247">
        <ele>36.58</ele>
        <time>2020-05-27T16:17:58Z</time>
      </trkpt>
      <trkpt lat="47.13922" lon="-1.40248">
        <ele>36.76</ele>
        <time>2020-05-27T16:18:00Z</time>
      </trkpt>
      <trkpt lat="47.13931" lon="-1.40251">
        <ele>37.27</ele>
        <time>2020-05-27T16:18:02Z</time>
      </trkpt>
      <trkpt lat="47.13943" lon="-1.40254">
        <ele>38.48</ele>
        <time>2020-05-27T16:18:04Z</time>
      </trkpt>
      <trkpt lat="47.13954" lon="-1.40258">
        <ele>38.69</ele>
        <time>2020-05-27T16:18:06Z</time>
      </trkpt>
      <trkpt lat="47.13966" lon="-1.40263">
        <ele>39.53</ele>
        <time>2020-05-27T16:18:08Z</time>
      </trkpt>
      <trkpt lat="47.13977" lon="-1.4027">
        <ele>39.73</ele>
        <time>2020-05-27T16:18:10Z</time>
      </trkpt>
      <trkpt lat="47.13988" lon="-1.40277">
        <ele>39.46</ele>
        <time>2020-05-27T16:18:12Z</time>
      </trkpt>
      <trkpt lat="47.13998" lon="-1.40284">
        <ele>39.44</ele>
        <time>2020-05-27T16:18:14Z</time>
      </trkpt>
      <trkpt lat="47.14009" lon="-1.40294">
        <ele>38.69</ele>
        <time>2020-05-27T16:18:16Z</time>
      </trkpt>
      <trkpt lat="47.1402" lon="-1.40307">
        <ele>39.6</ele>
        <time>2020-05-27T16:18:18Z</time>
      </trkpt>
      <trkpt lat="47.14029" lon="-1.40321">
        <ele>39.57</ele>
        <time>2020-05-27T16:18:20Z</time>
      </trkpt>
      <trkpt lat="47.14037" lon="-1.40338">
        <ele>39.21</ele>
        <time>2020-05-27T16:18:22Z</time>
      </trkpt>
      <trkpt lat="47.14045" lon="-1.40354">
        <ele>38.37</ele>
        <time>2020-05-27T16:18:24Z</time>
      </trkpt>
      <trkpt lat="47.14051" lon="-1.40373">
        <ele>39.95</ele>
        <time>2020-05-27T16:18:26Z</time>
      </trkpt>
      <trkpt lat="47.14056" lon="-1.40393">
        <ele>39.58</ele>
        <time>2020-05-27T16:18:28Z</time>
      </trkpt>
      <trkpt lat="47.14062" lon="-1.40412">
        <ele>39.57</ele>
        <time>2020-05-27T16:18:30Z</time>
      </trkpt>
      <trkpt lat="47.14066" lon="-1.4043">
        <ele>40.41</ele>
        <time>2020-05-27T16:18:32Z</time>
      </trkpt>
      <trkpt lat="47.14071" lon="-1.40446">
        <ele>40.72</ele>
        <time>2020-05-27T16:18:34Z</time>
      </trkpt>
      <trkpt lat="47.14078" lon="-1.40463">
        <ele>40.34</ele>
        <time>2020-05-27T16:18:36Z</time>
      </trkpt>
      <trkpt lat="47.14087" lon="-1.40481">
        <ele>39.59</ele>
        <time>2020-05-27T16:18:38Z</time>
      </trkpt>
      <trkpt lat="47.14096" lon="-1.40496">
        <ele>39.26</ele>
        <time>2020-05-27T16:18:40Z</time>
      </trkpt>
      <trkpt lat="47.14106" lon="-1.4051">
        <ele>37.99</ele>
        <time>2020-05-27T16:18:42Z</time>
      </trkpt>
      <trkpt lat="47.14116" lon="-1.40525">
        <ele>37.56</ele>
        <time>2020-05-27T16:18:44Z</time>
      </trkpt>
      <trkpt lat="47.14126" lon="-1.40539">
        <ele>38.18</ele>
        <time>2020-05-27T16:18:46Z</time>
      </trkpt>
      <trkpt lat="47.14136" lon="-1.40553">
        <ele>37.98</ele>
        <time>2020-05-27T16:18:48Z</time>
      </trkpt>
      <trkpt lat="47.14146" lon="-1.40566">
        <ele>37.87</ele>
        <time>2020-05-27T16:18:50Z</time>
      </trkpt>
      <trkpt lat="47.14157" lon="-1.40581">
        <ele>36.87</ele>
        <time>2020-05-27T16:18:52Z</time>
      </trkpt>
      <trkpt lat="47.14167" lon="-1.40595">
        <ele>36.28</ele>
        <time>2020-05-27T16:18:54Z</time>
      </trkpt>
      <trkpt lat="47.14178" lon="-1.4061">
        <ele>36.57</ele>
        <time>2020-05-27T16:18:56Z</time>
      </trkpt>
      <trkpt lat="47.14188" lon="-1.40625">
        <ele>36.21</ele>
        <time>2020-05-27T16:18:58Z</time>
      </trkpt>
      <trkpt lat="47.14198" lon="-1.40638">
        <ele>35.68</ele>
        <time>2020-05-27T16:19:00Z</time>
      </trkpt>
      <trkpt lat="47.14208" lon="-1.40652">
        <ele>35.7</ele>
        <time>2020-05-27T16:19:02Z</time>
      </trkpt>
      <trkpt lat="47.14218" lon="-1.40667">
        <ele>35.43</ele>
        <time>2020-05-27T16:19:04Z</time>
      </trkpt>
      <trkpt lat="47.14229" lon="-1.40681">
        <ele>35.17</ele>
        <time>2020-05-27T16:19:06Z</time>
      </trkpt>
      <trkpt lat="47.14239" lon="-1.40697">
        <ele>34.69</ele>
        <time>2020-05-27T16:19:08Z</time>
      </trkpt>
      <trkpt lat="47.14249" lon="-1.40714">
        <ele>34.7</ele>
        <time>2020-05-27T16:19:10Z</time>
      </trkpt>
      <trkpt lat="47.14259" lon="-1.4073">
        <ele>34.69</ele>
        <time>2020-05-27T16:19:12Z</time>
      </trkpt>
      <trkpt lat="47.14267" lon="-1.40747">
        <ele>34.8</ele>
        <time>2020-05-27T16:19:14Z</time>
      </trkpt>
      <trkpt lat="47.14276" lon="-1.40764">
        <ele>34.62</ele>
        <time>2020-05-27T16:19:16Z</time>
      </trkpt>
      <trkpt lat="47.14285" lon="-1.4078">
        <ele>34.83</ele>
        <time>2020-05-27T16:19:18Z</time>
      </trkpt>
      <trkpt lat="47.14294" lon="-1.40798">
        <ele>36.14</ele>
        <time>2020-05-27T16:19:20Z</time>
      </trkpt>
      <trkpt lat="47.14304" lon="-1.40816">
        <ele>36.34</ele>
        <time>2020-05-27T16:19:22Z</time>
      </trkpt>
      <trkpt lat="47.14314" lon="-1.40834">
        <ele>36.19</ele>
        <time>2020-05-27T16:19:24Z</time>
      </trkpt>
      <trkpt lat="47.14324" lon="-1.40852">
        <ele>36.25</ele>
        <time>2020-05-27T16:19:26Z</time>
      </trkpt>
      <trkpt lat="47.14334" lon="-1.40869">
        <ele>35.54</ele>
        <time>2020-05-27T16:19:28Z</time>
      </trkpt>
      <trkpt lat="47.14342" lon="-1.40884">
        <ele>34.87</ele>
        <time>2020-05-27T16:19:30Z</time>
      </trkpt>
      <trkpt lat="47.1435" lon="-1.40899">
        <ele>34.65</ele>
        <time>2020-05-27T16:19:32Z</time>
      </trkpt>
      <trkpt lat="47.14358" lon="-1.40914">
        <ele>34.25</ele>
        <time>2020-05-27T16:19:34Z</time>
      </trkpt>
      <trkpt lat="47.14367" lon="-1.40928">
        <ele>33.75</ele>
        <time>2020-05-27T16:19:36Z</time>
      </trkpt>
      <trkpt lat="47.14374" lon="-1.4094">
        <ele>33.78</ele>
        <time>2020-05-27T16:19:38Z</time>
      </trkpt>
      <trkpt lat="47.14381" lon="-1.40953">
        <ele>35.18</ele>
        <time>2020-05-27T16:19:40Z</time>
      </trkpt>
      <trkpt lat="47.14388" lon="-1.40966">
        <ele>36.36</ele>
        <time>2020-05-27T16:19:42Z</time>
      </trkpt>
      <trkpt lat="47.14394" lon="-1.40979">
        <ele>37.09</ele>
        <time>2020-05-27T16:19:44Z</time>
      </trkpt>
      <trkpt lat="47.14402" lon="-1.40994">
        <ele>37.82</ele>
        <time>2020-05-27T16:19:46Z</time>
      </trkpt>
      <trkpt lat="47.14408" lon="-1.4101">
        <ele>39.29</ele>
        <time>2020-05-27T16:19:48Z</time>
      </trkpt>
      <trkpt lat="47.14413" lon="-1.41027">
        <ele>40.41</ele>
        <time>2020-05-27T16:19:50Z</time>
      </trkpt>
      <trkpt lat="47.14415" lon="-1.41047">
        <ele>40.95</ele>
        <time>2020-05-27T16:19:52Z</time>
      </trkpt>
      <trkpt lat="47.14416" lon="-1.41068">
        <ele>40.84</ele>
        <time>2020-05-27T16:19:54Z</time>
      </trkpt>
      <trkpt lat="47.14415" lon="-1.41088">
        <ele>40.5</ele>
        <time>2020-05-27T16:19:56Z</time>
      </trkpt>
      <trkpt lat="47.14413" lon="-1.41108">
        <ele>39.26</ele>
        <time>2020-05-27T16:19:58Z</time>
      </trkpt>
      <trkpt lat="47.14411" lon="-1.41128">
        <ele>37.64</ele>
        <time>2020-05-27T16:20:00Z</time>
      </trkpt>
      <trkpt lat="47.14409" lon="-1.41146">
        <ele>36.89</ele>
        <time>2020-05-27T16:20:02Z</time>
      </trkpt>
      <trkpt lat="47.14407" lon="-1.41165">
        <ele>35.6</ele>
        <time>2020-05-27T16:20:04Z</time>
      </trkpt>
      <trkpt lat="47.14404" lon="-1.41184">
        <ele>33.78</ele>
        <time>2020-05-27T16:20:06Z</time>
      </trkpt>
      <trkpt lat="47.14402" lon="-1.41204">
        <ele>32.46</ele>
        <time>2020-05-27T16:20:08Z</time>
      </trkpt>
      <trkpt lat="47.14401" lon="-1.41223">
        <ele>32.36</ele>
        <time>2020-05-27T16:20:10Z</time>
      </trkpt>
      <trkpt lat="47.144" lon="-1.41242">
        <ele>33.13</ele>
        <time>2020-05-27T16:20:12Z</time>
      </trkpt>
      <trkpt lat="47.14399" lon="-1.41261">
        <ele>34.11</ele>
        <time>2020-05-27T16:20:14Z</time>
      </trkpt>
      <trkpt lat="47.14399" lon="-1.41275">
        <ele>34.98</ele>
        <time>2020-05-27T16:20:16Z</time>
      </trkpt>
      <trkpt lat="47.14398" lon="-1.41292">
        <ele>36.82</ele>
        <time>2020-05-27T16:20:18Z</time>
      </trkpt>
      <trkpt lat="47.14397" lon="-1.41311">
        <ele>37.99</ele>
        <time>2020-05-27T16:20:20Z</time>
      </trkpt>
      <trkpt lat="47.14396" lon="-1.41329">
        <ele>39.51</ele>
        <time>2020-05-27T16:20:22Z</time>
      </trkpt>
      <trkpt lat="47.14396" lon="-1.41347">
        <ele>41.04</ele>
        <time>2020-05-27T16:20:24Z</time>
      </trkpt>
      <trkpt lat="47.14396" lon="-1.41366">
        <ele>42.73</ele>
        <time>2020-05-27T16:20:26Z</time>
      </trkpt>
      <trkpt lat="47.14396" lon="-1.41384">
        <ele>44.09</ele>
        <time>2020-05-27T16:20:28Z</time>
      </trkpt>
      <trkpt lat="47.14396" lon="-1.41403">
        <ele>45.12</ele>
        <time>2020-05-27T16:20:30Z</time>
      </trkpt>
      <trkpt lat="47.14395" lon="-1.41423">
        <ele>45.19</ele>
        <time>2020-05-27T16:20:32Z</time>
      </trkpt>
      <trkpt lat="47.14397" lon="-1.41441">
        <ele>45.45</ele>
        <time>2020-05-27T16:20:34Z</time>
      </trkpt>
      <trkpt lat="47.14397" lon="-1.41457">
        <ele>45.45</ele>
        <time>2020-05-27T16:20:36Z</time>
      </trkpt>
      <trkpt lat="47.14396" lon="-1.41475">
        <ele>45.01</ele>
        <time>2020-05-27T16:20:38Z</time>
      </trkpt>
      <trkpt lat="47.14396" lon="-1.41496">
        <ele>45.41</ele>
        <time>2020-05-27T16:20:40Z</time>
      </trkpt>
      <trkpt lat="47.14397" lon="-1.41516">
        <ele>45.74</ele>
        <time>2020-05-27T16:20:42Z</time>
      </trkpt>
      <trkpt lat="47.14398" lon="-1.41535">
        <ele>45.86</ele>
        <time>2020-05-27T16:20:44Z</time>
      </trkpt>
      <trkpt lat="47.14398" lon="-1.41553">
        <ele>46.43</ele>
        <time>2020-05-27T16:20:46Z</time>
      </trkpt>
      <trkpt lat="47.14398" lon="-1.4157">
        <ele>47.32</ele>
        <time>2020-05-27T16:20:48Z</time>
      </trkpt>
      <trkpt lat="47.14399" lon="-1.41588">
        <ele>47.59</ele>
        <time>2020-05-27T16:20:50Z</time>
      </trkpt>
      <trkpt lat="47.14396" lon="-1.41604">
        <ele>47.69</ele>
        <time>2020-05-27T16:20:52Z</time>
      </trkpt>
      <trkpt lat="47.14393" lon="-1.4162">
        <ele>47.5</ele>
        <time>2020-05-27T16:20:54Z</time>
      </trkpt>
      <trkpt lat="47.14389" lon="-1.41637">
        <ele>46.94</ele>
        <time>2020-05-27T16:20:56Z</time>
      </trkpt>
      <trkpt lat="47.14385" lon="-1.41657">
        <ele>47.06</ele>
        <time>2020-05-27T16:20:58Z</time>
      </trkpt>
      <trkpt lat="47.14387" lon="-1.41677">
        <ele>46.45</ele>
        <time>2020-05-27T16:21:00Z</time>
      </trkpt>
      <trkpt lat="47.1439" lon="-1.41699">
        <ele>45.28</ele>
        <time>2020-05-27T16:21:02Z</time>
      </trkpt>
      <trkpt lat="47.14395" lon="-1.41719">
        <ele>44.24</ele>
        <time>2020-05-27T16:21:04Z</time>
      </trkpt>
      <trkpt lat="47.14401" lon="-1.41742">
        <ele>43.35</ele>
        <time>2020-05-27T16:21:06Z</time>
      </trkpt>
      <trkpt lat="47.14405" lon="-1.41764">
        <ele>42.71</ele>
        <time>2020-05-27T16:21:08Z</time>
      </trkpt>
      <trkpt lat="47.14408" lon="-1.41786">
        <ele>40.92</ele>
        <time>2020-05-27T16:21:10Z</time>
      </trkpt>
      <trkpt lat="47.14409" lon="-1.418">
        <ele>39.56</ele>
        <time>2020-05-27T16:21:11Z</time>
      </trkpt>
      <trkpt lat="47.14411" lon="-1.41824">
        <ele>36.83</ele>
        <time>2020-05-27T16:21:13Z</time>
      </trkpt>
      <trkpt lat="47.14413" lon="-1.41838">
        <ele>36.17</ele>
        <time>2020-05-27T16:21:14Z</time>
      </trkpt>
      <trkpt lat="47.14415" lon="-1.41862">
        <ele>35.07</ele>
        <time>2020-05-27T16:21:16Z</time>
      </trkpt>
      <trkpt lat="47.14419" lon="-1.41888">
        <ele>35.09</ele>
        <time>2020-05-27T16:21:18Z</time>
      </trkpt>
      <trkpt lat="47.14422" lon="-1.419">
        <ele>34.89</ele>
        <time>2020-05-27T16:21:19Z</time>
      </trkpt>
      <trkpt lat="47.14427" lon="-1.41925">
        <ele>33.86</ele>
        <time>2020-05-27T16:21:21Z</time>
      </trkpt>
      <trkpt lat="47.1443" lon="-1.41938">
        <ele>33.09</ele>
        <time>2020-05-27T16:21:22Z</time>
      </trkpt>
      <trkpt lat="47.14433" lon="-1.41951">
        <ele>32.84</ele>
        <time>2020-05-27T16:21:23Z</time>
      </trkpt>
      <trkpt lat="47.14436" lon="-1.41964">
        <ele>32.41</ele>
        <time>2020-05-27T16:21:24Z</time>
      </trkpt>
      <trkpt lat="47.14439" lon="-1.41977">
        <ele>32.18</ele>
        <time>2020-05-27T16:21:25Z</time>
      </trkpt>
      <trkpt lat="47.14442" lon="-1.41991">
        <ele>31.72</ele>
        <time>2020-05-27T16:21:26Z</time>
      </trkpt>
      <trkpt lat="47.14446" lon="-1.42004">
        <ele>31.61</ele>
        <time>2020-05-27T16:21:27Z</time>
      </trkpt>
      <trkpt lat="47.14449" lon="-1.42019">
        <ele>32.14</ele>
        <time>2020-05-27T16:21:28Z</time>
      </trkpt>
      <trkpt lat="47.14453" lon="-1.42032">
        <ele>32.48</ele>
        <time>2020-05-27T16:21:29Z</time>
      </trkpt>
      <trkpt lat="47.14456" lon="-1.42044">
        <ele>32.58</ele>
        <time>2020-05-27T16:21:30Z</time>
      </trkpt>
      <trkpt lat="47.14461" lon="-1.42056">
        <ele>32.78</ele>
        <time>2020-05-27T16:21:31Z</time>
      </trkpt>
      <trkpt lat="47.14465" lon="-1.42069">
        <ele>32.62</ele>
        <time>2020-05-27T16:21:32Z</time>
      </trkpt>
      <trkpt lat="47.14471" lon="-1.42083">
        <ele>32.46</ele>
        <time>2020-05-27T16:21:33Z</time>
      </trkpt>
      <trkpt lat="47.14476" lon="-1.42096">
        <ele>31.9</ele>
        <time>2020-05-27T16:21:34Z</time>
      </trkpt>
      <trkpt lat="47.14482" lon="-1.42109">
        <ele>30.96</ele>
        <time>2020-05-27T16:21:35Z</time>
      </trkpt>
      <trkpt lat="47.14488" lon="-1.42124">
        <ele>30.47</ele>
        <time>2020-05-27T16:21:36Z</time>
      </trkpt>
      <trkpt lat="47.14494" lon="-1.42138">
        <ele>30.06</ele>
        <time>2020-05-27T16:21:37Z</time>
      </trkpt>
      <trkpt lat="47.145" lon="-1.4215">
        <ele>29.35</ele>
        <time>2020-05-27T16:21:38Z</time>
      </trkpt>
      <trkpt lat="47.14506" lon="-1.42163">
        <ele>28.67</ele>
        <time>2020-05-27T16:21:39Z</time>
      </trkpt>
      <trkpt lat="47.14511" lon="-1.42176">
        <ele>27.67</ele>
        <time>2020-05-27T16:21:40Z</time>
      </trkpt>
      <trkpt lat="47.14516" lon="-1.42188">
        <ele>26.73</ele>
        <time>2020-05-27T16:21:41Z</time>
      </trkpt>
      <trkpt lat="47.14522" lon="-1.42202">
        <ele>25.78</ele>
        <time>2020-05-27T16:21:42Z</time>
      </trkpt>
      <trkpt lat="47.14527" lon="-1.42216">
        <ele>25</ele>
        <time>2020-05-27T16:21:43Z</time>
      </trkpt>
      <trkpt lat="47.14531" lon="-1.42229">
        <ele>24.15</ele>
        <time>2020-05-27T16:21:44Z</time>
      </trkpt>
      <trkpt lat="47.14535" lon="-1.42242">
        <ele>23.45</ele>
        <time>2020-05-27T16:21:45Z</time>
      </trkpt>
      <trkpt lat="47.14539" lon="-1.42255">
        <ele>22.28</ele>
        <time>2020-05-27T16:21:46Z</time>
      </trkpt>
      <trkpt lat="47.14544" lon="-1.42267">
        <ele>21.44</ele>
        <time>2020-05-27T16:21:47Z</time>
      </trkpt>
      <trkpt lat="47.14549" lon="-1.4228">
        <ele>20.65</ele>
        <time>2020-05-27T16:21:48Z</time>
      </trkpt>
      <trkpt lat="47.14558" lon="-1.423">
        <ele>20.06</ele>
        <time>2020-05-27T16:21:50Z</time>
      </trkpt>
      <trkpt lat="47.14566" lon="-1.42317">
        <ele>19.98</ele>
        <time>2020-05-27T16:21:52Z</time>
      </trkpt>
      <trkpt lat="47.14578" lon="-1.42334">
        <ele>19.61</ele>
        <time>2020-05-27T16:21:54Z</time>
      </trkpt>
      <trkpt lat="47.14591" lon="-1.42348">
        <ele>20.81</ele>
        <time>2020-05-27T16:21:56Z</time>
      </trkpt>
      <trkpt lat="47.14603" lon="-1.42361">
        <ele>22.6</ele>
        <time>2020-05-27T16:21:58Z</time>
      </trkpt>
      <trkpt lat="47.14616" lon="-1.42373">
        <ele>22.94</ele>
        <time>2020-05-27T16:22:00Z</time>
      </trkpt>
      <trkpt lat="47.14627" lon="-1.42382">
        <ele>22.58</ele>
        <time>2020-05-27T16:22:02Z</time>
      </trkpt>
      <trkpt lat="47.14637" lon="-1.42391">
        <ele>22.71</ele>
        <time>2020-05-27T16:22:04Z</time>
      </trkpt>
      <trkpt lat="47.14645" lon="-1.42399">
        <ele>22.65</ele>
        <time>2020-05-27T16:22:06Z</time>
      </trkpt>
      <trkpt lat="47.14656" lon="-1.42409">
        <ele>23.6</ele>
        <time>2020-05-27T16:22:08Z</time>
      </trkpt>
      <trkpt lat="47.14667" lon="-1.42418">
        <ele>23.46</ele>
        <time>2020-05-27T16:22:10Z</time>
      </trkpt>
      <trkpt lat="47.14677" lon="-1.42427">
        <ele>23.89</ele>
        <time>2020-05-27T16:22:12Z</time>
      </trkpt>
      <trkpt lat="47.14687" lon="-1.42437">
        <ele>23.73</ele>
        <time>2020-05-27T16:22:14Z</time>
      </trkpt>
      <trkpt lat="47.14696" lon="-1.42446">
        <ele>24.27</ele>
        <time>2020-05-27T16:22:16Z</time>
      </trkpt>
      <trkpt lat="47.14707" lon="-1.42456">
        <ele>24.71</ele>
        <time>2020-05-27T16:22:18Z</time>
      </trkpt>
      <trkpt lat="47.14716" lon="-1.42465">
        <ele>24.98</ele>
        <time>2020-05-27T16:22:20Z</time>
      </trkpt>
      <trkpt lat="47.14726" lon="-1.42474">
        <ele>25.23</ele>
        <time>2020-05-27T16:22:22Z</time>
      </trkpt>
      <trkpt lat="47.14737" lon="-1.42484">
        <ele>25.65</ele>
        <time>2020-05-27T16:22:24Z</time>
      </trkpt>
      <trkpt lat="47.14748" lon="-1.42495">
        <ele>25.22</ele>
        <time>2020-05-27T16:22:26Z</time>
      </trkpt>
      <trkpt lat="47.14758" lon="-1.42506">
        <ele>25.96</ele>
        <time>2020-05-27T16:22:28Z</time>
      </trkpt>
      <trkpt lat="47.14769" lon="-1.42517">
        <ele>26.59</ele>
        <time>2020-05-27T16:22:30Z</time>
      </trkpt>
      <trkpt lat="47.14779" lon="-1.42528">
        <ele>26.78</ele>
        <time>2020-05-27T16:22:32Z</time>
      </trkpt>
      <trkpt lat="47.14789" lon="-1.42538">
        <ele>27.44</ele>
        <time>2020-05-27T16:22:34Z</time>
      </trkpt>
      <trkpt lat="47.14797" lon="-1.42547">
        <ele>28.02</ele>
        <time>2020-05-27T16:22:36Z</time>
      </trkpt>
      <trkpt lat="47.14807" lon="-1.42559">
        <ele>27.95</ele>
        <time>2020-05-27T16:22:38Z</time>
      </trkpt>
      <trkpt lat="47.14816" lon="-1.42571">
        <ele>27.36</ele>
        <time>2020-05-27T16:22:40Z</time>
      </trkpt>
      <trkpt lat="47.14824" lon="-1.42583">
        <ele>27.09</ele>
        <time>2020-05-27T16:22:42Z</time>
      </trkpt>
      <trkpt lat="47.14834" lon="-1.42597">
        <ele>27.26</ele>
        <time>2020-05-27T16:22:44Z</time>
      </trkpt>
      <trkpt lat="47.14844" lon="-1.4261">
        <ele>27.44</ele>
        <time>2020-05-27T16:22:46Z</time>
      </trkpt>
      <trkpt lat="47.14855" lon="-1.42625">
        <ele>27.39</ele>
        <time>2020-05-27T16:22:48Z</time>
      </trkpt>
      <trkpt lat="47.14865" lon="-1.42638">
        <ele>27.57</ele>
        <time>2020-05-27T16:22:50Z</time>
      </trkpt>
      <trkpt lat="47.14874" lon="-1.42651">
        <ele>28.31</ele>
        <time>2020-05-27T16:22:52Z</time>
      </trkpt>
      <trkpt lat="47.14886" lon="-1.42666">
        <ele>28.14</ele>
        <time>2020-05-27T16:22:54Z</time>
      </trkpt>
      <trkpt lat="47.14896" lon="-1.42681">
        <ele>28.4</ele>
        <time>2020-05-27T16:22:56Z</time>
      </trkpt>
      <trkpt lat="47.14906" lon="-1.42696">
        <ele>29.07</ele>
        <time>2020-05-27T16:22:58Z</time>
      </trkpt>
      <trkpt lat="47.14918" lon="-1.42712">
        <ele>29.53</ele>
        <time>2020-05-27T16:23:00Z</time>
      </trkpt>
      <trkpt lat="47.14929" lon="-1.42729">
        <ele>29.62</ele>
        <time>2020-05-27T16:23:02Z</time>
      </trkpt>
      <trkpt lat="47.14939" lon="-1.42744">
        <ele>29.04</ele>
        <time>2020-05-27T16:23:04Z</time>
      </trkpt>
      <trkpt lat="47.14949" lon="-1.4276">
        <ele>28.05</ele>
        <time>2020-05-27T16:23:06Z</time>
      </trkpt>
      <trkpt lat="47.14958" lon="-1.42776">
        <ele>27.93</ele>
        <time>2020-05-27T16:23:08Z</time>
      </trkpt>
      <trkpt lat="47.14969" lon="-1.42794">
        <ele>28.01</ele>
        <time>2020-05-27T16:23:10Z</time>
      </trkpt>
      <trkpt lat="47.1498" lon="-1.4281">
        <ele>28.2</ele>
        <time>2020-05-27T16:23:12Z</time>
      </trkpt>
      <trkpt lat="47.1499" lon="-1.42827">
        <ele>27.37</ele>
        <time>2020-05-27T16:23:14Z</time>
      </trkpt>
      <trkpt lat="47.15" lon="-1.42843">
        <ele>26.24</ele>
        <time>2020-05-27T16:23:16Z</time>
      </trkpt>
      <trkpt lat="47.15012" lon="-1.4286">
        <ele>25.45</ele>
        <time>2020-05-27T16:23:18Z</time>
      </trkpt>
      <trkpt lat="47.15024" lon="-1.42873">
        <ele>24.81</ele>
        <time>2020-05-27T16:23:20Z</time>
      </trkpt>
      <trkpt lat="47.15037" lon="-1.42878">
        <ele>24.7</ele>
        <time>2020-05-27T16:23:22Z</time>
      </trkpt>
      <trkpt lat="47.1505" lon="-1.42882">
        <ele>24.52</ele>
        <time>2020-05-27T16:23:24Z</time>
      </trkpt>
      <trkpt lat="47.15063" lon="-1.42886">
        <ele>24.01</ele>
        <time>2020-05-27T16:23:26Z</time>
      </trkpt>
      <trkpt lat="47.15077" lon="-1.42889">
        <ele>22.96</ele>
        <time>2020-05-27T16:23:28Z</time>
      </trkpt>
      <trkpt lat="47.1509" lon="-1.42893">
        <ele>21.33</ele>
        <time>2020-05-27T16:23:30Z</time>
      </trkpt>
      <trkpt lat="47.15104" lon="-1.42897">
        <ele>19.95</ele>
        <time>2020-05-27T16:23:32Z</time>
      </trkpt>
      <trkpt lat="47.15118" lon="-1.42901">
        <ele>19.01</ele>
        <time>2020-05-27T16:23:34Z</time>
      </trkpt>
      <trkpt lat="47.15132" lon="-1.42906">
        <ele>19.34</ele>
        <time>2020-05-27T16:23:36Z</time>
      </trkpt>
      <trkpt lat="47.15145" lon="-1.42913">
        <ele>19.93</ele>
        <time>2020-05-27T16:23:38Z</time>
      </trkpt>
      <trkpt lat="47.15156" lon="-1.42919">
        <ele>21.35</ele>
        <time>2020-05-27T16:23:40Z</time>
      </trkpt>
      <trkpt lat="47.15166" lon="-1.42924">
        <ele>21.84</ele>
        <time>2020-05-27T16:23:42Z</time>
      </trkpt>
      <trkpt lat="47.15178" lon="-1.42932">
        <ele>22.09</ele>
        <time>2020-05-27T16:23:44Z</time>
      </trkpt>
      <trkpt lat="47.1519" lon="-1.4294">
        <ele>21.49</ele>
        <time>2020-05-27T16:23:46Z</time>
      </trkpt>
      <trkpt lat="47.15201" lon="-1.42953">
        <ele>21.54</ele>
        <time>2020-05-27T16:23:48Z</time>
      </trkpt>
      <trkpt lat="47.1521" lon="-1.42969">
        <ele>22.62</ele>
        <time>2020-05-27T16:23:50Z</time>
      </trkpt>
      <trkpt lat="47.15221" lon="-1.42988">
        <ele>23.78</ele>
        <time>2020-05-27T16:23:52Z</time>
      </trkpt>
      <trkpt lat="47.1523" lon="-1.43007">
        <ele>24.64</ele>
        <time>2020-05-27T16:23:54Z</time>
      </trkpt>
      <trkpt lat="47.1524" lon="-1.43027">
        <ele>25.16</ele>
        <time>2020-05-27T16:23:56Z</time>
      </trkpt>
      <trkpt lat="47.15245" lon="-1.43039">
        <ele>25.2</ele>
        <time>2020-05-27T16:23:57Z</time>
      </trkpt>
      <trkpt lat="47.15252" lon="-1.43065">
        <ele>24.54</ele>
        <time>2020-05-27T16:23:59Z</time>
      </trkpt>
      <trkpt lat="47.15255" lon="-1.43078">
        <ele>23.89</ele>
        <time>2020-05-27T16:24:00Z</time>
      </trkpt>
      <trkpt lat="47.15258" lon="-1.43092">
        <ele>23.08</ele>
        <time>2020-05-27T16:24:00Z</time>
      </trkpt>
      <trkpt lat="47.15259" lon="-1.43106">
        <ele>22.37</ele>
        <time>2020-05-27T16:24:01Z</time>
      </trkpt>
      <trkpt lat="47.1526" lon="-1.43131">
        <ele>20.18</ele>
        <time>2020-05-27T16:24:03Z</time>
      </trkpt>
      <trkpt lat="47.1526" lon="-1.43157">
        <ele>17.36</ele>
        <time>2020-05-27T16:24:05Z</time>
      </trkpt>
      <trkpt lat="47.1526" lon="-1.43172">
        <ele>16.16</ele>
        <time>2020-05-27T16:24:06Z</time>
      </trkpt>
      <trkpt lat="47.1526" lon="-1.43187">
        <ele>14.91</ele>
        <time>2020-05-27T16:24:07Z</time>
      </trkpt>
      <trkpt lat="47.1526" lon="-1.43203">
        <ele>13.73</ele>
        <time>2020-05-27T16:24:08Z</time>
      </trkpt>
      <trkpt lat="47.15259" lon="-1.43218">
        <ele>12.34</ele>
        <time>2020-05-27T16:24:09Z</time>
      </trkpt>
      <trkpt lat="47.15258" lon="-1.43233">
        <ele>11.36</ele>
        <time>2020-05-27T16:24:10Z</time>
      </trkpt>
      <trkpt lat="47.15258" lon="-1.43248">
        <ele>10.23</ele>
        <time>2020-05-27T16:24:11Z</time>
      </trkpt>
      <trkpt lat="47.15257" lon="-1.43263">
        <ele>9.04</ele>
        <time>2020-05-27T16:24:12Z</time>
      </trkpt>
      <trkpt lat="47.15257" lon="-1.43278">
        <ele>8.26</ele>
        <time>2020-05-27T16:24:13Z</time>
      </trkpt>
      <trkpt lat="47.15256" lon="-1.43292">
        <ele>6.86</ele>
        <time>2020-05-27T16:24:14Z</time>
      </trkpt>
      <trkpt lat="47.15256" lon="-1.43306">
        <ele>5.55</ele>
        <time>2020-05-27T16:24:15Z</time>
      </trkpt>
      <trkpt lat="47.15256" lon="-1.43322">
        <ele>4.67</ele>
        <time>2020-05-27T16:24:16Z</time>
      </trkpt>
      <trkpt lat="47.15255" lon="-1.43338">
        <ele>3.8</ele>
        <time>2020-05-27T16:24:17Z</time>
      </trkpt>
      <trkpt lat="47.15254" lon="-1.43352">
        <ele>3.13</ele>
        <time>2020-05-27T16:24:18Z</time>
      </trkpt>
      <trkpt lat="47.15254" lon="-1.43367">
        <ele>2.29</ele>
        <time>2020-05-27T16:24:19Z</time>
      </trkpt>
      <trkpt lat="47.15253" lon="-1.43383">
        <ele>1.49</ele>
        <time>2020-05-27T16:24:20Z</time>
      </trkpt>
      <trkpt lat="47.15253" lon="-1.43398">
        <ele>0.79</ele>
        <time>2020-05-27T16:24:21Z</time>
      </trkpt>
      <trkpt lat="47.15253" lon="-1.43412">
        <ele>0.19</ele>
        <time>2020-05-27T16:24:22Z</time>
      </trkpt>
      <trkpt lat="47.15253" lon="-1.43426">
        <ele>-0.44</ele>
        <time>2020-05-27T16:24:23Z</time>
      </trkpt>
      <trkpt lat="47.15253" lon="-1.4344">
        <ele>-0.57</ele>
        <time>2020-05-27T16:24:24Z</time>
      </trkpt>
      <trkpt lat="47.15254" lon="-1.43454">
        <ele>-0.82</ele>
        <time>2020-05-27T16:24:25Z</time>
      </trkpt>
      <trkpt lat="47.15255" lon="-1.43468">
        <ele>-1.02</ele>
        <time>2020-05-27T16:24:26Z</time>
      </trkpt>
      <trkpt lat="47.15256" lon="-1.43493">
        <ele>-0.3</ele>
        <time>2020-05-27T16:24:28Z</time>
      </trkpt>
      <trkpt lat="47.15258" lon="-1.43514">
        <ele>0.78</ele>
        <time>2020-05-27T16:24:30Z</time>
      </trkpt>
      <trkpt lat="47.15261" lon="-1.4354">
        <ele>2.45</ele>
        <time>2020-05-27T16:24:32Z</time>
      </trkpt>
      <trkpt lat="47.15264" lon="-1.43563">
        <ele>3.89</ele>
        <time>2020-05-27T16:24:34Z</time>
      </trkpt>
      <trkpt lat="47.15267" lon="-1.43586">
        <ele>3.87</ele>
        <time>2020-05-27T16:24:36Z</time>
      </trkpt>
      <trkpt lat="47.1527" lon="-1.4361">
        <ele>3.21</ele>
        <time>2020-05-27T16:24:38Z</time>
      </trkpt>
      <trkpt lat="47.15272" lon="-1.43636">
        <ele>2.56</ele>
        <time>2020-05-27T16:24:40Z</time>
      </trkpt>
      <trkpt lat="47.15273" lon="-1.43659">
        <ele>1.44</ele>
        <time>2020-05-27T16:24:42Z</time>
      </trkpt>
      <trkpt lat="47.15274" lon="-1.43681">
        <ele>0.12</ele>
        <time>2020-05-27T16:24:44Z</time>
      </trkpt>
      <trkpt lat="47.15276" lon="-1.43703">
        <ele>-0.67</ele>
        <time>2020-05-27T16:24:46Z</time>
      </trkpt>
      <trkpt lat="47.15276" lon="-1.43725">
        <ele>-1.42</ele>
        <time>2020-05-27T16:24:48Z</time>
      </trkpt>
      <trkpt lat="47.15276" lon="-1.43747">
        <ele>-2.1</ele>
        <time>2020-05-27T16:24:50Z</time>
      </trkpt>
      <trkpt lat="47.15275" lon="-1.43772">
        <ele>-1.25</ele>
        <time>2020-05-27T16:24:52Z</time>
      </trkpt>
      <trkpt lat="47.15274" lon="-1.43794">
        <ele>-1.5</ele>
        <time>2020-05-27T16:24:54Z</time>
      </trkpt>
      <trkpt lat="47.15272" lon="-1.43817">
        <ele>-1.91</ele>
        <time>2020-05-27T16:24:56Z</time>
      </trkpt>
      <trkpt lat="47.15271" lon="-1.43839">
        <ele>-3.1</ele>
        <time>2020-05-27T16:24:58Z</time>
      </trkpt>
      <trkpt lat="47.15271" lon="-1.43859">
        <ele>-4.03</ele>
        <time>2020-05-27T16:25:00Z</time>
      </trkpt>
      <trkpt lat="47.15275" lon="-1.43878">
        <ele>-4.34</ele>
        <time>2020-05-27T16:25:02Z</time>
      </trkpt>
      <trkpt lat="47.1528" lon="-1.43898">
        <ele>-5.33</ele>
        <time>2020-05-27T16:25:04Z</time>
      </trkpt>
      <trkpt lat="47.15287" lon="-1.43919">
        <ele>-5.51</ele>
        <time>2020-05-27T16:25:06Z</time>
      </trkpt>
      <trkpt lat="47.15298" lon="-1.43935">
        <ele>-5.4</ele>
        <time>2020-05-27T16:25:08Z</time>
      </trkpt>
      <trkpt lat="47.15307" lon="-1.43949">
        <ele>-4.81</ele>
        <time>2020-05-27T16:25:10Z</time>
      </trkpt>
      <trkpt lat="47.15314" lon="-1.43961">
        <ele>-4.24</ele>
        <time>2020-05-27T16:25:12Z</time>
      </trkpt>
      <trkpt lat="47.15323" lon="-1.43974">
        <ele>-4.64</ele>
        <time>2020-05-27T16:25:14Z</time>
      </trkpt>
      <trkpt lat="47.15331" lon="-1.43988">
        <ele>-5.74</ele>
        <time>2020-05-27T16:25:16Z</time>
      </trkpt>
      <trkpt lat="47.1534" lon="-1.44">
        <ele>-5.52</ele>
        <time>2020-05-27T16:25:18Z</time>
      </trkpt>
      <trkpt lat="47.1535" lon="-1.44012">
        <ele>-4.89</ele>
        <time>2020-05-27T16:25:20Z</time>
      </trkpt>
      <trkpt lat="47.15361" lon="-1.44025">
        <ele>-3.74</ele>
        <time>2020-05-27T16:25:22Z</time>
      </trkpt>
      <trkpt lat="47.15371" lon="-1.44035">
        <ele>-1.13</ele>
        <time>2020-05-27T16:25:24Z</time>
      </trkpt>
      <trkpt lat="47.15378" lon="-1.44047">
        <ele>0.58</ele>
        <time>2020-05-27T16:25:26Z</time>
      </trkpt>
      <trkpt lat="47.15384" lon="-1.44063">
        <ele>2.4</ele>
        <time>2020-05-27T16:25:28Z</time>
      </trkpt>
      <trkpt lat="47.15386" lon="-1.44083">
        <ele>3.42</ele>
        <time>2020-05-27T16:25:30Z</time>
      </trkpt>
      <trkpt lat="47.15386" lon="-1.44103">
        <ele>5.13</ele>
        <time>2020-05-27T16:25:32Z</time>
      </trkpt>
      <trkpt lat="47.15382" lon="-1.44119">
        <ele>6.19</ele>
        <time>2020-05-27T16:25:34Z</time>
      </trkpt>
      <trkpt lat="47.15379" lon="-1.44137">
        <ele>6.98</ele>
        <time>2020-05-27T16:25:36Z</time>
      </trkpt>
      <trkpt lat="47.15374" lon="-1.44158">
        <ele>7.44</ele>
        <time>2020-05-27T16:25:38Z</time>
      </trkpt>
      <trkpt lat="47.1537" lon="-1.44179">
        <ele>7.11</ele>
        <time>2020-05-27T16:25:40Z</time>
      </trkpt>
      <trkpt lat="47.15365" lon="-1.44201">
        <ele>7.03</ele>
        <time>2020-05-27T16:25:42Z</time>
      </trkpt>
      <trkpt lat="47.15363" lon="-1.44224">
        <ele>7.36</ele>
        <time>2020-05-27T16:25:44Z</time>
      </trkpt>
      <trkpt lat="47.15362" lon="-1.44245">
        <ele>6.83</ele>
        <time>2020-05-27T16:25:46Z</time>
      </trkpt>
      <trkpt lat="47.15363" lon="-1.44266">
        <ele>6.55</ele>
        <time>2020-05-27T16:25:48Z</time>
      </trkpt>
      <trkpt lat="47.15365" lon="-1.44284">
        <ele>6.15</ele>
        <time>2020-05-27T16:25:50Z</time>
      </trkpt>
      <trkpt lat="47.15369" lon="-1.44302">
        <ele>6.45</ele>
        <time>2020-05-27T16:25:52Z</time>
      </trkpt>
      <trkpt lat="47.15374" lon="-1.44319">
        <ele>6.94</ele>
        <time>2020-05-27T16:25:54Z</time>
      </trkpt>
      <trkpt lat="47.1538" lon="-1.44333">
        <ele>7.01</ele>
        <time>2020-05-27T16:25:56Z</time>
      </trkpt>
      <trkpt lat="47.15388" lon="-1.44348">
        <ele>7.13</ele>
        <time>2020-05-27T16:25:58Z</time>
      </trkpt>
      <trkpt lat="47.15397" lon="-1.44361">
        <ele>7.06</ele>
        <time>2020-05-27T16:26:00Z</time>
      </trkpt>
      <trkpt lat="47.15406" lon="-1.44374">
        <ele>6.33</ele>
        <time>2020-05-27T16:26:02Z</time>
      </trkpt>
      <trkpt lat="47.15418" lon="-1.44385">
        <ele>5.75</ele>
        <time>2020-05-27T16:26:04Z</time>
      </trkpt>
      <trkpt lat="47.1543" lon="-1.44396">
        <ele>6.1</ele>
        <time>2020-05-27T16:26:06Z</time>
      </trkpt>
      <trkpt lat="47.15441" lon="-1.44406">
        <ele>5.97</ele>
        <time>2020-05-27T16:26:08Z</time>
      </trkpt>
      <trkpt lat="47.15453" lon="-1.44415">
        <ele>6.46</ele>
        <time>2020-05-27T16:26:10Z</time>
      </trkpt>
      <trkpt lat="47.15463" lon="-1.44421">
        <ele>6.64</ele>
        <time>2020-05-27T16:26:12Z</time>
      </trkpt>
      <trkpt lat="47.15473" lon="-1.44426">
        <ele>6.7</ele>
        <time>2020-05-27T16:26:14Z</time>
      </trkpt>
      <trkpt lat="47.15483" lon="-1.44429">
        <ele>6.34</ele>
        <time>2020-05-27T16:26:16Z</time>
      </trkpt>
      <trkpt lat="47.15497" lon="-1.44434">
        <ele>5.64</ele>
        <time>2020-05-27T16:26:19Z</time>
      </trkpt>
      <trkpt lat="47.1551" lon="-1.44437">
        <ele>6.16</ele>
        <time>2020-05-27T16:26:21Z</time>
      </trkpt>
      <trkpt lat="47.15523" lon="-1.44438">
        <ele>6.06</ele>
        <time>2020-05-27T16:26:23Z</time>
      </trkpt>
      <trkpt lat="47.15534" lon="-1.44438">
        <ele>5.78</ele>
        <time>2020-05-27T16:26:25Z</time>
      </trkpt>
      <trkpt lat="47.15543" lon="-1.44438">
        <ele>5.15</ele>
        <time>2020-05-27T16:26:27Z</time>
      </trkpt>
      <trkpt lat="47.15556" lon="-1.44437">
        <ele>5.54</ele>
        <time>2020-05-27T16:26:30Z</time>
      </trkpt>
      <trkpt lat="47.15566" lon="-1.44435">
        <ele>5.71</ele>
        <time>2020-05-27T16:26:32Z</time>
      </trkpt>
      <trkpt lat="47.15576" lon="-1.44433">
        <ele>5.82</ele>
        <time>2020-05-27T16:26:34Z</time>
      </trkpt>
      <trkpt lat="47.15585" lon="-1.4443">
        <ele>5.71</ele>
        <time>2020-05-27T16:26:36Z</time>
      </trkpt>
      <trkpt lat="47.15595" lon="-1.44426">
        <ele>5.03</ele>
        <time>2020-05-27T16:26:38Z</time>
      </trkpt>
      <trkpt lat="47.15608" lon="-1.44422">
        <ele>6.1</ele>
        <time>2020-05-27T16:26:40Z</time>
      </trkpt>
      <trkpt lat="47.1562" lon="-1.44416">
        <ele>5.3</ele>
        <time>2020-05-27T16:26:42Z</time>
      </trkpt>
      <trkpt lat="47.15633" lon="-1.4441">
        <ele>5.55</ele>
        <time>2020-05-27T16:26:44Z</time>
      </trkpt>
      <trkpt lat="47.15643" lon="-1.44406">
        <ele>6.89</ele>
        <time>2020-05-27T16:26:46Z</time>
      </trkpt>
      <trkpt lat="47.15656" lon="-1.44401">
        <ele>8.55</ele>
        <time>2020-05-27T16:26:49Z</time>
      </trkpt>
      <trkpt lat="47.15665" lon="-1.44397">
        <ele>7.95</ele>
        <time>2020-05-27T16:26:51Z</time>
      </trkpt>
      <trkpt lat="47.15675" lon="-1.44393">
        <ele>8.06</ele>
        <time>2020-05-27T16:26:53Z</time>
      </trkpt>
      <trkpt lat="47.15686" lon="-1.44389">
        <ele>8.38</ele>
        <time>2020-05-27T16:26:55Z</time>
      </trkpt>
      <trkpt lat="47.15696" lon="-1.44384">
        <ele>7.43</ele>
        <time>2020-05-27T16:26:57Z</time>
      </trkpt>
      <trkpt lat="47.15707" lon="-1.44379">
        <ele>7.56</ele>
        <time>2020-05-27T16:26:59Z</time>
      </trkpt>
      <trkpt lat="47.15716" lon="-1.44375">
        <ele>7.88</ele>
        <time>2020-05-27T16:27:01Z</time>
      </trkpt>
      <trkpt lat="47.15728" lon="-1.44371">
        <ele>7.89</ele>
        <time>2020-05-27T16:27:04Z</time>
      </trkpt>
      <trkpt lat="47.15739" lon="-1.44366">
        <ele>7.6</ele>
        <time>2020-05-27T16:27:06Z</time>
      </trkpt>
      <trkpt lat="47.15748" lon="-1.44362">
        <ele>7.22</ele>
        <time>2020-05-27T16:27:08Z</time>
      </trkpt>
      <trkpt lat="47.15756" lon="-1.44358">
        <ele>7.04</ele>
        <time>2020-05-27T16:27:10Z</time>
      </trkpt>
      <trkpt lat="47.15766" lon="-1.44353">
        <ele>6.12</ele>
        <time>2020-05-27T16:27:12Z</time>
      </trkpt>
      <trkpt lat="47.15777" lon="-1.44348">
        <ele>6.27</ele>
        <time>2020-05-27T16:27:14Z</time>
      </trkpt>
      <trkpt lat="47.15788" lon="-1.44345">
        <ele>7.42</ele>
        <time>2020-05-27T16:27:16Z</time>
      </trkpt>
      <trkpt lat="47.158" lon="-1.44347">
        <ele>8.14</ele>
        <time>2020-05-27T16:27:18Z</time>
      </trkpt>
      <trkpt lat="47.1581" lon="-1.44354">
        <ele>8.5</ele>
        <time>2020-05-27T16:27:20Z</time>
      </trkpt>
      <trkpt lat="47.15817" lon="-1.44363">
        <ele>9.19</ele>
        <time>2020-05-27T16:27:22Z</time>
      </trkpt>
      <trkpt lat="47.15824" lon="-1.44375">
        <ele>9.33</ele>
        <time>2020-05-27T16:27:24Z</time>
      </trkpt>
      <trkpt lat="47.1583" lon="-1.44387">
        <ele>9.63</ele>
        <time>2020-05-27T16:27:26Z</time>
      </trkpt>
      <trkpt lat="47.15836" lon="-1.44401">
        <ele>9.95</ele>
        <time>2020-05-27T16:27:28Z</time>
      </trkpt>
      <trkpt lat="47.15842" lon="-1.44415">
        <ele>11.19</ele>
        <time>2020-05-27T16:27:30Z</time>
      </trkpt>
      <trkpt lat="47.15847" lon="-1.44429">
        <ele>12.99</ele>
        <time>2020-05-27T16:27:32Z</time>
      </trkpt>
      <trkpt lat="47.15852" lon="-1.44442">
        <ele>14.36</ele>
        <time>2020-05-27T16:27:34Z</time>
      </trkpt>
      <trkpt lat="47.15858" lon="-1.44456">
        <ele>15.73</ele>
        <time>2020-05-27T16:27:36Z</time>
      </trkpt>
      <trkpt lat="47.15864" lon="-1.4447">
        <ele>16.9</ele>
        <time>2020-05-27T16:27:38Z</time>
      </trkpt>
      <trkpt lat="47.1587" lon="-1.44483">
        <ele>17.37</ele>
        <time>2020-05-27T16:27:40Z</time>
      </trkpt>
      <trkpt lat="47.15876" lon="-1.44497">
        <ele>17.03</ele>
        <time>2020-05-27T16:27:42Z</time>
      </trkpt>
      <trkpt lat="47.15882" lon="-1.44513">
        <ele>17.47</ele>
        <time>2020-05-27T16:27:44Z</time>
      </trkpt>
      <trkpt lat="47.15888" lon="-1.44527">
        <ele>17.06</ele>
        <time>2020-05-27T16:27:46Z</time>
      </trkpt>
      <trkpt lat="47.15893" lon="-1.4454">
        <ele>16.74</ele>
        <time>2020-05-27T16:27:48Z</time>
      </trkpt>
      <trkpt lat="47.15898" lon="-1.44554">
        <ele>16.67</ele>
        <time>2020-05-27T16:27:50Z</time>
      </trkpt>
      <trkpt lat="47.15903" lon="-1.44567">
        <ele>17.25</ele>
        <time>2020-05-27T16:27:52Z</time>
      </trkpt>
      <trkpt lat="47.15909" lon="-1.44581">
        <ele>17.46</ele>
        <time>2020-05-27T16:27:54Z</time>
      </trkpt>
      <trkpt lat="47.15914" lon="-1.44593">
        <ele>16.16</ele>
        <time>2020-05-27T16:27:56Z</time>
      </trkpt>
      <trkpt lat="47.15918" lon="-1.44605">
        <ele>15.82</ele>
        <time>2020-05-27T16:27:58Z</time>
      </trkpt>
      <trkpt lat="47.15922" lon="-1.44619">
        <ele>15.54</ele>
        <time>2020-05-27T16:28:00Z</time>
      </trkpt>
      <trkpt lat="47.15926" lon="-1.44633">
        <ele>15.24</ele>
        <time>2020-05-27T16:28:02Z</time>
      </trkpt>
      <trkpt lat="47.1593" lon="-1.44646">
        <ele>14.44</ele>
        <time>2020-05-27T16:28:04Z</time>
      </trkpt>
      <trkpt lat="47.15934" lon="-1.4466">
        <ele>14.5</ele>
        <time>2020-05-27T16:28:06Z</time>
      </trkpt>
      <trkpt lat="47.15939" lon="-1.44674">
        <ele>14.78</ele>
        <time>2020-05-27T16:28:08Z</time>
      </trkpt>
      <trkpt lat="47.15943" lon="-1.44688">
        <ele>15.19</ele>
        <time>2020-05-27T16:28:10Z</time>
      </trkpt>
      <trkpt lat="47.15946" lon="-1.44702">
        <ele>15.24</ele>
        <time>2020-05-27T16:28:12Z</time>
      </trkpt>
      <trkpt lat="47.1595" lon="-1.44716">
        <ele>15.28</ele>
        <time>2020-05-27T16:28:14Z</time>
      </trkpt>
      <trkpt lat="47.15953" lon="-1.4473">
        <ele>15.17</ele>
        <time>2020-05-27T16:28:16Z</time>
      </trkpt>
      <trkpt lat="47.15957" lon="-1.44744">
        <ele>15.28</ele>
        <time>2020-05-27T16:28:18Z</time>
      </trkpt>
      <trkpt lat="47.15961" lon="-1.44757">
        <ele>15.56</ele>
        <time>2020-05-27T16:28:20Z</time>
      </trkpt>
      <trkpt lat="47.15966" lon="-1.44771">
        <ele>15.99</ele>
        <time>2020-05-27T16:28:22Z</time>
      </trkpt>
      <trkpt lat="47.1597" lon="-1.44785">
        <ele>16.59</ele>
        <time>2020-05-27T16:28:24Z</time>
      </trkpt>
      <trkpt lat="47.15974" lon="-1.44799">
        <ele>17.06</ele>
        <time>2020-05-27T16:28:26Z</time>
      </trkpt>
      <trkpt lat="47.1598" lon="-1.44814">
        <ele>17.43</ele>
        <time>2020-05-27T16:28:28Z</time>
      </trkpt>
      <trkpt lat="47.15986" lon="-1.4483">
        <ele>17.09</ele>
        <time>2020-05-27T16:28:30Z</time>
      </trkpt>
      <trkpt lat="47.15994" lon="-1.44845">
        <ele>16.26</ele>
        <time>2020-05-27T16:28:32Z</time>
      </trkpt>
      <trkpt lat="47.16003" lon="-1.4486">
        <ele>16.1</ele>
        <time>2020-05-27T16:28:34Z</time>
      </trkpt>
      <trkpt lat="47.16012" lon="-1.44874">
        <ele>15.75</ele>
        <time>2020-05-27T16:28:36Z</time>
      </trkpt>
      <trkpt lat="47.16021" lon="-1.44887">
        <ele>14.29</ele>
        <time>2020-05-27T16:28:39Z</time>
      </trkpt>
      <trkpt lat="47.16032" lon="-1.44899">
        <ele>12.37</ele>
        <time>2020-05-27T16:28:41Z</time>
      </trkpt>
      <trkpt lat="47.16045" lon="-1.44913">
        <ele>11.41</ele>
        <time>2020-05-27T16:28:43Z</time>
      </trkpt>
      <trkpt lat="47.16056" lon="-1.44924">
        <ele>11.16</ele>
        <time>2020-05-27T16:28:45Z</time>
      </trkpt>
      <trkpt lat="47.16065" lon="-1.44934">
        <ele>10.43</ele>
        <time>2020-05-27T16:28:47Z</time>
      </trkpt>
      <trkpt lat="47.16076" lon="-1.44947">
        <ele>9.11</ele>
        <time>2020-05-27T16:28:49Z</time>
      </trkpt>
      <trkpt lat="47.16085" lon="-1.4496">
        <ele>8.42</ele>
        <time>2020-05-27T16:28:51Z</time>
      </trkpt>
      <trkpt lat="47.16093" lon="-1.44974">
        <ele>7.73</ele>
        <time>2020-05-27T16:28:53Z</time>
      </trkpt>
      <trkpt lat="47.16102" lon="-1.44994">
        <ele>6.86</ele>
        <time>2020-05-27T16:28:55Z</time>
      </trkpt>
      <trkpt lat="47.16109" lon="-1.45014">
        <ele>6.25</ele>
        <time>2020-05-27T16:28:57Z</time>
      </trkpt>
      <trkpt lat="47.16114" lon="-1.45031">
        <ele>7.32</ele>
        <time>2020-05-27T16:28:59Z</time>
      </trkpt>
      <trkpt lat="47.16119" lon="-1.45046">
        <ele>7.92</ele>
        <time>2020-05-27T16:29:01Z</time>
      </trkpt>
      <trkpt lat="47.16124" lon="-1.45063">
        <ele>7.77</ele>
        <time>2020-05-27T16:29:03Z</time>
      </trkpt>
      <trkpt lat="47.16128" lon="-1.45077">
        <ele>8.26</ele>
        <time>2020-05-27T16:29:05Z</time>
      </trkpt>
      <trkpt lat="47.16132" lon="-1.45091">
        <ele>9.36</ele>
        <time>2020-05-27T16:29:07Z</time>
      </trkpt>
      <trkpt lat="47.16135" lon="-1.45106">
        <ele>10.87</ele>
        <time>2020-05-27T16:29:09Z</time>
      </trkpt>
      <trkpt lat="47.16139" lon="-1.45126">
        <ele>11.9</ele>
        <time>2020-05-27T16:29:12Z</time>
      </trkpt>
      <trkpt lat="47.16143" lon="-1.45146">
        <ele>14.12</ele>
        <time>2020-05-27T16:29:15Z</time>
      </trkpt>
      <trkpt lat="47.16147" lon="-1.45159">
        <ele>16.01</ele>
        <time>2020-05-27T16:29:17Z</time>
      </trkpt>
      <trkpt lat="47.16157" lon="-1.45173">
        <ele>18.25</ele>
        <time>2020-05-27T16:29:19Z</time>
      </trkpt>
      <trkpt lat="47.16169" lon="-1.45179">
        <ele>21.64</ele>
        <time>2020-05-27T16:29:21Z</time>
      </trkpt>
      <trkpt lat="47.16179" lon="-1.45184">
        <ele>24.56</ele>
        <time>2020-05-27T16:29:23Z</time>
      </trkpt>
      <trkpt lat="47.16189" lon="-1.45186">
        <ele>27.4</ele>
        <time>2020-05-27T16:29:25Z</time>
      </trkpt>
      <trkpt lat="47.16202" lon="-1.45192">
        <ele>30</ele>
        <time>2020-05-27T16:29:27Z</time>
      </trkpt>
      <trkpt lat="47.16212" lon="-1.45196">
        <ele>32.99</ele>
        <time>2020-05-27T16:29:29Z</time>
      </trkpt>
      <trkpt lat="47.16223" lon="-1.45201">
        <ele>34.77</ele>
        <time>2020-05-27T16:29:31Z</time>
      </trkpt>
      <trkpt lat="47.16232" lon="-1.45207">
        <ele>35.49</ele>
        <time>2020-05-27T16:29:33Z</time>
      </trkpt>
      <trkpt lat="47.16243" lon="-1.45214">
        <ele>35.9</ele>
        <time>2020-05-27T16:29:35Z</time>
      </trkpt>
      <trkpt lat="47.16252" lon="-1.45224">
        <ele>36.84</ele>
        <time>2020-05-27T16:29:37Z</time>
      </trkpt>
      <trkpt lat="47.16259" lon="-1.45237">
        <ele>36.35</ele>
        <time>2020-05-27T16:29:39Z</time>
      </trkpt>
      <trkpt lat="47.16266" lon="-1.45254">
        <ele>35.28</ele>
        <time>2020-05-27T16:29:41Z</time>
      </trkpt>
      <trkpt lat="47.16271" lon="-1.4527">
        <ele>35.39</ele>
        <time>2020-05-27T16:29:43Z</time>
      </trkpt>
      <trkpt lat="47.16275" lon="-1.45286">
        <ele>35.8</ele>
        <time>2020-05-27T16:29:45Z</time>
      </trkpt>
      <trkpt lat="47.1628" lon="-1.45302">
        <ele>36.27</ele>
        <time>2020-05-27T16:29:47Z</time>
      </trkpt>
      <trkpt lat="47.16285" lon="-1.45319">
        <ele>36.48</ele>
        <time>2020-05-27T16:29:49Z</time>
      </trkpt>
      <trkpt lat="47.16291" lon="-1.45339">
        <ele>35.56</ele>
        <time>2020-05-27T16:29:51Z</time>
      </trkpt>
      <trkpt lat="47.16296" lon="-1.45362">
        <ele>34.03</ele>
        <time>2020-05-27T16:29:53Z</time>
      </trkpt>
      <trkpt lat="47.163" lon="-1.45386">
        <ele>33.07</ele>
        <time>2020-05-27T16:29:55Z</time>
      </trkpt>
      <trkpt lat="47.16301" lon="-1.454">
        <ele>32.71</ele>
        <time>2020-05-27T16:29:56Z</time>
      </trkpt>
      <trkpt lat="47.16305" lon="-1.45424">
        <ele>31.93</ele>
        <time>2020-05-27T16:29:58Z</time>
      </trkpt>
      <trkpt lat="47.16314" lon="-1.45445">
        <ele>31.73</ele>
        <time>2020-05-27T16:30:00Z</time>
      </trkpt>
      <trkpt lat="47.16324" lon="-1.45464">
        <ele>31.23</ele>
        <time>2020-05-27T16:30:02Z</time>
      </trkpt>
      <trkpt lat="47.16335" lon="-1.45485">
        <ele>31.09</ele>
        <time>2020-05-27T16:30:04Z</time>
      </trkpt>
      <trkpt lat="47.16344" lon="-1.45503">
        <ele>31.28</ele>
        <time>2020-05-27T16:30:06Z</time>
      </trkpt>
      <trkpt lat="47.16355" lon="-1.45522">
        <ele>30.52</ele>
        <time>2020-05-27T16:30:08Z</time>
      </trkpt>
      <trkpt lat="47.16364" lon="-1.4554">
        <ele>29.57</ele>
        <time>2020-05-27T16:30:10Z</time>
      </trkpt>
      <trkpt lat="47.16375" lon="-1.45558">
        <ele>29.11</ele>
        <time>2020-05-27T16:30:12Z</time>
      </trkpt>
      <trkpt lat="47.16384" lon="-1.45576">
        <ele>28.68</ele>
        <time>2020-05-27T16:30:14Z</time>
      </trkpt>
      <trkpt lat="47.16394" lon="-1.45595">
        <ele>28.72</ele>
        <time>2020-05-27T16:30:16Z</time>
      </trkpt>
      <trkpt lat="47.16401" lon="-1.45611">
        <ele>28.53</ele>
        <time>2020-05-27T16:30:18Z</time>
      </trkpt>
      <trkpt lat="47.16409" lon="-1.45631">
        <ele>28.52</ele>
        <time>2020-05-27T16:30:20Z</time>
      </trkpt>
      <trkpt lat="47.16416" lon="-1.4565">
        <ele>28.09</ele>
        <time>2020-05-27T16:30:22Z</time>
      </trkpt>
      <trkpt lat="47.16422" lon="-1.45672">
        <ele>27.75</ele>
        <time>2020-05-27T16:30:24Z</time>
      </trkpt>
      <trkpt lat="47.16428" lon="-1.45692">
        <ele>27.66</ele>
        <time>2020-05-27T16:30:26Z</time>
      </trkpt>
      <trkpt lat="47.16432" lon="-1.45713">
        <ele>27.91</ele>
        <time>2020-05-27T16:30:28Z</time>
      </trkpt>
      <trkpt lat="47.16437" lon="-1.45734">
        <ele>27.58</ele>
        <time>2020-05-27T16:30:30Z</time>
      </trkpt>
      <trkpt lat="47.16441" lon="-1.45754">
        <ele>27.56</ele>
        <time>2020-05-27T16:30:32Z</time>
      </trkpt>
      <trkpt lat="47.16445" lon="-1.45773">
        <ele>27.83</ele>
        <time>2020-05-27T16:30:34Z</time>
      </trkpt>
      <trkpt lat="47.16449" lon="-1.45791">
        <ele>27.83</ele>
        <time>2020-05-27T16:30:36Z</time>
      </trkpt>
      <trkpt lat="47.16454" lon="-1.4581">
        <ele>27.79</ele>
        <time>2020-05-27T16:30:38Z</time>
      </trkpt>
      <trkpt lat="47.16458" lon="-1.45829">
        <ele>27.98</ele>
        <time>2020-05-27T16:30:40Z</time>
      </trkpt>
      <trkpt lat="47.16464" lon="-1.45847">
        <ele>27.86</ele>
        <time>2020-05-27T16:30:42Z</time>
      </trkpt>
      <trkpt lat="47.16469" lon="-1.45866">
        <ele>27.93</ele>
        <time>2020-05-27T16:30:44Z</time>
      </trkpt>
      <trkpt lat="47.16473" lon="-1.45883">
        <ele>28.34</ele>
        <time>2020-05-27T16:30:46Z</time>
      </trkpt>
      <trkpt lat="47.16478" lon="-1.45899">
        <ele>28.9</ele>
        <time>2020-05-27T16:30:48Z</time>
      </trkpt>
      <trkpt lat="47.16483" lon="-1.45917">
        <ele>29.66</ele>
        <time>2020-05-27T16:30:50Z</time>
      </trkpt>
      <trkpt lat="47.16488" lon="-1.45933">
        <ele>30.71</ele>
        <time>2020-05-27T16:30:52Z</time>
      </trkpt>
      <trkpt lat="47.16492" lon="-1.45948">
        <ele>31.66</ele>
        <time>2020-05-27T16:30:54Z</time>
      </trkpt>
      <trkpt lat="47.16496" lon="-1.45961">
        <ele>32.2</ele>
        <time>2020-05-27T16:30:56Z</time>
      </trkpt>
      <trkpt lat="47.16502" lon="-1.45976">
        <ele>31.94</ele>
        <time>2020-05-27T16:30:58Z</time>
      </trkpt>
      <trkpt lat="47.16508" lon="-1.45992">
        <ele>31.19</ele>
        <time>2020-05-27T16:31:00Z</time>
      </trkpt>
      <trkpt lat="47.16514" lon="-1.46008">
        <ele>31</ele>
        <time>2020-05-27T16:31:02Z</time>
      </trkpt>
      <trkpt lat="47.1652" lon="-1.46022">
        <ele>31.63</ele>
        <time>2020-05-27T16:31:04Z</time>
      </trkpt>
      <trkpt lat="47.16528" lon="-1.46034">
        <ele>32.21</ele>
        <time>2020-05-27T16:31:06Z</time>
      </trkpt>
      <trkpt lat="47.1654" lon="-1.46039">
        <ele>32.24</ele>
        <time>2020-05-27T16:31:08Z</time>
      </trkpt>
      <trkpt lat="47.1655" lon="-1.46048">
        <ele>31.68</ele>
        <time>2020-05-27T16:31:10Z</time>
      </trkpt>
      <trkpt lat="47.16555" lon="-1.46064">
        <ele>31.06</ele>
        <time>2020-05-27T16:31:12Z</time>
      </trkpt>
      <trkpt lat="47.16556" lon="-1.46085">
        <ele>31.48</ele>
        <time>2020-05-27T16:31:14Z</time>
      </trkpt>
      <trkpt lat="47.1656" lon="-1.46103">
        <ele>31.14</ele>
        <time>2020-05-27T16:31:16Z</time>
      </trkpt>
      <trkpt lat="47.16566" lon="-1.46122">
        <ele>30.65</ele>
        <time>2020-05-27T16:31:18Z</time>
      </trkpt>
      <trkpt lat="47.16574" lon="-1.4614">
        <ele>30.95</ele>
        <time>2020-05-27T16:31:20Z</time>
      </trkpt>
      <trkpt lat="47.16581" lon="-1.46155">
        <ele>31.65</ele>
        <time>2020-05-27T16:31:22Z</time>
      </trkpt>
      <trkpt lat="47.16588" lon="-1.46169">
        <ele>32.17</ele>
        <time>2020-05-27T16:31:24Z</time>
      </trkpt>
      <trkpt lat="47.16596" lon="-1.46187">
        <ele>33.34</ele>
        <time>2020-05-27T16:31:26Z</time>
      </trkpt>
      <trkpt lat="47.16603" lon="-1.462">
        <ele>35.11</ele>
        <time>2020-05-27T16:31:28Z</time>
      </trkpt>
      <trkpt lat="47.16611" lon="-1.46214">
        <ele>36.64</ele>
        <time>2020-05-27T16:31:30Z</time>
      </trkpt>
      <trkpt lat="47.16619" lon="-1.46229">
        <ele>36.28</ele>
        <time>2020-05-27T16:31:32Z</time>
      </trkpt>
      <trkpt lat="47.16627" lon="-1.46245">
        <ele>35.29</ele>
        <time>2020-05-27T16:31:34Z</time>
      </trkpt>
      <trkpt lat="47.16634" lon="-1.46259">
        <ele>35.04</ele>
        <time>2020-05-27T16:31:36Z</time>
      </trkpt>
      <trkpt lat="47.16642" lon="-1.46274">
        <ele>35.48</ele>
        <time>2020-05-27T16:31:38Z</time>
      </trkpt>
      <trkpt lat="47.1665" lon="-1.4629">
        <ele>35.41</ele>
        <time>2020-05-27T16:31:40Z</time>
      </trkpt>
      <trkpt lat="47.16659" lon="-1.46306">
        <ele>35.2</ele>
        <time>2020-05-27T16:31:42Z</time>
      </trkpt>
      <trkpt lat="47.16667" lon="-1.46321">
        <ele>34.68</ele>
        <time>2020-05-27T16:31:44Z</time>
      </trkpt>
      <trkpt lat="47.16677" lon="-1.46339">
        <ele>34.37</ele>
        <time>2020-05-27T16:31:46Z</time>
      </trkpt>
      <trkpt lat="47.16686" lon="-1.46355">
        <ele>35.43</ele>
        <time>2020-05-27T16:31:48Z</time>
      </trkpt>
      <trkpt lat="47.16693" lon="-1.46369">
        <ele>34.7</ele>
        <time>2020-05-27T16:31:50Z</time>
      </trkpt>
      <trkpt lat="47.16701" lon="-1.46384">
        <ele>33.95</ele>
        <time>2020-05-27T16:31:52Z</time>
      </trkpt>
      <trkpt lat="47.1671" lon="-1.46398">
        <ele>33.6</ele>
        <time>2020-05-27T16:31:54Z</time>
      </trkpt>
      <trkpt lat="47.1672" lon="-1.46414">
        <ele>33.76</ele>
        <time>2020-05-27T16:31:56Z</time>
      </trkpt>
      <trkpt lat="47.16729" lon="-1.46431">
        <ele>33.96</ele>
        <time>2020-05-27T16:31:58Z</time>
      </trkpt>
      <trkpt lat="47.16737" lon="-1.46445">
        <ele>34.31</ele>
        <time>2020-05-27T16:32:00Z</time>
      </trkpt>
      <trkpt lat="47.16747" lon="-1.4646">
        <ele>34.24</ele>
        <time>2020-05-27T16:32:02Z</time>
      </trkpt>
      <trkpt lat="47.16757" lon="-1.46474">
        <ele>34.37</ele>
        <time>2020-05-27T16:32:04Z</time>
      </trkpt>
      <trkpt lat="47.16767" lon="-1.46487">
        <ele>34.69</ele>
        <time>2020-05-27T16:32:06Z</time>
      </trkpt>
      <trkpt lat="47.16777" lon="-1.46501">
        <ele>35.18</ele>
        <time>2020-05-27T16:32:08Z</time>
      </trkpt>
      <trkpt lat="47.16788" lon="-1.46514">
        <ele>35.36</ele>
        <time>2020-05-27T16:32:10Z</time>
      </trkpt>
      <trkpt lat="47.16799" lon="-1.46526">
        <ele>34.33</ele>
        <time>2020-05-27T16:32:12Z</time>
      </trkpt>
      <trkpt lat="47.16812" lon="-1.46541">
        <ele>32.55</ele>
        <time>2020-05-27T16:32:14Z</time>
      </trkpt>
      <trkpt lat="47.16823" lon="-1.46553">
        <ele>32.12</ele>
        <time>2020-05-27T16:32:16Z</time>
      </trkpt>
      <trkpt lat="47.16835" lon="-1.46566">
        <ele>31.73</ele>
        <time>2020-05-27T16:32:18Z</time>
      </trkpt>
      <trkpt lat="47.16847" lon="-1.46578">
        <ele>31.24</ele>
        <time>2020-05-27T16:32:20Z</time>
      </trkpt>
      <trkpt lat="47.1686" lon="-1.46591">
        <ele>31.14</ele>
        <time>2020-05-27T16:32:22Z</time>
      </trkpt>
      <trkpt lat="47.16874" lon="-1.46603">
        <ele>30.48</ele>
        <time>2020-05-27T16:32:24Z</time>
      </trkpt>
      <trkpt lat="47.16885" lon="-1.46614">
        <ele>29.79</ele>
        <time>2020-05-27T16:32:26Z</time>
      </trkpt>
      <trkpt lat="47.16897" lon="-1.46622">
        <ele>30.59</ele>
        <time>2020-05-27T16:32:28Z</time>
      </trkpt>
      <trkpt lat="47.16909" lon="-1.46632">
        <ele>31.1</ele>
        <time>2020-05-27T16:32:30Z</time>
      </trkpt>
      <trkpt lat="47.1692" lon="-1.46641">
        <ele>30.98</ele>
        <time>2020-05-27T16:32:32Z</time>
      </trkpt>
      <trkpt lat="47.16933" lon="-1.46651">
        <ele>30.34</ele>
        <time>2020-05-27T16:32:34Z</time>
      </trkpt>
      <trkpt lat="47.16946" lon="-1.46661">
        <ele>30.56</ele>
        <time>2020-05-27T16:32:36Z</time>
      </trkpt>
      <trkpt lat="47.16961" lon="-1.46667">
        <ele>31.46</ele>
        <time>2020-05-27T16:32:38Z</time>
      </trkpt>
      <trkpt lat="47.16973" lon="-1.46675">
        <ele>31.28</ele>
        <time>2020-05-27T16:32:40Z</time>
      </trkpt>
      <trkpt lat="47.16982" lon="-1.46687">
        <ele>30.41</ele>
        <time>2020-05-27T16:32:42Z</time>
      </trkpt>
      <trkpt lat="47.16995" lon="-1.46702">
        <ele>28.74</ele>
        <time>2020-05-27T16:32:44Z</time>
      </trkpt>
      <trkpt lat="47.17009" lon="-1.46713">
        <ele>27.65</ele>
        <time>2020-05-27T16:32:46Z</time>
      </trkpt>
      <trkpt lat="47.17023" lon="-1.46724">
        <ele>27.63</ele>
        <time>2020-05-27T16:32:48Z</time>
      </trkpt>
      <trkpt lat="47.17036" lon="-1.46736">
        <ele>27.44</ele>
        <time>2020-05-27T16:32:50Z</time>
      </trkpt>
      <trkpt lat="47.17051" lon="-1.46746">
        <ele>26.93</ele>
        <time>2020-05-27T16:32:52Z</time>
      </trkpt>
      <trkpt lat="47.17065" lon="-1.46758">
        <ele>26.82</ele>
        <time>2020-05-27T16:32:54Z</time>
      </trkpt>
      <trkpt lat="47.17073" lon="-1.46765">
        <ele>26.2</ele>
        <time>2020-05-27T16:32:55Z</time>
      </trkpt>
      <trkpt lat="47.17087" lon="-1.4678">
        <ele>25.27</ele>
        <time>2020-05-27T16:32:57Z</time>
      </trkpt>
      <trkpt lat="47.171" lon="-1.46794">
        <ele>25.44</ele>
        <time>2020-05-27T16:32:59Z</time>
      </trkpt>
      <trkpt lat="47.17114" lon="-1.46805">
        <ele>25.53</ele>
        <time>2020-05-27T16:33:01Z</time>
      </trkpt>
      <trkpt lat="47.17128" lon="-1.46811">
        <ele>25.77</ele>
        <time>2020-05-27T16:33:03Z</time>
      </trkpt>
      <trkpt lat="47.17139" lon="-1.46829">
        <ele>25.19</ele>
        <time>2020-05-27T16:33:05Z</time>
      </trkpt>
      <trkpt lat="47.17147" lon="-1.46848">
        <ele>23.93</ele>
        <time>2020-05-27T16:33:07Z</time>
      </trkpt>
      <trkpt lat="47.17157" lon="-1.46862">
        <ele>22.92</ele>
        <time>2020-05-27T16:33:09Z</time>
      </trkpt>
      <trkpt lat="47.17167" lon="-1.46878">
        <ele>22.28</ele>
        <time>2020-05-27T16:33:11Z</time>
      </trkpt>
      <trkpt lat="47.17177" lon="-1.46897">
        <ele>22.01</ele>
        <time>2020-05-27T16:33:13Z</time>
      </trkpt>
      <trkpt lat="47.17186" lon="-1.46917">
        <ele>21.07</ele>
        <time>2020-05-27T16:33:15Z</time>
      </trkpt>
      <trkpt lat="47.17191" lon="-1.46928">
        <ele>20.42</ele>
        <time>2020-05-27T16:33:16Z</time>
      </trkpt>
      <trkpt lat="47.172" lon="-1.46949">
        <ele>18.98</ele>
        <time>2020-05-27T16:33:18Z</time>
      </trkpt>
      <trkpt lat="47.1721" lon="-1.4697">
        <ele>18</ele>
        <time>2020-05-27T16:33:20Z</time>
      </trkpt>
      <trkpt lat="47.17218" lon="-1.46991">
        <ele>17.44</ele>
        <time>2020-05-27T16:33:22Z</time>
      </trkpt>
      <trkpt lat="47.17222" lon="-1.47002">
        <ele>17.45</ele>
        <time>2020-05-27T16:33:23Z</time>
      </trkpt>
      <trkpt lat="47.17231" lon="-1.47025">
        <ele>17.78</ele>
        <time>2020-05-27T16:33:25Z</time>
      </trkpt>
      <trkpt lat="47.17237" lon="-1.47046">
        <ele>17.94</ele>
        <time>2020-05-27T16:33:27Z</time>
      </trkpt>
      <trkpt lat="47.17241" lon="-1.47059">
        <ele>17.83</ele>
        <time>2020-05-27T16:33:28Z</time>
      </trkpt>
      <trkpt lat="47.17248" lon="-1.47082">
        <ele>17.26</ele>
        <time>2020-05-27T16:33:30Z</time>
      </trkpt>
      <trkpt lat="47.17253" lon="-1.47104">
        <ele>16.3</ele>
        <time>2020-05-27T16:33:32Z</time>
      </trkpt>
      <trkpt lat="47.17258" lon="-1.47126">
        <ele>15.5</ele>
        <time>2020-05-27T16:33:34Z</time>
      </trkpt>
      <trkpt lat="47.17262" lon="-1.47151">
        <ele>15.71</ele>
        <time>2020-05-27T16:33:36Z</time>
      </trkpt>
      <trkpt lat="47.17267" lon="-1.47176">
        <ele>15.2</ele>
        <time>2020-05-27T16:33:39Z</time>
      </trkpt>
      <trkpt lat="47.1727" lon="-1.47189">
        <ele>14.66</ele>
        <time>2020-05-27T16:33:40Z</time>
      </trkpt>
      <trkpt lat="47.17273" lon="-1.47202">
        <ele>14.5</ele>
        <time>2020-05-27T16:33:41Z</time>
      </trkpt>
      <trkpt lat="47.17276" lon="-1.47216">
        <ele>14.25</ele>
        <time>2020-05-27T16:33:42Z</time>
      </trkpt>
      <trkpt lat="47.17279" lon="-1.4723">
        <ele>13.88</ele>
        <time>2020-05-27T16:33:43Z</time>
      </trkpt>
      <trkpt lat="47.17284" lon="-1.47254">
        <ele>12.49</ele>
        <time>2020-05-27T16:33:45Z</time>
      </trkpt>
      <trkpt lat="47.17286" lon="-1.47266">
        <ele>11.79</ele>
        <time>2020-05-27T16:33:46Z</time>
      </trkpt>
      <trkpt lat="47.1729" lon="-1.47289">
        <ele>11.15</ele>
        <time>2020-05-27T16:33:48Z</time>
      </trkpt>
      <trkpt lat="47.17295" lon="-1.47313">
        <ele>10.75</ele>
        <time>2020-05-27T16:33:50Z</time>
      </trkpt>
      <trkpt lat="47.17299" lon="-1.47336">
        <ele>10.11</ele>
        <time>2020-05-27T16:33:52Z</time>
      </trkpt>
      <trkpt lat="47.17305" lon="-1.47355">
        <ele>9.68</ele>
        <time>2020-05-27T16:33:54Z</time>
      </trkpt>
      <trkpt lat="47.17315" lon="-1.47368">
        <ele>9.71</ele>
        <time>2020-05-27T16:33:56Z</time>
      </trkpt>
      <trkpt lat="47.17332" lon="-1.47368">
        <ele>10.57</ele>
        <time>2020-05-27T16:33:58Z</time>
      </trkpt>
      <trkpt lat="47.17347" lon="-1.47365">
        <ele>11.41</ele>
        <time>2020-05-27T16:34:00Z</time>
      </trkpt>
      <trkpt lat="47.17357" lon="-1.47364">
        <ele>11.29</ele>
        <time>2020-05-27T16:34:01Z</time>
      </trkpt>
      <trkpt lat="47.17373" lon="-1.47359">
        <ele>9.92</ele>
        <time>2020-05-27T16:34:03Z</time>
      </trkpt>
      <trkpt lat="47.17389" lon="-1.47356">
        <ele>9.08</ele>
        <time>2020-05-27T16:34:05Z</time>
      </trkpt>
      <trkpt lat="47.17404" lon="-1.47354">
        <ele>8.4</ele>
        <time>2020-05-27T16:34:07Z</time>
      </trkpt>
      <trkpt lat="47.1742" lon="-1.47353">
        <ele>7.26</ele>
        <time>2020-05-27T16:34:09Z</time>
      </trkpt>
      <trkpt lat="47.17435" lon="-1.47351">
        <ele>6.72</ele>
        <time>2020-05-27T16:34:11Z</time>
      </trkpt>
      <trkpt lat="47.1745" lon="-1.47351">
        <ele>6.14</ele>
        <time>2020-05-27T16:34:13Z</time>
      </trkpt>
      <trkpt lat="47.17465" lon="-1.47352">
        <ele>5.73</ele>
        <time>2020-05-27T16:34:15Z</time>
      </trkpt>
      <trkpt lat="47.17482" lon="-1.47352">
        <ele>5.24</ele>
        <time>2020-05-27T16:34:17Z</time>
      </trkpt>
      <trkpt lat="47.17497" lon="-1.47353">
        <ele>3.74</ele>
        <time>2020-05-27T16:34:19Z</time>
      </trkpt>
      <trkpt lat="47.17514" lon="-1.47353">
        <ele>3.31</ele>
        <time>2020-05-27T16:34:21Z</time>
      </trkpt>
      <trkpt lat="47.1753" lon="-1.47353">
        <ele>2.42</ele>
        <time>2020-05-27T16:34:23Z</time>
      </trkpt>
      <trkpt lat="47.17546" lon="-1.47354">
        <ele>1.72</ele>
        <time>2020-05-27T16:34:25Z</time>
      </trkpt>
      <trkpt lat="47.17563" lon="-1.47354">
        <ele>1.32</ele>
        <time>2020-05-27T16:34:27Z</time>
      </trkpt>
      <trkpt lat="47.17577" lon="-1.47356">
        <ele>1.67</ele>
        <time>2020-05-27T16:34:29Z</time>
      </trkpt>
      <trkpt lat="47.17592" lon="-1.47359">
        <ele>2.19</ele>
        <time>2020-05-27T16:34:31Z</time>
      </trkpt>
      <trkpt lat="47.17606" lon="-1.47362">
        <ele>2.7</ele>
        <time>2020-05-27T16:34:33Z</time>
      </trkpt>
      <trkpt lat="47.17619" lon="-1.47366">
        <ele>2.64</ele>
        <time>2020-05-27T16:34:35Z</time>
      </trkpt>
      <trkpt lat="47.17633" lon="-1.47371">
        <ele>2.54</ele>
        <time>2020-05-27T16:34:37Z</time>
      </trkpt>
      <trkpt lat="47.17645" lon="-1.47376">
        <ele>3.04</ele>
        <time>2020-05-27T16:34:39Z</time>
      </trkpt>
      <trkpt lat="47.17659" lon="-1.47383">
        <ele>3.31</ele>
        <time>2020-05-27T16:34:41Z</time>
      </trkpt>
      <trkpt lat="47.17672" lon="-1.47391">
        <ele>3.7</ele>
        <time>2020-05-27T16:34:43Z</time>
      </trkpt>
      <trkpt lat="47.17683" lon="-1.47397">
        <ele>4.11</ele>
        <time>2020-05-27T16:34:45Z</time>
      </trkpt>
      <trkpt lat="47.17696" lon="-1.47404">
        <ele>4.99</ele>
        <time>2020-05-27T16:34:47Z</time>
      </trkpt>
      <trkpt lat="47.17708" lon="-1.4741">
        <ele>5.72</ele>
        <time>2020-05-27T16:34:49Z</time>
      </trkpt>
      <trkpt lat="47.17721" lon="-1.47415">
        <ele>5.83</ele>
        <time>2020-05-27T16:34:51Z</time>
      </trkpt>
      <trkpt lat="47.17734" lon="-1.47422">
        <ele>5.62</ele>
        <time>2020-05-27T16:34:53Z</time>
      </trkpt>
      <trkpt lat="47.17746" lon="-1.47429">
        <ele>6.42</ele>
        <time>2020-05-27T16:34:55Z</time>
      </trkpt>
      <trkpt lat="47.17758" lon="-1.47436">
        <ele>6.65</ele>
        <time>2020-05-27T16:34:57Z</time>
      </trkpt>
      <trkpt lat="47.17772" lon="-1.47443">
        <ele>6.84</ele>
        <time>2020-05-27T16:34:59Z</time>
      </trkpt>
      <trkpt lat="47.17786" lon="-1.4745">
        <ele>7.39</ele>
        <time>2020-05-27T16:35:01Z</time>
      </trkpt>
      <trkpt lat="47.17799" lon="-1.47456">
        <ele>8.51</ele>
        <time>2020-05-27T16:35:03Z</time>
      </trkpt>
      <trkpt lat="47.17811" lon="-1.47461">
        <ele>9.18</ele>
        <time>2020-05-27T16:35:05Z</time>
      </trkpt>
      <trkpt lat="47.17825" lon="-1.47465">
        <ele>9.7</ele>
        <time>2020-05-27T16:35:07Z</time>
      </trkpt>
      <trkpt lat="47.17839" lon="-1.47468">
        <ele>9.45</ele>
        <time>2020-05-27T16:35:09Z</time>
      </trkpt>
      <trkpt lat="47.17853" lon="-1.47472">
        <ele>8.7</ele>
        <time>2020-05-27T16:35:11Z</time>
      </trkpt>
      <trkpt lat="47.17865" lon="-1.47476">
        <ele>8.33</ele>
        <time>2020-05-27T16:35:13Z</time>
      </trkpt>
      <trkpt lat="47.17876" lon="-1.47477">
        <ele>8.14</ele>
        <time>2020-05-27T16:35:15Z</time>
      </trkpt>
      <trkpt lat="47.17889" lon="-1.47477">
        <ele>7.82</ele>
        <time>2020-05-27T16:35:17Z</time>
      </trkpt>
      <trkpt lat="47.17902" lon="-1.47471">
        <ele>7.52</ele>
        <time>2020-05-27T16:35:19Z</time>
      </trkpt>
      <trkpt lat="47.17916" lon="-1.47471">
        <ele>5.92</ele>
        <time>2020-05-27T16:35:21Z</time>
      </trkpt>
      <trkpt lat="47.17928" lon="-1.47482">
        <ele>5</ele>
        <time>2020-05-27T16:35:23Z</time>
      </trkpt>
      <trkpt lat="47.17941" lon="-1.47493">
        <ele>4.3</ele>
        <time>2020-05-27T16:35:25Z</time>
      </trkpt>
      <trkpt lat="47.17951" lon="-1.47498">
        <ele>4.44</ele>
        <time>2020-05-27T16:35:27Z</time>
      </trkpt>
      <trkpt lat="47.17962" lon="-1.475">
        <ele>4.37</ele>
        <time>2020-05-27T16:35:29Z</time>
      </trkpt>
      <trkpt lat="47.17974" lon="-1.47504">
        <ele>4.69</ele>
        <time>2020-05-27T16:35:31Z</time>
      </trkpt>
      <trkpt lat="47.17984" lon="-1.47506">
        <ele>4.4</ele>
        <time>2020-05-27T16:35:33Z</time>
      </trkpt>
      <trkpt lat="47.17996" lon="-1.47508">
        <ele>4.73</ele>
        <time>2020-05-27T16:35:35Z</time>
      </trkpt>
      <trkpt lat="47.18008" lon="-1.47511">
        <ele>5.56</ele>
        <time>2020-05-27T16:35:37Z</time>
      </trkpt>
      <trkpt lat="47.18022" lon="-1.47514">
        <ele>5.31</ele>
        <time>2020-05-27T16:35:39Z</time>
      </trkpt>
      <trkpt lat="47.18036" lon="-1.47518">
        <ele>5.07</ele>
        <time>2020-05-27T16:35:41Z</time>
      </trkpt>
      <trkpt lat="47.18047" lon="-1.47521">
        <ele>5.41</ele>
        <time>2020-05-27T16:35:43Z</time>
      </trkpt>
      <trkpt lat="47.18059" lon="-1.47523">
        <ele>6.72</ele>
        <time>2020-05-27T16:35:45Z</time>
      </trkpt>
      <trkpt lat="47.18071" lon="-1.47526">
        <ele>6.95</ele>
        <time>2020-05-27T16:35:47Z</time>
      </trkpt>
      <trkpt lat="47.18082" lon="-1.47528">
        <ele>7.09</ele>
        <time>2020-05-27T16:35:49Z</time>
      </trkpt>
      <trkpt lat="47.18095" lon="-1.47532">
        <ele>6.74</ele>
        <time>2020-05-27T16:35:51Z</time>
      </trkpt>
      <trkpt lat="47.18108" lon="-1.47536">
        <ele>6.65</ele>
        <time>2020-05-27T16:35:53Z</time>
      </trkpt>
      <trkpt lat="47.18119" lon="-1.47538">
        <ele>7.05</ele>
        <time>2020-05-27T16:35:55Z</time>
      </trkpt>
      <trkpt lat="47.18131" lon="-1.47542">
        <ele>6.7</ele>
        <time>2020-05-27T16:35:57Z</time>
      </trkpt>
      <trkpt lat="47.18141" lon="-1.47544">
        <ele>6.15</ele>
        <time>2020-05-27T16:35:59Z</time>
      </trkpt>
      <trkpt lat="47.18152" lon="-1.47547">
        <ele>6.34</ele>
        <time>2020-05-27T16:36:01Z</time>
      </trkpt>
      <trkpt lat="47.18166" lon="-1.47551">
        <ele>7.66</ele>
        <time>2020-05-27T16:36:03Z</time>
      </trkpt>
      <trkpt lat="47.18177" lon="-1.47553">
        <ele>8.42</ele>
        <time>2020-05-27T16:36:05Z</time>
      </trkpt>
      <trkpt lat="47.18188" lon="-1.47555">
        <ele>9.52</ele>
        <time>2020-05-27T16:36:07Z</time>
      </trkpt>
      <trkpt lat="47.18201" lon="-1.47557">
        <ele>8.81</ele>
        <time>2020-05-27T16:36:09Z</time>
      </trkpt>
      <trkpt lat="47.18211" lon="-1.4756">
        <ele>7.86</ele>
        <time>2020-05-27T16:36:11Z</time>
      </trkpt>
      <trkpt lat="47.1822" lon="-1.47563">
        <ele>8</ele>
        <time>2020-05-27T16:36:13Z</time>
      </trkpt>
      <trkpt lat="47.18231" lon="-1.47565">
        <ele>8.3</ele>
        <time>2020-05-27T16:36:15Z</time>
      </trkpt>
      <trkpt lat="47.18242" lon="-1.47569">
        <ele>8.76</ele>
        <time>2020-05-27T16:36:17Z</time>
      </trkpt>
      <trkpt lat="47.18251" lon="-1.47571">
        <ele>9.25</ele>
        <time>2020-05-27T16:36:19Z</time>
      </trkpt>
      <trkpt lat="47.18262" lon="-1.47574">
        <ele>9.83</ele>
        <time>2020-05-27T16:36:21Z</time>
      </trkpt>
      <trkpt lat="47.18273" lon="-1.47578">
        <ele>10.26</ele>
        <time>2020-05-27T16:36:23Z</time>
      </trkpt>
      <trkpt lat="47.18284" lon="-1.4758">
        <ele>10.89</ele>
        <time>2020-05-27T16:36:25Z</time>
      </trkpt>
      <trkpt lat="47.18294" lon="-1.47584">
        <ele>11.43</ele>
        <time>2020-05-27T16:36:27Z</time>
      </trkpt>
      <trkpt lat="47.18308" lon="-1.47589">
        <ele>11.35</ele>
        <time>2020-05-27T16:36:30Z</time>
      </trkpt>
      <trkpt lat="47.18321" lon="-1.47593">
        <ele>13.14</ele>
        <time>2020-05-27T16:36:33Z</time>
      </trkpt>
      <trkpt lat="47.18331" lon="-1.47595">
        <ele>12.89</ele>
        <time>2020-05-27T16:36:35Z</time>
      </trkpt>
      <trkpt lat="47.1834" lon="-1.47599">
        <ele>13.02</ele>
        <time>2020-05-27T16:36:37Z</time>
      </trkpt>
      <trkpt lat="47.18349" lon="-1.47602">
        <ele>12.23</ele>
        <time>2020-05-27T16:36:39Z</time>
      </trkpt>
      <trkpt lat="47.18362" lon="-1.47604">
        <ele>12.28</ele>
        <time>2020-05-27T16:36:42Z</time>
      </trkpt>
      <trkpt lat="47.18371" lon="-1.47605">
        <ele>12.16</ele>
        <time>2020-05-27T16:36:44Z</time>
      </trkpt>
      <trkpt lat="47.18381" lon="-1.47607">
        <ele>12.18</ele>
        <time>2020-05-27T16:36:47Z</time>
      </trkpt>
      <trkpt lat="47.1839" lon="-1.47609">
        <ele>12.61</ele>
        <time>2020-05-27T16:36:51Z</time>
      </trkpt>
      <trkpt lat="47.184" lon="-1.47608">
        <ele>13.64</ele>
        <time>2020-05-27T16:37:07Z</time>
      </trkpt>
      <trkpt lat="47.18409" lon="-1.47611">
        <ele>14.81</ele>
        <time>2020-05-27T16:37:09Z</time>
      </trkpt>
      <trkpt lat="47.18425" lon="-1.47616">
        <ele>17.03</ele>
        <time>2020-05-27T16:37:12Z</time>
      </trkpt>
      <trkpt lat="47.18437" lon="-1.4762">
        <ele>17.54</ele>
        <time>2020-05-27T16:37:14Z</time>
      </trkpt>
      <trkpt lat="47.1845" lon="-1.47623">
        <ele>18.86</ele>
        <time>2020-05-27T16:37:17Z</time>
      </trkpt>
      <trkpt lat="47.18462" lon="-1.47626">
        <ele>19.67</ele>
        <time>2020-05-27T16:37:20Z</time>
      </trkpt>
      <trkpt lat="47.18474" lon="-1.47632">
        <ele>20.88</ele>
        <time>2020-05-27T16:37:23Z</time>
      </trkpt>
      <trkpt lat="47.18487" lon="-1.47638">
        <ele>22.98</ele>
        <time>2020-05-27T16:37:26Z</time>
      </trkpt>
      <trkpt lat="47.18501" lon="-1.47641">
        <ele>23.1</ele>
        <time>2020-05-27T16:37:28Z</time>
      </trkpt>
      <trkpt lat="47.1851" lon="-1.47644">
        <ele>23.73</ele>
        <time>2020-05-27T16:37:30Z</time>
      </trkpt>
      <trkpt lat="47.18522" lon="-1.47646">
        <ele>24.69</ele>
        <time>2020-05-27T16:37:32Z</time>
      </trkpt>
      <trkpt lat="47.18533" lon="-1.47649">
        <ele>24.4</ele>
        <time>2020-05-27T16:37:34Z</time>
      </trkpt>
      <trkpt lat="47.18544" lon="-1.47652">
        <ele>23.89</ele>
        <time>2020-05-27T16:37:36Z</time>
      </trkpt>
      <trkpt lat="47.18553" lon="-1.47655">
        <ele>24.05</ele>
        <time>2020-05-27T16:37:38Z</time>
      </trkpt>
      <trkpt lat="47.18564" lon="-1.47658">
        <ele>24.75</ele>
        <time>2020-05-27T16:37:40Z</time>
      </trkpt>
      <trkpt lat="47.18578" lon="-1.47662">
        <ele>25.94</ele>
        <time>2020-05-27T16:37:43Z</time>
      </trkpt>
      <trkpt lat="47.18591" lon="-1.47666">
        <ele>26.48</ele>
        <time>2020-05-27T16:37:46Z</time>
      </trkpt>
      <trkpt lat="47.18603" lon="-1.47669">
        <ele>26.15</ele>
        <time>2020-05-27T16:37:48Z</time>
      </trkpt>
      <trkpt lat="47.18612" lon="-1.47671">
        <ele>26.68</ele>
        <time>2020-05-27T16:37:50Z</time>
      </trkpt>
      <trkpt lat="47.18622" lon="-1.47673">
        <ele>26.76</ele>
        <time>2020-05-27T16:37:52Z</time>
      </trkpt>
      <trkpt lat="47.18631" lon="-1.47675">
        <ele>26.96</ele>
        <time>2020-05-27T16:37:54Z</time>
      </trkpt>
      <trkpt lat="47.18641" lon="-1.47677">
        <ele>26.61</ele>
        <time>2020-05-27T16:37:56Z</time>
      </trkpt>
      <trkpt lat="47.1865" lon="-1.47681">
        <ele>26.3</ele>
        <time>2020-05-27T16:37:58Z</time>
      </trkpt>
      <trkpt lat="47.18662" lon="-1.47684">
        <ele>26.34</ele>
        <time>2020-05-27T16:38:00Z</time>
      </trkpt>
      <trkpt lat="47.18673" lon="-1.47687">
        <ele>26.24</ele>
        <time>2020-05-27T16:38:02Z</time>
      </trkpt>
      <trkpt lat="47.18686" lon="-1.47688">
        <ele>26.96</ele>
        <time>2020-05-27T16:38:05Z</time>
      </trkpt>
      <trkpt lat="47.18697" lon="-1.47686">
        <ele>27.43</ele>
        <time>2020-05-27T16:38:08Z</time>
      </trkpt>
      <trkpt lat="47.18706" lon="-1.47681">
        <ele>28</ele>
        <time>2020-05-27T16:38:10Z</time>
      </trkpt>
      <trkpt lat="47.18714" lon="-1.47668">
        <ele>28.81</ele>
        <time>2020-05-27T16:38:12Z</time>
      </trkpt>
      <trkpt lat="47.1872" lon="-1.47655">
        <ele>29.2</ele>
        <time>2020-05-27T16:38:14Z</time>
      </trkpt>
      <trkpt lat="47.18725" lon="-1.47641">
        <ele>29.83</ele>
        <time>2020-05-27T16:38:16Z</time>
      </trkpt>
      <trkpt lat="47.18732" lon="-1.47626">
        <ele>29.07</ele>
        <time>2020-05-27T16:38:18Z</time>
      </trkpt>
      <trkpt lat="47.18737" lon="-1.47614">
        <ele>28.73</ele>
        <time>2020-05-27T16:38:20Z</time>
      </trkpt>
      <trkpt lat="47.18742" lon="-1.47602">
        <ele>28.21</ele>
        <time>2020-05-27T16:38:22Z</time>
      </trkpt>
      <trkpt lat="47.18748" lon="-1.4759">
        <ele>28.71</ele>
        <time>2020-05-27T16:38:24Z</time>
      </trkpt>
      <trkpt lat="47.18757" lon="-1.4757">
        <ele>29.21</ele>
        <time>2020-05-27T16:38:27Z</time>
      </trkpt>
      <trkpt lat="47.18763" lon="-1.47558">
        <ele>29.58</ele>
        <time>2020-05-27T16:38:29Z</time>
      </trkpt>
      <trkpt lat="47.18769" lon="-1.47546">
        <ele>30.04</ele>
        <time>2020-05-27T16:38:31Z</time>
      </trkpt>
      <trkpt lat="47.18775" lon="-1.47535">
        <ele>30.22</ele>
        <time>2020-05-27T16:38:33Z</time>
      </trkpt>
      <trkpt lat="47.18782" lon="-1.47522">
        <ele>30.17</ele>
        <time>2020-05-27T16:38:35Z</time>
      </trkpt>
      <trkpt lat="47.18789" lon="-1.47507">
        <ele>30.13</ele>
        <time>2020-05-27T16:38:38Z</time>
      </trkpt>
      <trkpt lat="47.18796" lon="-1.47492">
        <ele>30.26</ele>
        <time>2020-05-27T16:38:40Z</time>
      </trkpt>
      <trkpt lat="47.18804" lon="-1.47475">
        <ele>31.07</ele>
        <time>2020-05-27T16:38:43Z</time>
      </trkpt>
      <trkpt lat="47.1881" lon="-1.47462">
        <ele>31.11</ele>
        <time>2020-05-27T16:38:45Z</time>
      </trkpt>
      <trkpt lat="47.18816" lon="-1.4745">
        <ele>30.95</ele>
        <time>2020-05-27T16:38:47Z</time>
      </trkpt>
      <trkpt lat="47.18823" lon="-1.47437">
        <ele>30.86</ele>
        <time>2020-05-27T16:38:49Z</time>
      </trkpt>
      <trkpt lat="47.18829" lon="-1.47425">
        <ele>30.9</ele>
        <time>2020-05-27T16:38:51Z</time>
      </trkpt>
      <trkpt lat="47.18836" lon="-1.47412">
        <ele>32.15</ele>
        <time>2020-05-27T16:38:53Z</time>
      </trkpt>
      <trkpt lat="47.18843" lon="-1.47401">
        <ele>33.7</ele>
        <time>2020-05-27T16:38:55Z</time>
      </trkpt>
      <trkpt lat="47.18848" lon="-1.47389">
        <ele>34.87</ele>
        <time>2020-05-27T16:38:57Z</time>
      </trkpt>
      <trkpt lat="47.18855" lon="-1.47375">
        <ele>35.35</ele>
        <time>2020-05-27T16:38:59Z</time>
      </trkpt>
      <trkpt lat="47.18862" lon="-1.4736">
        <ele>35.78</ele>
        <time>2020-05-27T16:39:01Z</time>
      </trkpt>
      <trkpt lat="47.18868" lon="-1.47349">
        <ele>35.1</ele>
        <time>2020-05-27T16:39:03Z</time>
      </trkpt>
      <trkpt lat="47.18873" lon="-1.47335">
        <ele>34.31</ele>
        <time>2020-05-27T16:39:05Z</time>
      </trkpt>
      <trkpt lat="47.18878" lon="-1.47322">
        <ele>33.41</ele>
        <time>2020-05-27T16:39:07Z</time>
      </trkpt>
      <trkpt lat="47.18884" lon="-1.47309">
        <ele>33.3</ele>
        <time>2020-05-27T16:39:09Z</time>
      </trkpt>
      <trkpt lat="47.1889" lon="-1.47295">
        <ele>32.77</ele>
        <time>2020-05-27T16:39:11Z</time>
      </trkpt>
      <trkpt lat="47.18897" lon="-1.47282">
        <ele>32.62</ele>
        <time>2020-05-27T16:39:13Z</time>
      </trkpt>
      <trkpt lat="47.18903" lon="-1.47269">
        <ele>31.61</ele>
        <time>2020-05-27T16:39:15Z</time>
      </trkpt>
      <trkpt lat="47.18908" lon="-1.47257">
        <ele>32.49</ele>
        <time>2020-05-27T16:39:17Z</time>
      </trkpt>
      <trkpt lat="47.18915" lon="-1.47244">
        <ele>33.3</ele>
        <time>2020-05-27T16:39:19Z</time>
      </trkpt>
      <trkpt lat="47.18921" lon="-1.47233">
        <ele>33.45</ele>
        <time>2020-05-27T16:39:21Z</time>
      </trkpt>
      <trkpt lat="47.18926" lon="-1.47221">
        <ele>33.56</ele>
        <time>2020-05-27T16:39:23Z</time>
      </trkpt>
      <trkpt lat="47.18929" lon="-1.47205">
        <ele>33.58</ele>
        <time>2020-05-27T16:39:26Z</time>
      </trkpt>
      <trkpt lat="47.1893" lon="-1.4719">
        <ele>33.72</ele>
        <time>2020-05-27T16:39:28Z</time>
      </trkpt>
      <trkpt lat="47.18938" lon="-1.47176">
        <ele>32.45</ele>
        <time>2020-05-27T16:39:30Z</time>
      </trkpt>
      <trkpt lat="47.18946" lon="-1.47166">
        <ele>32</ele>
        <time>2020-05-27T16:39:32Z</time>
      </trkpt>
      <trkpt lat="47.18955" lon="-1.47152">
        <ele>31.9</ele>
        <time>2020-05-27T16:39:34Z</time>
      </trkpt>
      <trkpt lat="47.18961" lon="-1.4714">
        <ele>33.15</ele>
        <time>2020-05-27T16:39:36Z</time>
      </trkpt>
      <trkpt lat="47.18969" lon="-1.47125">
        <ele>33.59</ele>
        <time>2020-05-27T16:39:38Z</time>
      </trkpt>
      <trkpt lat="47.18976" lon="-1.47112">
        <ele>33.66</ele>
        <time>2020-05-27T16:39:40Z</time>
      </trkpt>
      <trkpt lat="47.18984" lon="-1.47095">
        <ele>34.02</ele>
        <time>2020-05-27T16:39:42Z</time>
      </trkpt>
      <trkpt lat="47.18993" lon="-1.47078">
        <ele>33.22</ele>
        <time>2020-05-27T16:39:44Z</time>
      </trkpt>
      <trkpt lat="47.19001" lon="-1.47062">
        <ele>32.25</ele>
        <time>2020-05-27T16:39:46Z</time>
      </trkpt>
      <trkpt lat="47.19009" lon="-1.47047">
        <ele>31.69</ele>
        <time>2020-05-27T16:39:48Z</time>
      </trkpt>
      <trkpt lat="47.19017" lon="-1.4703">
        <ele>30.61</ele>
        <time>2020-05-27T16:39:50Z</time>
      </trkpt>
      <trkpt lat="47.19025" lon="-1.47012">
        <ele>29.54</ele>
        <time>2020-05-27T16:39:52Z</time>
      </trkpt>
      <trkpt lat="47.19033" lon="-1.46996">
        <ele>29.07</ele>
        <time>2020-05-27T16:39:54Z</time>
      </trkpt>
      <trkpt lat="47.1904" lon="-1.4698">
        <ele>29.28</ele>
        <time>2020-05-27T16:39:56Z</time>
      </trkpt>
      <trkpt lat="47.19048" lon="-1.46964">
        <ele>29.91</ele>
        <time>2020-05-27T16:39:58Z</time>
      </trkpt>
      <trkpt lat="47.19057" lon="-1.46947">
        <ele>30.14</ele>
        <time>2020-05-27T16:40:00Z</time>
      </trkpt>
      <trkpt lat="47.19064" lon="-1.46932">
        <ele>30.02</ele>
        <time>2020-05-27T16:40:02Z</time>
      </trkpt>
      <trkpt lat="47.19071" lon="-1.46916">
        <ele>29.72</ele>
        <time>2020-05-27T16:40:04Z</time>
      </trkpt>
      <trkpt lat="47.19077" lon="-1.46903">
        <ele>29.87</ele>
        <time>2020-05-27T16:40:06Z</time>
      </trkpt>
      <trkpt lat="47.19083" lon="-1.46892">
        <ele>29.69</ele>
        <time>2020-05-27T16:40:08Z</time>
      </trkpt>
      <trkpt lat="47.1909" lon="-1.46876">
        <ele>30.08</ele>
        <time>2020-05-27T16:40:10Z</time>
      </trkpt>
      <trkpt lat="47.19095" lon="-1.46863">
        <ele>29.67</ele>
        <time>2020-05-27T16:40:12Z</time>
      </trkpt>
      <trkpt lat="47.19102" lon="-1.46848">
        <ele>29.04</ele>
        <time>2020-05-27T16:40:14Z</time>
      </trkpt>
      <trkpt lat="47.19107" lon="-1.46835">
        <ele>29.05</ele>
        <time>2020-05-27T16:40:16Z</time>
      </trkpt>
      <trkpt lat="47.19112" lon="-1.46823">
        <ele>28.9</ele>
        <time>2020-05-27T16:40:18Z</time>
      </trkpt>
      <trkpt lat="47.19118" lon="-1.4681">
        <ele>29.26</ele>
        <time>2020-05-27T16:40:20Z</time>
      </trkpt>
      <trkpt lat="47.19125" lon="-1.46798">
        <ele>29.38</ele>
        <time>2020-05-27T16:40:22Z</time>
      </trkpt>
      <trkpt lat="47.19131" lon="-1.46786">
        <ele>29.53</ele>
        <time>2020-05-27T16:40:24Z</time>
      </trkpt>
      <trkpt lat="47.19137" lon="-1.46774">
        <ele>29.72</ele>
        <time>2020-05-27T16:40:26Z</time>
      </trkpt>
      <trkpt lat="47.19144" lon="-1.4676">
        <ele>30.07</ele>
        <time>2020-05-27T16:40:28Z</time>
      </trkpt>
      <trkpt lat="47.1915" lon="-1.46749">
        <ele>30.2</ele>
        <time>2020-05-27T16:40:30Z</time>
      </trkpt>
      <trkpt lat="47.19155" lon="-1.46737">
        <ele>30.79</ele>
        <time>2020-05-27T16:40:32Z</time>
      </trkpt>
      <trkpt lat="47.19162" lon="-1.46723">
        <ele>30.6</ele>
        <time>2020-05-27T16:40:34Z</time>
      </trkpt>
      <trkpt lat="47.19168" lon="-1.46711">
        <ele>30.3</ele>
        <time>2020-05-27T16:40:36Z</time>
      </trkpt>
      <trkpt lat="47.19175" lon="-1.46693">
        <ele>29.64</ele>
        <time>2020-05-27T16:40:39Z</time>
      </trkpt>
      <trkpt lat="47.19182" lon="-1.46679">
        <ele>29.45</ele>
        <time>2020-05-27T16:40:41Z</time>
      </trkpt>
      <trkpt lat="47.19188" lon="-1.46664">
        <ele>28.99</ele>
        <time>2020-05-27T16:40:43Z</time>
      </trkpt>
      <trkpt lat="47.19194" lon="-1.46651">
        <ele>28.25</ele>
        <time>2020-05-27T16:40:45Z</time>
      </trkpt>
      <trkpt lat="47.19202" lon="-1.46638">
        <ele>28.37</ele>
        <time>2020-05-27T16:40:47Z</time>
      </trkpt>
      <trkpt lat="47.19209" lon="-1.46623">
        <ele>28.23</ele>
        <time>2020-05-27T16:40:49Z</time>
      </trkpt>
      <trkpt lat="47.19215" lon="-1.4661">
        <ele>28.79</ele>
        <time>2020-05-27T16:40:51Z</time>
      </trkpt>
      <trkpt lat="47.19221" lon="-1.46599">
        <ele>30.24</ele>
        <time>2020-05-27T16:40:53Z</time>
      </trkpt>
      <trkpt lat="47.19228" lon="-1.46585">
        <ele>31.44</ele>
        <time>2020-05-27T16:40:55Z</time>
      </trkpt>
      <trkpt lat="47.19235" lon="-1.46571">
        <ele>31.98</ele>
        <time>2020-05-27T16:40:57Z</time>
      </trkpt>
      <trkpt lat="47.19242" lon="-1.46557">
        <ele>32.47</ele>
        <time>2020-05-27T16:40:59Z</time>
      </trkpt>
      <trkpt lat="47.19248" lon="-1.46546">
        <ele>32.88</ele>
        <time>2020-05-27T16:41:01Z</time>
      </trkpt>
      <trkpt lat="47.19254" lon="-1.46532">
        <ele>33.46</ele>
        <time>2020-05-27T16:41:03Z</time>
      </trkpt>
      <trkpt lat="47.19261" lon="-1.46519">
        <ele>33.72</ele>
        <time>2020-05-27T16:41:05Z</time>
      </trkpt>
      <trkpt lat="47.19269" lon="-1.46504">
        <ele>32.45</ele>
        <time>2020-05-27T16:41:07Z</time>
      </trkpt>
      <trkpt lat="47.19275" lon="-1.4649">
        <ele>31.27</ele>
        <time>2020-05-27T16:41:09Z</time>
      </trkpt>
      <trkpt lat="47.1928" lon="-1.46479">
        <ele>31.2</ele>
        <time>2020-05-27T16:41:11Z</time>
      </trkpt>
      <trkpt lat="47.19286" lon="-1.46464">
        <ele>29.59</ele>
        <time>2020-05-27T16:41:13Z</time>
      </trkpt>
      <trkpt lat="47.19291" lon="-1.46452">
        <ele>28.33</ele>
        <time>2020-05-27T16:41:15Z</time>
      </trkpt>
      <trkpt lat="47.19297" lon="-1.46441">
        <ele>29.13</ele>
        <time>2020-05-27T16:41:17Z</time>
      </trkpt>
      <trkpt lat="47.19303" lon="-1.46428">
        <ele>30.09</ele>
        <time>2020-05-27T16:41:19Z</time>
      </trkpt>
      <trkpt lat="47.1931" lon="-1.46414">
        <ele>30.03</ele>
        <time>2020-05-27T16:41:21Z</time>
      </trkpt>
      <trkpt lat="47.19316" lon="-1.46399">
        <ele>30.32</ele>
        <time>2020-05-27T16:41:23Z</time>
      </trkpt>
      <trkpt lat="47.19322" lon="-1.46387">
        <ele>29.81</ele>
        <time>2020-05-27T16:41:25Z</time>
      </trkpt>
      <trkpt lat="47.19328" lon="-1.46375">
        <ele>29.87</ele>
        <time>2020-05-27T16:41:27Z</time>
      </trkpt>
      <trkpt lat="47.19333" lon="-1.4636">
        <ele>29.3</ele>
        <time>2020-05-27T16:41:29Z</time>
      </trkpt>
      <trkpt lat="47.19339" lon="-1.46344">
        <ele>29.78</ele>
        <time>2020-05-27T16:41:31Z</time>
      </trkpt>
      <trkpt lat="47.19344" lon="-1.46333">
        <ele>30.45</ele>
        <time>2020-05-27T16:41:33Z</time>
      </trkpt>
      <trkpt lat="47.1935" lon="-1.46315">
        <ele>29.74</ele>
        <time>2020-05-27T16:41:36Z</time>
      </trkpt>
      <trkpt lat="47.19354" lon="-1.46303">
        <ele>27.88</ele>
        <time>2020-05-27T16:41:38Z</time>
      </trkpt>
      <trkpt lat="47.19361" lon="-1.46294">
        <ele>27.56</ele>
        <time>2020-05-27T16:41:40Z</time>
      </trkpt>
      <trkpt lat="47.19371" lon="-1.46296">
        <ele>28.57</ele>
        <time>2020-05-27T16:41:42Z</time>
      </trkpt>
      <trkpt lat="47.1938" lon="-1.46305">
        <ele>29.82</ele>
        <time>2020-05-27T16:41:44Z</time>
      </trkpt>
      <trkpt lat="47.19389" lon="-1.46316">
        <ele>30.82</ele>
        <time>2020-05-27T16:41:46Z</time>
      </trkpt>
      <trkpt lat="47.19398" lon="-1.46322">
        <ele>31.88</ele>
        <time>2020-05-27T16:41:48Z</time>
      </trkpt>
      <trkpt lat="47.19409" lon="-1.46328">
        <ele>31.65</ele>
        <time>2020-05-27T16:41:50Z</time>
      </trkpt>
      <trkpt lat="47.19421" lon="-1.46334">
        <ele>30.87</ele>
        <time>2020-05-27T16:41:52Z</time>
      </trkpt>
      <trkpt lat="47.19433" lon="-1.46339">
        <ele>29.96</ele>
        <time>2020-05-27T16:41:54Z</time>
      </trkpt>
      <trkpt lat="47.19444" lon="-1.46345">
        <ele>29.4</ele>
        <time>2020-05-27T16:41:56Z</time>
      </trkpt>
      <trkpt lat="47.19458" lon="-1.4635">
        <ele>29.97</ele>
        <time>2020-05-27T16:41:58Z</time>
      </trkpt>
      <trkpt lat="47.19469" lon="-1.46355">
        <ele>29.76</ele>
        <time>2020-05-27T16:42:00Z</time>
      </trkpt>
      <trkpt lat="47.1948" lon="-1.46359">
        <ele>28.61</ele>
        <time>2020-05-27T16:42:02Z</time>
      </trkpt>
      <trkpt lat="47.1949" lon="-1.46365">
        <ele>27.89</ele>
        <time>2020-05-27T16:42:04Z</time>
      </trkpt>
      <trkpt lat="47.19505" lon="-1.46372">
        <ele>26.76</ele>
        <time>2020-05-27T16:42:06Z</time>
      </trkpt>
      <trkpt lat="47.19517" lon="-1.46378">
        <ele>26.3</ele>
        <time>2020-05-27T16:42:08Z</time>
      </trkpt>
      <trkpt lat="47.19527" lon="-1.46383">
        <ele>26.21</ele>
        <time>2020-05-27T16:42:10Z</time>
      </trkpt>
      <trkpt lat="47.19537" lon="-1.46389">
        <ele>25.26</ele>
        <time>2020-05-27T16:42:12Z</time>
      </trkpt>
      <trkpt lat="47.19548" lon="-1.46395">
        <ele>25.01</ele>
        <time>2020-05-27T16:42:14Z</time>
      </trkpt>
      <trkpt lat="47.19559" lon="-1.46402">
        <ele>25.35</ele>
        <time>2020-05-27T16:42:16Z</time>
      </trkpt>
      <trkpt lat="47.1957" lon="-1.46409">
        <ele>27.23</ele>
        <time>2020-05-27T16:42:18Z</time>
      </trkpt>
      <trkpt lat="47.19583" lon="-1.46415">
        <ele>28.88</ele>
        <time>2020-05-27T16:42:20Z</time>
      </trkpt>
      <trkpt lat="47.19595" lon="-1.4642">
        <ele>29.69</ele>
        <time>2020-05-27T16:42:22Z</time>
      </trkpt>
      <trkpt lat="47.19609" lon="-1.46426">
        <ele>30.06</ele>
        <time>2020-05-27T16:42:24Z</time>
      </trkpt>
      <trkpt lat="47.19622" lon="-1.46432">
        <ele>29.65</ele>
        <time>2020-05-27T16:42:26Z</time>
      </trkpt>
      <trkpt lat="47.19635" lon="-1.46438">
        <ele>29.03</ele>
        <time>2020-05-27T16:42:28Z</time>
      </trkpt>
      <trkpt lat="47.19648" lon="-1.46445">
        <ele>29.09</ele>
        <time>2020-05-27T16:42:30Z</time>
      </trkpt>
      <trkpt lat="47.19662" lon="-1.46451">
        <ele>29.44</ele>
        <time>2020-05-27T16:42:32Z</time>
      </trkpt>
      <trkpt lat="47.19676" lon="-1.46457">
        <ele>29.2</ele>
        <time>2020-05-27T16:42:34Z</time>
      </trkpt>
      <trkpt lat="47.19691" lon="-1.46463">
        <ele>28.53</ele>
        <time>2020-05-27T16:42:36Z</time>
      </trkpt>
      <trkpt lat="47.19704" lon="-1.46469">
        <ele>27.74</ele>
        <time>2020-05-27T16:42:38Z</time>
      </trkpt>
      <trkpt lat="47.19717" lon="-1.46476">
        <ele>27.42</ele>
        <time>2020-05-27T16:42:40Z</time>
      </trkpt>
      <trkpt lat="47.1973" lon="-1.46482">
        <ele>26.01</ele>
        <time>2020-05-27T16:42:42Z</time>
      </trkpt>
      <trkpt lat="47.19742" lon="-1.46488">
        <ele>25.53</ele>
        <time>2020-05-27T16:42:44Z</time>
      </trkpt>
      <trkpt lat="47.19755" lon="-1.46494">
        <ele>25.22</ele>
        <time>2020-05-27T16:42:46Z</time>
      </trkpt>
      <trkpt lat="47.19769" lon="-1.465">
        <ele>24.61</ele>
        <time>2020-05-27T16:42:48Z</time>
      </trkpt>
      <trkpt lat="47.19782" lon="-1.46506">
        <ele>24.28</ele>
        <time>2020-05-27T16:42:50Z</time>
      </trkpt>
      <trkpt lat="47.19795" lon="-1.46512">
        <ele>24.39</ele>
        <time>2020-05-27T16:42:52Z</time>
      </trkpt>
      <trkpt lat="47.19807" lon="-1.46518">
        <ele>24.03</ele>
        <time>2020-05-27T16:42:54Z</time>
      </trkpt>
      <trkpt lat="47.19821" lon="-1.46524">
        <ele>23.58</ele>
        <time>2020-05-27T16:42:56Z</time>
      </trkpt>
      <trkpt lat="47.19835" lon="-1.46531">
        <ele>22.64</ele>
        <time>2020-05-27T16:42:58Z</time>
      </trkpt>
      <trkpt lat="47.19847" lon="-1.46536">
        <ele>21.91</ele>
        <time>2020-05-27T16:43:00Z</time>
      </trkpt>
      <trkpt lat="47.19859" lon="-1.46542">
        <ele>22.07</ele>
        <time>2020-05-27T16:43:02Z</time>
      </trkpt>
      <trkpt lat="47.19873" lon="-1.46549">
        <ele>23</ele>
        <time>2020-05-27T16:43:04Z</time>
      </trkpt>
      <trkpt lat="47.19883" lon="-1.46554">
        <ele>22.59</ele>
        <time>2020-05-27T16:43:06Z</time>
      </trkpt>
      <trkpt lat="47.19896" lon="-1.4656">
        <ele>21.97</ele>
        <time>2020-05-27T16:43:08Z</time>
      </trkpt>
      <trkpt lat="47.19908" lon="-1.46566">
        <ele>21.2</ele>
        <time>2020-05-27T16:43:10Z</time>
      </trkpt>
      <trkpt lat="47.1992" lon="-1.46571">
        <ele>19.78</ele>
        <time>2020-05-27T16:43:12Z</time>
      </trkpt>
      <trkpt lat="47.19933" lon="-1.46576">
        <ele>18.58</ele>
        <time>2020-05-27T16:43:14Z</time>
      </trkpt>
      <trkpt lat="47.19946" lon="-1.46583">
        <ele>17.59</ele>
        <time>2020-05-27T16:43:16Z</time>
      </trkpt>
      <trkpt lat="47.19959" lon="-1.46589">
        <ele>16.6</ele>
        <time>2020-05-27T16:43:18Z</time>
      </trkpt>
      <trkpt lat="47.19971" lon="-1.46594">
        <ele>16.7</ele>
        <time>2020-05-27T16:43:20Z</time>
      </trkpt>
      <trkpt lat="47.19984" lon="-1.466">
        <ele>17.32</ele>
        <time>2020-05-27T16:43:22Z</time>
      </trkpt>
      <trkpt lat="47.19996" lon="-1.46605">
        <ele>17.99</ele>
        <time>2020-05-27T16:43:23Z</time>
      </trkpt>
      <trkpt lat="47.2001" lon="-1.4661">
        <ele>19.4</ele>
        <time>2020-05-27T16:43:25Z</time>
      </trkpt>
      <trkpt lat="47.20024" lon="-1.46615">
        <ele>21.26</ele>
        <time>2020-05-27T16:43:27Z</time>
      </trkpt>
      <trkpt lat="47.20035" lon="-1.46621">
        <ele>22.59</ele>
        <time>2020-05-27T16:43:29Z</time>
      </trkpt>
      <trkpt lat="47.20046" lon="-1.46628">
        <ele>22.86</ele>
        <time>2020-05-27T16:43:31Z</time>
      </trkpt>
      <trkpt lat="47.20058" lon="-1.46634">
        <ele>22.47</ele>
        <time>2020-05-27T16:43:33Z</time>
      </trkpt>
      <trkpt lat="47.20071" lon="-1.4664">
        <ele>21.17</ele>
        <time>2020-05-27T16:43:35Z</time>
      </trkpt>
      <trkpt lat="47.20083" lon="-1.46646">
        <ele>20.08</ele>
        <time>2020-05-27T16:43:37Z</time>
      </trkpt>
      <trkpt lat="47.20096" lon="-1.46654">
        <ele>19.48</ele>
        <time>2020-05-27T16:43:39Z</time>
      </trkpt>
      <trkpt lat="47.20109" lon="-1.46662">
        <ele>20</ele>
        <time>2020-05-27T16:43:41Z</time>
      </trkpt>
      <trkpt lat="47.20123" lon="-1.46667">
        <ele>18.95</ele>
        <time>2020-05-27T16:43:43Z</time>
      </trkpt>
      <trkpt lat="47.20134" lon="-1.46679">
        <ele>17.35</ele>
        <time>2020-05-27T16:43:45Z</time>
      </trkpt>
      <trkpt lat="47.20148" lon="-1.4668">
        <ele>17.32</ele>
        <time>2020-05-27T16:43:47Z</time>
      </trkpt>
      <trkpt lat="47.20163" lon="-1.4668">
        <ele>17.52</ele>
        <time>2020-05-27T16:43:49Z</time>
      </trkpt>
      <trkpt lat="47.20178" lon="-1.46681">
        <ele>17.39</ele>
        <time>2020-05-27T16:43:51Z</time>
      </trkpt>
      <trkpt lat="47.2019" lon="-1.46684">
        <ele>16.37</ele>
        <time>2020-05-27T16:43:53Z</time>
      </trkpt>
      <trkpt lat="47.20202" lon="-1.46688">
        <ele>16.47</ele>
        <time>2020-05-27T16:43:55Z</time>
      </trkpt>
      <trkpt lat="47.20215" lon="-1.46691">
        <ele>17.02</ele>
        <time>2020-05-27T16:43:57Z</time>
      </trkpt>
      <trkpt lat="47.20228" lon="-1.46692">
        <ele>17.51</ele>
        <time>2020-05-27T16:43:59Z</time>
      </trkpt>
      <trkpt lat="47.20243" lon="-1.46694">
        <ele>17.4</ele>
        <time>2020-05-27T16:44:01Z</time>
      </trkpt>
      <trkpt lat="47.20256" lon="-1.46697">
        <ele>17.7</ele>
        <time>2020-05-27T16:44:03Z</time>
      </trkpt>
      <trkpt lat="47.20268" lon="-1.467">
        <ele>18.04</ele>
        <time>2020-05-27T16:44:05Z</time>
      </trkpt>
      <trkpt lat="47.20281" lon="-1.46702">
        <ele>18.87</ele>
        <time>2020-05-27T16:44:07Z</time>
      </trkpt>
      <trkpt lat="47.20294" lon="-1.46704">
        <ele>19.72</ele>
        <time>2020-05-27T16:44:09Z</time>
      </trkpt>
      <trkpt lat="47.20307" lon="-1.46706">
        <ele>19.54</ele>
        <time>2020-05-27T16:44:11Z</time>
      </trkpt>
      <trkpt lat="47.20319" lon="-1.46708">
        <ele>18.4</ele>
        <time>2020-05-27T16:44:13Z</time>
      </trkpt>
      <trkpt lat="47.20331" lon="-1.4671">
        <ele>16.78</ele>
        <time>2020-05-27T16:44:15Z</time>
      </trkpt>
      <trkpt lat="47.20343" lon="-1.46713">
        <ele>16</ele>
        <time>2020-05-27T16:44:17Z</time>
      </trkpt>
      <trkpt lat="47.20356" lon="-1.46714">
        <ele>15.8</ele>
        <time>2020-05-27T16:44:19Z</time>
      </trkpt>
      <trkpt lat="47.20368" lon="-1.46715">
        <ele>15.59</ele>
        <time>2020-05-27T16:44:21Z</time>
      </trkpt>
      <trkpt lat="47.20382" lon="-1.46717">
        <ele>15.44</ele>
        <time>2020-05-27T16:44:23Z</time>
      </trkpt>
      <trkpt lat="47.20393" lon="-1.46719">
        <ele>14.87</ele>
        <time>2020-05-27T16:44:25Z</time>
      </trkpt>
      <trkpt lat="47.20404" lon="-1.46722">
        <ele>14.91</ele>
        <time>2020-05-27T16:44:27Z</time>
      </trkpt>
      <trkpt lat="47.20415" lon="-1.46723">
        <ele>14.85</ele>
        <time>2020-05-27T16:44:29Z</time>
      </trkpt>
      <trkpt lat="47.20428" lon="-1.46724">
        <ele>14.66</ele>
        <time>2020-05-27T16:44:31Z</time>
      </trkpt>
      <trkpt lat="47.20439" lon="-1.46726">
        <ele>14.14</ele>
        <time>2020-05-27T16:44:33Z</time>
      </trkpt>
      <trkpt lat="47.20451" lon="-1.46727">
        <ele>14.99</ele>
        <time>2020-05-27T16:44:35Z</time>
      </trkpt>
      <trkpt lat="47.20465" lon="-1.46729">
        <ele>16.81</ele>
        <time>2020-05-27T16:44:37Z</time>
      </trkpt>
      <trkpt lat="47.20476" lon="-1.46731">
        <ele>17.38</ele>
        <time>2020-05-27T16:44:39Z</time>
      </trkpt>
      <trkpt lat="47.20487" lon="-1.46733">
        <ele>17.9</ele>
        <time>2020-05-27T16:44:41Z</time>
      </trkpt>
      <trkpt lat="47.20497" lon="-1.46734">
        <ele>17.18</ele>
        <time>2020-05-27T16:44:43Z</time>
      </trkpt>
      <trkpt lat="47.20509" lon="-1.46736">
        <ele>17.23</ele>
        <time>2020-05-27T16:44:45Z</time>
      </trkpt>
      <trkpt lat="47.20524" lon="-1.46738">
        <ele>17.32</ele>
        <time>2020-05-27T16:44:47Z</time>
      </trkpt>
      <trkpt lat="47.20536" lon="-1.4674">
        <ele>17.57</ele>
        <time>2020-05-27T16:44:49Z</time>
      </trkpt>
      <trkpt lat="47.20546" lon="-1.46741">
        <ele>18.07</ele>
        <time>2020-05-27T16:44:51Z</time>
      </trkpt>
      <trkpt lat="47.20559" lon="-1.46741">
        <ele>18.58</ele>
        <time>2020-05-27T16:44:53Z</time>
      </trkpt>
      <trkpt lat="47.20568" lon="-1.46741">
        <ele>19.26</ele>
        <time>2020-05-27T16:44:55Z</time>
      </trkpt>
      <trkpt lat="47.2058" lon="-1.46739">
        <ele>19.42</ele>
        <time>2020-05-27T16:44:57Z</time>
      </trkpt>
      <trkpt lat="47.20594" lon="-1.46736">
        <ele>19.85</ele>
        <time>2020-05-27T16:44:59Z</time>
      </trkpt>
      <trkpt lat="47.20606" lon="-1.46734">
        <ele>20.67</ele>
        <time>2020-05-27T16:45:01Z</time>
      </trkpt>
      <trkpt lat="47.20616" lon="-1.46731">
        <ele>21.11</ele>
        <time>2020-05-27T16:45:03Z</time>
      </trkpt>
      <trkpt lat="47.20627" lon="-1.46728">
        <ele>20.59</ele>
        <time>2020-05-27T16:45:05Z</time>
      </trkpt>
      <trkpt lat="47.20638" lon="-1.46726">
        <ele>19.67</ele>
        <time>2020-05-27T16:45:07Z</time>
      </trkpt>
      <trkpt lat="47.2065" lon="-1.46723">
        <ele>19.17</ele>
        <time>2020-05-27T16:45:09Z</time>
      </trkpt>
      <trkpt lat="47.20661" lon="-1.46722">
        <ele>19.23</ele>
        <time>2020-05-27T16:45:11Z</time>
      </trkpt>
      <trkpt lat="47.20673" lon="-1.4672">
        <ele>19.29</ele>
        <time>2020-05-27T16:45:13Z</time>
      </trkpt>
      <trkpt lat="47.20684" lon="-1.46718">
        <ele>19.2</ele>
        <time>2020-05-27T16:45:15Z</time>
      </trkpt>
      <trkpt lat="47.20697" lon="-1.46716">
        <ele>19.24</ele>
        <time>2020-05-27T16:45:17Z</time>
      </trkpt>
      <trkpt lat="47.20707" lon="-1.46714">
        <ele>18.57</ele>
        <time>2020-05-27T16:45:19Z</time>
      </trkpt>
      <trkpt lat="47.20717" lon="-1.46712">
        <ele>18.63</ele>
        <time>2020-05-27T16:45:21Z</time>
      </trkpt>
      <trkpt lat="47.20728" lon="-1.4671">
        <ele>18.22</ele>
        <time>2020-05-27T16:45:23Z</time>
      </trkpt>
      <trkpt lat="47.20742" lon="-1.46709">
        <ele>18.07</ele>
        <time>2020-05-27T16:45:25Z</time>
      </trkpt>
      <trkpt lat="47.20754" lon="-1.46706">
        <ele>18.07</ele>
        <time>2020-05-27T16:45:27Z</time>
      </trkpt>
      <trkpt lat="47.20766" lon="-1.46703">
        <ele>19.05</ele>
        <time>2020-05-27T16:45:29Z</time>
      </trkpt>
      <trkpt lat="47.20778" lon="-1.46701">
        <ele>20.14</ele>
        <time>2020-05-27T16:45:31Z</time>
      </trkpt>
      <trkpt lat="47.20788" lon="-1.46699">
        <ele>20.85</ele>
        <time>2020-05-27T16:45:33Z</time>
      </trkpt>
      <trkpt lat="47.20799" lon="-1.46697">
        <ele>20.62</ele>
        <time>2020-05-27T16:45:35Z</time>
      </trkpt>
      <trkpt lat="47.20812" lon="-1.46696">
        <ele>21.08</ele>
        <time>2020-05-27T16:45:37Z</time>
      </trkpt>
      <trkpt lat="47.20824" lon="-1.46695">
        <ele>20.58</ele>
        <time>2020-05-27T16:45:39Z</time>
      </trkpt>
      <trkpt lat="47.20836" lon="-1.46694">
        <ele>20.73</ele>
        <time>2020-05-27T16:45:41Z</time>
      </trkpt>
      <trkpt lat="47.20848" lon="-1.46691">
        <ele>21.27</ele>
        <time>2020-05-27T16:45:43Z</time>
      </trkpt>
      <trkpt lat="47.20858" lon="-1.46685">
        <ele>21.79</ele>
        <time>2020-05-27T16:45:45Z</time>
      </trkpt>
      <trkpt lat="47.20869" lon="-1.46685">
        <ele>22.16</ele>
        <time>2020-05-27T16:45:47Z</time>
      </trkpt>
      <trkpt lat="47.2088" lon="-1.46682">
        <ele>22.2</ele>
        <time>2020-05-27T16:45:49Z</time>
      </trkpt>
      <trkpt lat="47.20891" lon="-1.46675">
        <ele>22.19</ele>
        <time>2020-05-27T16:45:51Z</time>
      </trkpt>
      <trkpt lat="47.20902" lon="-1.46669">
        <ele>22.01</ele>
        <time>2020-05-27T16:45:53Z</time>
      </trkpt>
      <trkpt lat="47.20914" lon="-1.46662">
        <ele>20.9</ele>
        <time>2020-05-27T16:45:55Z</time>
      </trkpt>
      <trkpt lat="47.20926" lon="-1.46656">
        <ele>19.97</ele>
        <time>2020-05-27T16:45:57Z</time>
      </trkpt>
      <trkpt lat="47.20936" lon="-1.46649">
        <ele>20.42</ele>
        <time>2020-05-27T16:45:59Z</time>
      </trkpt>
      <trkpt lat="47.20947" lon="-1.4664">
        <ele>20.04</ele>
        <time>2020-05-27T16:46:01Z</time>
      </trkpt>
      <trkpt lat="47.20959" lon="-1.46634">
        <ele>20.36</ele>
        <time>2020-05-27T16:46:03Z</time>
      </trkpt>
      <trkpt lat="47.2097" lon="-1.46629">
        <ele>20.77</ele>
        <time>2020-05-27T16:46:05Z</time>
      </trkpt>
      <trkpt lat="47.2098" lon="-1.46626">
        <ele>20.69</ele>
        <time>2020-05-27T16:46:07Z</time>
      </trkpt>
      <trkpt lat="47.2099" lon="-1.46624">
        <ele>20.77</ele>
        <time>2020-05-27T16:46:09Z</time>
      </trkpt>
      <trkpt lat="47.21003" lon="-1.46621">
        <ele>20.62</ele>
        <time>2020-05-27T16:46:11Z</time>
      </trkpt>
      <trkpt lat="47.21016" lon="-1.46617">
        <ele>19.68</ele>
        <time>2020-05-27T16:46:13Z</time>
      </trkpt>
      <trkpt lat="47.21027" lon="-1.46613">
        <ele>19.73</ele>
        <time>2020-05-27T16:46:15Z</time>
      </trkpt>
      <trkpt lat="47.21038" lon="-1.46608">
        <ele>19.95</ele>
        <time>2020-05-27T16:46:17Z</time>
      </trkpt>
      <trkpt lat="47.2105" lon="-1.46602">
        <ele>20.78</ele>
        <time>2020-05-27T16:46:19Z</time>
      </trkpt>
      <trkpt lat="47.21056" lon="-1.46588">
        <ele>22.26</ele>
        <time>2020-05-27T16:46:21Z</time>
      </trkpt>
      <trkpt lat="47.21063" lon="-1.46572">
        <ele>23.37</ele>
        <time>2020-05-27T16:46:23Z</time>
      </trkpt>
      <trkpt lat="47.21068" lon="-1.46559">
        <ele>24.62</ele>
        <time>2020-05-27T16:46:25Z</time>
      </trkpt>
      <trkpt lat="47.21074" lon="-1.46546">
        <ele>24.84</ele>
        <time>2020-05-27T16:46:27Z</time>
      </trkpt>
      <trkpt lat="47.21082" lon="-1.46537">
        <ele>23.59</ele>
        <time>2020-05-27T16:46:29Z</time>
      </trkpt>
      <trkpt lat="47.21092" lon="-1.46539">
        <ele>22.92</ele>
        <time>2020-05-27T16:46:31Z</time>
      </trkpt>
      <trkpt lat="47.21102" lon="-1.46549">
        <ele>22.52</ele>
        <time>2020-05-27T16:46:33Z</time>
      </trkpt>
      <trkpt lat="47.21112" lon="-1.46559">
        <ele>22.62</ele>
        <time>2020-05-27T16:46:35Z</time>
      </trkpt>
      <trkpt lat="47.2112" lon="-1.46568">
        <ele>22.34</ele>
        <time>2020-05-27T16:46:37Z</time>
      </trkpt>
      <trkpt lat="47.21128" lon="-1.46577">
        <ele>22.07</ele>
        <time>2020-05-27T16:46:39Z</time>
      </trkpt>
      <trkpt lat="47.21138" lon="-1.46588">
        <ele>21.8</ele>
        <time>2020-05-27T16:46:41Z</time>
      </trkpt>
      <trkpt lat="47.2115" lon="-1.46594">
        <ele>21.5</ele>
        <time>2020-05-27T16:46:43Z</time>
      </trkpt>
      <trkpt lat="47.21163" lon="-1.466">
        <ele>20.09</ele>
        <time>2020-05-27T16:46:45Z</time>
      </trkpt>
      <trkpt lat="47.21175" lon="-1.46605">
        <ele>17.65</ele>
        <time>2020-05-27T16:46:47Z</time>
      </trkpt>
      <trkpt lat="47.21184" lon="-1.46611">
        <ele>15.61</ele>
        <time>2020-05-27T16:46:49Z</time>
      </trkpt>
      <trkpt lat="47.21196" lon="-1.46617">
        <ele>15.2</ele>
        <time>2020-05-27T16:46:51Z</time>
      </trkpt>
      <trkpt lat="47.21207" lon="-1.46623">
        <ele>14.35</ele>
        <time>2020-05-27T16:46:53Z</time>
      </trkpt>
      <trkpt lat="47.21219" lon="-1.46628">
        <ele>15</ele>
        <time>2020-05-27T16:46:55Z</time>
      </trkpt>
      <trkpt lat="47.21234" lon="-1.46631">
        <ele>15.74</ele>
        <time>2020-05-27T16:46:57Z</time>
      </trkpt>
      <trkpt lat="47.21248" lon="-1.46634">
        <ele>16.48</ele>
        <time>2020-05-27T16:46:59Z</time>
      </trkpt>
      <trkpt lat="47.21261" lon="-1.46636">
        <ele>18.1</ele>
        <time>2020-05-27T16:47:01Z</time>
      </trkpt>
      <trkpt lat="47.21272" lon="-1.46638">
        <ele>18.93</ele>
        <time>2020-05-27T16:47:03Z</time>
      </trkpt>
      <trkpt lat="47.21284" lon="-1.4664">
        <ele>18.34</ele>
        <time>2020-05-27T16:47:05Z</time>
      </trkpt>
      <trkpt lat="47.21296" lon="-1.46643">
        <ele>17.87</ele>
        <time>2020-05-27T16:47:07Z</time>
      </trkpt>
      <trkpt lat="47.21308" lon="-1.46643">
        <ele>17.86</ele>
        <time>2020-05-27T16:47:09Z</time>
      </trkpt>
      <trkpt lat="47.21322" lon="-1.46641">
        <ele>16.96</ele>
        <time>2020-05-27T16:47:12Z</time>
      </trkpt>
      <trkpt lat="47.21333" lon="-1.46642">
        <ele>16.29</ele>
        <time>2020-05-27T16:47:14Z</time>
      </trkpt>
      <trkpt lat="47.21346" lon="-1.46642">
        <ele>15.02</ele>
        <time>2020-05-27T16:47:16Z</time>
      </trkpt>
      <trkpt lat="47.21357" lon="-1.46641">
        <ele>14.76</ele>
        <time>2020-05-27T16:47:18Z</time>
      </trkpt>
      <trkpt lat="47.21367" lon="-1.46641">
        <ele>14.83</ele>
        <time>2020-05-27T16:47:20Z</time>
      </trkpt>
      <trkpt lat="47.21378" lon="-1.4664">
        <ele>15.45</ele>
        <time>2020-05-27T16:47:22Z</time>
      </trkpt>
      <trkpt lat="47.21388" lon="-1.4664">
        <ele>16.01</ele>
        <time>2020-05-27T16:47:24Z</time>
      </trkpt>
      <trkpt lat="47.21399" lon="-1.4664">
        <ele>14.85</ele>
        <time>2020-05-27T16:47:26Z</time>
      </trkpt>
      <trkpt lat="47.2141" lon="-1.46641">
        <ele>13.88</ele>
        <time>2020-05-27T16:47:28Z</time>
      </trkpt>
      <trkpt lat="47.21421" lon="-1.46641">
        <ele>14.08</ele>
        <time>2020-05-27T16:47:30Z</time>
      </trkpt>
      <trkpt lat="47.21432" lon="-1.46641">
        <ele>13.64</ele>
        <time>2020-05-27T16:47:32Z</time>
      </trkpt>
      <trkpt lat="47.21444" lon="-1.46639">
        <ele>12.81</ele>
        <time>2020-05-27T16:47:34Z</time>
      </trkpt>
      <trkpt lat="47.21454" lon="-1.46634">
        <ele>12.68</ele>
        <time>2020-05-27T16:47:36Z</time>
      </trkpt>
      <trkpt lat="47.21466" lon="-1.46627">
        <ele>11.35</ele>
        <time>2020-05-27T16:47:39Z</time>
      </trkpt>
      <trkpt lat="47.21476" lon="-1.46621">
        <ele>9.94</ele>
        <time>2020-05-27T16:47:41Z</time>
      </trkpt>
      <trkpt lat="47.21485" lon="-1.46614">
        <ele>9.2</ele>
        <time>2020-05-27T16:47:43Z</time>
      </trkpt>
      <trkpt lat="47.21494" lon="-1.46606">
        <ele>8.55</ele>
        <time>2020-05-27T16:47:45Z</time>
      </trkpt>
      <trkpt lat="47.21506" lon="-1.46592">
        <ele>7.77</ele>
        <time>2020-05-27T16:47:48Z</time>
      </trkpt>
      <trkpt lat="47.21513" lon="-1.46579">
        <ele>7.22</ele>
        <time>2020-05-27T16:47:51Z</time>
      </trkpt>
      <trkpt lat="47.21522" lon="-1.46566">
        <ele>6.44</ele>
        <time>2020-05-27T16:47:55Z</time>
      </trkpt>
      <trkpt lat="47.21532" lon="-1.46555">
        <ele>5.28</ele>
        <time>2020-05-27T16:47:58Z</time>
      </trkpt>
      <trkpt lat="47.21542" lon="-1.46548">
        <ele>4.58</ele>
        <time>2020-05-27T16:48:00Z</time>
      </trkpt>
      <trkpt lat="47.21552" lon="-1.46543">
        <ele>5.73</ele>
        <time>2020-05-27T16:48:02Z</time>
      </trkpt>
      <trkpt lat="47.21563" lon="-1.4654">
        <ele>7.23</ele>
        <time>2020-05-27T16:48:04Z</time>
      </trkpt>
      <trkpt lat="47.21572" lon="-1.46538">
        <ele>7.47</ele>
        <time>2020-05-27T16:48:06Z</time>
      </trkpt>
      <trkpt lat="47.21584" lon="-1.46536">
        <ele>8.4</ele>
        <time>2020-05-27T16:48:08Z</time>
      </trkpt>
      <trkpt lat="47.21595" lon="-1.46535">
        <ele>8.28</ele>
        <time>2020-05-27T16:48:10Z</time>
      </trkpt>
      <trkpt lat="47.21605" lon="-1.46535">
        <ele>8.94</ele>
        <time>2020-05-27T16:48:12Z</time>
      </trkpt>
      <trkpt lat="47.21615" lon="-1.46536">
        <ele>8.34</ele>
        <time>2020-05-27T16:48:14Z</time>
      </trkpt>
      <trkpt lat="47.21628" lon="-1.46536">
        <ele>6.35</ele>
        <time>2020-05-27T16:48:16Z</time>
      </trkpt>
      <trkpt lat="47.21638" lon="-1.46536">
        <ele>3.18</ele>
        <time>2020-05-27T16:48:18Z</time>
      </trkpt>
      <trkpt lat="47.21647" lon="-1.46531">
        <ele>1.19</ele>
        <time>2020-05-27T16:48:21Z</time>
      </trkpt>
      <trkpt lat="47.21648" lon="-1.46517">
        <ele>0.74</ele>
        <time>2020-05-27T16:48:23Z</time>
      </trkpt>
      <trkpt lat="47.21649" lon="-1.465">
        <ele>0.49</ele>
        <time>2020-05-27T16:48:25Z</time>
      </trkpt>
      <trkpt lat="47.21649" lon="-1.46485">
        <ele>1.09</ele>
        <time>2020-05-27T16:48:27Z</time>
      </trkpt>
      <trkpt lat="47.21651" lon="-1.46468">
        <ele>1.7</ele>
        <time>2020-05-27T16:48:29Z</time>
      </trkpt>
      <trkpt lat="47.21657" lon="-1.4645">
        <ele>1.75</ele>
        <time>2020-05-27T16:48:31Z</time>
      </trkpt>
      <trkpt lat="47.21657" lon="-1.46433">
        <ele>1.26</ele>
        <time>2020-05-27T16:48:33Z</time>
      </trkpt>
      <trkpt lat="47.21658" lon="-1.46414">
        <ele>1.61</ele>
        <time>2020-05-27T16:48:35Z</time>
      </trkpt>
      <trkpt lat="47.2166" lon="-1.46396">
        <ele>1.81</ele>
        <time>2020-05-27T16:48:37Z</time>
      </trkpt>
      <trkpt lat="47.21661" lon="-1.46377">
        <ele>1.54</ele>
        <time>2020-05-27T16:48:39Z</time>
      </trkpt>
      <trkpt lat="47.21662" lon="-1.46358">
        <ele>0.97</ele>
        <time>2020-05-27T16:48:41Z</time>
      </trkpt>
      <trkpt lat="47.21663" lon="-1.46342">
        <ele>0.31</ele>
        <time>2020-05-27T16:48:43Z</time>
      </trkpt>
      <trkpt lat="47.21665" lon="-1.46324">
        <ele>0.37</ele>
        <time>2020-05-27T16:48:45Z</time>
      </trkpt>
      <trkpt lat="47.21666" lon="-1.4631">
        <ele>-0.1</ele>
        <time>2020-05-27T16:48:47Z</time>
      </trkpt>
      <trkpt lat="47.21667" lon="-1.46292">
        <ele>-1.46</ele>
        <time>2020-05-27T16:48:49Z</time>
      </trkpt>
      <trkpt lat="47.21669" lon="-1.46271">
        <ele>-2.21</ele>
        <time>2020-05-27T16:48:51Z</time>
      </trkpt>
      <trkpt lat="47.2167" lon="-1.46256">
        <ele>-2.26</ele>
        <time>2020-05-27T16:48:53Z</time>
      </trkpt>
      <trkpt lat="47.21672" lon="-1.46235">
        <ele>-1.58</ele>
        <time>2020-05-27T16:48:56Z</time>
      </trkpt>
      <trkpt lat="47.21672" lon="-1.46221">
        <ele>-0.91</ele>
        <time>2020-05-27T16:48:58Z</time>
      </trkpt>
      <trkpt lat="47.21668" lon="-1.46205">
        <ele>-2.09</ele>
        <time>2020-05-27T16:49:00Z</time>
      </trkpt>
      <trkpt lat="47.21668" lon="-1.46191">
        <ele>-1.9</ele>
        <time>2020-05-27T16:49:02Z</time>
      </trkpt>
      <trkpt lat="47.21676" lon="-1.46187">
        <ele>-2.08</ele>
        <time>2020-05-27T16:49:04Z</time>
      </trkpt>
      <trkpt lat="47.21686" lon="-1.46181">
        <ele>-2.49</ele>
        <time>2020-05-27T16:49:06Z</time>
      </trkpt>
      <trkpt lat="47.21692" lon="-1.46169">
        <ele>-3.31</ele>
        <time>2020-05-27T16:49:08Z</time>
      </trkpt>
      <trkpt lat="47.21698" lon="-1.46155">
        <ele>-3.64</ele>
        <time>2020-05-27T16:49:10Z</time>
      </trkpt>
      <trkpt lat="47.21703" lon="-1.46141">
        <ele>-2.77</ele>
        <time>2020-05-27T16:49:12Z</time>
      </trkpt>
      <trkpt lat="47.21709" lon="-1.46129">
        <ele>-3.08</ele>
        <time>2020-05-27T16:49:14Z</time>
      </trkpt>
      <trkpt lat="47.21719" lon="-1.46132">
        <ele>-3.51</ele>
        <time>2020-05-27T16:49:16Z</time>
      </trkpt>
      <trkpt lat="47.21731" lon="-1.46139">
        <ele>-4.45</ele>
        <time>2020-05-27T16:49:18Z</time>
      </trkpt>
      <trkpt lat="47.21744" lon="-1.46147">
        <ele>-4.92</ele>
        <time>2020-05-27T16:49:20Z</time>
      </trkpt>
      <trkpt lat="47.21753" lon="-1.46152">
        <ele>-4.47</ele>
        <time>2020-05-27T16:49:22Z</time>
      </trkpt>
      <trkpt lat="47.21763" lon="-1.46157">
        <ele>-3.44</ele>
        <time>2020-05-27T16:49:24Z</time>
      </trkpt>
      <trkpt lat="47.21772" lon="-1.46161">
        <ele>-2.45</ele>
        <time>2020-05-27T16:49:26Z</time>
      </trkpt>
      <trkpt lat="47.21781" lon="-1.46167">
        <ele>-2.25</ele>
        <time>2020-05-27T16:49:29Z</time>
      </trkpt>
      <trkpt lat="47.21792" lon="-1.46172">
        <ele>-1.87</ele>
        <time>2020-05-27T16:49:34Z</time>
      </trkpt>
      <trkpt lat="47.21803" lon="-1.46175">
        <ele>-1.86</ele>
        <time>2020-05-27T16:49:36Z</time>
      </trkpt>
      <trkpt lat="47.21815" lon="-1.46181">
        <ele>-2.01</ele>
        <time>2020-05-27T16:49:38Z</time>
      </trkpt>
      <trkpt lat="47.21827" lon="-1.46187">
        <ele>-2.13</ele>
        <time>2020-05-27T16:49:40Z</time>
      </trkpt>
      <trkpt lat="47.21839" lon="-1.46195">
        <ele>-2.23</ele>
        <time>2020-05-27T16:49:42Z</time>
      </trkpt>
      <trkpt lat="47.21852" lon="-1.46201">
        <ele>-2.62</ele>
        <time>2020-05-27T16:49:44Z</time>
      </trkpt>
      <trkpt lat="47.21864" lon="-1.46207">
        <ele>-3.02</ele>
        <time>2020-05-27T16:49:46Z</time>
      </trkpt>
      <trkpt lat="47.21877" lon="-1.46214">
        <ele>-3.37</ele>
        <time>2020-05-27T16:49:48Z</time>
      </trkpt>
      <trkpt lat="47.21888" lon="-1.4622">
        <ele>-3.05</ele>
        <time>2020-05-27T16:49:50Z</time>
      </trkpt>
      <trkpt lat="47.21902" lon="-1.46227">
        <ele>-3.23</ele>
        <time>2020-05-27T16:49:52Z</time>
      </trkpt>
      <trkpt lat="47.21913" lon="-1.46234">
        <ele>-4.15</ele>
        <time>2020-05-27T16:49:54Z</time>
      </trkpt>
      <trkpt lat="47.21926" lon="-1.46241">
        <ele>-4.27</ele>
        <time>2020-05-27T16:49:56Z</time>
      </trkpt>
      <trkpt lat="47.21938" lon="-1.46249">
        <ele>-3.8</ele>
        <time>2020-05-27T16:49:58Z</time>
      </trkpt>
      <trkpt lat="47.21949" lon="-1.46255">
        <ele>-2.92</ele>
        <time>2020-05-27T16:50:00Z</time>
      </trkpt>
      <trkpt lat="47.21961" lon="-1.46259">
        <ele>-1.96</ele>
        <time>2020-05-27T16:50:02Z</time>
      </trkpt>
      <trkpt lat="47.21973" lon="-1.46264">
        <ele>-1.79</ele>
        <time>2020-05-27T16:50:04Z</time>
      </trkpt>
      <trkpt lat="47.21984" lon="-1.46269">
        <ele>-1.38</ele>
        <time>2020-05-27T16:50:06Z</time>
      </trkpt>
      <trkpt lat="47.21996" lon="-1.46275">
        <ele>-1.58</ele>
        <time>2020-05-27T16:50:08Z</time>
      </trkpt>
      <trkpt lat="47.2201" lon="-1.46282">
        <ele>-1.77</ele>
        <time>2020-05-27T16:50:10Z</time>
      </trkpt>
      <trkpt lat="47.22022" lon="-1.46288">
        <ele>-1.59</ele>
        <time>2020-05-27T16:50:12Z</time>
      </trkpt>
      <trkpt lat="47.22035" lon="-1.46294">
        <ele>-1.73</ele>
        <time>2020-05-27T16:50:14Z</time>
      </trkpt>
      <trkpt lat="47.22049" lon="-1.46302">
        <ele>-2.96</ele>
        <time>2020-05-27T16:50:16Z</time>
      </trkpt>
      <trkpt lat="47.22062" lon="-1.46309">
        <ele>-4.06</ele>
        <time>2020-05-27T16:50:18Z</time>
      </trkpt>
      <trkpt lat="47.22074" lon="-1.46315">
        <ele>-5.36</ele>
        <time>2020-05-27T16:50:20Z</time>
      </trkpt>
      <trkpt lat="47.22086" lon="-1.46323">
        <ele>-6.28</ele>
        <time>2020-05-27T16:50:22Z</time>
      </trkpt>
      <trkpt lat="47.22099" lon="-1.46329">
        <ele>-6.12</ele>
        <time>2020-05-27T16:50:24Z</time>
      </trkpt>
      <trkpt lat="47.22109" lon="-1.46335">
        <ele>-6.06</ele>
        <time>2020-05-27T16:50:26Z</time>
      </trkpt>
      <trkpt lat="47.2212" lon="-1.46341">
        <ele>-6.5</ele>
        <time>2020-05-27T16:50:28Z</time>
      </trkpt>
      <trkpt lat="47.22133" lon="-1.46347">
        <ele>-7.22</ele>
        <time>2020-05-27T16:50:30Z</time>
      </trkpt>
      <trkpt lat="47.22145" lon="-1.46354">
        <ele>-7.78</ele>
        <time>2020-05-27T16:50:32Z</time>
      </trkpt>
      <trkpt lat="47.22158" lon="-1.4636">
        <ele>-7.28</ele>
        <time>2020-05-27T16:50:34Z</time>
      </trkpt>
      <trkpt lat="47.22171" lon="-1.46367">
        <ele>-7</ele>
        <time>2020-05-27T16:50:36Z</time>
      </trkpt>
      <trkpt lat="47.22183" lon="-1.46374">
        <ele>-6.32</ele>
        <time>2020-05-27T16:50:38Z</time>
      </trkpt>
      <trkpt lat="47.22191" lon="-1.46378">
        <ele>-6.01</ele>
        <time>2020-05-27T16:50:40Z</time>
      </trkpt>
      <trkpt lat="47.22202" lon="-1.46383">
        <ele>-5.19</ele>
        <time>2020-05-27T16:50:42Z</time>
      </trkpt>
      <trkpt lat="47.22212" lon="-1.46388">
        <ele>-4.33</ele>
        <time>2020-05-27T16:50:44Z</time>
      </trkpt>
      <trkpt lat="47.22225" lon="-1.46395">
        <ele>-3.05</ele>
        <time>2020-05-27T16:50:46Z</time>
      </trkpt>
      <trkpt lat="47.22237" lon="-1.46401">
        <ele>-2.45</ele>
        <time>2020-05-27T16:50:48Z</time>
      </trkpt>
      <trkpt lat="47.22246" lon="-1.46406">
        <ele>-1.77</ele>
        <time>2020-05-27T16:50:50Z</time>
      </trkpt>
      <trkpt lat="47.22258" lon="-1.46413">
        <ele>-1.68</ele>
        <time>2020-05-27T16:50:52Z</time>
      </trkpt>
      <trkpt lat="47.2227" lon="-1.4642">
        <ele>-2.33</ele>
        <time>2020-05-27T16:50:54Z</time>
      </trkpt>
      <trkpt lat="47.22281" lon="-1.46426">
        <ele>-3.11</ele>
        <time>2020-05-27T16:50:56Z</time>
      </trkpt>
      <trkpt lat="47.22293" lon="-1.46432">
        <ele>-3.22</ele>
        <time>2020-05-27T16:50:58Z</time>
      </trkpt>
      <trkpt lat="47.22303" lon="-1.46436">
        <ele>-3.24</ele>
        <time>2020-05-27T16:51:00Z</time>
      </trkpt>
      <trkpt lat="47.22316" lon="-1.46441">
        <ele>-3.13</ele>
        <time>2020-05-27T16:51:02Z</time>
      </trkpt>
      <trkpt lat="47.22327" lon="-1.46447">
        <ele>-2.43</ele>
        <time>2020-05-27T16:51:04Z</time>
      </trkpt>
      <trkpt lat="47.22337" lon="-1.46456">
        <ele>-1.68</ele>
        <time>2020-05-27T16:51:06Z</time>
      </trkpt>
      <trkpt lat="47.22347" lon="-1.46466">
        <ele>0.57</ele>
        <time>2020-05-27T16:51:08Z</time>
      </trkpt>
      <trkpt lat="47.22357" lon="-1.46476">
        <ele>2.64</ele>
        <time>2020-05-27T16:51:10Z</time>
      </trkpt>
      <trkpt lat="47.22367" lon="-1.46488">
        <ele>4.78</ele>
        <time>2020-05-27T16:51:12Z</time>
      </trkpt>
      <trkpt lat="47.22377" lon="-1.46502">
        <ele>5.69</ele>
        <time>2020-05-27T16:51:14Z</time>
      </trkpt>
      <trkpt lat="47.22388" lon="-1.46518">
        <ele>5.06</ele>
        <time>2020-05-27T16:51:16Z</time>
      </trkpt>
      <trkpt lat="47.22396" lon="-1.46531">
        <ele>4.37</ele>
        <time>2020-05-27T16:51:18Z</time>
      </trkpt>
      <trkpt lat="47.22404" lon="-1.46543">
        <ele>4</ele>
        <time>2020-05-27T16:51:20Z</time>
      </trkpt>
      <trkpt lat="47.22413" lon="-1.46555">
        <ele>3.74</ele>
        <time>2020-05-27T16:51:22Z</time>
      </trkpt>
      <trkpt lat="47.22421" lon="-1.46569">
        <ele>3.36</ele>
        <time>2020-05-27T16:51:24Z</time>
      </trkpt>
      <trkpt lat="47.22431" lon="-1.46585">
        <ele>3.04</ele>
        <time>2020-05-27T16:51:26Z</time>
      </trkpt>
      <trkpt lat="47.2244" lon="-1.46598">
        <ele>2.38</ele>
        <time>2020-05-27T16:51:28Z</time>
      </trkpt>
      <trkpt lat="47.22449" lon="-1.46611">
        <ele>1.77</ele>
        <time>2020-05-27T16:51:30Z</time>
      </trkpt>
      <trkpt lat="47.22459" lon="-1.46624">
        <ele>2.29</ele>
        <time>2020-05-27T16:51:32Z</time>
      </trkpt>
      <trkpt lat="47.22468" lon="-1.46635">
        <ele>3.57</ele>
        <time>2020-05-27T16:51:34Z</time>
      </trkpt>
      <trkpt lat="47.22477" lon="-1.46646">
        <ele>4.23</ele>
        <time>2020-05-27T16:51:36Z</time>
      </trkpt>
      <trkpt lat="47.22485" lon="-1.46657">
        <ele>4.07</ele>
        <time>2020-05-27T16:51:38Z</time>
      </trkpt>
      <trkpt lat="47.22492" lon="-1.46666">
        <ele>5.32</ele>
        <time>2020-05-27T16:51:40Z</time>
      </trkpt>
      <trkpt lat="47.22501" lon="-1.46673">
        <ele>5.47</ele>
        <time>2020-05-27T16:51:42Z</time>
      </trkpt>
      <trkpt lat="47.22511" lon="-1.46685">
        <ele>4.55</ele>
        <time>2020-05-27T16:51:44Z</time>
      </trkpt>
      <trkpt lat="47.22521" lon="-1.46696">
        <ele>3.75</ele>
        <time>2020-05-27T16:51:46Z</time>
      </trkpt>
      <trkpt lat="47.22531" lon="-1.46705">
        <ele>2.49</ele>
        <time>2020-05-27T16:51:48Z</time>
      </trkpt>
      <trkpt lat="47.22541" lon="-1.46715">
        <ele>2.17</ele>
        <time>2020-05-27T16:51:50Z</time>
      </trkpt>
      <trkpt lat="47.2255" lon="-1.46727">
        <ele>1.07</ele>
        <time>2020-05-27T16:51:52Z</time>
      </trkpt>
      <trkpt lat="47.22561" lon="-1.46743">
        <ele>0.23</ele>
        <time>2020-05-27T16:51:54Z</time>
      </trkpt>
      <trkpt lat="47.22572" lon="-1.46757">
        <ele>0.17</ele>
        <time>2020-05-27T16:51:56Z</time>
      </trkpt>
      <trkpt lat="47.22583" lon="-1.46767">
        <ele>0.6</ele>
        <time>2020-05-27T16:51:58Z</time>
      </trkpt>
      <trkpt lat="47.22594" lon="-1.46775">
        <ele>0.28</ele>
        <time>2020-05-27T16:52:00Z</time>
      </trkpt>
      <trkpt lat="47.22607" lon="-1.46784">
        <ele>-0.05</ele>
        <time>2020-05-27T16:52:02Z</time>
      </trkpt>
      <trkpt lat="47.22619" lon="-1.46792">
        <ele>-0.92</ele>
        <time>2020-05-27T16:52:04Z</time>
      </trkpt>
      <trkpt lat="47.22629" lon="-1.46803">
        <ele>-3.02</ele>
        <time>2020-05-27T16:52:06Z</time>
      </trkpt>
      <trkpt lat="47.22633" lon="-1.46818">
        <ele>-3.93</ele>
        <time>2020-05-27T16:52:08Z</time>
      </trkpt>
      <trkpt lat="47.2263" lon="-1.46834">
        <ele>-3.05</ele>
        <time>2020-05-27T16:52:10Z</time>
      </trkpt>
      <trkpt lat="47.22622" lon="-1.46848">
        <ele>-2.33</ele>
        <time>2020-05-27T16:52:12Z</time>
      </trkpt>
      <trkpt lat="47.22613" lon="-1.46863">
        <ele>-1.25</ele>
        <time>2020-05-27T16:52:14Z</time>
      </trkpt>
      <trkpt lat="47.22606" lon="-1.46876">
        <ele>-0.49</ele>
        <time>2020-05-27T16:52:16Z</time>
      </trkpt>
      <trkpt lat="47.22604" lon="-1.46895">
        <ele>-0.37</ele>
        <time>2020-05-27T16:52:18Z</time>
      </trkpt>
      <trkpt lat="47.22604" lon="-1.46915">
        <ele>-0.49</ele>
        <time>2020-05-27T16:52:20Z</time>
      </trkpt>
      <trkpt lat="47.22605" lon="-1.46933">
        <ele>0.2</ele>
        <time>2020-05-27T16:52:22Z</time>
      </trkpt>
      <trkpt lat="47.22605" lon="-1.46951">
        <ele>-1.92</ele>
        <time>2020-05-27T16:52:24Z</time>
      </trkpt>
      <trkpt lat="47.22605" lon="-1.46974">
        <ele>-4.68</ele>
        <time>2020-05-27T16:52:26Z</time>
      </trkpt>
      <trkpt lat="47.22604" lon="-1.46995">
        <ele>-5.23</ele>
        <time>2020-05-27T16:52:28Z</time>
      </trkpt>
      <trkpt lat="47.22603" lon="-1.47015">
        <ele>-3.84</ele>
        <time>2020-05-27T16:52:30Z</time>
      </trkpt>
      <trkpt lat="47.22601" lon="-1.47037">
        <ele>-2.58</ele>
        <time>2020-05-27T16:52:32Z</time>
      </trkpt>
      <trkpt lat="47.22594" lon="-1.47056">
        <ele>-1.95</ele>
        <time>2020-05-27T16:52:34Z</time>
      </trkpt>
      <trkpt lat="47.22588" lon="-1.4707">
        <ele>-1.05</ele>
        <time>2020-05-27T16:52:36Z</time>
      </trkpt>
      <trkpt lat="47.2258" lon="-1.47084">
        <ele>-0.73</ele>
        <time>2020-05-27T16:52:38Z</time>
      </trkpt>
      <trkpt lat="47.2257" lon="-1.47094">
        <ele>-0.97</ele>
        <time>2020-05-27T16:52:40Z</time>
      </trkpt>
      <trkpt lat="47.2256" lon="-1.47103">
        <ele>-1.63</ele>
        <time>2020-05-27T16:52:42Z</time>
      </trkpt>
      <trkpt lat="47.22549" lon="-1.47111">
        <ele>-1.66</ele>
        <time>2020-05-27T16:52:44Z</time>
      </trkpt>
      <trkpt lat="47.22538" lon="-1.47118">
        <ele>-1.29</ele>
        <time>2020-05-27T16:52:46Z</time>
      </trkpt>
      <trkpt lat="47.22529" lon="-1.47123">
        <ele>-1.05</ele>
        <time>2020-05-27T16:52:48Z</time>
      </trkpt>
      <trkpt lat="47.22524" lon="-1.47135">
        <ele>0.78</ele>
        <time>2020-05-27T16:52:52Z</time>
      </trkpt>
      <trkpt lat="47.22534" lon="-1.47131">
        <ele>1.64</ele>
        <time>2020-05-27T16:52:54Z</time>
      </trkpt>
      <trkpt lat="47.22548" lon="-1.47126">
        <ele>1.71</ele>
        <time>2020-05-27T16:52:56Z</time>
      </trkpt>
      <trkpt lat="47.2256" lon="-1.47121">
        <ele>1.76</ele>
        <time>2020-05-27T16:52:58Z</time>
      </trkpt>
      <trkpt lat="47.22574" lon="-1.47116">
        <ele>1.95</ele>
        <time>2020-05-27T16:53:00Z</time>
      </trkpt>
      <trkpt lat="47.22586" lon="-1.47107">
        <ele>1.34</ele>
        <time>2020-05-27T16:53:02Z</time>
      </trkpt>
      <trkpt lat="47.22597" lon="-1.47097">
        <ele>0.9</ele>
        <time>2020-05-27T16:53:04Z</time>
      </trkpt>
      <trkpt lat="47.22607" lon="-1.47084">
        <ele>-0.1</ele>
        <time>2020-05-27T16:53:06Z</time>
      </trkpt>
      <trkpt lat="47.22614" lon="-1.47068">
        <ele>-1.75</ele>
        <time>2020-05-27T16:53:08Z</time>
      </trkpt>
      <trkpt lat="47.22621" lon="-1.47054">
        <ele>-3.02</ele>
        <time>2020-05-27T16:53:10Z</time>
      </trkpt>
      <trkpt lat="47.22628" lon="-1.4704">
        <ele>-3.63</ele>
        <time>2020-05-27T16:53:12Z</time>
      </trkpt>
      <trkpt lat="47.22635" lon="-1.47028">
        <ele>-3.83</ele>
        <time>2020-05-27T16:53:14Z</time>
      </trkpt>
      <trkpt lat="47.22644" lon="-1.47015">
        <ele>-2.74</ele>
        <time>2020-05-27T16:53:16Z</time>
      </trkpt>
      <trkpt lat="47.22654" lon="-1.47002">
        <ele>-1.75</ele>
        <time>2020-05-27T16:53:18Z</time>
      </trkpt>
      <trkpt lat="47.22665" lon="-1.46992">
        <ele>-2.15</ele>
        <time>2020-05-27T16:53:20Z</time>
      </trkpt>
      <trkpt lat="47.22676" lon="-1.46983">
        <ele>-1.59</ele>
        <time>2020-05-27T16:53:22Z</time>
      </trkpt>
      <trkpt lat="47.22687" lon="-1.46976">
        <ele>-1.11</ele>
        <time>2020-05-27T16:53:24Z</time>
      </trkpt>
      <trkpt lat="47.22698" lon="-1.4697">
        <ele>-0.63</ele>
        <time>2020-05-27T16:53:26Z</time>
      </trkpt>
      <trkpt lat="47.2271" lon="-1.46964">
        <ele>0.69</ele>
        <time>2020-05-27T16:53:28Z</time>
      </trkpt>
      <trkpt lat="47.22722" lon="-1.46959">
        <ele>1.23</ele>
        <time>2020-05-27T16:53:30Z</time>
      </trkpt>
      <trkpt lat="47.22735" lon="-1.46955">
        <ele>1.84</ele>
        <time>2020-05-27T16:53:32Z</time>
      </trkpt>
      <trkpt lat="47.22747" lon="-1.46954">
        <ele>1.95</ele>
        <time>2020-05-27T16:53:34Z</time>
      </trkpt>
      <trkpt lat="47.22761" lon="-1.46954">
        <ele>1.88</ele>
        <time>2020-05-27T16:53:36Z</time>
      </trkpt>
      <trkpt lat="47.22773" lon="-1.46954">
        <ele>1.37</ele>
        <time>2020-05-27T16:53:38Z</time>
      </trkpt>
      <trkpt lat="47.22787" lon="-1.46956">
        <ele>1.11</ele>
        <time>2020-05-27T16:53:40Z</time>
      </trkpt>
      <trkpt lat="47.22799" lon="-1.46959">
        <ele>-0.04</ele>
        <time>2020-05-27T16:53:42Z</time>
      </trkpt>
      <trkpt lat="47.22813" lon="-1.46964">
        <ele>-0.98</ele>
        <time>2020-05-27T16:53:44Z</time>
      </trkpt>
      <trkpt lat="47.22825" lon="-1.46969">
        <ele>-1.94</ele>
        <time>2020-05-27T16:53:46Z</time>
      </trkpt>
      <trkpt lat="47.22838" lon="-1.46977">
        <ele>-3.19</ele>
        <time>2020-05-27T16:53:48Z</time>
      </trkpt>
      <trkpt lat="47.2285" lon="-1.46984">
        <ele>-4.2</ele>
        <time>2020-05-27T16:53:50Z</time>
      </trkpt>
      <trkpt lat="47.22861" lon="-1.46991">
        <ele>-4.07</ele>
        <time>2020-05-27T16:53:52Z</time>
      </trkpt>
      <trkpt lat="47.22873" lon="-1.46998">
        <ele>-3.77</ele>
        <time>2020-05-27T16:53:54Z</time>
      </trkpt>
      <trkpt lat="47.22883" lon="-1.47004">
        <ele>-3.37</ele>
        <time>2020-05-27T16:53:56Z</time>
      </trkpt>
      <trkpt lat="47.22897" lon="-1.47006">
        <ele>-3.26</ele>
        <time>2020-05-27T16:53:58Z</time>
      </trkpt>
      <trkpt lat="47.22907" lon="-1.46992">
        <ele>-3.43</ele>
        <time>2020-05-27T16:54:00Z</time>
      </trkpt>
      <trkpt lat="47.22912" lon="-1.46975">
        <ele>-3.37</ele>
        <time>2020-05-27T16:54:02Z</time>
      </trkpt>
      <trkpt lat="47.22918" lon="-1.46956">
        <ele>-4.81</ele>
        <time>2020-05-27T16:54:04Z</time>
      </trkpt>
      <trkpt lat="47.22921" lon="-1.46941">
        <ele>-5.49</ele>
        <time>2020-05-27T16:54:06Z</time>
      </trkpt>
      <trkpt lat="47.22924" lon="-1.46927">
        <ele>-5.44</ele>
        <time>2020-05-27T16:54:08Z</time>
      </trkpt>
      <trkpt lat="47.22929" lon="-1.46909">
        <ele>-6.66</ele>
        <time>2020-05-27T16:54:10Z</time>
      </trkpt>
      <trkpt lat="47.22932" lon="-1.46894">
        <ele>-8.65</ele>
        <time>2020-05-27T16:54:12Z</time>
      </trkpt>
      <trkpt lat="47.22937" lon="-1.46876">
        <ele>-9.08</ele>
        <time>2020-05-27T16:54:14Z</time>
      </trkpt>
      <trkpt lat="47.22941" lon="-1.46858">
        <ele>-8.2</ele>
        <time>2020-05-27T16:54:16Z</time>
      </trkpt>
      <trkpt lat="47.22949" lon="-1.46842">
        <ele>-7.56</ele>
        <time>2020-05-27T16:54:18Z</time>
      </trkpt>
      <trkpt lat="47.2296" lon="-1.46835">
        <ele>-6.37</ele>
        <time>2020-05-27T16:54:20Z</time>
      </trkpt>
      <trkpt lat="47.22969" lon="-1.46819">
        <ele>-6.17</ele>
        <time>2020-05-27T16:54:22Z</time>
      </trkpt>
      <trkpt lat="47.22975" lon="-1.46802">
        <ele>-5.02</ele>
        <time>2020-05-27T16:54:24Z</time>
      </trkpt>
      <trkpt lat="47.2298" lon="-1.46787">
        <ele>-3.92</ele>
        <time>2020-05-27T16:54:26Z</time>
      </trkpt>
      <trkpt lat="47.22987" lon="-1.46774">
        <ele>-2.55</ele>
        <time>2020-05-27T16:54:28Z</time>
      </trkpt>
      <trkpt lat="47.22996" lon="-1.46764">
        <ele>-1.31</ele>
        <time>2020-05-27T16:54:30Z</time>
      </trkpt>
      <trkpt lat="47.23005" lon="-1.46756">
        <ele>-0.31</ele>
        <time>2020-05-27T16:54:32Z</time>
      </trkpt>
      <trkpt lat="47.23014" lon="-1.4675">
        <ele>0.55</ele>
        <time>2020-05-27T16:54:34Z</time>
      </trkpt>
      <trkpt lat="47.23026" lon="-1.46746">
        <ele>-0.13</ele>
        <time>2020-05-27T16:54:37Z</time>
      </trkpt>
      <trkpt lat="47.23037" lon="-1.4674">
        <ele>-0.57</ele>
        <time>2020-05-27T16:54:39Z</time>
      </trkpt>
      <trkpt lat="47.23041" lon="-1.46753">
        <ele>-0.99</ele>
        <time>2020-05-27T16:54:44Z</time>
      </trkpt>
      <trkpt lat="47.23037" lon="-1.46768">
        <ele>-0.77</ele>
        <time>2020-05-27T16:54:46Z</time>
      </trkpt>
      <trkpt lat="47.23037" lon="-1.46782">
        <ele>-1.26</ele>
        <time>2020-05-27T16:54:48Z</time>
      </trkpt>
      <trkpt lat="47.2304" lon="-1.46798">
        <ele>-1.27</ele>
        <time>2020-05-27T16:54:50Z</time>
      </trkpt>
      <trkpt lat="47.23042" lon="-1.46815">
        <ele>-2.09</ele>
        <time>2020-05-27T16:54:52Z</time>
      </trkpt>
      <trkpt lat="47.23043" lon="-1.46831">
        <ele>-2.89</ele>
        <time>2020-05-27T16:54:54Z</time>
      </trkpt>
      <trkpt lat="47.23044" lon="-1.46848">
        <ele>-3.76</ele>
        <time>2020-05-27T16:54:56Z</time>
      </trkpt>
      <trkpt lat="47.23044" lon="-1.46862">
        <ele>-4.66</ele>
        <time>2020-05-27T16:54:58Z</time>
      </trkpt>
      <trkpt lat="47.23043" lon="-1.46878">
        <ele>-4.38</ele>
        <time>2020-05-27T16:55:00Z</time>
      </trkpt>
      <trkpt lat="47.23042" lon="-1.46894">
        <ele>-3.85</ele>
        <time>2020-05-27T16:55:02Z</time>
      </trkpt>
      <trkpt lat="47.23041" lon="-1.46913">
        <ele>-1.88</ele>
        <time>2020-05-27T16:55:05Z</time>
      </trkpt>
      <trkpt lat="47.23038" lon="-1.46931">
        <ele>-0.81</ele>
        <time>2020-05-27T16:55:08Z</time>
      </trkpt>
      <trkpt lat="47.23047" lon="-1.46946">
        <ele>0.9</ele>
        <time>2020-05-27T16:55:11Z</time>
      </trkpt>
      <trkpt lat="47.23054" lon="-1.46957">
        <ele>1.66</ele>
        <time>2020-05-27T16:55:13Z</time>
      </trkpt>
      <trkpt lat="47.23061" lon="-1.46969">
        <ele>2.49</ele>
        <time>2020-05-27T16:55:15Z</time>
      </trkpt>
      <trkpt lat="47.23067" lon="-1.46984">
        <ele>3.67</ele>
        <time>2020-05-27T16:55:18Z</time>
      </trkpt>
      <trkpt lat="47.23073" lon="-1.46995">
        <ele>3.65</ele>
        <time>2020-05-27T16:55:20Z</time>
      </trkpt>
      <trkpt lat="47.23079" lon="-1.47007">
        <ele>3.78</ele>
        <time>2020-05-27T16:55:22Z</time>
      </trkpt>
      <trkpt lat="47.23084" lon="-1.47018">
        <ele>4.38</ele>
        <time>2020-05-27T16:55:24Z</time>
      </trkpt>
      <trkpt lat="47.23089" lon="-1.47029">
        <ele>2.92</ele>
        <time>2020-05-27T16:55:26Z</time>
      </trkpt>
      <trkpt lat="47.23096" lon="-1.47042">
        <ele>2.31</ele>
        <time>2020-05-27T16:55:28Z</time>
      </trkpt>
      <trkpt lat="47.23102" lon="-1.47055">
        <ele>1.78</ele>
        <time>2020-05-27T16:55:30Z</time>
      </trkpt>
      <trkpt lat="47.23109" lon="-1.47068">
        <ele>2.36</ele>
        <time>2020-05-27T16:55:32Z</time>
      </trkpt>
      <trkpt lat="47.23115" lon="-1.47082">
        <ele>2.6</ele>
        <time>2020-05-27T16:55:34Z</time>
      </trkpt>
      <trkpt lat="47.23122" lon="-1.47096">
        <ele>3.43</ele>
        <time>2020-05-27T16:55:36Z</time>
      </trkpt>
      <trkpt lat="47.2313" lon="-1.47107">
        <ele>3.15</ele>
        <time>2020-05-27T16:55:38Z</time>
      </trkpt>
      <trkpt lat="47.23137" lon="-1.47119">
        <ele>3.14</ele>
        <time>2020-05-27T16:55:40Z</time>
      </trkpt>
      <trkpt lat="47.23145" lon="-1.47132">
        <ele>4.94</ele>
        <time>2020-05-27T16:55:42Z</time>
      </trkpt>
      <trkpt lat="47.23152" lon="-1.47143">
        <ele>5.54</ele>
        <time>2020-05-27T16:55:44Z</time>
      </trkpt>
      <trkpt lat="47.23158" lon="-1.47155">
        <ele>4.6</ele>
        <time>2020-05-27T16:55:46Z</time>
      </trkpt>
      <trkpt lat="47.23165" lon="-1.47168">
        <ele>4.4</ele>
        <time>2020-05-27T16:55:48Z</time>
      </trkpt>
      <trkpt lat="47.23172" lon="-1.4718">
        <ele>4.7</ele>
        <time>2020-05-27T16:55:50Z</time>
      </trkpt>
      <trkpt lat="47.23178" lon="-1.47192">
        <ele>4.7</ele>
        <time>2020-05-27T16:55:52Z</time>
      </trkpt>
      <trkpt lat="47.23185" lon="-1.47204">
        <ele>5.4</ele>
        <time>2020-05-27T16:55:54Z</time>
      </trkpt>
      <trkpt lat="47.23194" lon="-1.4722">
        <ele>5.42</ele>
        <time>2020-05-27T16:55:57Z</time>
      </trkpt>
      <trkpt lat="47.232" lon="-1.47232">
        <ele>6.33</ele>
        <time>2020-05-27T16:55:59Z</time>
      </trkpt>
      <trkpt lat="47.23207" lon="-1.47246">
        <ele>8.52</ele>
        <time>2020-05-27T16:56:01Z</time>
      </trkpt>
      <trkpt lat="47.23216" lon="-1.47261">
        <ele>7.92</ele>
        <time>2020-05-27T16:56:04Z</time>
      </trkpt>
      <trkpt lat="47.23223" lon="-1.47274">
        <ele>7.37</ele>
        <time>2020-05-27T16:56:06Z</time>
      </trkpt>
      <trkpt lat="47.23229" lon="-1.47284">
        <ele>8.86</ele>
        <time>2020-05-27T16:56:08Z</time>
      </trkpt>
      <trkpt lat="47.23236" lon="-1.47297">
        <ele>10.74</ele>
        <time>2020-05-27T16:56:10Z</time>
      </trkpt>
      <trkpt lat="47.23243" lon="-1.4731">
        <ele>12.39</ele>
        <time>2020-05-27T16:56:12Z</time>
      </trkpt>
      <trkpt lat="47.23253" lon="-1.47325">
        <ele>12.74</ele>
        <time>2020-05-27T16:56:14Z</time>
      </trkpt>
      <trkpt lat="47.23262" lon="-1.47337">
        <ele>12.92</ele>
        <time>2020-05-27T16:56:16Z</time>
      </trkpt>
      <trkpt lat="47.23271" lon="-1.47351">
        <ele>12.15</ele>
        <time>2020-05-27T16:56:18Z</time>
      </trkpt>
      <trkpt lat="47.2328" lon="-1.47366">
        <ele>10.71</ele>
        <time>2020-05-27T16:56:20Z</time>
      </trkpt>
      <trkpt lat="47.23288" lon="-1.47382">
        <ele>9.07</ele>
        <time>2020-05-27T16:56:22Z</time>
      </trkpt>
      <trkpt lat="47.23296" lon="-1.47395">
        <ele>7.34</ele>
        <time>2020-05-27T16:56:24Z</time>
      </trkpt>
      <trkpt lat="47.23304" lon="-1.47409">
        <ele>5.19</ele>
        <time>2020-05-27T16:56:26Z</time>
      </trkpt>
      <trkpt lat="47.23314" lon="-1.47425">
        <ele>3.98</ele>
        <time>2020-05-27T16:56:28Z</time>
      </trkpt>
      <trkpt lat="47.23322" lon="-1.47439">
        <ele>4.28</ele>
        <time>2020-05-27T16:56:30Z</time>
      </trkpt>
      <trkpt lat="47.23331" lon="-1.47453">
        <ele>4.81</ele>
        <time>2020-05-27T16:56:32Z</time>
      </trkpt>
      <trkpt lat="47.2334" lon="-1.47469">
        <ele>4.93</ele>
        <time>2020-05-27T16:56:34Z</time>
      </trkpt>
      <trkpt lat="47.23348" lon="-1.47485">
        <ele>5.78</ele>
        <time>2020-05-27T16:56:36Z</time>
      </trkpt>
      <trkpt lat="47.23357" lon="-1.475">
        <ele>6.04</ele>
        <time>2020-05-27T16:56:38Z</time>
      </trkpt>
      <trkpt lat="47.23366" lon="-1.47514">
        <ele>6.27</ele>
        <time>2020-05-27T16:56:40Z</time>
      </trkpt>
      <trkpt lat="47.23376" lon="-1.47528">
        <ele>6.09</ele>
        <time>2020-05-27T16:56:42Z</time>
      </trkpt>
      <trkpt lat="47.23386" lon="-1.47542">
        <ele>4.82</ele>
        <time>2020-05-27T16:56:44Z</time>
      </trkpt>
      <trkpt lat="47.23395" lon="-1.47556">
        <ele>4.48</ele>
        <time>2020-05-27T16:56:46Z</time>
      </trkpt>
      <trkpt lat="47.23405" lon="-1.4757">
        <ele>4.24</ele>
        <time>2020-05-27T16:56:48Z</time>
      </trkpt>
      <trkpt lat="47.23414" lon="-1.47584">
        <ele>4.12</ele>
        <time>2020-05-27T16:56:50Z</time>
      </trkpt>
      <trkpt lat="47.23423" lon="-1.47596">
        <ele>3.99</ele>
        <time>2020-05-27T16:56:52Z</time>
      </trkpt>
      <trkpt lat="47.23432" lon="-1.47611">
        <ele>3.13</ele>
        <time>2020-05-27T16:56:54Z</time>
      </trkpt>
      <trkpt lat="47.23442" lon="-1.47626">
        <ele>1.69</ele>
        <time>2020-05-27T16:56:56Z</time>
      </trkpt>
      <trkpt lat="47.23452" lon="-1.4764">
        <ele>-0.44</ele>
        <time>2020-05-27T16:56:58Z</time>
      </trkpt>
      <trkpt lat="47.23463" lon="-1.47655">
        <ele>-2.57</ele>
        <time>2020-05-27T16:57:00Z</time>
      </trkpt>
      <trkpt lat="47.23473" lon="-1.47666">
        <ele>-3.48</ele>
        <time>2020-05-27T16:57:02Z</time>
      </trkpt>
      <trkpt lat="47.23484" lon="-1.47676">
        <ele>-4.26</ele>
        <time>2020-05-27T16:57:04Z</time>
      </trkpt>
      <trkpt lat="47.23496" lon="-1.47685">
        <ele>-3.65</ele>
        <time>2020-05-27T16:57:06Z</time>
      </trkpt>
      <trkpt lat="47.23509" lon="-1.47694">
        <ele>-3.39</ele>
        <time>2020-05-27T16:57:08Z</time>
      </trkpt>
      <trkpt lat="47.23522" lon="-1.47701">
        <ele>-2.81</ele>
        <time>2020-05-27T16:57:10Z</time>
      </trkpt>
      <trkpt lat="47.23532" lon="-1.47706">
        <ele>-2.16</ele>
        <time>2020-05-27T16:57:12Z</time>
      </trkpt>
      <trkpt lat="47.23545" lon="-1.47708">
        <ele>-1.13</ele>
        <time>2020-05-27T16:57:14Z</time>
      </trkpt>
      <trkpt lat="47.23556" lon="-1.477">
        <ele>-0.77</ele>
        <time>2020-05-27T16:57:16Z</time>
      </trkpt>
      <trkpt lat="47.23562" lon="-1.47691">
        <ele>-1.38</ele>
        <time>2020-05-27T16:57:18Z</time>
      </trkpt>
      <trkpt lat="47.23558" lon="-1.47678">
        <ele>-2.06</ele>
        <time>2020-05-27T16:57:20Z</time>
      </trkpt>
      <trkpt lat="47.2355" lon="-1.47663">
        <ele>-2.06</ele>
        <time>2020-05-27T16:57:22Z</time>
      </trkpt>
      <trkpt lat="47.2354" lon="-1.47648">
        <ele>-2.15</ele>
        <time>2020-05-27T16:57:24Z</time>
      </trkpt>
      <trkpt lat="47.23529" lon="-1.47633">
        <ele>-2.4</ele>
        <time>2020-05-27T16:57:26Z</time>
      </trkpt>
      <trkpt lat="47.2352" lon="-1.47621">
        <ele>-1.83</ele>
        <time>2020-05-27T16:57:28Z</time>
      </trkpt>
      <trkpt lat="47.23512" lon="-1.47607">
        <ele>-1.29</ele>
        <time>2020-05-27T16:57:30Z</time>
      </trkpt>
      <trkpt lat="47.23503" lon="-1.47593">
        <ele>-1.68</ele>
        <time>2020-05-27T16:57:32Z</time>
      </trkpt>
      <trkpt lat="47.23494" lon="-1.47577">
        <ele>-1.04</ele>
        <time>2020-05-27T16:57:34Z</time>
      </trkpt>
      <trkpt lat="47.23485" lon="-1.47564">
        <ele>-1.68</ele>
        <time>2020-05-27T16:57:36Z</time>
      </trkpt>
      <trkpt lat="47.23476" lon="-1.47551">
        <ele>-1.83</ele>
        <time>2020-05-27T16:57:38Z</time>
      </trkpt>
      <trkpt lat="47.23468" lon="-1.47538">
        <ele>-2.96</ele>
        <time>2020-05-27T16:57:40Z</time>
      </trkpt>
      <trkpt lat="47.23461" lon="-1.47526">
        <ele>-3.45</ele>
        <time>2020-05-27T16:57:42Z</time>
      </trkpt>
      <trkpt lat="47.23453" lon="-1.47513">
        <ele>-3.39</ele>
        <time>2020-05-27T16:57:44Z</time>
      </trkpt>
      <trkpt lat="47.23445" lon="-1.475">
        <ele>-3.26</ele>
        <time>2020-05-27T16:57:46Z</time>
      </trkpt>
      <trkpt lat="47.23436" lon="-1.47486">
        <ele>-3.63</ele>
        <time>2020-05-27T16:57:48Z</time>
      </trkpt>
      <trkpt lat="47.23428" lon="-1.47471">
        <ele>-3.76</ele>
        <time>2020-05-27T16:57:50Z</time>
      </trkpt>
      <trkpt lat="47.23419" lon="-1.47457">
        <ele>-3.83</ele>
        <time>2020-05-27T16:57:52Z</time>
      </trkpt>
      <trkpt lat="47.23413" lon="-1.47448">
        <ele>-4.78</ele>
        <time>2020-05-27T16:57:54Z</time>
      </trkpt>
      <trkpt lat="47.23404" lon="-1.47446">
        <ele>-5.02</ele>
        <time>2020-05-27T16:57:56Z</time>
      </trkpt>
      <trkpt lat="47.23394" lon="-1.47454">
        <ele>-3.53</ele>
        <time>2020-05-27T16:57:58Z</time>
      </trkpt>
      <trkpt lat="47.2338" lon="-1.47462">
        <ele>-1.86</ele>
        <time>2020-05-27T16:58:00Z</time>
      </trkpt>
      <trkpt lat="47.23369" lon="-1.47469">
        <ele>0.3</ele>
        <time>2020-05-27T16:58:02Z</time>
      </trkpt>
      <trkpt lat="47.23357" lon="-1.47474">
        <ele>1.16</ele>
        <time>2020-05-27T16:58:04Z</time>
      </trkpt>
      <trkpt lat="47.23346" lon="-1.47477">
        <ele>1.09</ele>
        <time>2020-05-27T16:58:06Z</time>
      </trkpt>
      <trkpt lat="47.23336" lon="-1.47481">
        <ele>0.51</ele>
        <time>2020-05-27T16:58:08Z</time>
      </trkpt>
      <trkpt lat="47.23325" lon="-1.47491">
        <ele>-1.01</ele>
        <time>2020-05-27T16:58:10Z</time>
      </trkpt>
      <trkpt lat="47.23313" lon="-1.47502">
        <ele>-0.42</ele>
        <time>2020-05-27T16:58:12Z</time>
      </trkpt>
      <trkpt lat="47.23304" lon="-1.47508">
        <ele>0.22</ele>
        <time>2020-05-27T16:58:14Z</time>
      </trkpt>
      <trkpt lat="47.23291" lon="-1.47516">
        <ele>0.44</ele>
        <time>2020-05-27T16:58:16Z</time>
      </trkpt>
      <trkpt lat="47.23279" lon="-1.47522">
        <ele>0.33</ele>
        <time>2020-05-27T16:58:18Z</time>
      </trkpt>
      <trkpt lat="47.23267" lon="-1.4753">
        <ele>0.84</ele>
        <time>2020-05-27T16:58:20Z</time>
      </trkpt>
      <trkpt lat="47.23257" lon="-1.47541">
        <ele>0.17</ele>
        <time>2020-05-27T16:58:22Z</time>
      </trkpt>
      <trkpt lat="47.23249" lon="-1.47554">
        <ele>0.67</ele>
        <time>2020-05-27T16:58:24Z</time>
      </trkpt>
      <trkpt lat="47.23241" lon="-1.47568">
        <ele>1.45</ele>
        <time>2020-05-27T16:58:26Z</time>
      </trkpt>
      <trkpt lat="47.23234" lon="-1.47582">
        <ele>1.76</ele>
        <time>2020-05-27T16:58:28Z</time>
      </trkpt>
      <trkpt lat="47.23227" lon="-1.47595">
        <ele>1.44</ele>
        <time>2020-05-27T16:58:30Z</time>
      </trkpt>
      <trkpt lat="47.2322" lon="-1.47611">
        <ele>1.31</ele>
        <time>2020-05-27T16:58:32Z</time>
      </trkpt>
      <trkpt lat="47.23211" lon="-1.47627">
        <ele>1.2</ele>
        <time>2020-05-27T16:58:34Z</time>
      </trkpt>
      <trkpt lat="47.23204" lon="-1.47644">
        <ele>1.44</ele>
        <time>2020-05-27T16:58:36Z</time>
      </trkpt>
      <trkpt lat="47.23198" lon="-1.47659">
        <ele>1.68</ele>
        <time>2020-05-27T16:58:38Z</time>
      </trkpt>
      <trkpt lat="47.23191" lon="-1.47674">
        <ele>0.06</ele>
        <time>2020-05-27T16:58:40Z</time>
      </trkpt>
      <trkpt lat="47.23185" lon="-1.4769">
        <ele>-1.89</ele>
        <time>2020-05-27T16:58:42Z</time>
      </trkpt>
      <trkpt lat="47.23178" lon="-1.47704">
        <ele>-1.97</ele>
        <time>2020-05-27T16:58:44Z</time>
      </trkpt>
      <trkpt lat="47.2317" lon="-1.47722">
        <ele>-1.47</ele>
        <time>2020-05-27T16:58:46Z</time>
      </trkpt>
      <trkpt lat="47.23163" lon="-1.47739">
        <ele>-1.01</ele>
        <time>2020-05-27T16:58:48Z</time>
      </trkpt>
      <trkpt lat="47.23156" lon="-1.47756">
        <ele>-0.05</ele>
        <time>2020-05-27T16:58:50Z</time>
      </trkpt>
      <trkpt lat="47.23149" lon="-1.47773">
        <ele>0.2</ele>
        <time>2020-05-27T16:58:52Z</time>
      </trkpt>
      <trkpt lat="47.23145" lon="-1.47784">
        <ele>0.29</ele>
        <time>2020-05-27T16:58:54Z</time>
      </trkpt>
      <trkpt lat="47.23139" lon="-1.478">
        <ele>0.32</ele>
        <time>2020-05-27T16:58:56Z</time>
      </trkpt>
      <trkpt lat="47.23132" lon="-1.47817">
        <ele>1.3</ele>
        <time>2020-05-27T16:58:58Z</time>
      </trkpt>
      <trkpt lat="47.23126" lon="-1.47834">
        <ele>2.03</ele>
        <time>2020-05-27T16:59:00Z</time>
      </trkpt>
      <trkpt lat="47.23119" lon="-1.47852">
        <ele>1.99</ele>
        <time>2020-05-27T16:59:02Z</time>
      </trkpt>
      <trkpt lat="47.23113" lon="-1.47866">
        <ele>1.85</ele>
        <time>2020-05-27T16:59:04Z</time>
      </trkpt>
      <trkpt lat="47.23105" lon="-1.4788">
        <ele>1.3</ele>
        <time>2020-05-27T16:59:06Z</time>
      </trkpt>
      <trkpt lat="47.23095" lon="-1.47895">
        <ele>1.02</ele>
        <time>2020-05-27T16:59:08Z</time>
      </trkpt>
      <trkpt lat="47.23086" lon="-1.47907">
        <ele>0.56</ele>
        <time>2020-05-27T16:59:10Z</time>
      </trkpt>
      <trkpt lat="47.23076" lon="-1.47919">
        <ele>1.04</ele>
        <time>2020-05-27T16:59:12Z</time>
      </trkpt>
      <trkpt lat="47.23065" lon="-1.47932">
        <ele>1.53</ele>
        <time>2020-05-27T16:59:14Z</time>
      </trkpt>
      <trkpt lat="47.23055" lon="-1.47945">
        <ele>1.63</ele>
        <time>2020-05-27T16:59:16Z</time>
      </trkpt>
      <trkpt lat="47.23044" lon="-1.47959">
        <ele>1.84</ele>
        <time>2020-05-27T16:59:18Z</time>
      </trkpt>
      <trkpt lat="47.23033" lon="-1.47973">
        <ele>2.16</ele>
        <time>2020-05-27T16:59:20Z</time>
      </trkpt>
      <trkpt lat="47.23025" lon="-1.47985">
        <ele>1.56</ele>
        <time>2020-05-27T16:59:22Z</time>
      </trkpt>
      <trkpt lat="47.23015" lon="-1.47998">
        <ele>0.66</ele>
        <time>2020-05-27T16:59:24Z</time>
      </trkpt>
      <trkpt lat="47.23007" lon="-1.4801">
        <ele>0.42</ele>
        <time>2020-05-27T16:59:26Z</time>
      </trkpt>
      <trkpt lat="47.22998" lon="-1.48023">
        <ele>1.18</ele>
        <time>2020-05-27T16:59:28Z</time>
      </trkpt>
      <trkpt lat="47.22988" lon="-1.48038">
        <ele>1.37</ele>
        <time>2020-05-27T16:59:30Z</time>
      </trkpt>
      <trkpt lat="47.22979" lon="-1.48055">
        <ele>0.14</ele>
        <time>2020-05-27T16:59:32Z</time>
      </trkpt>
      <trkpt lat="47.22971" lon="-1.4807">
        <ele>-1.2</ele>
        <time>2020-05-27T16:59:34Z</time>
      </trkpt>
      <trkpt lat="47.22963" lon="-1.48084">
        <ele>-2.44</ele>
        <time>2020-05-27T16:59:36Z</time>
      </trkpt>
      <trkpt lat="47.22956" lon="-1.48094">
        <ele>-3.25</ele>
        <time>2020-05-27T16:59:39Z</time>
      </trkpt>
      <trkpt lat="47.2295" lon="-1.48106">
        <ele>-2.77</ele>
        <time>2020-05-27T16:59:41Z</time>
      </trkpt>
      <trkpt lat="47.22939" lon="-1.48111">
        <ele>-1.97</ele>
        <time>2020-05-27T16:59:43Z</time>
      </trkpt>
      <trkpt lat="47.22928" lon="-1.48112">
        <ele>-1.57</ele>
        <time>2020-05-27T16:59:45Z</time>
      </trkpt>
      <trkpt lat="47.22915" lon="-1.48116">
        <ele>-1.28</ele>
        <time>2020-05-27T16:59:47Z</time>
      </trkpt>
      <trkpt lat="47.22902" lon="-1.48126">
        <ele>-0.93</ele>
        <time>2020-05-27T16:59:49Z</time>
      </trkpt>
      <trkpt lat="47.22892" lon="-1.48139">
        <ele>-1.19</ele>
        <time>2020-05-27T16:59:51Z</time>
      </trkpt>
      <trkpt lat="47.22883" lon="-1.48152">
        <ele>-1.85</ele>
        <time>2020-05-27T16:59:53Z</time>
      </trkpt>
      <trkpt lat="47.22874" lon="-1.48164">
        <ele>-2.43</ele>
        <time>2020-05-27T16:59:55Z</time>
      </trkpt>
      <trkpt lat="47.22867" lon="-1.48176">
        <ele>-2.56</ele>
        <time>2020-05-27T16:59:57Z</time>
      </trkpt>
      <trkpt lat="47.22858" lon="-1.48192">
        <ele>-1.92</ele>
        <time>2020-05-27T16:59:59Z</time>
      </trkpt>
      <trkpt lat="47.22851" lon="-1.48206">
        <ele>-0.18</ele>
        <time>2020-05-27T17:00:01Z</time>
      </trkpt>
      <trkpt lat="47.22842" lon="-1.48219">
        <ele>0.81</ele>
        <time>2020-05-27T17:00:03Z</time>
      </trkpt>
      <trkpt lat="47.22833" lon="-1.48234">
        <ele>1.41</ele>
        <time>2020-05-27T17:00:05Z</time>
      </trkpt>
      <trkpt lat="47.22824" lon="-1.48247">
        <ele>2.81</ele>
        <time>2020-05-27T17:00:07Z</time>
      </trkpt>
      <trkpt lat="47.22815" lon="-1.4826">
        <ele>3.84</ele>
        <time>2020-05-27T17:00:09Z</time>
      </trkpt>
      <trkpt lat="47.22806" lon="-1.48273">
        <ele>4.74</ele>
        <time>2020-05-27T17:00:11Z</time>
      </trkpt>
      <trkpt lat="47.22796" lon="-1.48287">
        <ele>4.55</ele>
        <time>2020-05-27T17:00:13Z</time>
      </trkpt>
      <trkpt lat="47.22787" lon="-1.48301">
        <ele>3.96</ele>
        <time>2020-05-27T17:00:15Z</time>
      </trkpt>
      <trkpt lat="47.22778" lon="-1.48316">
        <ele>3.43</ele>
        <time>2020-05-27T17:00:17Z</time>
      </trkpt>
      <trkpt lat="47.2277" lon="-1.48328">
        <ele>3.88</ele>
        <time>2020-05-27T17:00:19Z</time>
      </trkpt>
      <trkpt lat="47.2276" lon="-1.48344">
        <ele>3.89</ele>
        <time>2020-05-27T17:00:21Z</time>
      </trkpt>
      <trkpt lat="47.22751" lon="-1.48356">
        <ele>3.15</ele>
        <time>2020-05-27T17:00:23Z</time>
      </trkpt>
      <trkpt lat="47.22743" lon="-1.48367">
        <ele>3.07</ele>
        <time>2020-05-27T17:00:25Z</time>
      </trkpt>
      <trkpt lat="47.22733" lon="-1.48383">
        <ele>2.98</ele>
        <time>2020-05-27T17:00:27Z</time>
      </trkpt>
      <trkpt lat="47.22722" lon="-1.48397">
        <ele>2.88</ele>
        <time>2020-05-27T17:00:29Z</time>
      </trkpt>
      <trkpt lat="47.22713" lon="-1.48409">
        <ele>2.96</ele>
        <time>2020-05-27T17:00:31Z</time>
      </trkpt>
      <trkpt lat="47.22705" lon="-1.48424">
        <ele>2.88</ele>
        <time>2020-05-27T17:00:33Z</time>
      </trkpt>
      <trkpt lat="47.22699" lon="-1.48441">
        <ele>1.99</ele>
        <time>2020-05-27T17:00:35Z</time>
      </trkpt>
      <trkpt lat="47.22693" lon="-1.48458">
        <ele>0.8</ele>
        <time>2020-05-27T17:00:37Z</time>
      </trkpt>
      <trkpt lat="47.22687" lon="-1.48474">
        <ele>-0.65</ele>
        <time>2020-05-27T17:00:39Z</time>
      </trkpt>
      <trkpt lat="47.2268" lon="-1.48492">
        <ele>-1.72</ele>
        <time>2020-05-27T17:00:41Z</time>
      </trkpt>
      <trkpt lat="47.22672" lon="-1.48507">
        <ele>-2.01</ele>
        <time>2020-05-27T17:00:43Z</time>
      </trkpt>
      <trkpt lat="47.22667" lon="-1.4852">
        <ele>-2.35</ele>
        <time>2020-05-27T17:00:45Z</time>
      </trkpt>
      <trkpt lat="47.22661" lon="-1.48539">
        <ele>-2.58</ele>
        <time>2020-05-27T17:00:47Z</time>
      </trkpt>
      <trkpt lat="47.22655" lon="-1.48556">
        <ele>-2.2</ele>
        <time>2020-05-27T17:00:49Z</time>
      </trkpt>
      <trkpt lat="47.22649" lon="-1.48574">
        <ele>-1.54</ele>
        <time>2020-05-27T17:00:51Z</time>
      </trkpt>
      <trkpt lat="47.22643" lon="-1.4859">
        <ele>-1.02</ele>
        <time>2020-05-27T17:00:53Z</time>
      </trkpt>
      <trkpt lat="47.22636" lon="-1.48607">
        <ele>-1.46</ele>
        <time>2020-05-27T17:00:55Z</time>
      </trkpt>
      <trkpt lat="47.2263" lon="-1.48622">
        <ele>-1.85</ele>
        <time>2020-05-27T17:00:57Z</time>
      </trkpt>
      <trkpt lat="47.22623" lon="-1.4864">
        <ele>-0.99</ele>
        <time>2020-05-27T17:00:59Z</time>
      </trkpt>
      <trkpt lat="47.22616" lon="-1.48658">
        <ele>-0.67</ele>
        <time>2020-05-27T17:01:01Z</time>
      </trkpt>
      <trkpt lat="47.22611" lon="-1.48675">
        <ele>-0.41</ele>
        <time>2020-05-27T17:01:03Z</time>
      </trkpt>
      <trkpt lat="47.22606" lon="-1.48691">
        <ele>0.02</ele>
        <time>2020-05-27T17:01:05Z</time>
      </trkpt>
      <trkpt lat="47.22601" lon="-1.48708">
        <ele>0.97</ele>
        <time>2020-05-27T17:01:07Z</time>
      </trkpt>
      <trkpt lat="47.22595" lon="-1.48727">
        <ele>1.82</ele>
        <time>2020-05-27T17:01:09Z</time>
      </trkpt>
      <trkpt lat="47.2259" lon="-1.48746">
        <ele>1.75</ele>
        <time>2020-05-27T17:01:11Z</time>
      </trkpt>
      <trkpt lat="47.22586" lon="-1.48765">
        <ele>1.59</ele>
        <time>2020-05-27T17:01:13Z</time>
      </trkpt>
      <trkpt lat="47.22582" lon="-1.48782">
        <ele>1.9</ele>
        <time>2020-05-27T17:01:15Z</time>
      </trkpt>
      <trkpt lat="47.22577" lon="-1.488">
        <ele>1.94</ele>
        <time>2020-05-27T17:01:17Z</time>
      </trkpt>
      <trkpt lat="47.22572" lon="-1.48815">
        <ele>2.26</ele>
        <time>2020-05-27T17:01:19Z</time>
      </trkpt>
      <trkpt lat="47.22567" lon="-1.4883">
        <ele>2.23</ele>
        <time>2020-05-27T17:01:21Z</time>
      </trkpt>
      <trkpt lat="47.22562" lon="-1.48845">
        <ele>3.45</ele>
        <time>2020-05-27T17:01:23Z</time>
      </trkpt>
      <trkpt lat="47.22558" lon="-1.48861">
        <ele>5.56</ele>
        <time>2020-05-27T17:01:25Z</time>
      </trkpt>
      <trkpt lat="47.22553" lon="-1.48877">
        <ele>6.47</ele>
        <time>2020-05-27T17:01:27Z</time>
      </trkpt>
      <trkpt lat="47.22548" lon="-1.48895">
        <ele>6.89</ele>
        <time>2020-05-27T17:01:29Z</time>
      </trkpt>
      <trkpt lat="47.22542" lon="-1.48915">
        <ele>6.84</ele>
        <time>2020-05-27T17:01:31Z</time>
      </trkpt>
      <trkpt lat="47.22536" lon="-1.48934">
        <ele>7.68</ele>
        <time>2020-05-27T17:01:33Z</time>
      </trkpt>
      <trkpt lat="47.2253" lon="-1.48952">
        <ele>8.35</ele>
        <time>2020-05-27T17:01:35Z</time>
      </trkpt>
      <trkpt lat="47.22524" lon="-1.48968">
        <ele>7.55</ele>
        <time>2020-05-27T17:01:37Z</time>
      </trkpt>
      <trkpt lat="47.22516" lon="-1.48985">
        <ele>6.71</ele>
        <time>2020-05-27T17:01:39Z</time>
      </trkpt>
      <trkpt lat="47.2251" lon="-1.49003">
        <ele>5.66</ele>
        <time>2020-05-27T17:01:41Z</time>
      </trkpt>
      <trkpt lat="47.22504" lon="-1.49019">
        <ele>5.01</ele>
        <time>2020-05-27T17:01:43Z</time>
      </trkpt>
      <trkpt lat="47.22498" lon="-1.49041">
        <ele>5</ele>
        <time>2020-05-27T17:01:45Z</time>
      </trkpt>
      <trkpt lat="47.22493" lon="-1.49058">
        <ele>4.41</ele>
        <time>2020-05-27T17:01:47Z</time>
      </trkpt>
      <trkpt lat="47.22488" lon="-1.49073">
        <ele>4.21</ele>
        <time>2020-05-27T17:01:49Z</time>
      </trkpt>
      <trkpt lat="47.22481" lon="-1.4909">
        <ele>4.79</ele>
        <time>2020-05-27T17:01:51Z</time>
      </trkpt>
      <trkpt lat="47.22474" lon="-1.49112">
        <ele>4.74</ele>
        <time>2020-05-27T17:01:53Z</time>
      </trkpt>
      <trkpt lat="47.22468" lon="-1.49132">
        <ele>4.23</ele>
        <time>2020-05-27T17:01:55Z</time>
      </trkpt>
      <trkpt lat="47.22463" lon="-1.49152">
        <ele>3.98</ele>
        <time>2020-05-27T17:01:57Z</time>
      </trkpt>
      <trkpt lat="47.22457" lon="-1.4917">
        <ele>4.36</ele>
        <time>2020-05-27T17:01:59Z</time>
      </trkpt>
      <trkpt lat="47.22451" lon="-1.49187">
        <ele>4.11</ele>
        <time>2020-05-27T17:02:01Z</time>
      </trkpt>
      <trkpt lat="47.22445" lon="-1.49203">
        <ele>3.61</ele>
        <time>2020-05-27T17:02:03Z</time>
      </trkpt>
      <trkpt lat="47.2244" lon="-1.49219">
        <ele>3.51</ele>
        <time>2020-05-27T17:02:05Z</time>
      </trkpt>
      <trkpt lat="47.22433" lon="-1.49239">
        <ele>3.11</ele>
        <time>2020-05-27T17:02:07Z</time>
      </trkpt>
      <trkpt lat="47.22426" lon="-1.49256">
        <ele>2.08</ele>
        <time>2020-05-27T17:02:09Z</time>
      </trkpt>
      <trkpt lat="47.22419" lon="-1.49273">
        <ele>0.73</ele>
        <time>2020-05-27T17:02:11Z</time>
      </trkpt>
      <trkpt lat="47.22413" lon="-1.49288">
        <ele>0.64</ele>
        <time>2020-05-27T17:02:13Z</time>
      </trkpt>
      <trkpt lat="47.22408" lon="-1.49303">
        <ele>0.5</ele>
        <time>2020-05-27T17:02:15Z</time>
      </trkpt>
      <trkpt lat="47.22402" lon="-1.49319">
        <ele>0.16</ele>
        <time>2020-05-27T17:02:17Z</time>
      </trkpt>
      <trkpt lat="47.22396" lon="-1.49338">
        <ele>1.19</ele>
        <time>2020-05-27T17:02:19Z</time>
      </trkpt>
      <trkpt lat="47.22389" lon="-1.49355">
        <ele>2.84</ele>
        <time>2020-05-27T17:02:21Z</time>
      </trkpt>
      <trkpt lat="47.22383" lon="-1.49371">
        <ele>3</ele>
        <time>2020-05-27T17:02:22Z</time>
      </trkpt>
      <trkpt lat="47.22377" lon="-1.49386">
        <ele>2.88</ele>
        <time>2020-05-27T17:02:24Z</time>
      </trkpt>
      <trkpt lat="47.2237" lon="-1.494">
        <ele>2.86</ele>
        <time>2020-05-27T17:02:26Z</time>
      </trkpt>
      <trkpt lat="47.22364" lon="-1.49414">
        <ele>2.9</ele>
        <time>2020-05-27T17:02:28Z</time>
      </trkpt>
      <trkpt lat="47.22359" lon="-1.49427">
        <ele>3.02</ele>
        <time>2020-05-27T17:02:30Z</time>
      </trkpt>
      <trkpt lat="47.22353" lon="-1.49444">
        <ele>2.61</ele>
        <time>2020-05-27T17:02:32Z</time>
      </trkpt>
      <trkpt lat="47.22346" lon="-1.49462">
        <ele>1.94</ele>
        <time>2020-05-27T17:02:34Z</time>
      </trkpt>
      <trkpt lat="47.22339" lon="-1.4948">
        <ele>2.34</ele>
        <time>2020-05-27T17:02:36Z</time>
      </trkpt>
      <trkpt lat="47.22333" lon="-1.49499">
        <ele>2.82</ele>
        <time>2020-05-27T17:02:38Z</time>
      </trkpt>
      <trkpt lat="47.22327" lon="-1.49517">
        <ele>3.02</ele>
        <time>2020-05-27T17:02:40Z</time>
      </trkpt>
      <trkpt lat="47.22321" lon="-1.49536">
        <ele>3.43</ele>
        <time>2020-05-27T17:02:42Z</time>
      </trkpt>
      <trkpt lat="47.22316" lon="-1.49552">
        <ele>4.34</ele>
        <time>2020-05-27T17:02:44Z</time>
      </trkpt>
      <trkpt lat="47.22309" lon="-1.49569">
        <ele>4.05</ele>
        <time>2020-05-27T17:02:46Z</time>
      </trkpt>
      <trkpt lat="47.22304" lon="-1.49584">
        <ele>3.33</ele>
        <time>2020-05-27T17:02:48Z</time>
      </trkpt>
      <trkpt lat="47.22298" lon="-1.496">
        <ele>2.63</ele>
        <time>2020-05-27T17:02:50Z</time>
      </trkpt>
      <trkpt lat="47.22293" lon="-1.49615">
        <ele>2.82</ele>
        <time>2020-05-27T17:02:52Z</time>
      </trkpt>
      <trkpt lat="47.22289" lon="-1.49631">
        <ele>1.58</ele>
        <time>2020-05-27T17:02:54Z</time>
      </trkpt>
      <trkpt lat="47.22286" lon="-1.49649">
        <ele>1.06</ele>
        <time>2020-05-27T17:02:56Z</time>
      </trkpt>
      <trkpt lat="47.22281" lon="-1.49667">
        <ele>1.33</ele>
        <time>2020-05-27T17:02:58Z</time>
      </trkpt>
      <trkpt lat="47.22276" lon="-1.49684">
        <ele>2.36</ele>
        <time>2020-05-27T17:03:00Z</time>
      </trkpt>
      <trkpt lat="47.22269" lon="-1.49702">
        <ele>3.3</ele>
        <time>2020-05-27T17:03:02Z</time>
      </trkpt>
      <trkpt lat="47.22263" lon="-1.4972">
        <ele>4.49</ele>
        <time>2020-05-27T17:03:04Z</time>
      </trkpt>
      <trkpt lat="47.22258" lon="-1.49736">
        <ele>5.2</ele>
        <time>2020-05-27T17:03:06Z</time>
      </trkpt>
      <trkpt lat="47.22253" lon="-1.49751">
        <ele>5.24</ele>
        <time>2020-05-27T17:03:08Z</time>
      </trkpt>
      <trkpt lat="47.22252" lon="-1.49771">
        <ele>3.66</ele>
        <time>2020-05-27T17:03:10Z</time>
      </trkpt>
      <trkpt lat="47.2225" lon="-1.4979">
        <ele>2.65</ele>
        <time>2020-05-27T17:03:12Z</time>
      </trkpt>
      <trkpt lat="47.22248" lon="-1.4981">
        <ele>2.6</ele>
        <time>2020-05-27T17:03:14Z</time>
      </trkpt>
      <trkpt lat="47.22245" lon="-1.49827">
        <ele>2.3</ele>
        <time>2020-05-27T17:03:16Z</time>
      </trkpt>
      <trkpt lat="47.22241" lon="-1.49844">
        <ele>1.46</ele>
        <time>2020-05-27T17:03:18Z</time>
      </trkpt>
      <trkpt lat="47.22237" lon="-1.49864">
        <ele>0.92</ele>
        <time>2020-05-27T17:03:20Z</time>
      </trkpt>
      <trkpt lat="47.22233" lon="-1.49882">
        <ele>1.3</ele>
        <time>2020-05-27T17:03:22Z</time>
      </trkpt>
      <trkpt lat="47.22229" lon="-1.49896">
        <ele>0.79</ele>
        <time>2020-05-27T17:03:24Z</time>
      </trkpt>
      <trkpt lat="47.22226" lon="-1.49914">
        <ele>0.24</ele>
        <time>2020-05-27T17:03:26Z</time>
      </trkpt>
      <trkpt lat="47.22222" lon="-1.49932">
        <ele>1.28</ele>
        <time>2020-05-27T17:03:28Z</time>
      </trkpt>
      <trkpt lat="47.22218" lon="-1.4995">
        <ele>3.5</ele>
        <time>2020-05-27T17:03:30Z</time>
      </trkpt>
      <trkpt lat="47.22214" lon="-1.49967">
        <ele>4.7</ele>
        <time>2020-05-27T17:03:32Z</time>
      </trkpt>
      <trkpt lat="47.2221" lon="-1.49985">
        <ele>5.23</ele>
        <time>2020-05-27T17:03:34Z</time>
      </trkpt>
      <trkpt lat="47.22203" lon="-1.50004">
        <ele>4.82</ele>
        <time>2020-05-27T17:03:36Z</time>
      </trkpt>
      <trkpt lat="47.22197" lon="-1.50024">
        <ele>5.17</ele>
        <time>2020-05-27T17:03:38Z</time>
      </trkpt>
      <trkpt lat="47.22191" lon="-1.50042">
        <ele>5.46</ele>
        <time>2020-05-27T17:03:40Z</time>
      </trkpt>
      <trkpt lat="47.22187" lon="-1.50061">
        <ele>4.4</ele>
        <time>2020-05-27T17:03:42Z</time>
      </trkpt>
      <trkpt lat="47.22181" lon="-1.5008">
        <ele>2.74</ele>
        <time>2020-05-27T17:03:44Z</time>
      </trkpt>
      <trkpt lat="47.22176" lon="-1.50099">
        <ele>3.06</ele>
        <time>2020-05-27T17:03:46Z</time>
      </trkpt>
      <trkpt lat="47.22171" lon="-1.5012">
        <ele>3.78</ele>
        <time>2020-05-27T17:03:48Z</time>
      </trkpt>
      <trkpt lat="47.22166" lon="-1.50135">
        <ele>3.93</ele>
        <time>2020-05-27T17:03:50Z</time>
      </trkpt>
      <trkpt lat="47.2216" lon="-1.50151">
        <ele>3.84</ele>
        <time>2020-05-27T17:03:52Z</time>
      </trkpt>
      <trkpt lat="47.22154" lon="-1.5017">
        <ele>4.3</ele>
        <time>2020-05-27T17:03:54Z</time>
      </trkpt>
      <trkpt lat="47.22149" lon="-1.50187">
        <ele>4.84</ele>
        <time>2020-05-27T17:03:56Z</time>
      </trkpt>
      <trkpt lat="47.22145" lon="-1.50204">
        <ele>4.75</ele>
        <time>2020-05-27T17:03:58Z</time>
      </trkpt>
      <trkpt lat="47.22141" lon="-1.50221">
        <ele>3.9</ele>
        <time>2020-05-27T17:04:00Z</time>
      </trkpt>
      <trkpt lat="47.22137" lon="-1.50236">
        <ele>3.43</ele>
        <time>2020-05-27T17:04:02Z</time>
      </trkpt>
      <trkpt lat="47.22134" lon="-1.50249">
        <ele>3.01</ele>
        <time>2020-05-27T17:04:04Z</time>
      </trkpt>
      <trkpt lat="47.2213" lon="-1.50262">
        <ele>1.86</ele>
        <time>2020-05-27T17:04:06Z</time>
      </trkpt>
      <trkpt lat="47.22126" lon="-1.50276">
        <ele>0.55</ele>
        <time>2020-05-27T17:04:08Z</time>
      </trkpt>
      <trkpt lat="47.22122" lon="-1.50288">
        <ele>0.54</ele>
        <time>2020-05-27T17:04:10Z</time>
      </trkpt>
      <trkpt lat="47.22116" lon="-1.503">
        <ele>1.19</ele>
        <time>2020-05-27T17:04:12Z</time>
      </trkpt>
      <trkpt lat="47.22108" lon="-1.50315">
        <ele>0.65</ele>
        <time>2020-05-27T17:04:14Z</time>
      </trkpt>
      <trkpt lat="47.221" lon="-1.50335">
        <ele>0.12</ele>
        <time>2020-05-27T17:04:16Z</time>
      </trkpt>
      <trkpt lat="47.22095" lon="-1.50352">
        <ele>-0.92</ele>
        <time>2020-05-27T17:04:18Z</time>
      </trkpt>
      <trkpt lat="47.22089" lon="-1.50371">
        <ele>-1.83</ele>
        <time>2020-05-27T17:04:20Z</time>
      </trkpt>
      <trkpt lat="47.22083" lon="-1.50389">
        <ele>-2.32</ele>
        <time>2020-05-27T17:04:22Z</time>
      </trkpt>
      <trkpt lat="47.22079" lon="-1.50405">
        <ele>-2.16</ele>
        <time>2020-05-27T17:04:24Z</time>
      </trkpt>
      <trkpt lat="47.22074" lon="-1.50423">
        <ele>-1.05</ele>
        <time>2020-05-27T17:04:26Z</time>
      </trkpt>
      <trkpt lat="47.2207" lon="-1.50438">
        <ele>0.68</ele>
        <time>2020-05-27T17:04:28Z</time>
      </trkpt>
      <trkpt lat="47.22067" lon="-1.50457">
        <ele>1.33</ele>
        <time>2020-05-27T17:04:30Z</time>
      </trkpt>
      <trkpt lat="47.22064" lon="-1.50475">
        <ele>2.93</ele>
        <time>2020-05-27T17:04:32Z</time>
      </trkpt>
      <trkpt lat="47.22061" lon="-1.50493">
        <ele>3.82</ele>
        <time>2020-05-27T17:04:34Z</time>
      </trkpt>
      <trkpt lat="47.2206" lon="-1.50513">
        <ele>3.38</ele>
        <time>2020-05-27T17:04:36Z</time>
      </trkpt>
      <trkpt lat="47.22059" lon="-1.50532">
        <ele>3.91</ele>
        <time>2020-05-27T17:04:38Z</time>
      </trkpt>
      <trkpt lat="47.22059" lon="-1.50551">
        <ele>4.86</ele>
        <time>2020-05-27T17:04:40Z</time>
      </trkpt>
      <trkpt lat="47.22059" lon="-1.50569">
        <ele>5.35</ele>
        <time>2020-05-27T17:04:42Z</time>
      </trkpt>
      <trkpt lat="47.22059" lon="-1.50586">
        <ele>5.69</ele>
        <time>2020-05-27T17:04:44Z</time>
      </trkpt>
      <trkpt lat="47.22058" lon="-1.50605">
        <ele>5.62</ele>
        <time>2020-05-27T17:04:46Z</time>
      </trkpt>
      <trkpt lat="47.22056" lon="-1.50626">
        <ele>3.95</ele>
        <time>2020-05-27T17:04:48Z</time>
      </trkpt>
      <trkpt lat="47.22055" lon="-1.50646">
        <ele>2.64</ele>
        <time>2020-05-27T17:04:50Z</time>
      </trkpt>
      <trkpt lat="47.22053" lon="-1.50664">
        <ele>2.12</ele>
        <time>2020-05-27T17:04:52Z</time>
      </trkpt>
      <trkpt lat="47.22053" lon="-1.50684">
        <ele>0.77</ele>
        <time>2020-05-27T17:04:55Z</time>
      </trkpt>
      <trkpt lat="47.22053" lon="-1.50703">
        <ele>0.79</ele>
        <time>2020-05-27T17:04:57Z</time>
      </trkpt>
      <trkpt lat="47.2205" lon="-1.50722">
        <ele>-0.09</ele>
        <time>2020-05-27T17:04:59Z</time>
      </trkpt>
      <trkpt lat="47.22046" lon="-1.5074">
        <ele>0.81</ele>
        <time>2020-05-27T17:05:01Z</time>
      </trkpt>
      <trkpt lat="47.22042" lon="-1.50757">
        <ele>2.8</ele>
        <time>2020-05-27T17:05:03Z</time>
      </trkpt>
      <trkpt lat="47.22039" lon="-1.50772">
        <ele>4.59</ele>
        <time>2020-05-27T17:05:05Z</time>
      </trkpt>
      <trkpt lat="47.22034" lon="-1.5079">
        <ele>4.04</ele>
        <time>2020-05-27T17:05:07Z</time>
      </trkpt>
      <trkpt lat="47.22029" lon="-1.50807">
        <ele>2.09</ele>
        <time>2020-05-27T17:05:09Z</time>
      </trkpt>
      <trkpt lat="47.22023" lon="-1.50824">
        <ele>-0.04</ele>
        <time>2020-05-27T17:05:11Z</time>
      </trkpt>
      <trkpt lat="47.22018" lon="-1.50839">
        <ele>-0.86</ele>
        <time>2020-05-27T17:05:13Z</time>
      </trkpt>
      <trkpt lat="47.22013" lon="-1.50853">
        <ele>-1.57</ele>
        <time>2020-05-27T17:05:15Z</time>
      </trkpt>
      <trkpt lat="47.22006" lon="-1.50871">
        <ele>-0.94</ele>
        <time>2020-05-27T17:05:17Z</time>
      </trkpt>
      <trkpt lat="47.21999" lon="-1.50891">
        <ele>-0.14</ele>
        <time>2020-05-27T17:05:19Z</time>
      </trkpt>
      <trkpt lat="47.21993" lon="-1.50908">
        <ele>1.12</ele>
        <time>2020-05-27T17:05:21Z</time>
      </trkpt>
      <trkpt lat="47.21988" lon="-1.50925">
        <ele>2.48</ele>
        <time>2020-05-27T17:05:23Z</time>
      </trkpt>
      <trkpt lat="47.21983" lon="-1.50942">
        <ele>3.02</ele>
        <time>2020-05-27T17:05:25Z</time>
      </trkpt>
      <trkpt lat="47.21978" lon="-1.5096">
        <ele>3.16</ele>
        <time>2020-05-27T17:05:27Z</time>
      </trkpt>
      <trkpt lat="47.21972" lon="-1.50979">
        <ele>3.54</ele>
        <time>2020-05-27T17:05:29Z</time>
      </trkpt>
      <trkpt lat="47.21966" lon="-1.50997">
        <ele>3.53</ele>
        <time>2020-05-27T17:05:31Z</time>
      </trkpt>
      <trkpt lat="47.21961" lon="-1.51016">
        <ele>2.51</ele>
        <time>2020-05-27T17:05:33Z</time>
      </trkpt>
      <trkpt lat="47.21955" lon="-1.51035">
        <ele>1.63</ele>
        <time>2020-05-27T17:05:35Z</time>
      </trkpt>
      <trkpt lat="47.21951" lon="-1.5105">
        <ele>2.14</ele>
        <time>2020-05-27T17:05:37Z</time>
      </trkpt>
      <trkpt lat="47.21946" lon="-1.51062">
        <ele>2.03</ele>
        <time>2020-05-27T17:05:39Z</time>
      </trkpt>
      <trkpt lat="47.21939" lon="-1.51075">
        <ele>1.12</ele>
        <time>2020-05-27T17:05:41Z</time>
      </trkpt>
      <trkpt lat="47.21931" lon="-1.5109">
        <ele>1.43</ele>
        <time>2020-05-27T17:05:43Z</time>
      </trkpt>
      <trkpt lat="47.21923" lon="-1.51108">
        <ele>1.93</ele>
        <time>2020-05-27T17:05:45Z</time>
      </trkpt>
      <trkpt lat="47.21917" lon="-1.51126">
        <ele>2.35</ele>
        <time>2020-05-27T17:05:47Z</time>
      </trkpt>
      <trkpt lat="47.21912" lon="-1.51144">
        <ele>2.32</ele>
        <time>2020-05-27T17:05:49Z</time>
      </trkpt>
      <trkpt lat="47.21906" lon="-1.51162">
        <ele>1.17</ele>
        <time>2020-05-27T17:05:51Z</time>
      </trkpt>
      <trkpt lat="47.219" lon="-1.5118">
        <ele>1.19</ele>
        <time>2020-05-27T17:05:53Z</time>
      </trkpt>
      <trkpt lat="47.21894" lon="-1.51198">
        <ele>1.01</ele>
        <time>2020-05-27T17:05:55Z</time>
      </trkpt>
      <trkpt lat="47.21888" lon="-1.51216">
        <ele>1.43</ele>
        <time>2020-05-27T17:05:57Z</time>
      </trkpt>
      <trkpt lat="47.21882" lon="-1.51233">
        <ele>2.43</ele>
        <time>2020-05-27T17:05:59Z</time>
      </trkpt>
      <trkpt lat="47.21876" lon="-1.5125">
        <ele>3.36</ele>
        <time>2020-05-27T17:06:01Z</time>
      </trkpt>
      <trkpt lat="47.2187" lon="-1.51267">
        <ele>3.19</ele>
        <time>2020-05-27T17:06:03Z</time>
      </trkpt>
      <trkpt lat="47.21866" lon="-1.51282">
        <ele>2.38</ele>
        <time>2020-05-27T17:06:05Z</time>
      </trkpt>
      <trkpt lat="47.21861" lon="-1.513">
        <ele>2.02</ele>
        <time>2020-05-27T17:06:07Z</time>
      </trkpt>
      <trkpt lat="47.21855" lon="-1.51317">
        <ele>1.75</ele>
        <time>2020-05-27T17:06:09Z</time>
      </trkpt>
      <trkpt lat="47.2185" lon="-1.51335">
        <ele>1.7</ele>
        <time>2020-05-27T17:06:11Z</time>
      </trkpt>
      <trkpt lat="47.21844" lon="-1.51353">
        <ele>1.28</ele>
        <time>2020-05-27T17:06:13Z</time>
      </trkpt>
      <trkpt lat="47.2184" lon="-1.5137">
        <ele>0.88</ele>
        <time>2020-05-27T17:06:15Z</time>
      </trkpt>
      <trkpt lat="47.21836" lon="-1.51386">
        <ele>1.65</ele>
        <time>2020-05-27T17:06:17Z</time>
      </trkpt>
      <trkpt lat="47.21833" lon="-1.51403">
        <ele>2.43</ele>
        <time>2020-05-27T17:06:19Z</time>
      </trkpt>
      <trkpt lat="47.21829" lon="-1.51421">
        <ele>2.4</ele>
        <time>2020-05-27T17:06:21Z</time>
      </trkpt>
      <trkpt lat="47.21825" lon="-1.5144">
        <ele>1.25</ele>
        <time>2020-05-27T17:06:23Z</time>
      </trkpt>
      <trkpt lat="47.21821" lon="-1.51457">
        <ele>0.57</ele>
        <time>2020-05-27T17:06:25Z</time>
      </trkpt>
      <trkpt lat="47.21818" lon="-1.51474">
        <ele>-0.47</ele>
        <time>2020-05-27T17:06:27Z</time>
      </trkpt>
      <trkpt lat="47.21814" lon="-1.51493">
        <ele>-1.05</ele>
        <time>2020-05-27T17:06:29Z</time>
      </trkpt>
      <trkpt lat="47.21809" lon="-1.51508">
        <ele>-0.6</ele>
        <time>2020-05-27T17:06:31Z</time>
      </trkpt>
      <trkpt lat="47.21802" lon="-1.51523">
        <ele>1.17</ele>
        <time>2020-05-27T17:06:33Z</time>
      </trkpt>
      <trkpt lat="47.21796" lon="-1.51537">
        <ele>2.26</ele>
        <time>2020-05-27T17:06:35Z</time>
      </trkpt>
      <trkpt lat="47.2179" lon="-1.51552">
        <ele>2.89</ele>
        <time>2020-05-27T17:06:37Z</time>
      </trkpt>
      <trkpt lat="47.21783" lon="-1.51567">
        <ele>3.03</ele>
        <time>2020-05-27T17:06:39Z</time>
      </trkpt>
      <trkpt lat="47.21776" lon="-1.51581">
        <ele>3.49</ele>
        <time>2020-05-27T17:06:41Z</time>
      </trkpt>
      <trkpt lat="47.21769" lon="-1.51595">
        <ele>3.75</ele>
        <time>2020-05-27T17:06:43Z</time>
      </trkpt>
      <trkpt lat="47.21759" lon="-1.51609">
        <ele>3.56</ele>
        <time>2020-05-27T17:06:45Z</time>
      </trkpt>
      <trkpt lat="47.21752" lon="-1.51619">
        <ele>3.36</ele>
        <time>2020-05-27T17:06:47Z</time>
      </trkpt>
      <trkpt lat="47.21744" lon="-1.51633">
        <ele>4.24</ele>
        <time>2020-05-27T17:06:49Z</time>
      </trkpt>
      <trkpt lat="47.21737" lon="-1.51647">
        <ele>4.69</ele>
        <time>2020-05-27T17:06:51Z</time>
      </trkpt>
      <trkpt lat="47.21731" lon="-1.51662">
        <ele>5.31</ele>
        <time>2020-05-27T17:06:53Z</time>
      </trkpt>
      <trkpt lat="47.21724" lon="-1.51678">
        <ele>5.52</ele>
        <time>2020-05-27T17:06:55Z</time>
      </trkpt>
      <trkpt lat="47.21718" lon="-1.51693">
        <ele>5.08</ele>
        <time>2020-05-27T17:06:57Z</time>
      </trkpt>
      <trkpt lat="47.21711" lon="-1.51711">
        <ele>3.49</ele>
        <time>2020-05-27T17:06:59Z</time>
      </trkpt>
      <trkpt lat="47.21704" lon="-1.51727">
        <ele>2.57</ele>
        <time>2020-05-27T17:07:01Z</time>
      </trkpt>
      <trkpt lat="47.21697" lon="-1.51743">
        <ele>2.93</ele>
        <time>2020-05-27T17:07:03Z</time>
      </trkpt>
      <trkpt lat="47.2169" lon="-1.5176">
        <ele>2.68</ele>
        <time>2020-05-27T17:07:05Z</time>
      </trkpt>
      <trkpt lat="47.21683" lon="-1.51775">
        <ele>2.76</ele>
        <time>2020-05-27T17:07:07Z</time>
      </trkpt>
      <trkpt lat="47.21676" lon="-1.5179">
        <ele>3.64</ele>
        <time>2020-05-27T17:07:09Z</time>
      </trkpt>
      <trkpt lat="47.21669" lon="-1.51806">
        <ele>5.01</ele>
        <time>2020-05-27T17:07:11Z</time>
      </trkpt>
      <trkpt lat="47.21662" lon="-1.51819">
        <ele>6.47</ele>
        <time>2020-05-27T17:07:13Z</time>
      </trkpt>
      <trkpt lat="47.21656" lon="-1.51835">
        <ele>6.36</ele>
        <time>2020-05-27T17:07:15Z</time>
      </trkpt>
      <trkpt lat="47.2165" lon="-1.51852">
        <ele>4.82</ele>
        <time>2020-05-27T17:07:17Z</time>
      </trkpt>
      <trkpt lat="47.21646" lon="-1.51872">
        <ele>3.85</ele>
        <time>2020-05-27T17:07:19Z</time>
      </trkpt>
      <trkpt lat="47.21642" lon="-1.51894">
        <ele>2.51</ele>
        <time>2020-05-27T17:07:21Z</time>
      </trkpt>
      <trkpt lat="47.21636" lon="-1.51905">
        <ele>1.65</ele>
        <time>2020-05-27T17:07:23Z</time>
      </trkpt>
      <trkpt lat="47.2163" lon="-1.51921">
        <ele>2.11</ele>
        <time>2020-05-27T17:07:25Z</time>
      </trkpt>
      <trkpt lat="47.21624" lon="-1.5194">
        <ele>2.1</ele>
        <time>2020-05-27T17:07:27Z</time>
      </trkpt>
      <trkpt lat="47.21621" lon="-1.51957">
        <ele>1.95</ele>
        <time>2020-05-27T17:07:29Z</time>
      </trkpt>
      <trkpt lat="47.21616" lon="-1.51969">
        <ele>1.84</ele>
        <time>2020-05-27T17:07:31Z</time>
      </trkpt>
      <trkpt lat="47.21609" lon="-1.51986">
        <ele>2.3</ele>
        <time>2020-05-27T17:07:33Z</time>
      </trkpt>
      <trkpt lat="47.21603" lon="-1.52003">
        <ele>2.83</ele>
        <time>2020-05-27T17:07:35Z</time>
      </trkpt>
      <trkpt lat="47.21597" lon="-1.52019">
        <ele>2.94</ele>
        <time>2020-05-27T17:07:37Z</time>
      </trkpt>
      <trkpt lat="47.21591" lon="-1.52037">
        <ele>3.19</ele>
        <time>2020-05-27T17:07:39Z</time>
      </trkpt>
      <trkpt lat="47.21585" lon="-1.52054">
        <ele>3.54</ele>
        <time>2020-05-27T17:07:41Z</time>
      </trkpt>
      <trkpt lat="47.2158" lon="-1.52069">
        <ele>4.19</ele>
        <time>2020-05-27T17:07:43Z</time>
      </trkpt>
      <trkpt lat="47.21575" lon="-1.52086">
        <ele>4.07</ele>
        <time>2020-05-27T17:07:45Z</time>
      </trkpt>
      <trkpt lat="47.2157" lon="-1.52103">
        <ele>3.94</ele>
        <time>2020-05-27T17:07:47Z</time>
      </trkpt>
      <trkpt lat="47.21565" lon="-1.52119">
        <ele>3.94</ele>
        <time>2020-05-27T17:07:49Z</time>
      </trkpt>
      <trkpt lat="47.2156" lon="-1.52135">
        <ele>4.18</ele>
        <time>2020-05-27T17:07:51Z</time>
      </trkpt>
      <trkpt lat="47.21554" lon="-1.52153">
        <ele>4.37</ele>
        <time>2020-05-27T17:07:53Z</time>
      </trkpt>
      <trkpt lat="47.21548" lon="-1.52173">
        <ele>6.2</ele>
        <time>2020-05-27T17:07:55Z</time>
      </trkpt>
      <trkpt lat="47.21542" lon="-1.52192">
        <ele>6.21</ele>
        <time>2020-05-27T17:07:57Z</time>
      </trkpt>
      <trkpt lat="47.21536" lon="-1.52211">
        <ele>6.71</ele>
        <time>2020-05-27T17:07:59Z</time>
      </trkpt>
      <trkpt lat="47.21531" lon="-1.52228">
        <ele>6.54</ele>
        <time>2020-05-27T17:08:01Z</time>
      </trkpt>
      <trkpt lat="47.21525" lon="-1.52244">
        <ele>5.69</ele>
        <time>2020-05-27T17:08:03Z</time>
      </trkpt>
      <trkpt lat="47.21519" lon="-1.52263">
        <ele>5.3</ele>
        <time>2020-05-27T17:08:05Z</time>
      </trkpt>
      <trkpt lat="47.21512" lon="-1.52282">
        <ele>5.24</ele>
        <time>2020-05-27T17:08:07Z</time>
      </trkpt>
      <trkpt lat="47.21508" lon="-1.52299">
        <ele>3.95</ele>
        <time>2020-05-27T17:08:09Z</time>
      </trkpt>
      <trkpt lat="47.21502" lon="-1.52317">
        <ele>2.99</ele>
        <time>2020-05-27T17:08:11Z</time>
      </trkpt>
      <trkpt lat="47.21496" lon="-1.52335">
        <ele>2.49</ele>
        <time>2020-05-27T17:08:13Z</time>
      </trkpt>
      <trkpt lat="47.2149" lon="-1.52353">
        <ele>2.45</ele>
        <time>2020-05-27T17:08:15Z</time>
      </trkpt>
      <trkpt lat="47.21483" lon="-1.52375">
        <ele>2.18</ele>
        <time>2020-05-27T17:08:17Z</time>
      </trkpt>
      <trkpt lat="47.21477" lon="-1.52392">
        <ele>2.72</ele>
        <time>2020-05-27T17:08:19Z</time>
      </trkpt>
      <trkpt lat="47.21472" lon="-1.52407">
        <ele>2.69</ele>
        <time>2020-05-27T17:08:21Z</time>
      </trkpt>
      <trkpt lat="47.21467" lon="-1.52424">
        <ele>2.86</ele>
        <time>2020-05-27T17:08:23Z</time>
      </trkpt>
      <trkpt lat="47.21461" lon="-1.52441">
        <ele>4.69</ele>
        <time>2020-05-27T17:08:25Z</time>
      </trkpt>
      <trkpt lat="47.21457" lon="-1.52455">
        <ele>5.16</ele>
        <time>2020-05-27T17:08:27Z</time>
      </trkpt>
      <trkpt lat="47.21452" lon="-1.52471">
        <ele>5.53</ele>
        <time>2020-05-27T17:08:29Z</time>
      </trkpt>
      <trkpt lat="47.21446" lon="-1.52488">
        <ele>6.24</ele>
        <time>2020-05-27T17:08:31Z</time>
      </trkpt>
      <trkpt lat="47.2144" lon="-1.52508">
        <ele>5.53</ele>
        <time>2020-05-27T17:08:33Z</time>
      </trkpt>
      <trkpt lat="47.21435" lon="-1.52525">
        <ele>4.42</ele>
        <time>2020-05-27T17:08:35Z</time>
      </trkpt>
      <trkpt lat="47.2143" lon="-1.52544">
        <ele>3.94</ele>
        <time>2020-05-27T17:08:37Z</time>
      </trkpt>
      <trkpt lat="47.21424" lon="-1.52564">
        <ele>3.04</ele>
        <time>2020-05-27T17:08:39Z</time>
      </trkpt>
      <trkpt lat="47.21418" lon="-1.52581">
        <ele>1.54</ele>
        <time>2020-05-27T17:08:41Z</time>
      </trkpt>
      <trkpt lat="47.21413" lon="-1.52599">
        <ele>2.26</ele>
        <time>2020-05-27T17:08:43Z</time>
      </trkpt>
      <trkpt lat="47.21407" lon="-1.52614">
        <ele>2.6</ele>
        <time>2020-05-27T17:08:45Z</time>
      </trkpt>
      <trkpt lat="47.21402" lon="-1.52631">
        <ele>2.76</ele>
        <time>2020-05-27T17:08:47Z</time>
      </trkpt>
      <trkpt lat="47.21398" lon="-1.52647">
        <ele>1.59</ele>
        <time>2020-05-27T17:08:50Z</time>
      </trkpt>
      <trkpt lat="47.21395" lon="-1.5266">
        <ele>0.92</ele>
        <time>2020-05-27T17:08:52Z</time>
      </trkpt>
      <trkpt lat="47.2139" lon="-1.52677">
        <ele>1.5</ele>
        <time>2020-05-27T17:08:54Z</time>
      </trkpt>
      <trkpt lat="47.21385" lon="-1.52693">
        <ele>3.13</ele>
        <time>2020-05-27T17:08:56Z</time>
      </trkpt>
      <trkpt lat="47.2138" lon="-1.52711">
        <ele>6.2</ele>
        <time>2020-05-27T17:08:58Z</time>
      </trkpt>
      <trkpt lat="47.21375" lon="-1.52728">
        <ele>8.86</ele>
        <time>2020-05-27T17:09:00Z</time>
      </trkpt>
      <trkpt lat="47.2137" lon="-1.52751">
        <ele>10.59</ele>
        <time>2020-05-27T17:09:02Z</time>
      </trkpt>
      <trkpt lat="47.21367" lon="-1.52773">
        <ele>11.26</ele>
        <time>2020-05-27T17:09:04Z</time>
      </trkpt>
      <trkpt lat="47.21365" lon="-1.52789">
        <ele>12.24</ele>
        <time>2020-05-27T17:09:06Z</time>
      </trkpt>
      <trkpt lat="47.21362" lon="-1.52805">
        <ele>12.31</ele>
        <time>2020-05-27T17:09:08Z</time>
      </trkpt>
      <trkpt lat="47.21359" lon="-1.52821">
        <ele>10.94</ele>
        <time>2020-05-27T17:09:10Z</time>
      </trkpt>
      <trkpt lat="47.21355" lon="-1.5284">
        <ele>10.07</ele>
        <time>2020-05-27T17:09:13Z</time>
      </trkpt>
      <trkpt lat="47.21351" lon="-1.52858">
        <ele>9.98</ele>
        <time>2020-05-27T17:09:15Z</time>
      </trkpt>
      <trkpt lat="47.21347" lon="-1.52876">
        <ele>8.47</ele>
        <time>2020-05-27T17:09:17Z</time>
      </trkpt>
      <trkpt lat="47.21345" lon="-1.52893">
        <ele>6.8</ele>
        <time>2020-05-27T17:09:19Z</time>
      </trkpt>
      <trkpt lat="47.21343" lon="-1.52907">
        <ele>5.13</ele>
        <time>2020-05-27T17:09:22Z</time>
      </trkpt>
      <trkpt lat="47.2135" lon="-1.52899">
        <ele>4.67</ele>
        <time>2020-05-27T17:14:45Z</time>
      </trkpt>
      <trkpt lat="47.21342" lon="-1.52907">
        <ele>4.82</ele>
        <time>2020-05-27T17:21:57Z</time>
      </trkpt>
      <trkpt lat="47.21351" lon="-1.52902">
        <ele>3.89</ele>
        <time>2020-05-27T17:23:49Z</time>
      </trkpt>
      <trkpt lat="47.21343" lon="-1.52909">
        <ele>4.31</ele>
        <time>2020-05-27T17:25:41Z</time>
      </trkpt>
      <trkpt lat="47.21341" lon="-1.52926">
        <ele>4.42</ele>
        <time>2020-05-27T17:25:45Z</time>
      </trkpt>
      <trkpt lat="47.21342" lon="-1.52943">
        <ele>2.78</ele>
        <time>2020-05-27T17:25:48Z</time>
      </trkpt>
      <trkpt lat="47.21342" lon="-1.52971">
        <ele>-0.11</ele>
        <time>2020-05-27T17:25:50Z</time>
      </trkpt>
      <trkpt lat="47.21341" lon="-1.52986">
        <ele>-0.77</ele>
        <time>2020-05-27T17:25:52Z</time>
      </trkpt>
      <trkpt lat="47.21337" lon="-1.53004">
        <ele>0.9</ele>
        <time>2020-05-27T17:25:55Z</time>
      </trkpt>
      <trkpt lat="47.21333" lon="-1.53021">
        <ele>2.86</ele>
        <time>2020-05-27T17:25:57Z</time>
      </trkpt>
      <trkpt lat="47.21331" lon="-1.53037">
        <ele>4.28</ele>
        <time>2020-05-27T17:25:59Z</time>
      </trkpt>
      <trkpt lat="47.21329" lon="-1.53054">
        <ele>5.48</ele>
        <time>2020-05-27T17:26:01Z</time>
      </trkpt>
      <trkpt lat="47.21327" lon="-1.53073">
        <ele>6.56</ele>
        <time>2020-05-27T17:26:03Z</time>
      </trkpt>
      <trkpt lat="47.21327" lon="-1.5309">
        <ele>6.23</ele>
        <time>2020-05-27T17:26:05Z</time>
      </trkpt>
      <trkpt lat="47.21327" lon="-1.53105">
        <ele>6.29</ele>
        <time>2020-05-27T17:26:07Z</time>
      </trkpt>
      <trkpt lat="47.21324" lon="-1.53126">
        <ele>5.24</ele>
        <time>2020-05-27T17:26:09Z</time>
      </trkpt>
      <trkpt lat="47.2132" lon="-1.53148">
        <ele>3.99</ele>
        <time>2020-05-27T17:26:11Z</time>
      </trkpt>
      <trkpt lat="47.21317" lon="-1.5317">
        <ele>2.51</ele>
        <time>2020-05-27T17:26:13Z</time>
      </trkpt>
      <trkpt lat="47.21315" lon="-1.53191">
        <ele>1.08</ele>
        <time>2020-05-27T17:26:15Z</time>
      </trkpt>
      <trkpt lat="47.21312" lon="-1.53211">
        <ele>0.7</ele>
        <time>2020-05-27T17:26:17Z</time>
      </trkpt>
      <trkpt lat="47.2131" lon="-1.53232">
        <ele>1.77</ele>
        <time>2020-05-27T17:26:19Z</time>
      </trkpt>
      <trkpt lat="47.21309" lon="-1.53246">
        <ele>2.61</ele>
        <time>2020-05-27T17:26:20Z</time>
      </trkpt>
      <trkpt lat="47.21307" lon="-1.53266">
        <ele>3.87</ele>
        <time>2020-05-27T17:26:22Z</time>
      </trkpt>
      <trkpt lat="47.21308" lon="-1.53288">
        <ele>4.52</ele>
        <time>2020-05-27T17:26:24Z</time>
      </trkpt>
      <trkpt lat="47.21308" lon="-1.53309">
        <ele>5.47</ele>
        <time>2020-05-27T17:26:26Z</time>
      </trkpt>
      <trkpt lat="47.21307" lon="-1.53326">
        <ele>5.83</ele>
        <time>2020-05-27T17:26:28Z</time>
      </trkpt>
      <trkpt lat="47.21304" lon="-1.53344">
        <ele>5.96</ele>
        <time>2020-05-27T17:26:30Z</time>
      </trkpt>
      <trkpt lat="47.21298" lon="-1.53364">
        <ele>5.12</ele>
        <time>2020-05-27T17:26:32Z</time>
      </trkpt>
      <trkpt lat="47.21295" lon="-1.53383">
        <ele>3.54</ele>
        <time>2020-05-27T17:26:34Z</time>
      </trkpt>
      <trkpt lat="47.21292" lon="-1.53403">
        <ele>2.97</ele>
        <time>2020-05-27T17:26:36Z</time>
      </trkpt>
      <trkpt lat="47.2129" lon="-1.53423">
        <ele>3.51</ele>
        <time>2020-05-27T17:26:38Z</time>
      </trkpt>
      <trkpt lat="47.21288" lon="-1.53447">
        <ele>3.65</ele>
        <time>2020-05-27T17:26:40Z</time>
      </trkpt>
      <trkpt lat="47.21293" lon="-1.53464">
        <ele>3.86</ele>
        <time>2020-05-27T17:26:42Z</time>
      </trkpt>
      <trkpt lat="47.21298" lon="-1.53484">
        <ele>4.07</ele>
        <time>2020-05-27T17:26:44Z</time>
      </trkpt>
      <trkpt lat="47.213" lon="-1.53505">
        <ele>4.66</ele>
        <time>2020-05-27T17:26:46Z</time>
      </trkpt>
      <trkpt lat="47.21301" lon="-1.53521">
        <ele>4.92</ele>
        <time>2020-05-27T17:26:48Z</time>
      </trkpt>
      <trkpt lat="47.21302" lon="-1.53543">
        <ele>5.94</ele>
        <time>2020-05-27T17:26:50Z</time>
      </trkpt>
      <trkpt lat="47.21303" lon="-1.53563">
        <ele>6.71</ele>
        <time>2020-05-27T17:26:52Z</time>
      </trkpt>
      <trkpt lat="47.21303" lon="-1.53581">
        <ele>6.19</ele>
        <time>2020-05-27T17:26:54Z</time>
      </trkpt>
      <trkpt lat="47.21303" lon="-1.53599">
        <ele>6</ele>
        <time>2020-05-27T17:26:56Z</time>
      </trkpt>
      <trkpt lat="47.21303" lon="-1.53618">
        <ele>6.38</ele>
        <time>2020-05-27T17:26:58Z</time>
      </trkpt>
      <trkpt lat="47.21296" lon="-1.53633">
        <ele>6.68</ele>
        <time>2020-05-27T17:27:00Z</time>
      </trkpt>
      <trkpt lat="47.21292" lon="-1.53648">
        <ele>6.95</ele>
        <time>2020-05-27T17:27:04Z</time>
      </trkpt>
      <trkpt lat="47.2129" lon="-1.53667">
        <ele>7.02</ele>
        <time>2020-05-27T17:27:07Z</time>
      </trkpt>
      <trkpt lat="47.21292" lon="-1.53682">
        <ele>6.72</ele>
        <time>2020-05-27T17:27:09Z</time>
      </trkpt>
      <trkpt lat="47.21298" lon="-1.53701">
        <ele>6.09</ele>
        <time>2020-05-27T17:27:12Z</time>
      </trkpt>
      <trkpt lat="47.21302" lon="-1.53721">
        <ele>5.67</ele>
        <time>2020-05-27T17:27:14Z</time>
      </trkpt>
      <trkpt lat="47.21306" lon="-1.53736">
        <ele>5.86</ele>
        <time>2020-05-27T17:27:16Z</time>
      </trkpt>
      <trkpt lat="47.21311" lon="-1.53754">
        <ele>6.17</ele>
        <time>2020-05-27T17:27:18Z</time>
      </trkpt>
      <trkpt lat="47.21314" lon="-1.53774">
        <ele>5.22</ele>
        <time>2020-05-27T17:27:20Z</time>
      </trkpt>
      <trkpt lat="47.21317" lon="-1.53792">
        <ele>5.07</ele>
        <time>2020-05-27T17:27:22Z</time>
      </trkpt>
      <trkpt lat="47.21319" lon="-1.53813">
        <ele>5.79</ele>
        <time>2020-05-27T17:27:24Z</time>
      </trkpt>
      <trkpt lat="47.21321" lon="-1.53833">
        <ele>6.73</ele>
        <time>2020-05-27T17:27:26Z</time>
      </trkpt>
      <trkpt lat="47.21324" lon="-1.53851">
        <ele>6.3</ele>
        <time>2020-05-27T17:27:28Z</time>
      </trkpt>
      <trkpt lat="47.21326" lon="-1.53869">
        <ele>5.85</ele>
        <time>2020-05-27T17:27:30Z</time>
      </trkpt>
      <trkpt lat="47.21327" lon="-1.53889">
        <ele>6.1</ele>
        <time>2020-05-27T17:27:32Z</time>
      </trkpt>
      <trkpt lat="47.2133" lon="-1.53906">
        <ele>4.75</ele>
        <time>2020-05-27T17:27:34Z</time>
      </trkpt>
      <trkpt lat="47.21338" lon="-1.53924">
        <ele>4.86</ele>
        <time>2020-05-27T17:27:36Z</time>
      </trkpt>
      <trkpt lat="47.21349" lon="-1.53933">
        <ele>5.28</ele>
        <time>2020-05-27T17:27:38Z</time>
      </trkpt>
      <trkpt lat="47.21363" lon="-1.53942">
        <ele>6.19</ele>
        <time>2020-05-27T17:27:40Z</time>
      </trkpt>
      <trkpt lat="47.21376" lon="-1.53947">
        <ele>5.85</ele>
        <time>2020-05-27T17:27:42Z</time>
      </trkpt>
      <trkpt lat="47.21381" lon="-1.53965">
        <ele>4.99</ele>
        <time>2020-05-27T17:27:44Z</time>
      </trkpt>
      <trkpt lat="47.21383" lon="-1.53985">
        <ele>4.05</ele>
        <time>2020-05-27T17:27:46Z</time>
      </trkpt>
      <trkpt lat="47.21384" lon="-1.54009">
        <ele>2.8</ele>
        <time>2020-05-27T17:27:48Z</time>
      </trkpt>
      <trkpt lat="47.21393" lon="-1.54025">
        <ele>3</ele>
        <time>2020-05-27T17:27:50Z</time>
      </trkpt>
      <trkpt lat="47.21403" lon="-1.54039">
        <ele>3.57</ele>
        <time>2020-05-27T17:27:52Z</time>
      </trkpt>
      <trkpt lat="47.21412" lon="-1.54051">
        <ele>4.14</ele>
        <time>2020-05-27T17:27:54Z</time>
      </trkpt>
      <trkpt lat="47.21424" lon="-1.54068">
        <ele>4.34</ele>
        <time>2020-05-27T17:27:56Z</time>
      </trkpt>
      <trkpt lat="47.21435" lon="-1.54084">
        <ele>5.31</ele>
        <time>2020-05-27T17:27:58Z</time>
      </trkpt>
      <trkpt lat="47.21446" lon="-1.54101">
        <ele>5.67</ele>
        <time>2020-05-27T17:28:00Z</time>
      </trkpt>
      <trkpt lat="47.21456" lon="-1.54118">
        <ele>5.53</ele>
        <time>2020-05-27T17:28:02Z</time>
      </trkpt>
      <trkpt lat="47.21463" lon="-1.54128">
        <ele>5.52</ele>
        <time>2020-05-27T17:28:03Z</time>
      </trkpt>
      <trkpt lat="47.21472" lon="-1.54143">
        <ele>5.31</ele>
        <time>2020-05-27T17:28:05Z</time>
      </trkpt>
      <trkpt lat="47.21482" lon="-1.54156">
        <ele>4.28</ele>
        <time>2020-05-27T17:28:07Z</time>
      </trkpt>
      <trkpt lat="47.21492" lon="-1.54169">
        <ele>3.13</ele>
        <time>2020-05-27T17:28:09Z</time>
      </trkpt>
      <trkpt lat="47.21504" lon="-1.54186">
        <ele>3.42</ele>
        <time>2020-05-27T17:28:11Z</time>
      </trkpt>
      <trkpt lat="47.21515" lon="-1.54203">
        <ele>3.64</ele>
        <time>2020-05-27T17:28:13Z</time>
      </trkpt>
      <trkpt lat="47.21525" lon="-1.5422">
        <ele>4.42</ele>
        <time>2020-05-27T17:28:15Z</time>
      </trkpt>
      <trkpt lat="47.21534" lon="-1.54234">
        <ele>5.25</ele>
        <time>2020-05-27T17:28:17Z</time>
      </trkpt>
      <trkpt lat="47.2154" lon="-1.54246">
        <ele>5.5</ele>
        <time>2020-05-27T17:28:19Z</time>
      </trkpt>
      <trkpt lat="47.2155" lon="-1.54253">
        <ele>6.06</ele>
        <time>2020-05-27T17:28:21Z</time>
      </trkpt>
      <trkpt lat="47.21563" lon="-1.54256">
        <ele>6.47</ele>
        <time>2020-05-27T17:28:23Z</time>
      </trkpt>
      <trkpt lat="47.21572" lon="-1.54268">
        <ele>7.54</ele>
        <time>2020-05-27T17:28:25Z</time>
      </trkpt>
      <trkpt lat="47.21574" lon="-1.54283">
        <ele>8.05</ele>
        <time>2020-05-27T17:28:27Z</time>
      </trkpt>
      <trkpt lat="47.21579" lon="-1.54303">
        <ele>7.72</ele>
        <time>2020-05-27T17:28:29Z</time>
      </trkpt>
      <trkpt lat="47.21587" lon="-1.5432">
        <ele>8.32</ele>
        <time>2020-05-27T17:28:31Z</time>
      </trkpt>
      <trkpt lat="47.21595" lon="-1.54337">
        <ele>8.86</ele>
        <time>2020-05-27T17:28:33Z</time>
      </trkpt>
      <trkpt lat="47.21599" lon="-1.54354">
        <ele>9.29</ele>
        <time>2020-05-27T17:28:35Z</time>
      </trkpt>
      <trkpt lat="47.21604" lon="-1.5437">
        <ele>9.19</ele>
        <time>2020-05-27T17:28:37Z</time>
      </trkpt>
      <trkpt lat="47.21609" lon="-1.54387">
        <ele>8.5</ele>
        <time>2020-05-27T17:28:39Z</time>
      </trkpt>
      <trkpt lat="47.21612" lon="-1.54402">
        <ele>8.3</ele>
        <time>2020-05-27T17:28:41Z</time>
      </trkpt>
      <trkpt lat="47.21615" lon="-1.54422">
        <ele>8.49</ele>
        <time>2020-05-27T17:28:43Z</time>
      </trkpt>
      <trkpt lat="47.21615" lon="-1.54444">
        <ele>8.51</ele>
        <time>2020-05-27T17:28:45Z</time>
      </trkpt>
      <trkpt lat="47.21614" lon="-1.54463">
        <ele>8.52</ele>
        <time>2020-05-27T17:28:47Z</time>
      </trkpt>
      <trkpt lat="47.2161" lon="-1.54484">
        <ele>8.49</ele>
        <time>2020-05-27T17:28:49Z</time>
      </trkpt>
      <trkpt lat="47.21605" lon="-1.54503">
        <ele>7.95</ele>
        <time>2020-05-27T17:28:51Z</time>
      </trkpt>
      <trkpt lat="47.216" lon="-1.54523">
        <ele>8.24</ele>
        <time>2020-05-27T17:28:53Z</time>
      </trkpt>
      <trkpt lat="47.21593" lon="-1.54541">
        <ele>8.12</ele>
        <time>2020-05-27T17:28:55Z</time>
      </trkpt>
      <trkpt lat="47.21587" lon="-1.54556">
        <ele>6.95</ele>
        <time>2020-05-27T17:28:57Z</time>
      </trkpt>
      <trkpt lat="47.2158" lon="-1.54572">
        <ele>6.38</ele>
        <time>2020-05-27T17:28:59Z</time>
      </trkpt>
      <trkpt lat="47.21572" lon="-1.5459">
        <ele>5.79</ele>
        <time>2020-05-27T17:29:01Z</time>
      </trkpt>
      <trkpt lat="47.21566" lon="-1.54605">
        <ele>6.83</ele>
        <time>2020-05-27T17:29:03Z</time>
      </trkpt>
      <trkpt lat="47.21557" lon="-1.54625">
        <ele>6.86</ele>
        <time>2020-05-27T17:29:05Z</time>
      </trkpt>
      <trkpt lat="47.2155" lon="-1.54645">
        <ele>6.01</ele>
        <time>2020-05-27T17:29:08Z</time>
      </trkpt>
      <trkpt lat="47.21544" lon="-1.54658">
        <ele>4.01</ele>
        <time>2020-05-27T17:29:09Z</time>
      </trkpt>
      <trkpt lat="47.21537" lon="-1.54676">
        <ele>2.63</ele>
        <time>2020-05-27T17:29:12Z</time>
      </trkpt>
      <trkpt lat="47.21531" lon="-1.54698">
        <ele>2.27</ele>
        <time>2020-05-27T17:29:14Z</time>
      </trkpt>
      <trkpt lat="47.21528" lon="-1.5471">
        <ele>2.11</ele>
        <time>2020-05-27T17:29:15Z</time>
      </trkpt>
      <trkpt lat="47.21522" lon="-1.54729">
        <ele>2.31</ele>
        <time>2020-05-27T17:29:17Z</time>
      </trkpt>
      <trkpt lat="47.21516" lon="-1.54749">
        <ele>2.74</ele>
        <time>2020-05-27T17:29:19Z</time>
      </trkpt>
      <trkpt lat="47.2151" lon="-1.54767">
        <ele>3.78</ele>
        <time>2020-05-27T17:29:21Z</time>
      </trkpt>
      <trkpt lat="47.21504" lon="-1.54785">
        <ele>4.61</ele>
        <time>2020-05-27T17:29:23Z</time>
      </trkpt>
      <trkpt lat="47.21497" lon="-1.54802">
        <ele>5.32</ele>
        <time>2020-05-27T17:29:25Z</time>
      </trkpt>
      <trkpt lat="47.21488" lon="-1.5482">
        <ele>4.83</ele>
        <time>2020-05-27T17:29:27Z</time>
      </trkpt>
      <trkpt lat="47.21478" lon="-1.54838">
        <ele>3.4</ele>
        <time>2020-05-27T17:29:29Z</time>
      </trkpt>
      <trkpt lat="47.21468" lon="-1.54859">
        <ele>3.04</ele>
        <time>2020-05-27T17:29:31Z</time>
      </trkpt>
      <trkpt lat="47.21459" lon="-1.54878">
        <ele>2.98</ele>
        <time>2020-05-27T17:29:33Z</time>
      </trkpt>
      <trkpt lat="47.2145" lon="-1.54895">
        <ele>2.42</ele>
        <time>2020-05-27T17:29:35Z</time>
      </trkpt>
      <trkpt lat="47.21441" lon="-1.54912">
        <ele>3.6</ele>
        <time>2020-05-27T17:29:37Z</time>
      </trkpt>
      <trkpt lat="47.21433" lon="-1.54928">
        <ele>4.33</ele>
        <time>2020-05-27T17:29:39Z</time>
      </trkpt>
      <trkpt lat="47.21425" lon="-1.54945">
        <ele>4.79</ele>
        <time>2020-05-27T17:29:41Z</time>
      </trkpt>
      <trkpt lat="47.21416" lon="-1.54962">
        <ele>3.83</ele>
        <time>2020-05-27T17:29:43Z</time>
      </trkpt>
      <trkpt lat="47.21406" lon="-1.54982">
        <ele>2.5</ele>
        <time>2020-05-27T17:29:45Z</time>
      </trkpt>
      <trkpt lat="47.21399" lon="-1.55">
        <ele>1.42</ele>
        <time>2020-05-27T17:29:47Z</time>
      </trkpt>
      <trkpt lat="47.21392" lon="-1.55017">
        <ele>0.76</ele>
        <time>2020-05-27T17:29:49Z</time>
      </trkpt>
      <trkpt lat="47.21384" lon="-1.55035">
        <ele>0.25</ele>
        <time>2020-05-27T17:29:51Z</time>
      </trkpt>
      <trkpt lat="47.21377" lon="-1.55054">
        <ele>1.13</ele>
        <time>2020-05-27T17:29:53Z</time>
      </trkpt>
      <trkpt lat="47.2137" lon="-1.55073">
        <ele>1.85</ele>
        <time>2020-05-27T17:29:55Z</time>
      </trkpt>
      <trkpt lat="47.21363" lon="-1.55092">
        <ele>1.69</ele>
        <time>2020-05-27T17:29:57Z</time>
      </trkpt>
      <trkpt lat="47.21356" lon="-1.55111">
        <ele>2.03</ele>
        <time>2020-05-27T17:29:59Z</time>
      </trkpt>
      <trkpt lat="47.2135" lon="-1.55128">
        <ele>2.92</ele>
        <time>2020-05-27T17:30:01Z</time>
      </trkpt>
      <trkpt lat="47.21343" lon="-1.55146">
        <ele>3.9</ele>
        <time>2020-05-27T17:30:03Z</time>
      </trkpt>
      <trkpt lat="47.21336" lon="-1.55164">
        <ele>4.65</ele>
        <time>2020-05-27T17:30:05Z</time>
      </trkpt>
      <trkpt lat="47.21327" lon="-1.55179">
        <ele>4.77</ele>
        <time>2020-05-27T17:30:07Z</time>
      </trkpt>
      <trkpt lat="47.21319" lon="-1.55198">
        <ele>4.76</ele>
        <time>2020-05-27T17:30:09Z</time>
      </trkpt>
      <trkpt lat="47.21313" lon="-1.55214">
        <ele>5.48</ele>
        <time>2020-05-27T17:30:11Z</time>
      </trkpt>
      <trkpt lat="47.21306" lon="-1.55232">
        <ele>6.07</ele>
        <time>2020-05-27T17:30:13Z</time>
      </trkpt>
      <trkpt lat="47.213" lon="-1.55248">
        <ele>6.4</ele>
        <time>2020-05-27T17:30:15Z</time>
      </trkpt>
      <trkpt lat="47.21293" lon="-1.55265">
        <ele>6.24</ele>
        <time>2020-05-27T17:30:17Z</time>
      </trkpt>
      <trkpt lat="47.21287" lon="-1.55281">
        <ele>6.33</ele>
        <time>2020-05-27T17:30:19Z</time>
      </trkpt>
      <trkpt lat="47.21278" lon="-1.55294">
        <ele>7.8</ele>
        <time>2020-05-27T17:30:21Z</time>
      </trkpt>
      <trkpt lat="47.21264" lon="-1.55299">
        <ele>9.23</ele>
        <time>2020-05-27T17:30:23Z</time>
      </trkpt>
      <trkpt lat="47.21255" lon="-1.55306">
        <ele>8.33</ele>
        <time>2020-05-27T17:30:25Z</time>
      </trkpt>
      <trkpt lat="47.21254" lon="-1.5532">
        <ele>7.64</ele>
        <time>2020-05-27T17:30:27Z</time>
      </trkpt>
      <trkpt lat="47.21259" lon="-1.55337">
        <ele>7.07</ele>
        <time>2020-05-27T17:30:29Z</time>
      </trkpt>
      <trkpt lat="47.21265" lon="-1.55351">
        <ele>8.16</ele>
        <time>2020-05-27T17:30:31Z</time>
      </trkpt>
      <trkpt lat="47.21273" lon="-1.55358">
        <ele>9.64</ele>
        <time>2020-05-27T17:30:33Z</time>
      </trkpt>
      <trkpt lat="47.21282" lon="-1.55371">
        <ele>9.57</ele>
        <time>2020-05-27T17:30:35Z</time>
      </trkpt>
      <trkpt lat="47.21281" lon="-1.5539">
        <ele>9.11</ele>
        <time>2020-05-27T17:30:37Z</time>
      </trkpt>
      <trkpt lat="47.21274" lon="-1.55404">
        <ele>8.1</ele>
        <time>2020-05-27T17:30:39Z</time>
      </trkpt>
      <trkpt lat="47.21266" lon="-1.55416">
        <ele>8.32</ele>
        <time>2020-05-27T17:30:41Z</time>
      </trkpt>
      <trkpt lat="47.2126" lon="-1.55428">
        <ele>8.02</ele>
        <time>2020-05-27T17:30:43Z</time>
      </trkpt>
      <trkpt lat="47.21249" lon="-1.55443">
        <ele>7.98</ele>
        <time>2020-05-27T17:30:45Z</time>
      </trkpt>
      <trkpt lat="47.2124" lon="-1.55455">
        <ele>7.1</ele>
        <time>2020-05-27T17:30:47Z</time>
      </trkpt>
      <trkpt lat="47.21229" lon="-1.55471">
        <ele>7.29</ele>
        <time>2020-05-27T17:30:49Z</time>
      </trkpt>
      <trkpt lat="47.2122" lon="-1.55488">
        <ele>6.83</ele>
        <time>2020-05-27T17:30:51Z</time>
      </trkpt>
      <trkpt lat="47.21213" lon="-1.55507">
        <ele>5.44</ele>
        <time>2020-05-27T17:30:53Z</time>
      </trkpt>
      <trkpt lat="47.21207" lon="-1.55528">
        <ele>4.86</ele>
        <time>2020-05-27T17:30:55Z</time>
      </trkpt>
      <trkpt lat="47.21202" lon="-1.55547">
        <ele>5.29</ele>
        <time>2020-05-27T17:30:57Z</time>
      </trkpt>
      <trkpt lat="47.21196" lon="-1.55567">
        <ele>5.56</ele>
        <time>2020-05-27T17:30:59Z</time>
      </trkpt>
      <trkpt lat="47.2119" lon="-1.55587">
        <ele>5.45</ele>
        <time>2020-05-27T17:31:01Z</time>
      </trkpt>
      <trkpt lat="47.21183" lon="-1.55604">
        <ele>5.25</ele>
        <time>2020-05-27T17:31:03Z</time>
      </trkpt>
      <trkpt lat="47.21176" lon="-1.55624">
        <ele>5.26</ele>
        <time>2020-05-27T17:31:05Z</time>
      </trkpt>
      <trkpt lat="47.21171" lon="-1.5564">
        <ele>5.36</ele>
        <time>2020-05-27T17:31:07Z</time>
      </trkpt>
      <trkpt lat="47.21166" lon="-1.55661">
        <ele>5.88</ele>
        <time>2020-05-27T17:31:09Z</time>
      </trkpt>
      <trkpt lat="47.2117" lon="-1.55684">
        <ele>6.08</ele>
        <time>2020-05-27T17:31:11Z</time>
      </trkpt>
      <trkpt lat="47.21174" lon="-1.55706">
        <ele>5.54</ele>
        <time>2020-05-27T17:31:13Z</time>
      </trkpt>
      <trkpt lat="47.21171" lon="-1.55725">
        <ele>5.04</ele>
        <time>2020-05-27T17:31:15Z</time>
      </trkpt>
      <trkpt lat="47.21165" lon="-1.55744">
        <ele>4.15</ele>
        <time>2020-05-27T17:31:17Z</time>
      </trkpt>
      <trkpt lat="47.21161" lon="-1.55756">
        <ele>3.64</ele>
        <time>2020-05-27T17:31:18Z</time>
      </trkpt>
      <trkpt lat="47.21153" lon="-1.55775">
        <ele>3.39</ele>
        <time>2020-05-27T17:31:20Z</time>
      </trkpt>
      <trkpt lat="47.21147" lon="-1.55794">
        <ele>3.56</ele>
        <time>2020-05-27T17:31:22Z</time>
      </trkpt>
      <trkpt lat="47.21142" lon="-1.55817">
        <ele>4.13</ele>
        <time>2020-05-27T17:31:24Z</time>
      </trkpt>
      <trkpt lat="47.21139" lon="-1.5584">
        <ele>4.77</ele>
        <time>2020-05-27T17:31:26Z</time>
      </trkpt>
      <trkpt lat="47.21138" lon="-1.55862">
        <ele>5.3</ele>
        <time>2020-05-27T17:31:28Z</time>
      </trkpt>
      <trkpt lat="47.21146" lon="-1.55885">
        <ele>5.24</ele>
        <time>2020-05-27T17:31:30Z</time>
      </trkpt>
      <trkpt lat="47.21148" lon="-1.55906">
        <ele>4.56</ele>
        <time>2020-05-27T17:31:32Z</time>
      </trkpt>
      <trkpt lat="47.21136" lon="-1.55918">
        <ele>4.81</ele>
        <time>2020-05-27T17:31:34Z</time>
      </trkpt>
      <trkpt lat="47.21127" lon="-1.55924">
        <ele>4.75</ele>
        <time>2020-05-27T17:31:35Z</time>
      </trkpt>
      <trkpt lat="47.21111" lon="-1.55933">
        <ele>4.91</ele>
        <time>2020-05-27T17:31:37Z</time>
      </trkpt>
      <trkpt lat="47.21095" lon="-1.55943">
        <ele>4.48</ele>
        <time>2020-05-27T17:31:39Z</time>
      </trkpt>
      <trkpt lat="47.21081" lon="-1.55957">
        <ele>3.8</ele>
        <time>2020-05-27T17:31:41Z</time>
      </trkpt>
      <trkpt lat="47.2107" lon="-1.55975">
        <ele>3.85</ele>
        <time>2020-05-27T17:31:43Z</time>
      </trkpt>
      <trkpt lat="47.2106" lon="-1.55994">
        <ele>3.3</ele>
        <time>2020-05-27T17:31:45Z</time>
      </trkpt>
      <trkpt lat="47.21054" lon="-1.56013">
        <ele>3.68</ele>
        <time>2020-05-27T17:31:47Z</time>
      </trkpt>
      <trkpt lat="47.21047" lon="-1.56032">
        <ele>4.14</ele>
        <time>2020-05-27T17:31:49Z</time>
      </trkpt>
      <trkpt lat="47.21038" lon="-1.56051">
        <ele>4.56</ele>
        <time>2020-05-27T17:31:51Z</time>
      </trkpt>
      <trkpt lat="47.21031" lon="-1.5607">
        <ele>4.55</ele>
        <time>2020-05-27T17:31:53Z</time>
      </trkpt>
      <trkpt lat="47.21023" lon="-1.56089">
        <ele>3.95</ele>
        <time>2020-05-27T17:31:55Z</time>
      </trkpt>
      <trkpt lat="47.21015" lon="-1.56107">
        <ele>3.98</ele>
        <time>2020-05-27T17:31:57Z</time>
      </trkpt>
      <trkpt lat="47.21009" lon="-1.56124">
        <ele>4.4</ele>
        <time>2020-05-27T17:31:59Z</time>
      </trkpt>
      <trkpt lat="47.21003" lon="-1.56138">
        <ele>4.19</ele>
        <time>2020-05-27T17:32:02Z</time>
      </trkpt>
      <trkpt lat="47.20997" lon="-1.56149">
        <ele>4.27</ele>
        <time>2020-05-27T17:32:06Z</time>
      </trkpt>
      <trkpt lat="47.20996" lon="-1.56165">
        <ele>4.2</ele>
        <time>2020-05-27T17:32:09Z</time>
      </trkpt>
      <trkpt lat="47.20986" lon="-1.56172">
        <ele>4.67</ele>
        <time>2020-05-27T17:32:13Z</time>
      </trkpt>
      <trkpt lat="47.20975" lon="-1.56169">
        <ele>4.98</ele>
        <time>2020-05-27T17:32:17Z</time>
      </trkpt>
      <trkpt lat="47.20965" lon="-1.56167">
        <ele>4.93</ele>
        <time>2020-05-27T17:32:20Z</time>
      </trkpt>
      <trkpt lat="47.20952" lon="-1.56166">
        <ele>4.93</ele>
        <time>2020-05-27T17:32:23Z</time>
      </trkpt>
      <trkpt lat="47.2094" lon="-1.56165">
        <ele>5.13</ele>
        <time>2020-05-27T17:32:25Z</time>
      </trkpt>
      <trkpt lat="47.20926" lon="-1.56163">
        <ele>5.89</ele>
        <time>2020-05-27T17:32:27Z</time>
      </trkpt>
      <trkpt lat="47.20916" lon="-1.5616">
        <ele>7.01</ele>
        <time>2020-05-27T17:32:29Z</time>
      </trkpt>
      <trkpt lat="47.20904" lon="-1.56157">
        <ele>8.81</ele>
        <time>2020-05-27T17:32:31Z</time>
      </trkpt>
      <trkpt lat="47.20895" lon="-1.56154">
        <ele>9.83</ele>
        <time>2020-05-27T17:32:33Z</time>
      </trkpt>
      <trkpt lat="47.20884" lon="-1.5615">
        <ele>10.25</ele>
        <time>2020-05-27T17:32:35Z</time>
      </trkpt>
      <trkpt lat="47.20874" lon="-1.56147">
        <ele>10.63</ele>
        <time>2020-05-27T17:32:37Z</time>
      </trkpt>
      <trkpt lat="47.20863" lon="-1.56146">
        <ele>10</ele>
        <time>2020-05-27T17:32:39Z</time>
      </trkpt>
      <trkpt lat="47.2085" lon="-1.56143">
        <ele>8.3</ele>
        <time>2020-05-27T17:32:41Z</time>
      </trkpt>
      <trkpt lat="47.2084" lon="-1.5614">
        <ele>6.56</ele>
        <time>2020-05-27T17:32:43Z</time>
      </trkpt>
      <trkpt lat="47.20834" lon="-1.56151">
        <ele>6</ele>
        <time>2020-05-27T17:32:46Z</time>
      </trkpt>
      <trkpt lat="47.20829" lon="-1.56166">
        <ele>5.72</ele>
        <time>2020-05-27T17:32:48Z</time>
      </trkpt>
      <trkpt lat="47.20827" lon="-1.56186">
        <ele>4.89</ele>
        <time>2020-05-27T17:32:50Z</time>
      </trkpt>
      <trkpt lat="47.20828" lon="-1.56209">
        <ele>3.88</ele>
        <time>2020-05-27T17:32:52Z</time>
      </trkpt>
      <trkpt lat="47.20828" lon="-1.56232">
        <ele>3.52</ele>
        <time>2020-05-27T17:32:54Z</time>
      </trkpt>
      <trkpt lat="47.20829" lon="-1.56256">
        <ele>3.35</ele>
        <time>2020-05-27T17:32:56Z</time>
      </trkpt>
      <trkpt lat="47.20829" lon="-1.5628">
        <ele>3.45</ele>
        <time>2020-05-27T17:32:58Z</time>
      </trkpt>
      <trkpt lat="47.20829" lon="-1.56302">
        <ele>2.97</ele>
        <time>2020-05-27T17:33:00Z</time>
      </trkpt>
      <trkpt lat="47.20826" lon="-1.56321">
        <ele>3.43</ele>
        <time>2020-05-27T17:33:02Z</time>
      </trkpt>
      <trkpt lat="47.20821" lon="-1.56344">
        <ele>4.12</ele>
        <time>2020-05-27T17:33:04Z</time>
      </trkpt>
      <trkpt lat="47.20817" lon="-1.56364">
        <ele>5.29</ele>
        <time>2020-05-27T17:33:06Z</time>
      </trkpt>
      <trkpt lat="47.20813" lon="-1.56383">
        <ele>6.47</ele>
        <time>2020-05-27T17:33:08Z</time>
      </trkpt>
      <trkpt lat="47.20807" lon="-1.56403">
        <ele>7.7</ele>
        <time>2020-05-27T17:33:10Z</time>
      </trkpt>
      <trkpt lat="47.20801" lon="-1.56424">
        <ele>7.94</ele>
        <time>2020-05-27T17:33:12Z</time>
      </trkpt>
      <trkpt lat="47.20796" lon="-1.56441">
        <ele>9.5</ele>
        <time>2020-05-27T17:33:14Z</time>
      </trkpt>
      <trkpt lat="47.20791" lon="-1.56458">
        <ele>10.37</ele>
        <time>2020-05-27T17:33:16Z</time>
      </trkpt>
      <trkpt lat="47.20786" lon="-1.56476">
        <ele>9.63</ele>
        <time>2020-05-27T17:33:18Z</time>
      </trkpt>
      <trkpt lat="47.20778" lon="-1.56497">
        <ele>8.23</ele>
        <time>2020-05-27T17:33:20Z</time>
      </trkpt>
      <trkpt lat="47.20771" lon="-1.5651">
        <ele>6.72</ele>
        <time>2020-05-27T17:33:22Z</time>
      </trkpt>
      <trkpt lat="47.20758" lon="-1.56508">
        <ele>5.07</ele>
        <time>2020-05-27T17:33:26Z</time>
      </trkpt>
      <trkpt lat="47.20751" lon="-1.56501">
        <ele>3.82</ele>
        <time>2020-05-27T17:33:28Z</time>
      </trkpt>
      <trkpt lat="47.20742" lon="-1.56494">
        <ele>3.53</ele>
        <time>2020-05-27T17:33:31Z</time>
      </trkpt>
      <trkpt lat="47.20737" lon="-1.56505">
        <ele>3.77</ele>
        <time>2020-05-27T17:33:36Z</time>
      </trkpt>
      <trkpt lat="47.20733" lon="-1.56518">
        <ele>4.46</ele>
        <time>2020-05-27T17:33:42Z</time>
      </trkpt>
      <trkpt lat="47.20724" lon="-1.56537">
        <ele>5.78</ele>
        <time>2020-05-27T17:33:44Z</time>
      </trkpt>
      <trkpt lat="47.20716" lon="-1.56555">
        <ele>6.14</ele>
        <time>2020-05-27T17:33:46Z</time>
      </trkpt>
      <trkpt lat="47.20706" lon="-1.56566">
        <ele>6.36</ele>
        <time>2020-05-27T17:33:48Z</time>
      </trkpt>
      <trkpt lat="47.20691" lon="-1.56572">
        <ele>6.13</ele>
        <time>2020-05-27T17:33:50Z</time>
      </trkpt>
      <trkpt lat="47.20678" lon="-1.56585">
        <ele>5.48</ele>
        <time>2020-05-27T17:33:52Z</time>
      </trkpt>
      <trkpt lat="47.20665" lon="-1.56598">
        <ele>5.05</ele>
        <time>2020-05-27T17:33:54Z</time>
      </trkpt>
      <trkpt lat="47.2065" lon="-1.56605">
        <ele>4.52</ele>
        <time>2020-05-27T17:33:56Z</time>
      </trkpt>
      <trkpt lat="47.20636" lon="-1.56611">
        <ele>4.22</ele>
        <time>2020-05-27T17:33:58Z</time>
      </trkpt>
      <trkpt lat="47.20621" lon="-1.56618">
        <ele>4.53</ele>
        <time>2020-05-27T17:34:00Z</time>
      </trkpt>
      <trkpt lat="47.20607" lon="-1.56622">
        <ele>4.02</ele>
        <time>2020-05-27T17:34:02Z</time>
      </trkpt>
      <trkpt lat="47.20594" lon="-1.56629">
        <ele>4.49</ele>
        <time>2020-05-27T17:34:04Z</time>
      </trkpt>
      <trkpt lat="47.20582" lon="-1.5664">
        <ele>4.89</ele>
        <time>2020-05-27T17:34:06Z</time>
      </trkpt>
      <trkpt lat="47.2057" lon="-1.56655">
        <ele>5.36</ele>
        <time>2020-05-27T17:34:08Z</time>
      </trkpt>
      <trkpt lat="47.2056" lon="-1.5667">
        <ele>5.83</ele>
        <time>2020-05-27T17:34:10Z</time>
      </trkpt>
      <trkpt lat="47.20551" lon="-1.56686">
        <ele>5.62</ele>
        <time>2020-05-27T17:34:12Z</time>
      </trkpt>
      <trkpt lat="47.20542" lon="-1.567">
        <ele>5.43</ele>
        <time>2020-05-27T17:34:14Z</time>
      </trkpt>
      <trkpt lat="47.20533" lon="-1.5671">
        <ele>5.4</ele>
        <time>2020-05-27T17:34:16Z</time>
      </trkpt>
      <trkpt lat="47.20519" lon="-1.56715">
        <ele>6.39</ele>
        <time>2020-05-27T17:34:18Z</time>
      </trkpt>
      <trkpt lat="47.20506" lon="-1.56718">
        <ele>6.32</ele>
        <time>2020-05-27T17:34:20Z</time>
      </trkpt>
      <trkpt lat="47.20491" lon="-1.56717">
        <ele>7.09</ele>
        <time>2020-05-27T17:34:22Z</time>
      </trkpt>
      <trkpt lat="47.20476" lon="-1.56713">
        <ele>8.27</ele>
        <time>2020-05-27T17:34:24Z</time>
      </trkpt>
      <trkpt lat="47.20461" lon="-1.5671">
        <ele>8.29</ele>
        <time>2020-05-27T17:34:26Z</time>
      </trkpt>
      <trkpt lat="47.20448" lon="-1.56707">
        <ele>8.21</ele>
        <time>2020-05-27T17:34:28Z</time>
      </trkpt>
      <trkpt lat="47.20435" lon="-1.56704">
        <ele>9.39</ele>
        <time>2020-05-27T17:34:30Z</time>
      </trkpt>
      <trkpt lat="47.20421" lon="-1.56701">
        <ele>10.47</ele>
        <time>2020-05-27T17:34:32Z</time>
      </trkpt>
      <trkpt lat="47.2041" lon="-1.56699">
        <ele>10.9</ele>
        <time>2020-05-27T17:34:34Z</time>
      </trkpt>
      <trkpt lat="47.20409" lon="-1.56721">
        <ele>9.57</ele>
        <time>2020-05-27T17:34:39Z</time>
      </trkpt>
      <trkpt lat="47.20407" lon="-1.56739">
        <ele>9.04</ele>
        <time>2020-05-27T17:34:41Z</time>
      </trkpt>
      <trkpt lat="47.20405" lon="-1.56762">
        <ele>8.83</ele>
        <time>2020-05-27T17:34:43Z</time>
      </trkpt>
      <trkpt lat="47.20402" lon="-1.56777">
        <ele>8.25</ele>
        <time>2020-05-27T17:34:44Z</time>
      </trkpt>
      <trkpt lat="47.20399" lon="-1.56797">
        <ele>7.39</ele>
        <time>2020-05-27T17:34:46Z</time>
      </trkpt>
      <trkpt lat="47.20398" lon="-1.56811">
        <ele>6.55</ele>
        <time>2020-05-27T17:34:47Z</time>
      </trkpt>
      <trkpt lat="47.20396" lon="-1.56825">
        <ele>6.13</ele>
        <time>2020-05-27T17:34:48Z</time>
      </trkpt>
      <trkpt lat="47.20393" lon="-1.56848">
        <ele>5.61</ele>
        <time>2020-05-27T17:34:50Z</time>
      </trkpt>
      <trkpt lat="47.20392" lon="-1.56865">
        <ele>4.77</ele>
        <time>2020-05-27T17:34:52Z</time>
      </trkpt>
      <trkpt lat="47.20392" lon="-1.56882">
        <ele>5.09</ele>
        <time>2020-05-27T17:34:54Z</time>
      </trkpt>
      <trkpt lat="47.20389" lon="-1.56903">
        <ele>6.67</ele>
        <time>2020-05-27T17:34:56Z</time>
      </trkpt>
      <trkpt lat="47.20385" lon="-1.56917">
        <ele>6.69</ele>
        <time>2020-05-27T17:34:57Z</time>
      </trkpt>
      <trkpt lat="47.2038" lon="-1.56939">
        <ele>6.49</ele>
        <time>2020-05-27T17:34:59Z</time>
      </trkpt>
      <trkpt lat="47.20376" lon="-1.5696">
        <ele>5.48</ele>
        <time>2020-05-27T17:35:01Z</time>
      </trkpt>
      <trkpt lat="47.20374" lon="-1.56982">
        <ele>4.93</ele>
        <time>2020-05-27T17:35:03Z</time>
      </trkpt>
      <trkpt lat="47.20373" lon="-1.57004">
        <ele>4.33</ele>
        <time>2020-05-27T17:35:05Z</time>
      </trkpt>
      <trkpt lat="47.20372" lon="-1.57025">
        <ele>4.68</ele>
        <time>2020-05-27T17:35:07Z</time>
      </trkpt>
      <trkpt lat="47.20367" lon="-1.57045">
        <ele>5.04</ele>
        <time>2020-05-27T17:35:09Z</time>
      </trkpt>
      <trkpt lat="47.20361" lon="-1.57062">
        <ele>4.82</ele>
        <time>2020-05-27T17:35:11Z</time>
      </trkpt>
      <trkpt lat="47.20353" lon="-1.57079">
        <ele>4.61</ele>
        <time>2020-05-27T17:35:13Z</time>
      </trkpt>
      <trkpt lat="47.20346" lon="-1.57096">
        <ele>4.34</ele>
        <time>2020-05-27T17:35:15Z</time>
      </trkpt>
      <trkpt lat="47.20335" lon="-1.57109">
        <ele>4.45</ele>
        <time>2020-05-27T17:35:17Z</time>
      </trkpt>
      <trkpt lat="47.20322" lon="-1.57119">
        <ele>4.37</ele>
        <time>2020-05-27T17:35:19Z</time>
      </trkpt>
      <trkpt lat="47.20309" lon="-1.57127">
        <ele>4.49</ele>
        <time>2020-05-27T17:35:21Z</time>
      </trkpt>
      <trkpt lat="47.20295" lon="-1.57136">
        <ele>4.55</ele>
        <time>2020-05-27T17:35:23Z</time>
      </trkpt>
      <trkpt lat="47.2028" lon="-1.57143">
        <ele>3.53</ele>
        <time>2020-05-27T17:35:25Z</time>
      </trkpt>
      <trkpt lat="47.20269" lon="-1.57151">
        <ele>3.18</ele>
        <time>2020-05-27T17:35:27Z</time>
      </trkpt>
      <trkpt lat="47.20255" lon="-1.5716">
        <ele>3.34</ele>
        <time>2020-05-27T17:35:29Z</time>
      </trkpt>
      <trkpt lat="47.20242" lon="-1.57168">
        <ele>4.47</ele>
        <time>2020-05-27T17:35:31Z</time>
      </trkpt>
      <trkpt lat="47.20228" lon="-1.57176">
        <ele>5.13</ele>
        <time>2020-05-27T17:35:33Z</time>
      </trkpt>
      <trkpt lat="47.20212" lon="-1.57185">
        <ele>4.85</ele>
        <time>2020-05-27T17:35:35Z</time>
      </trkpt>
      <trkpt lat="47.20199" lon="-1.57195">
        <ele>4.26</ele>
        <time>2020-05-27T17:35:37Z</time>
      </trkpt>
      <trkpt lat="47.20187" lon="-1.57204">
        <ele>3.8</ele>
        <time>2020-05-27T17:35:39Z</time>
      </trkpt>
      <trkpt lat="47.20172" lon="-1.57214">
        <ele>4.74</ele>
        <time>2020-05-27T17:35:41Z</time>
      </trkpt>
      <trkpt lat="47.20157" lon="-1.57224">
        <ele>4.09</ele>
        <time>2020-05-27T17:35:43Z</time>
      </trkpt>
      <trkpt lat="47.20145" lon="-1.57232">
        <ele>4.43</ele>
        <time>2020-05-27T17:35:45Z</time>
      </trkpt>
      <trkpt lat="47.20133" lon="-1.57241">
        <ele>5.65</ele>
        <time>2020-05-27T17:35:47Z</time>
      </trkpt>
      <trkpt lat="47.20117" lon="-1.57252">
        <ele>5.93</ele>
        <time>2020-05-27T17:35:49Z</time>
      </trkpt>
      <trkpt lat="47.20104" lon="-1.5726">
        <ele>6.37</ele>
        <time>2020-05-27T17:35:51Z</time>
      </trkpt>
      <trkpt lat="47.20091" lon="-1.57268">
        <ele>6.75</ele>
        <time>2020-05-27T17:35:53Z</time>
      </trkpt>
      <trkpt lat="47.20075" lon="-1.57279">
        <ele>6.83</ele>
        <time>2020-05-27T17:35:55Z</time>
      </trkpt>
      <trkpt lat="47.20063" lon="-1.57291">
        <ele>6.3</ele>
        <time>2020-05-27T17:35:57Z</time>
      </trkpt>
      <trkpt lat="47.2005" lon="-1.57302">
        <ele>5.62</ele>
        <time>2020-05-27T17:35:59Z</time>
      </trkpt>
      <trkpt lat="47.20038" lon="-1.57311">
        <ele>4.67</ele>
        <time>2020-05-27T17:36:01Z</time>
      </trkpt>
      <trkpt lat="47.20025" lon="-1.57321">
        <ele>2.76</ele>
        <time>2020-05-27T17:36:03Z</time>
      </trkpt>
      <trkpt lat="47.20013" lon="-1.5733">
        <ele>2.77</ele>
        <time>2020-05-27T17:36:05Z</time>
      </trkpt>
      <trkpt lat="47.19999" lon="-1.57337">
        <ele>3.57</ele>
        <time>2020-05-27T17:36:07Z</time>
      </trkpt>
      <trkpt lat="47.19987" lon="-1.57325">
        <ele>3.73</ele>
        <time>2020-05-27T17:36:09Z</time>
      </trkpt>
      <trkpt lat="47.19979" lon="-1.57305">
        <ele>3.5</ele>
        <time>2020-05-27T17:36:11Z</time>
      </trkpt>
      <trkpt lat="47.19978" lon="-1.57284">
        <ele>2.78</ele>
        <time>2020-05-27T17:36:13Z</time>
      </trkpt>
      <trkpt lat="47.19978" lon="-1.57265">
        <ele>2.65</ele>
        <time>2020-05-27T17:36:15Z</time>
      </trkpt>
      <trkpt lat="47.19978" lon="-1.57244">
        <ele>2.63</ele>
        <time>2020-05-27T17:36:17Z</time>
      </trkpt>
      <trkpt lat="47.19977" lon="-1.57222">
        <ele>3.23</ele>
        <time>2020-05-27T17:36:19Z</time>
      </trkpt>
      <trkpt lat="47.19977" lon="-1.572">
        <ele>3.59</ele>
        <time>2020-05-27T17:36:21Z</time>
      </trkpt>
      <trkpt lat="47.19978" lon="-1.57181">
        <ele>3.97</ele>
        <time>2020-05-27T17:36:23Z</time>
      </trkpt>
      <trkpt lat="47.19978" lon="-1.57162">
        <ele>4.83</ele>
        <time>2020-05-27T17:36:25Z</time>
      </trkpt>
      <trkpt lat="47.19977" lon="-1.5714">
        <ele>5.14</ele>
        <time>2020-05-27T17:36:27Z</time>
      </trkpt>
      <trkpt lat="47.19974" lon="-1.57118">
        <ele>4.97</ele>
        <time>2020-05-27T17:36:29Z</time>
      </trkpt>
      <trkpt lat="47.19971" lon="-1.571">
        <ele>4.64</ele>
        <time>2020-05-27T17:36:31Z</time>
      </trkpt>
      <trkpt lat="47.19966" lon="-1.5708">
        <ele>4</ele>
        <time>2020-05-27T17:36:33Z</time>
      </trkpt>
      <trkpt lat="47.19961" lon="-1.57061">
        <ele>4.67</ele>
        <time>2020-05-27T17:36:35Z</time>
      </trkpt>
      <trkpt lat="47.19957" lon="-1.5704">
        <ele>5.1</ele>
        <time>2020-05-27T17:36:37Z</time>
      </trkpt>
      <trkpt lat="47.19954" lon="-1.57019">
        <ele>5.21</ele>
        <time>2020-05-27T17:36:39Z</time>
      </trkpt>
      <trkpt lat="47.19954" lon="-1.56999">
        <ele>5.31</ele>
        <time>2020-05-27T17:36:41Z</time>
      </trkpt>
      <trkpt lat="47.19953" lon="-1.56979">
        <ele>5.2</ele>
        <time>2020-05-27T17:36:43Z</time>
      </trkpt>
      <trkpt lat="47.19953" lon="-1.56957">
        <ele>4.67</ele>
        <time>2020-05-27T17:36:45Z</time>
      </trkpt>
      <trkpt lat="47.19953" lon="-1.56936">
        <ele>3.88</ele>
        <time>2020-05-27T17:36:47Z</time>
      </trkpt>
      <trkpt lat="47.19953" lon="-1.56915">
        <ele>2.98</ele>
        <time>2020-05-27T17:36:49Z</time>
      </trkpt>
      <trkpt lat="47.19953" lon="-1.56897">
        <ele>3.18</ele>
        <time>2020-05-27T17:36:51Z</time>
      </trkpt>
      <trkpt lat="47.19952" lon="-1.56878">
        <ele>4.24</ele>
        <time>2020-05-27T17:36:53Z</time>
      </trkpt>
      <trkpt lat="47.19952" lon="-1.56856">
        <ele>4.36</ele>
        <time>2020-05-27T17:36:55Z</time>
      </trkpt>
      <trkpt lat="47.19952" lon="-1.56837">
        <ele>2.91</ele>
        <time>2020-05-27T17:36:57Z</time>
      </trkpt>
      <trkpt lat="47.19952" lon="-1.56818">
        <ele>1.86</ele>
        <time>2020-05-27T17:36:59Z</time>
      </trkpt>
      <trkpt lat="47.19952" lon="-1.568">
        <ele>1.94</ele>
        <time>2020-05-27T17:37:01Z</time>
      </trkpt>
      <trkpt lat="47.19952" lon="-1.5678">
        <ele>1.11</ele>
        <time>2020-05-27T17:37:03Z</time>
      </trkpt>
      <trkpt lat="47.19953" lon="-1.56762">
        <ele>1.16</ele>
        <time>2020-05-27T17:37:05Z</time>
      </trkpt>
      <trkpt lat="47.19953" lon="-1.56741">
        <ele>1.68</ele>
        <time>2020-05-27T17:37:07Z</time>
      </trkpt>
      <trkpt lat="47.19953" lon="-1.56725">
        <ele>2.05</ele>
        <time>2020-05-27T17:37:09Z</time>
      </trkpt>
      <trkpt lat="47.1995" lon="-1.56709">
        <ele>2.48</ele>
        <time>2020-05-27T17:37:11Z</time>
      </trkpt>
      <trkpt lat="47.1995" lon="-1.56689">
        <ele>3.24</ele>
        <time>2020-05-27T17:37:13Z</time>
      </trkpt>
      <trkpt lat="47.1995" lon="-1.56669">
        <ele>3.21</ele>
        <time>2020-05-27T17:37:15Z</time>
      </trkpt>
      <trkpt lat="47.1995" lon="-1.56653">
        <ele>3.63</ele>
        <time>2020-05-27T17:37:17Z</time>
      </trkpt>
      <trkpt lat="47.1995" lon="-1.56635">
        <ele>3.66</ele>
        <time>2020-05-27T17:37:19Z</time>
      </trkpt>
      <trkpt lat="47.19951" lon="-1.56616">
        <ele>3.71</ele>
        <time>2020-05-27T17:37:21Z</time>
      </trkpt>
      <trkpt lat="47.19951" lon="-1.56598">
        <ele>3.7</ele>
        <time>2020-05-27T17:37:23Z</time>
      </trkpt>
      <trkpt lat="47.19951" lon="-1.5658">
        <ele>3.22</ele>
        <time>2020-05-27T17:37:25Z</time>
      </trkpt>
      <trkpt lat="47.19951" lon="-1.56563">
        <ele>3.18</ele>
        <time>2020-05-27T17:37:27Z</time>
      </trkpt>
      <trkpt lat="47.19951" lon="-1.56546">
        <ele>3.01</ele>
        <time>2020-05-27T17:37:29Z</time>
      </trkpt>
      <trkpt lat="47.19952" lon="-1.56529">
        <ele>3.6</ele>
        <time>2020-05-27T17:37:31Z</time>
      </trkpt>
      <trkpt lat="47.19952" lon="-1.56513">
        <ele>3.87</ele>
        <time>2020-05-27T17:37:33Z</time>
      </trkpt>
      <trkpt lat="47.19952" lon="-1.56493">
        <ele>3.41</ele>
        <time>2020-05-27T17:37:35Z</time>
      </trkpt>
      <trkpt lat="47.19952" lon="-1.56477">
        <ele>2.48</ele>
        <time>2020-05-27T17:37:37Z</time>
      </trkpt>
      <trkpt lat="47.19954" lon="-1.56459">
        <ele>1.81</ele>
        <time>2020-05-27T17:37:39Z</time>
      </trkpt>
      <trkpt lat="47.19956" lon="-1.56445">
        <ele>1.81</ele>
        <time>2020-05-27T17:37:41Z</time>
      </trkpt>
      <trkpt lat="47.1996" lon="-1.56428">
        <ele>2.58</ele>
        <time>2020-05-27T17:37:43Z</time>
      </trkpt>
      <trkpt lat="47.19965" lon="-1.56411">
        <ele>3.87</ele>
        <time>2020-05-27T17:37:45Z</time>
      </trkpt>
      <trkpt lat="47.19968" lon="-1.56395">
        <ele>4.42</ele>
        <time>2020-05-27T17:37:47Z</time>
      </trkpt>
      <trkpt lat="47.19971" lon="-1.56377">
        <ele>4.08</ele>
        <time>2020-05-27T17:37:49Z</time>
      </trkpt>
      <trkpt lat="47.19972" lon="-1.56359">
        <ele>4.82</ele>
        <time>2020-05-27T17:37:51Z</time>
      </trkpt>
      <trkpt lat="47.19973" lon="-1.56343">
        <ele>5.69</ele>
        <time>2020-05-27T17:37:53Z</time>
      </trkpt>
      <trkpt lat="47.19974" lon="-1.56327">
        <ele>5.77</ele>
        <time>2020-05-27T17:37:55Z</time>
      </trkpt>
      <trkpt lat="47.19976" lon="-1.56311">
        <ele>6.02</ele>
        <time>2020-05-27T17:37:56Z</time>
      </trkpt>
      <trkpt lat="47.19977" lon="-1.56295">
        <ele>5.44</ele>
        <time>2020-05-27T17:37:58Z</time>
      </trkpt>
      <trkpt lat="47.19978" lon="-1.56276">
        <ele>4.62</ele>
        <time>2020-05-27T17:38:00Z</time>
      </trkpt>
      <trkpt lat="47.19978" lon="-1.5626">
        <ele>4.14</ele>
        <time>2020-05-27T17:38:02Z</time>
      </trkpt>
      <trkpt lat="47.19977" lon="-1.56243">
        <ele>4.58</ele>
        <time>2020-05-27T17:38:04Z</time>
      </trkpt>
      <trkpt lat="47.19977" lon="-1.56227">
        <ele>4.64</ele>
        <time>2020-05-27T17:38:06Z</time>
      </trkpt>
      <trkpt lat="47.19977" lon="-1.56211">
        <ele>5.33</ele>
        <time>2020-05-27T17:38:08Z</time>
      </trkpt>
      <trkpt lat="47.19977" lon="-1.56196">
        <ele>5.37</ele>
        <time>2020-05-27T17:38:10Z</time>
      </trkpt>
      <trkpt lat="47.19977" lon="-1.56181">
        <ele>5.7</ele>
        <time>2020-05-27T17:38:12Z</time>
      </trkpt>
      <trkpt lat="47.19971" lon="-1.56167">
        <ele>5.45</ele>
        <time>2020-05-27T17:38:14Z</time>
      </trkpt>
      <trkpt lat="47.19961" lon="-1.56167">
        <ele>5.12</ele>
        <time>2020-05-27T17:38:16Z</time>
      </trkpt>
      <trkpt lat="47.19948" lon="-1.56169">
        <ele>5.1</ele>
        <time>2020-05-27T17:38:18Z</time>
      </trkpt>
      <trkpt lat="47.19938" lon="-1.56171">
        <ele>5.97</ele>
        <time>2020-05-27T17:38:20Z</time>
      </trkpt>
      <trkpt lat="47.19925" lon="-1.56173">
        <ele>7.3</ele>
        <time>2020-05-27T17:38:22Z</time>
      </trkpt>
      <trkpt lat="47.19913" lon="-1.56177">
        <ele>8.39</ele>
        <time>2020-05-27T17:38:24Z</time>
      </trkpt>
      <trkpt lat="47.19902" lon="-1.56179">
        <ele>8.13</ele>
        <time>2020-05-27T17:38:26Z</time>
      </trkpt>
      <trkpt lat="47.1989" lon="-1.56181">
        <ele>8.17</ele>
        <time>2020-05-27T17:38:28Z</time>
      </trkpt>
      <trkpt lat="47.19878" lon="-1.56183">
        <ele>7.38</ele>
        <time>2020-05-27T17:38:30Z</time>
      </trkpt>
      <trkpt lat="47.19867" lon="-1.56185">
        <ele>8.22</ele>
        <time>2020-05-27T17:38:32Z</time>
      </trkpt>
      <trkpt lat="47.19857" lon="-1.56187">
        <ele>8.61</ele>
        <time>2020-05-27T17:38:34Z</time>
      </trkpt>
      <trkpt lat="47.19845" lon="-1.56189">
        <ele>8.54</ele>
        <time>2020-05-27T17:38:36Z</time>
      </trkpt>
      <trkpt lat="47.19835" lon="-1.5619">
        <ele>8.57</ele>
        <time>2020-05-27T17:38:38Z</time>
      </trkpt>
      <trkpt lat="47.19824" lon="-1.56192">
        <ele>9.7</ele>
        <time>2020-05-27T17:38:40Z</time>
      </trkpt>
      <trkpt lat="47.19813" lon="-1.56194">
        <ele>10.57</ele>
        <time>2020-05-27T17:38:42Z</time>
      </trkpt>
      <trkpt lat="47.19802" lon="-1.56196">
        <ele>12.48</ele>
        <time>2020-05-27T17:38:44Z</time>
      </trkpt>
      <trkpt lat="47.19791" lon="-1.56197">
        <ele>13.58</ele>
        <time>2020-05-27T17:38:46Z</time>
      </trkpt>
      <trkpt lat="47.1978" lon="-1.56198">
        <ele>14.5</ele>
        <time>2020-05-27T17:38:48Z</time>
      </trkpt>
      <trkpt lat="47.19767" lon="-1.562">
        <ele>15.17</ele>
        <time>2020-05-27T17:38:50Z</time>
      </trkpt>
      <trkpt lat="47.19754" lon="-1.56202">
        <ele>15.64</ele>
        <time>2020-05-27T17:38:52Z</time>
      </trkpt>
      <trkpt lat="47.1974" lon="-1.56205">
        <ele>14.87</ele>
        <time>2020-05-27T17:38:54Z</time>
      </trkpt>
      <trkpt lat="47.19724" lon="-1.56208">
        <ele>14.37</ele>
        <time>2020-05-27T17:38:56Z</time>
      </trkpt>
      <trkpt lat="47.19709" lon="-1.56211">
        <ele>13.13</ele>
        <time>2020-05-27T17:38:58Z</time>
      </trkpt>
      <trkpt lat="47.197" lon="-1.56213">
        <ele>11.97</ele>
        <time>2020-05-27T17:38:59Z</time>
      </trkpt>
      <trkpt lat="47.19691" lon="-1.56216">
        <ele>10.71</ele>
        <time>2020-05-27T17:39:00Z</time>
      </trkpt>
      <trkpt lat="47.19673" lon="-1.5622">
        <ele>9.2</ele>
        <time>2020-05-27T17:39:02Z</time>
      </trkpt>
      <trkpt lat="47.19656" lon="-1.56224">
        <ele>7.64</ele>
        <time>2020-05-27T17:39:04Z</time>
      </trkpt>
      <trkpt lat="47.19639" lon="-1.56231">
        <ele>5.91</ele>
        <time>2020-05-27T17:39:06Z</time>
      </trkpt>
      <trkpt lat="47.19633" lon="-1.56242">
        <ele>5.57</ele>
        <time>2020-05-27T17:39:07Z</time>
      </trkpt>
      <trkpt lat="47.1963" lon="-1.56254">
        <ele>5.34</ele>
        <time>2020-05-27T17:39:08Z</time>
      </trkpt>
      <trkpt lat="47.1963" lon="-1.5628">
        <ele>5.09</ele>
        <time>2020-05-27T17:39:10Z</time>
      </trkpt>
      <trkpt lat="47.19629" lon="-1.56306">
        <ele>5.19</ele>
        <time>2020-05-27T17:39:12Z</time>
      </trkpt>
      <trkpt lat="47.19629" lon="-1.56326">
        <ele>4.49</ele>
        <time>2020-05-27T17:39:14Z</time>
      </trkpt>
      <trkpt lat="47.19629" lon="-1.56348">
        <ele>3.93</ele>
        <time>2020-05-27T17:39:16Z</time>
      </trkpt>
      <trkpt lat="47.19629" lon="-1.56369">
        <ele>3.89</ele>
        <time>2020-05-27T17:39:18Z</time>
      </trkpt>
      <trkpt lat="47.19629" lon="-1.56392">
        <ele>4.07</ele>
        <time>2020-05-27T17:39:20Z</time>
      </trkpt>
      <trkpt lat="47.1963" lon="-1.56417">
        <ele>4.82</ele>
        <time>2020-05-27T17:39:22Z</time>
      </trkpt>
      <trkpt lat="47.19631" lon="-1.5644">
        <ele>4.67</ele>
        <time>2020-05-27T17:39:24Z</time>
      </trkpt>
      <trkpt lat="47.19631" lon="-1.56466">
        <ele>3.85</ele>
        <time>2020-05-27T17:39:26Z</time>
      </trkpt>
      <trkpt lat="47.19632" lon="-1.56485">
        <ele>3.38</ele>
        <time>2020-05-27T17:39:28Z</time>
      </trkpt>
      <trkpt lat="47.19633" lon="-1.56507">
        <ele>3.33</ele>
        <time>2020-05-27T17:39:30Z</time>
      </trkpt>
      <trkpt lat="47.19633" lon="-1.56529">
        <ele>3.69</ele>
        <time>2020-05-27T17:39:32Z</time>
      </trkpt>
      <trkpt lat="47.19632" lon="-1.5655">
        <ele>3.09</ele>
        <time>2020-05-27T17:39:34Z</time>
      </trkpt>
      <trkpt lat="47.19631" lon="-1.56572">
        <ele>2.24</ele>
        <time>2020-05-27T17:39:36Z</time>
      </trkpt>
      <trkpt lat="47.19631" lon="-1.56594">
        <ele>2.41</ele>
        <time>2020-05-27T17:39:38Z</time>
      </trkpt>
      <trkpt lat="47.1963" lon="-1.56618">
        <ele>2.74</ele>
        <time>2020-05-27T17:39:40Z</time>
      </trkpt>
      <trkpt lat="47.1963" lon="-1.56639">
        <ele>2.78</ele>
        <time>2020-05-27T17:39:42Z</time>
      </trkpt>
      <trkpt lat="47.19629" lon="-1.56662">
        <ele>2.35</ele>
        <time>2020-05-27T17:39:44Z</time>
      </trkpt>
      <trkpt lat="47.19627" lon="-1.56682">
        <ele>1.56</ele>
        <time>2020-05-27T17:39:46Z</time>
      </trkpt>
      <trkpt lat="47.19626" lon="-1.56696">
        <ele>1.81</ele>
        <time>2020-05-27T17:39:47Z</time>
      </trkpt>
      <trkpt lat="47.19625" lon="-1.56718">
        <ele>3.44</ele>
        <time>2020-05-27T17:39:49Z</time>
      </trkpt>
      <trkpt lat="47.19624" lon="-1.5674">
        <ele>5.33</ele>
        <time>2020-05-27T17:39:51Z</time>
      </trkpt>
      <trkpt lat="47.19622" lon="-1.56761">
        <ele>6.1</ele>
        <time>2020-05-27T17:39:53Z</time>
      </trkpt>
      <trkpt lat="47.1962" lon="-1.56784">
        <ele>5.48</ele>
        <time>2020-05-27T17:39:55Z</time>
      </trkpt>
      <trkpt lat="47.19618" lon="-1.56806">
        <ele>5.02</ele>
        <time>2020-05-27T17:39:57Z</time>
      </trkpt>
      <trkpt lat="47.19616" lon="-1.56827">
        <ele>4.31</ele>
        <time>2020-05-27T17:39:59Z</time>
      </trkpt>
      <trkpt lat="47.19615" lon="-1.56851">
        <ele>4.83</ele>
        <time>2020-05-27T17:40:01Z</time>
      </trkpt>
      <trkpt lat="47.19614" lon="-1.56868">
        <ele>4.29</ele>
        <time>2020-05-27T17:40:03Z</time>
      </trkpt>
      <trkpt lat="47.19612" lon="-1.56891">
        <ele>2.75</ele>
        <time>2020-05-27T17:40:05Z</time>
      </trkpt>
      <trkpt lat="47.19611" lon="-1.56913">
        <ele>2.01</ele>
        <time>2020-05-27T17:40:07Z</time>
      </trkpt>
      <trkpt lat="47.1961" lon="-1.56935">
        <ele>1.96</ele>
        <time>2020-05-27T17:40:09Z</time>
      </trkpt>
      <trkpt lat="47.19608" lon="-1.56957">
        <ele>2.02</ele>
        <time>2020-05-27T17:40:11Z</time>
      </trkpt>
      <trkpt lat="47.19606" lon="-1.5698">
        <ele>2.56</ele>
        <time>2020-05-27T17:40:13Z</time>
      </trkpt>
      <trkpt lat="47.19605" lon="-1.57">
        <ele>2.77</ele>
        <time>2020-05-27T17:40:15Z</time>
      </trkpt>
      <trkpt lat="47.19604" lon="-1.5702">
        <ele>1.99</ele>
        <time>2020-05-27T17:40:17Z</time>
      </trkpt>
      <trkpt lat="47.19603" lon="-1.5704">
        <ele>2.79</ele>
        <time>2020-05-27T17:40:19Z</time>
      </trkpt>
      <trkpt lat="47.19602" lon="-1.57063">
        <ele>3.67</ele>
        <time>2020-05-27T17:40:21Z</time>
      </trkpt>
      <trkpt lat="47.196" lon="-1.57083">
        <ele>3.76</ele>
        <time>2020-05-27T17:40:23Z</time>
      </trkpt>
      <trkpt lat="47.19599" lon="-1.57105">
        <ele>3</ele>
        <time>2020-05-27T17:40:25Z</time>
      </trkpt>
      <trkpt lat="47.19598" lon="-1.57126">
        <ele>2.33</ele>
        <time>2020-05-27T17:40:27Z</time>
      </trkpt>
      <trkpt lat="47.19597" lon="-1.57144">
        <ele>2.79</ele>
        <time>2020-05-27T17:40:29Z</time>
      </trkpt>
      <trkpt lat="47.19596" lon="-1.57167">
        <ele>3.78</ele>
        <time>2020-05-27T17:40:31Z</time>
      </trkpt>
      <trkpt lat="47.19595" lon="-1.5719">
        <ele>4</ele>
        <time>2020-05-27T17:40:33Z</time>
      </trkpt>
      <trkpt lat="47.19594" lon="-1.57209">
        <ele>4.29</ele>
        <time>2020-05-27T17:40:35Z</time>
      </trkpt>
      <trkpt lat="47.19593" lon="-1.5723">
        <ele>4.53</ele>
        <time>2020-05-27T17:40:37Z</time>
      </trkpt>
      <trkpt lat="47.19591" lon="-1.5725">
        <ele>4.69</ele>
        <time>2020-05-27T17:40:39Z</time>
      </trkpt>
      <trkpt lat="47.19588" lon="-1.57274">
        <ele>4.62</ele>
        <time>2020-05-27T17:40:41Z</time>
      </trkpt>
      <trkpt lat="47.19587" lon="-1.57295">
        <ele>4.34</ele>
        <time>2020-05-27T17:40:43Z</time>
      </trkpt>
      <trkpt lat="47.19585" lon="-1.57315">
        <ele>4.45</ele>
        <time>2020-05-27T17:40:45Z</time>
      </trkpt>
      <trkpt lat="47.19583" lon="-1.57331">
        <ele>4.45</ele>
        <time>2020-05-27T17:40:47Z</time>
      </trkpt>
      <trkpt lat="47.19579" lon="-1.57352">
        <ele>3.71</ele>
        <time>2020-05-27T17:40:49Z</time>
      </trkpt>
      <trkpt lat="47.19575" lon="-1.57369">
        <ele>3.49</ele>
        <time>2020-05-27T17:40:51Z</time>
      </trkpt>
      <trkpt lat="47.19572" lon="-1.5739">
        <ele>3.11</ele>
        <time>2020-05-27T17:40:53Z</time>
      </trkpt>
      <trkpt lat="47.19567" lon="-1.57409">
        <ele>2.1</ele>
        <time>2020-05-27T17:40:55Z</time>
      </trkpt>
      <trkpt lat="47.19561" lon="-1.57431">
        <ele>1.87</ele>
        <time>2020-05-27T17:40:57Z</time>
      </trkpt>
      <trkpt lat="47.19557" lon="-1.5745">
        <ele>2.51</ele>
        <time>2020-05-27T17:40:59Z</time>
      </trkpt>
      <trkpt lat="47.19553" lon="-1.57469">
        <ele>2.81</ele>
        <time>2020-05-27T17:41:01Z</time>
      </trkpt>
      <trkpt lat="47.19548" lon="-1.57492">
        <ele>3.11</ele>
        <time>2020-05-27T17:41:03Z</time>
      </trkpt>
      <trkpt lat="47.19545" lon="-1.57509">
        <ele>3.11</ele>
        <time>2020-05-27T17:41:05Z</time>
      </trkpt>
      <trkpt lat="47.19542" lon="-1.57529">
        <ele>3.05</ele>
        <time>2020-05-27T17:41:07Z</time>
      </trkpt>
      <trkpt lat="47.19539" lon="-1.57548">
        <ele>2.97</ele>
        <time>2020-05-27T17:41:09Z</time>
      </trkpt>
      <trkpt lat="47.19534" lon="-1.57569">
        <ele>3.09</ele>
        <time>2020-05-27T17:41:11Z</time>
      </trkpt>
      <trkpt lat="47.19531" lon="-1.57582">
        <ele>3.09</ele>
        <time>2020-05-27T17:41:12Z</time>
      </trkpt>
      <trkpt lat="47.19527" lon="-1.57601">
        <ele>4.01</ele>
        <time>2020-05-27T17:41:14Z</time>
      </trkpt>
      <trkpt lat="47.19524" lon="-1.57619">
        <ele>4.09</ele>
        <time>2020-05-27T17:41:16Z</time>
      </trkpt>
      <trkpt lat="47.1952" lon="-1.57639">
        <ele>3.86</ele>
        <time>2020-05-27T17:41:18Z</time>
      </trkpt>
      <trkpt lat="47.19516" lon="-1.5766">
        <ele>3.38</ele>
        <time>2020-05-27T17:41:20Z</time>
      </trkpt>
      <trkpt lat="47.19512" lon="-1.57679">
        <ele>3.54</ele>
        <time>2020-05-27T17:41:22Z</time>
      </trkpt>
      <trkpt lat="47.19509" lon="-1.57699">
        <ele>3.15</ele>
        <time>2020-05-27T17:41:24Z</time>
      </trkpt>
      <trkpt lat="47.19505" lon="-1.57718">
        <ele>3.26</ele>
        <time>2020-05-27T17:41:26Z</time>
      </trkpt>
      <trkpt lat="47.19501" lon="-1.57738">
        <ele>2.6</ele>
        <time>2020-05-27T17:41:28Z</time>
      </trkpt>
      <trkpt lat="47.19497" lon="-1.57759">
        <ele>1.57</ele>
        <time>2020-05-27T17:41:30Z</time>
      </trkpt>
      <trkpt lat="47.19493" lon="-1.5778">
        <ele>0.76</ele>
        <time>2020-05-27T17:41:32Z</time>
      </trkpt>
      <trkpt lat="47.19489" lon="-1.57799">
        <ele>1.13</ele>
        <time>2020-05-27T17:41:34Z</time>
      </trkpt>
      <trkpt lat="47.19484" lon="-1.57819">
        <ele>1.63</ele>
        <time>2020-05-27T17:41:36Z</time>
      </trkpt>
      <trkpt lat="47.1948" lon="-1.5784">
        <ele>2.1</ele>
        <time>2020-05-27T17:41:38Z</time>
      </trkpt>
      <trkpt lat="47.19477" lon="-1.57863">
        <ele>2.96</ele>
        <time>2020-05-27T17:41:40Z</time>
      </trkpt>
      <trkpt lat="47.19475" lon="-1.57882">
        <ele>3.64</ele>
        <time>2020-05-27T17:41:42Z</time>
      </trkpt>
      <trkpt lat="47.19473" lon="-1.57902">
        <ele>3.85</ele>
        <time>2020-05-27T17:41:44Z</time>
      </trkpt>
      <trkpt lat="47.19469" lon="-1.57924">
        <ele>3.62</ele>
        <time>2020-05-27T17:41:46Z</time>
      </trkpt>
      <trkpt lat="47.19467" lon="-1.57945">
        <ele>3.4</ele>
        <time>2020-05-27T17:41:48Z</time>
      </trkpt>
      <trkpt lat="47.19464" lon="-1.57964">
        <ele>2.55</ele>
        <time>2020-05-27T17:41:50Z</time>
      </trkpt>
      <trkpt lat="47.19462" lon="-1.57985">
        <ele>3.31</ele>
        <time>2020-05-27T17:41:52Z</time>
      </trkpt>
      <trkpt lat="47.19461" lon="-1.58009">
        <ele>4.49</ele>
        <time>2020-05-27T17:41:54Z</time>
      </trkpt>
      <trkpt lat="47.1946" lon="-1.58028">
        <ele>3.67</ele>
        <time>2020-05-27T17:41:56Z</time>
      </trkpt>
      <trkpt lat="47.19458" lon="-1.58045">
        <ele>2.74</ele>
        <time>2020-05-27T17:41:58Z</time>
      </trkpt>
      <trkpt lat="47.19457" lon="-1.58062">
        <ele>2.72</ele>
        <time>2020-05-27T17:42:00Z</time>
      </trkpt>
      <trkpt lat="47.19455" lon="-1.58082">
        <ele>2.59</ele>
        <time>2020-05-27T17:42:02Z</time>
      </trkpt>
      <trkpt lat="47.19451" lon="-1.58097">
        <ele>2.74</ele>
        <time>2020-05-27T17:42:04Z</time>
      </trkpt>
      <trkpt lat="47.19443" lon="-1.58108">
        <ele>2.64</ele>
        <time>2020-05-27T17:42:06Z</time>
      </trkpt>
      <trkpt lat="47.19433" lon="-1.5812">
        <ele>1.42</ele>
        <time>2020-05-27T17:42:08Z</time>
      </trkpt>
      <trkpt lat="47.19421" lon="-1.58132">
        <ele>0.51</ele>
        <time>2020-05-27T17:42:10Z</time>
      </trkpt>
      <trkpt lat="47.19411" lon="-1.58143">
        <ele>0.89</ele>
        <time>2020-05-27T17:42:12Z</time>
      </trkpt>
      <trkpt lat="47.19399" lon="-1.58159">
        <ele>0.72</ele>
        <time>2020-05-27T17:42:14Z</time>
      </trkpt>
      <trkpt lat="47.19392" lon="-1.58176">
        <ele>1.18</ele>
        <time>2020-05-27T17:42:16Z</time>
      </trkpt>
      <trkpt lat="47.19385" lon="-1.58195">
        <ele>1.85</ele>
        <time>2020-05-27T17:42:18Z</time>
      </trkpt>
      <trkpt lat="47.19377" lon="-1.58211">
        <ele>1.47</ele>
        <time>2020-05-27T17:42:20Z</time>
      </trkpt>
      <trkpt lat="47.19369" lon="-1.58229">
        <ele>1.02</ele>
        <time>2020-05-27T17:42:22Z</time>
      </trkpt>
      <trkpt lat="47.19361" lon="-1.58247">
        <ele>1.55</ele>
        <time>2020-05-27T17:42:24Z</time>
      </trkpt>
      <trkpt lat="47.19355" lon="-1.58265">
        <ele>2.03</ele>
        <time>2020-05-27T17:42:26Z</time>
      </trkpt>
      <trkpt lat="47.19345" lon="-1.58281">
        <ele>1.56</ele>
        <time>2020-05-27T17:42:28Z</time>
      </trkpt>
      <trkpt lat="47.19334" lon="-1.58295">
        <ele>1.13</ele>
        <time>2020-05-27T17:42:30Z</time>
      </trkpt>
      <trkpt lat="47.19322" lon="-1.58306">
        <ele>1.54</ele>
        <time>2020-05-27T17:42:32Z</time>
      </trkpt>
      <trkpt lat="47.1931" lon="-1.58318">
        <ele>1.95</ele>
        <time>2020-05-27T17:42:34Z</time>
      </trkpt>
      <trkpt lat="47.193" lon="-1.58328">
        <ele>2.17</ele>
        <time>2020-05-27T17:42:36Z</time>
      </trkpt>
      <trkpt lat="47.19287" lon="-1.5834">
        <ele>2.67</ele>
        <time>2020-05-27T17:42:38Z</time>
      </trkpt>
      <trkpt lat="47.19278" lon="-1.58349">
        <ele>2.82</ele>
        <time>2020-05-27T17:42:40Z</time>
      </trkpt>
      <trkpt lat="47.19268" lon="-1.58358">
        <ele>2.77</ele>
        <time>2020-05-27T17:42:42Z</time>
      </trkpt>
      <trkpt lat="47.19257" lon="-1.58368">
        <ele>3.08</ele>
        <time>2020-05-27T17:42:44Z</time>
      </trkpt>
      <trkpt lat="47.19244" lon="-1.58378">
        <ele>2.87</ele>
        <time>2020-05-27T17:42:46Z</time>
      </trkpt>
      <trkpt lat="47.19233" lon="-1.58387">
        <ele>2.8</ele>
        <time>2020-05-27T17:42:48Z</time>
      </trkpt>
      <trkpt lat="47.1922" lon="-1.58398">
        <ele>2.37</ele>
        <time>2020-05-27T17:42:50Z</time>
      </trkpt>
      <trkpt lat="47.19208" lon="-1.5841">
        <ele>0.74</ele>
        <time>2020-05-27T17:42:52Z</time>
      </trkpt>
      <trkpt lat="47.19197" lon="-1.58421">
        <ele>0.48</ele>
        <time>2020-05-27T17:42:54Z</time>
      </trkpt>
      <trkpt lat="47.19184" lon="-1.58433">
        <ele>1.21</ele>
        <time>2020-05-27T17:42:56Z</time>
      </trkpt>
      <trkpt lat="47.19174" lon="-1.58443">
        <ele>2.73</ele>
        <time>2020-05-27T17:42:58Z</time>
      </trkpt>
      <trkpt lat="47.19165" lon="-1.58451">
        <ele>4.08</ele>
        <time>2020-05-27T17:43:00Z</time>
      </trkpt>
      <trkpt lat="47.19155" lon="-1.5846">
        <ele>4.21</ele>
        <time>2020-05-27T17:43:02Z</time>
      </trkpt>
      <trkpt lat="47.19148" lon="-1.58468">
        <ele>3.25</ele>
        <time>2020-05-27T17:43:04Z</time>
      </trkpt>
      <trkpt lat="47.19139" lon="-1.58479">
        <ele>2.47</ele>
        <time>2020-05-27T17:43:06Z</time>
      </trkpt>
      <trkpt lat="47.1913" lon="-1.5849">
        <ele>2.45</ele>
        <time>2020-05-27T17:43:08Z</time>
      </trkpt>
      <trkpt lat="47.1912" lon="-1.58501">
        <ele>1.23</ele>
        <time>2020-05-27T17:43:10Z</time>
      </trkpt>
      <trkpt lat="47.19109" lon="-1.58512">
        <ele>0.17</ele>
        <time>2020-05-27T17:43:12Z</time>
      </trkpt>
      <trkpt lat="47.19097" lon="-1.58522">
        <ele>-0.13</ele>
        <time>2020-05-27T17:43:14Z</time>
      </trkpt>
      <trkpt lat="47.19084" lon="-1.58534">
        <ele>0.23</ele>
        <time>2020-05-27T17:43:16Z</time>
      </trkpt>
      <trkpt lat="47.19071" lon="-1.58545">
        <ele>0.79</ele>
        <time>2020-05-27T17:43:18Z</time>
      </trkpt>
      <trkpt lat="47.19059" lon="-1.58556">
        <ele>1.88</ele>
        <time>2020-05-27T17:43:20Z</time>
      </trkpt>
      <trkpt lat="47.19049" lon="-1.58567">
        <ele>3.59</ele>
        <time>2020-05-27T17:43:22Z</time>
      </trkpt>
      <trkpt lat="47.19039" lon="-1.58577">
        <ele>4.93</ele>
        <time>2020-05-27T17:43:24Z</time>
      </trkpt>
      <trkpt lat="47.19027" lon="-1.58588">
        <ele>5.41</ele>
        <time>2020-05-27T17:43:26Z</time>
      </trkpt>
      <trkpt lat="47.19015" lon="-1.58601">
        <ele>4.3</ele>
        <time>2020-05-27T17:43:28Z</time>
      </trkpt>
      <trkpt lat="47.19004" lon="-1.58612">
        <ele>3.91</ele>
        <time>2020-05-27T17:43:30Z</time>
      </trkpt>
      <trkpt lat="47.18991" lon="-1.58625">
        <ele>4.83</ele>
        <time>2020-05-27T17:43:32Z</time>
      </trkpt>
      <trkpt lat="47.18981" lon="-1.58634">
        <ele>5.17</ele>
        <time>2020-05-27T17:43:34Z</time>
      </trkpt>
      <trkpt lat="47.18971" lon="-1.58645">
        <ele>5.67</ele>
        <time>2020-05-27T17:43:36Z</time>
      </trkpt>
      <trkpt lat="47.1896" lon="-1.58656">
        <ele>5.86</ele>
        <time>2020-05-27T17:43:38Z</time>
      </trkpt>
      <trkpt lat="47.18947" lon="-1.58668">
        <ele>5.16</ele>
        <time>2020-05-27T17:43:40Z</time>
      </trkpt>
      <trkpt lat="47.18935" lon="-1.58679">
        <ele>4.19</ele>
        <time>2020-05-27T17:43:42Z</time>
      </trkpt>
      <trkpt lat="47.18924" lon="-1.58689">
        <ele>4.16</ele>
        <time>2020-05-27T17:43:44Z</time>
      </trkpt>
      <trkpt lat="47.18911" lon="-1.587">
        <ele>4.62</ele>
        <time>2020-05-27T17:43:46Z</time>
      </trkpt>
      <trkpt lat="47.18899" lon="-1.58709">
        <ele>3.91</ele>
        <time>2020-05-27T17:43:48Z</time>
      </trkpt>
      <trkpt lat="47.18885" lon="-1.5872">
        <ele>3.89</ele>
        <time>2020-05-27T17:43:50Z</time>
      </trkpt>
      <trkpt lat="47.18872" lon="-1.58727">
        <ele>4.08</ele>
        <time>2020-05-27T17:43:52Z</time>
      </trkpt>
      <trkpt lat="47.18859" lon="-1.58735">
        <ele>4.76</ele>
        <time>2020-05-27T17:43:54Z</time>
      </trkpt>
      <trkpt lat="47.18847" lon="-1.58742">
        <ele>5.74</ele>
        <time>2020-05-27T17:43:56Z</time>
      </trkpt>
      <trkpt lat="47.18836" lon="-1.5875">
        <ele>5.32</ele>
        <time>2020-05-27T17:43:58Z</time>
      </trkpt>
      <trkpt lat="47.18831" lon="-1.58766">
        <ele>5.41</ele>
        <time>2020-05-27T17:44:00Z</time>
      </trkpt>
      <trkpt lat="47.18827" lon="-1.58783">
        <ele>5.64</ele>
        <time>2020-05-27T17:44:02Z</time>
      </trkpt>
      <trkpt lat="47.18818" lon="-1.58798">
        <ele>5.63</ele>
        <time>2020-05-27T17:44:04Z</time>
      </trkpt>
      <trkpt lat="47.18808" lon="-1.5881">
        <ele>4.42</ele>
        <time>2020-05-27T17:44:06Z</time>
      </trkpt>
      <trkpt lat="47.18797" lon="-1.58818">
        <ele>3.38</ele>
        <time>2020-05-27T17:44:08Z</time>
      </trkpt>
      <trkpt lat="47.1879" lon="-1.5883">
        <ele>3.09</ele>
        <time>2020-05-27T17:44:10Z</time>
      </trkpt>
      <trkpt lat="47.18785" lon="-1.58846">
        <ele>4.1</ele>
        <time>2020-05-27T17:44:12Z</time>
      </trkpt>
      <trkpt lat="47.18779" lon="-1.58867">
        <ele>4.58</ele>
        <time>2020-05-27T17:44:14Z</time>
      </trkpt>
      <trkpt lat="47.18776" lon="-1.58885">
        <ele>4.98</ele>
        <time>2020-05-27T17:44:16Z</time>
      </trkpt>
      <trkpt lat="47.18773" lon="-1.58909">
        <ele>4.86</ele>
        <time>2020-05-27T17:44:18Z</time>
      </trkpt>
      <trkpt lat="47.18771" lon="-1.5893">
        <ele>4.58</ele>
        <time>2020-05-27T17:44:20Z</time>
      </trkpt>
      <trkpt lat="47.18769" lon="-1.58953">
        <ele>4.97</ele>
        <time>2020-05-27T17:44:22Z</time>
      </trkpt>
      <trkpt lat="47.18767" lon="-1.58975">
        <ele>5.25</ele>
        <time>2020-05-27T17:44:24Z</time>
      </trkpt>
      <trkpt lat="47.18765" lon="-1.58995">
        <ele>7.04</ele>
        <time>2020-05-27T17:44:26Z</time>
      </trkpt>
      <trkpt lat="47.18763" lon="-1.59015">
        <ele>7.42</ele>
        <time>2020-05-27T17:44:28Z</time>
      </trkpt>
      <trkpt lat="47.18762" lon="-1.59034">
        <ele>7.11</ele>
        <time>2020-05-27T17:44:30Z</time>
      </trkpt>
      <trkpt lat="47.1876" lon="-1.59057">
        <ele>7.21</ele>
        <time>2020-05-27T17:44:32Z</time>
      </trkpt>
      <trkpt lat="47.18757" lon="-1.59079">
        <ele>7.51</ele>
        <time>2020-05-27T17:44:34Z</time>
      </trkpt>
      <trkpt lat="47.18755" lon="-1.59102">
        <ele>7.76</ele>
        <time>2020-05-27T17:44:36Z</time>
      </trkpt>
      <trkpt lat="47.18752" lon="-1.59124">
        <ele>7.89</ele>
        <time>2020-05-27T17:44:38Z</time>
      </trkpt>
      <trkpt lat="47.18749" lon="-1.59145">
        <ele>7.74</ele>
        <time>2020-05-27T17:44:40Z</time>
      </trkpt>
      <trkpt lat="47.18748" lon="-1.59165">
        <ele>6.45</ele>
        <time>2020-05-27T17:44:42Z</time>
      </trkpt>
      <trkpt lat="47.18745" lon="-1.59186">
        <ele>6.21</ele>
        <time>2020-05-27T17:44:44Z</time>
      </trkpt>
      <trkpt lat="47.18743" lon="-1.5921">
        <ele>6.57</ele>
        <time>2020-05-27T17:44:46Z</time>
      </trkpt>
      <trkpt lat="47.18741" lon="-1.59227">
        <ele>6.71</ele>
        <time>2020-05-27T17:44:48Z</time>
      </trkpt>
      <trkpt lat="47.18738" lon="-1.5925">
        <ele>6.33</ele>
        <time>2020-05-27T17:44:50Z</time>
      </trkpt>
      <trkpt lat="47.18735" lon="-1.59273">
        <ele>6.67</ele>
        <time>2020-05-27T17:44:52Z</time>
      </trkpt>
      <trkpt lat="47.18733" lon="-1.59297">
        <ele>6.87</ele>
        <time>2020-05-27T17:44:54Z</time>
      </trkpt>
      <trkpt lat="47.1873" lon="-1.59321">
        <ele>6.74</ele>
        <time>2020-05-27T17:44:56Z</time>
      </trkpt>
      <trkpt lat="47.18727" lon="-1.59335">
        <ele>6.31</ele>
        <time>2020-05-27T17:44:57Z</time>
      </trkpt>
      <trkpt lat="47.18724" lon="-1.59358">
        <ele>5.75</ele>
        <time>2020-05-27T17:44:59Z</time>
      </trkpt>
      <trkpt lat="47.18722" lon="-1.59382">
        <ele>6.16</ele>
        <time>2020-05-27T17:45:01Z</time>
      </trkpt>
      <trkpt lat="47.18719" lon="-1.59404">
        <ele>6.41</ele>
        <time>2020-05-27T17:45:03Z</time>
      </trkpt>
      <trkpt lat="47.18718" lon="-1.59423">
        <ele>6.35</ele>
        <time>2020-05-27T17:45:05Z</time>
      </trkpt>
      <trkpt lat="47.18715" lon="-1.59449">
        <ele>6.07</ele>
        <time>2020-05-27T17:45:07Z</time>
      </trkpt>
      <trkpt lat="47.18712" lon="-1.59471">
        <ele>5.14</ele>
        <time>2020-05-27T17:45:09Z</time>
      </trkpt>
      <trkpt lat="47.18709" lon="-1.59495">
        <ele>4.9</ele>
        <time>2020-05-27T17:45:11Z</time>
      </trkpt>
      <trkpt lat="47.18707" lon="-1.59517">
        <ele>5.24</ele>
        <time>2020-05-27T17:45:13Z</time>
      </trkpt>
      <trkpt lat="47.18704" lon="-1.5954">
        <ele>5.69</ele>
        <time>2020-05-27T17:45:15Z</time>
      </trkpt>
      <trkpt lat="47.18703" lon="-1.59559">
        <ele>5.21</ele>
        <time>2020-05-27T17:45:17Z</time>
      </trkpt>
      <trkpt lat="47.187" lon="-1.59582">
        <ele>5.18</ele>
        <time>2020-05-27T17:45:19Z</time>
      </trkpt>
      <trkpt lat="47.18698" lon="-1.59604">
        <ele>4.8</ele>
        <time>2020-05-27T17:45:21Z</time>
      </trkpt>
      <trkpt lat="47.18695" lon="-1.59629">
        <ele>4.87</ele>
        <time>2020-05-27T17:45:23Z</time>
      </trkpt>
      <trkpt lat="47.18693" lon="-1.59648">
        <ele>5.55</ele>
        <time>2020-05-27T17:45:25Z</time>
      </trkpt>
      <trkpt lat="47.1869" lon="-1.59669">
        <ele>6.59</ele>
        <time>2020-05-27T17:45:27Z</time>
      </trkpt>
      <trkpt lat="47.18687" lon="-1.59692">
        <ele>6.95</ele>
        <time>2020-05-27T17:45:29Z</time>
      </trkpt>
      <trkpt lat="47.18684" lon="-1.59714">
        <ele>6.81</ele>
        <time>2020-05-27T17:45:31Z</time>
      </trkpt>
      <trkpt lat="47.18682" lon="-1.59733">
        <ele>6.15</ele>
        <time>2020-05-27T17:45:33Z</time>
      </trkpt>
      <trkpt lat="47.18681" lon="-1.59757">
        <ele>5.98</ele>
        <time>2020-05-27T17:45:35Z</time>
      </trkpt>
      <trkpt lat="47.18681" lon="-1.59781">
        <ele>4.81</ele>
        <time>2020-05-27T17:45:37Z</time>
      </trkpt>
      <trkpt lat="47.18683" lon="-1.598">
        <ele>5.09</ele>
        <time>2020-05-27T17:45:39Z</time>
      </trkpt>
      <trkpt lat="47.18681" lon="-1.59822">
        <ele>5.62</ele>
        <time>2020-05-27T17:45:41Z</time>
      </trkpt>
      <trkpt lat="47.18673" lon="-1.59838">
        <ele>5.26</ele>
        <time>2020-05-27T17:45:43Z</time>
      </trkpt>
      <trkpt lat="47.18662" lon="-1.59848">
        <ele>4.95</ele>
        <time>2020-05-27T17:45:45Z</time>
      </trkpt>
      <trkpt lat="47.18647" lon="-1.59849">
        <ele>5.15</ele>
        <time>2020-05-27T17:45:47Z</time>
      </trkpt>
      <trkpt lat="47.18634" lon="-1.59842">
        <ele>4.62</ele>
        <time>2020-05-27T17:45:49Z</time>
      </trkpt>
      <trkpt lat="47.18624" lon="-1.59838">
        <ele>4.62</ele>
        <time>2020-05-27T17:45:51Z</time>
      </trkpt>
      <trkpt lat="47.18615" lon="-1.59842">
        <ele>4.01</ele>
        <time>2020-05-27T17:45:53Z</time>
      </trkpt>
      <trkpt lat="47.18616" lon="-1.59855">
        <ele>3.66</ele>
        <time>2020-05-27T17:45:55Z</time>
      </trkpt>
      <trkpt lat="47.1862" lon="-1.59874">
        <ele>3.57</ele>
        <time>2020-05-27T17:45:57Z</time>
      </trkpt>
      <trkpt lat="47.18619" lon="-1.59893">
        <ele>2.9</ele>
        <time>2020-05-27T17:45:59Z</time>
      </trkpt>
      <trkpt lat="47.18615" lon="-1.59912">
        <ele>2.37</ele>
        <time>2020-05-27T17:46:01Z</time>
      </trkpt>
      <trkpt lat="47.1861" lon="-1.59933">
        <ele>1.85</ele>
        <time>2020-05-27T17:46:03Z</time>
      </trkpt>
      <trkpt lat="47.18604" lon="-1.59952">
        <ele>1.59</ele>
        <time>2020-05-27T17:46:05Z</time>
      </trkpt>
      <trkpt lat="47.18599" lon="-1.59972">
        <ele>1.76</ele>
        <time>2020-05-27T17:46:07Z</time>
      </trkpt>
      <trkpt lat="47.18593" lon="-1.59991">
        <ele>1.65</ele>
        <time>2020-05-27T17:46:09Z</time>
      </trkpt>
      <trkpt lat="47.18586" lon="-1.60011">
        <ele>1.43</ele>
        <time>2020-05-27T17:46:11Z</time>
      </trkpt>
      <trkpt lat="47.1858" lon="-1.6003">
        <ele>1.11</ele>
        <time>2020-05-27T17:46:13Z</time>
      </trkpt>
      <trkpt lat="47.18573" lon="-1.60049">
        <ele>1.1</ele>
        <time>2020-05-27T17:46:15Z</time>
      </trkpt>
      <trkpt lat="47.18565" lon="-1.60068">
        <ele>0.56</ele>
        <time>2020-05-27T17:46:17Z</time>
      </trkpt>
      <trkpt lat="47.18557" lon="-1.60087">
        <ele>0.72</ele>
        <time>2020-05-27T17:46:19Z</time>
      </trkpt>
      <trkpt lat="47.1855" lon="-1.60106">
        <ele>0.74</ele>
        <time>2020-05-27T17:46:21Z</time>
      </trkpt>
      <trkpt lat="47.18542" lon="-1.60125">
        <ele>1.09</ele>
        <time>2020-05-27T17:46:23Z</time>
      </trkpt>
      <trkpt lat="47.18534" lon="-1.60143">
        <ele>1.69</ele>
        <time>2020-05-27T17:46:25Z</time>
      </trkpt>
      <trkpt lat="47.18526" lon="-1.60159">
        <ele>2.7</ele>
        <time>2020-05-27T17:46:27Z</time>
      </trkpt>
      <trkpt lat="47.18517" lon="-1.60177">
        <ele>2.35</ele>
        <time>2020-05-27T17:46:29Z</time>
      </trkpt>
      <trkpt lat="47.18508" lon="-1.60195">
        <ele>1.54</ele>
        <time>2020-05-27T17:46:31Z</time>
      </trkpt>
      <trkpt lat="47.18498" lon="-1.60213">
        <ele>1.01</ele>
        <time>2020-05-27T17:46:33Z</time>
      </trkpt>
      <trkpt lat="47.18489" lon="-1.6023">
        <ele>0.78</ele>
        <time>2020-05-27T17:46:35Z</time>
      </trkpt>
      <trkpt lat="47.1848" lon="-1.60247">
        <ele>1.17</ele>
        <time>2020-05-27T17:46:37Z</time>
      </trkpt>
      <trkpt lat="47.18471" lon="-1.60263">
        <ele>2.03</ele>
        <time>2020-05-27T17:46:39Z</time>
      </trkpt>
      <trkpt lat="47.18462" lon="-1.6028">
        <ele>2.73</ele>
        <time>2020-05-27T17:46:41Z</time>
      </trkpt>
      <trkpt lat="47.18453" lon="-1.60295">
        <ele>3.03</ele>
        <time>2020-05-27T17:46:43Z</time>
      </trkpt>
      <trkpt lat="47.18444" lon="-1.60311">
        <ele>2.84</ele>
        <time>2020-05-27T17:46:45Z</time>
      </trkpt>
      <trkpt lat="47.18435" lon="-1.60325">
        <ele>3.38</ele>
        <time>2020-05-27T17:46:47Z</time>
      </trkpt>
      <trkpt lat="47.18425" lon="-1.60341">
        <ele>3.82</ele>
        <time>2020-05-27T17:46:49Z</time>
      </trkpt>
      <trkpt lat="47.18413" lon="-1.60357">
        <ele>3.48</ele>
        <time>2020-05-27T17:46:51Z</time>
      </trkpt>
      <trkpt lat="47.18402" lon="-1.60373">
        <ele>3.43</ele>
        <time>2020-05-27T17:46:53Z</time>
      </trkpt>
      <trkpt lat="47.18392" lon="-1.60385">
        <ele>3.68</ele>
        <time>2020-05-27T17:46:55Z</time>
      </trkpt>
      <trkpt lat="47.18381" lon="-1.60401">
        <ele>3.74</ele>
        <time>2020-05-27T17:46:57Z</time>
      </trkpt>
      <trkpt lat="47.1837" lon="-1.60415">
        <ele>3.81</ele>
        <time>2020-05-27T17:46:59Z</time>
      </trkpt>
      <trkpt lat="47.1836" lon="-1.60426">
        <ele>3</ele>
        <time>2020-05-27T17:47:01Z</time>
      </trkpt>
      <trkpt lat="47.18348" lon="-1.60439">
        <ele>2.73</ele>
        <time>2020-05-27T17:47:03Z</time>
      </trkpt>
      <trkpt lat="47.18337" lon="-1.60453">
        <ele>3.39</ele>
        <time>2020-05-27T17:47:06Z</time>
      </trkpt>
      <trkpt lat="47.18327" lon="-1.60465">
        <ele>3.72</ele>
        <time>2020-05-27T17:47:08Z</time>
      </trkpt>
      <trkpt lat="47.18317" lon="-1.60476">
        <ele>4.86</ele>
        <time>2020-05-27T17:47:10Z</time>
      </trkpt>
      <trkpt lat="47.18305" lon="-1.60491">
        <ele>5.99</ele>
        <time>2020-05-27T17:47:12Z</time>
      </trkpt>
      <trkpt lat="47.18294" lon="-1.60504">
        <ele>5.21</ele>
        <time>2020-05-27T17:47:14Z</time>
      </trkpt>
      <trkpt lat="47.18283" lon="-1.60516">
        <ele>4.65</ele>
        <time>2020-05-27T17:47:16Z</time>
      </trkpt>
      <trkpt lat="47.18271" lon="-1.60528">
        <ele>4.2</ele>
        <time>2020-05-27T17:47:18Z</time>
      </trkpt>
      <trkpt lat="47.18259" lon="-1.60539">
        <ele>3.66</ele>
        <time>2020-05-27T17:47:20Z</time>
      </trkpt>
      <trkpt lat="47.18246" lon="-1.60551">
        <ele>3.3</ele>
        <time>2020-05-27T17:47:22Z</time>
      </trkpt>
      <trkpt lat="47.18235" lon="-1.60558">
        <ele>3.17</ele>
        <time>2020-05-27T17:47:24Z</time>
      </trkpt>
      <trkpt lat="47.18224" lon="-1.60565">
        <ele>2.04</ele>
        <time>2020-05-27T17:47:26Z</time>
      </trkpt>
      <trkpt lat="47.18212" lon="-1.60571">
        <ele>1.38</ele>
        <time>2020-05-27T17:47:28Z</time>
      </trkpt>
      <trkpt lat="47.18201" lon="-1.60576">
        <ele>1.36</ele>
        <time>2020-05-27T17:47:30Z</time>
      </trkpt>
      <trkpt lat="47.18192" lon="-1.60579">
        <ele>1.69</ele>
        <time>2020-05-27T17:47:32Z</time>
      </trkpt>
      <trkpt lat="47.18185" lon="-1.60596">
        <ele>2.93</ele>
        <time>2020-05-27T17:47:36Z</time>
      </trkpt>
      <trkpt lat="47.18175" lon="-1.60604">
        <ele>4.57</ele>
        <time>2020-05-27T17:47:39Z</time>
      </trkpt>
      <trkpt lat="47.18162" lon="-1.60607">
        <ele>5.64</ele>
        <time>2020-05-27T17:47:41Z</time>
      </trkpt>
      <trkpt lat="47.18148" lon="-1.60608">
        <ele>6.19</ele>
        <time>2020-05-27T17:47:43Z</time>
      </trkpt>
      <trkpt lat="47.18133" lon="-1.60607">
        <ele>5.93</ele>
        <time>2020-05-27T17:47:45Z</time>
      </trkpt>
      <trkpt lat="47.18121" lon="-1.60603">
        <ele>4.89</ele>
        <time>2020-05-27T17:47:47Z</time>
      </trkpt>
      <trkpt lat="47.18109" lon="-1.60598">
        <ele>3.89</ele>
        <time>2020-05-27T17:47:49Z</time>
      </trkpt>
      <trkpt lat="47.18097" lon="-1.60593">
        <ele>3.5</ele>
        <time>2020-05-27T17:47:51Z</time>
      </trkpt>
      <trkpt lat="47.18084" lon="-1.60587">
        <ele>2.9</ele>
        <time>2020-05-27T17:47:53Z</time>
      </trkpt>
      <trkpt lat="47.18073" lon="-1.60582">
        <ele>2.35</ele>
        <time>2020-05-27T17:47:55Z</time>
      </trkpt>
      <trkpt lat="47.1806" lon="-1.60574">
        <ele>2.81</ele>
        <time>2020-05-27T17:47:57Z</time>
      </trkpt>
      <trkpt lat="47.18049" lon="-1.60567">
        <ele>3</ele>
        <time>2020-05-27T17:47:59Z</time>
      </trkpt>
      <trkpt lat="47.18036" lon="-1.6056">
        <ele>3.69</ele>
        <time>2020-05-27T17:48:01Z</time>
      </trkpt>
      <trkpt lat="47.18024" lon="-1.60556">
        <ele>3.79</ele>
        <time>2020-05-27T17:48:03Z</time>
      </trkpt>
      <trkpt lat="47.18014" lon="-1.60557">
        <ele>3.52</ele>
        <time>2020-05-27T17:48:05Z</time>
      </trkpt>
      <trkpt lat="47.18" lon="-1.60558">
        <ele>3.74</ele>
        <time>2020-05-27T17:48:07Z</time>
      </trkpt>
      <trkpt lat="47.17988" lon="-1.60562">
        <ele>3.16</ele>
        <time>2020-05-27T17:48:09Z</time>
      </trkpt>
      <trkpt lat="47.17976" lon="-1.60566">
        <ele>3.81</ele>
        <time>2020-05-27T17:48:11Z</time>
      </trkpt>
      <trkpt lat="47.17965" lon="-1.60571">
        <ele>3.63</ele>
        <time>2020-05-27T17:48:13Z</time>
      </trkpt>
      <trkpt lat="47.1795" lon="-1.60578">
        <ele>3.29</ele>
        <time>2020-05-27T17:48:15Z</time>
      </trkpt>
      <trkpt lat="47.17941" lon="-1.60583">
        <ele>3.29</ele>
        <time>2020-05-27T17:48:17Z</time>
      </trkpt>
      <trkpt lat="47.1793" lon="-1.6059">
        <ele>3.85</ele>
        <time>2020-05-27T17:48:20Z</time>
      </trkpt>
      <trkpt lat="47.1792" lon="-1.60592">
        <ele>4.18</ele>
        <time>2020-05-27T17:48:23Z</time>
      </trkpt>
      <trkpt lat="47.17911" lon="-1.60593">
        <ele>4.1</ele>
        <time>2020-05-27T17:48:32Z</time>
      </trkpt>
      <trkpt lat="47.17903" lon="-1.60608">
        <ele>3.31</ele>
        <time>2020-05-27T17:48:35Z</time>
      </trkpt>
      <trkpt lat="47.17898" lon="-1.60627">
        <ele>2.88</ele>
        <time>2020-05-27T17:48:37Z</time>
      </trkpt>
      <trkpt lat="47.17892" lon="-1.60645">
        <ele>2.43</ele>
        <time>2020-05-27T17:48:39Z</time>
      </trkpt>
      <trkpt lat="47.17886" lon="-1.60665">
        <ele>2.44</ele>
        <time>2020-05-27T17:48:41Z</time>
      </trkpt>
      <trkpt lat="47.1788" lon="-1.60682">
        <ele>2.68</ele>
        <time>2020-05-27T17:48:43Z</time>
      </trkpt>
      <trkpt lat="47.17875" lon="-1.60701">
        <ele>1.7</ele>
        <time>2020-05-27T17:48:45Z</time>
      </trkpt>
      <trkpt lat="47.1787" lon="-1.60721">
        <ele>1.75</ele>
        <time>2020-05-27T17:48:47Z</time>
      </trkpt>
      <trkpt lat="47.17866" lon="-1.60739">
        <ele>1.75</ele>
        <time>2020-05-27T17:48:49Z</time>
      </trkpt>
      <trkpt lat="47.17861" lon="-1.6076">
        <ele>2.05</ele>
        <time>2020-05-27T17:48:51Z</time>
      </trkpt>
      <trkpt lat="47.17857" lon="-1.60777">
        <ele>2.58</ele>
        <time>2020-05-27T17:48:53Z</time>
      </trkpt>
      <trkpt lat="47.17852" lon="-1.60796">
        <ele>2.78</ele>
        <time>2020-05-27T17:48:55Z</time>
      </trkpt>
      <trkpt lat="47.17848" lon="-1.60814">
        <ele>2.4</ele>
        <time>2020-05-27T17:48:57Z</time>
      </trkpt>
      <trkpt lat="47.17843" lon="-1.60833">
        <ele>1.4</ele>
        <time>2020-05-27T17:48:59Z</time>
      </trkpt>
      <trkpt lat="47.17838" lon="-1.60851">
        <ele>1.25</ele>
        <time>2020-05-27T17:49:01Z</time>
      </trkpt>
      <trkpt lat="47.1783" lon="-1.60866">
        <ele>-0.23</ele>
        <time>2020-05-27T17:49:03Z</time>
      </trkpt>
      <trkpt lat="47.17822" lon="-1.6088">
        <ele>-0.05</ele>
        <time>2020-05-27T17:49:05Z</time>
      </trkpt>
      <trkpt lat="47.1781" lon="-1.60896">
        <ele>0.05</ele>
        <time>2020-05-27T17:49:07Z</time>
      </trkpt>
      <trkpt lat="47.178" lon="-1.60904">
        <ele>0.73</ele>
        <time>2020-05-27T17:49:09Z</time>
      </trkpt>
      <trkpt lat="47.17788" lon="-1.60913">
        <ele>1.1</ele>
        <time>2020-05-27T17:49:11Z</time>
      </trkpt>
      <trkpt lat="47.17776" lon="-1.60921">
        <ele>1.03</ele>
        <time>2020-05-27T17:49:13Z</time>
      </trkpt>
      <trkpt lat="47.17764" lon="-1.6093">
        <ele>0.71</ele>
        <time>2020-05-27T17:49:15Z</time>
      </trkpt>
      <trkpt lat="47.17756" lon="-1.60937">
        <ele>2.22</ele>
        <time>2020-05-27T17:49:17Z</time>
      </trkpt>
      <trkpt lat="47.17744" lon="-1.60946">
        <ele>3.84</ele>
        <time>2020-05-27T17:49:19Z</time>
      </trkpt>
      <trkpt lat="47.17732" lon="-1.60955">
        <ele>3.46</ele>
        <time>2020-05-27T17:49:21Z</time>
      </trkpt>
      <trkpt lat="47.1772" lon="-1.60963">
        <ele>2.92</ele>
        <time>2020-05-27T17:49:23Z</time>
      </trkpt>
      <trkpt lat="47.17708" lon="-1.60971">
        <ele>3.31</ele>
        <time>2020-05-27T17:49:25Z</time>
      </trkpt>
      <trkpt lat="47.17696" lon="-1.60977">
        <ele>3.7</ele>
        <time>2020-05-27T17:49:27Z</time>
      </trkpt>
      <trkpt lat="47.17681" lon="-1.60978">
        <ele>3.2</ele>
        <time>2020-05-27T17:49:29Z</time>
      </trkpt>
      <trkpt lat="47.17666" lon="-1.60974">
        <ele>2.55</ele>
        <time>2020-05-27T17:49:31Z</time>
      </trkpt>
      <trkpt lat="47.1765" lon="-1.60981">
        <ele>3</ele>
        <time>2020-05-27T17:49:33Z</time>
      </trkpt>
      <trkpt lat="47.17639" lon="-1.60988">
        <ele>2.46</ele>
        <time>2020-05-27T17:49:35Z</time>
      </trkpt>
      <trkpt lat="47.17627" lon="-1.60997">
        <ele>2.34</ele>
        <time>2020-05-27T17:49:37Z</time>
      </trkpt>
      <trkpt lat="47.17616" lon="-1.61006">
        <ele>2.95</ele>
        <time>2020-05-27T17:49:39Z</time>
      </trkpt>
      <trkpt lat="47.17603" lon="-1.61019">
        <ele>2.7</ele>
        <time>2020-05-27T17:49:41Z</time>
      </trkpt>
      <trkpt lat="47.17592" lon="-1.61028">
        <ele>2.32</ele>
        <time>2020-05-27T17:49:43Z</time>
      </trkpt>
      <trkpt lat="47.17581" lon="-1.61038">
        <ele>1.74</ele>
        <time>2020-05-27T17:49:45Z</time>
      </trkpt>
      <trkpt lat="47.1757" lon="-1.61047">
        <ele>1.13</ele>
        <time>2020-05-27T17:49:47Z</time>
      </trkpt>
      <trkpt lat="47.1756" lon="-1.61059">
        <ele>0.83</ele>
        <time>2020-05-27T17:49:49Z</time>
      </trkpt>
      <trkpt lat="47.17549" lon="-1.61068">
        <ele>0.15</ele>
        <time>2020-05-27T17:49:51Z</time>
      </trkpt>
      <trkpt lat="47.17538" lon="-1.61079">
        <ele>0.41</ele>
        <time>2020-05-27T17:49:53Z</time>
      </trkpt>
      <trkpt lat="47.17527" lon="-1.6109">
        <ele>0.71</ele>
        <time>2020-05-27T17:49:55Z</time>
      </trkpt>
      <trkpt lat="47.17516" lon="-1.611">
        <ele>0.81</ele>
        <time>2020-05-27T17:49:57Z</time>
      </trkpt>
      <trkpt lat="47.17505" lon="-1.61108">
        <ele>1.1</ele>
        <time>2020-05-27T17:49:59Z</time>
      </trkpt>
      <trkpt lat="47.17493" lon="-1.6111">
        <ele>1.78</ele>
        <time>2020-05-27T17:50:01Z</time>
      </trkpt>
      <trkpt lat="47.1748" lon="-1.61109">
        <ele>2.04</ele>
        <time>2020-05-27T17:50:03Z</time>
      </trkpt>
      <trkpt lat="47.17468" lon="-1.61104">
        <ele>2.01</ele>
        <time>2020-05-27T17:50:05Z</time>
      </trkpt>
      <trkpt lat="47.17458" lon="-1.61094">
        <ele>1.82</ele>
        <time>2020-05-27T17:50:07Z</time>
      </trkpt>
      <trkpt lat="47.17448" lon="-1.61083">
        <ele>2.1</ele>
        <time>2020-05-27T17:50:09Z</time>
      </trkpt>
      <trkpt lat="47.17441" lon="-1.61068">
        <ele>2.36</ele>
        <time>2020-05-27T17:50:11Z</time>
      </trkpt>
      <trkpt lat="47.17435" lon="-1.61052">
        <ele>2.82</ele>
        <time>2020-05-27T17:50:13Z</time>
      </trkpt>
      <trkpt lat="47.1743" lon="-1.61037">
        <ele>3.16</ele>
        <time>2020-05-27T17:50:15Z</time>
      </trkpt>
      <trkpt lat="47.17424" lon="-1.61023">
        <ele>2.87</ele>
        <time>2020-05-27T17:50:18Z</time>
      </trkpt>
      <trkpt lat="47.1742" lon="-1.61039">
        <ele>3.4</ele>
        <time>2020-05-27T17:50:22Z</time>
      </trkpt>
      <trkpt lat="47.17423" lon="-1.61058">
        <ele>4.11</ele>
        <time>2020-05-27T17:50:25Z</time>
      </trkpt>
      <trkpt lat="47.17428" lon="-1.61072">
        <ele>5.65</ele>
        <time>2020-05-27T17:50:27Z</time>
      </trkpt>
      <trkpt lat="47.17435" lon="-1.61088">
        <ele>6.2</ele>
        <time>2020-05-27T17:50:29Z</time>
      </trkpt>
      <trkpt lat="47.1744" lon="-1.611">
        <ele>5.88</ele>
        <time>2020-05-27T17:50:31Z</time>
      </trkpt>
      <trkpt lat="47.17448" lon="-1.61114">
        <ele>5.88</ele>
        <time>2020-05-27T17:50:33Z</time>
      </trkpt>
      <trkpt lat="47.17454" lon="-1.61129">
        <ele>5.45</ele>
        <time>2020-05-27T17:50:35Z</time>
      </trkpt>
      <trkpt lat="47.1746" lon="-1.61142">
        <ele>4.87</ele>
        <time>2020-05-27T17:50:37Z</time>
      </trkpt>
      <trkpt lat="47.17467" lon="-1.61157">
        <ele>5.86</ele>
        <time>2020-05-27T17:50:39Z</time>
      </trkpt>
      <trkpt lat="47.17472" lon="-1.6117">
        <ele>7.51</ele>
        <time>2020-05-27T17:50:41Z</time>
      </trkpt>
      <trkpt lat="47.17477" lon="-1.61182">
        <ele>9.71</ele>
        <time>2020-05-27T17:50:43Z</time>
      </trkpt>
      <trkpt lat="47.17482" lon="-1.61195">
        <ele>10.6</ele>
        <time>2020-05-27T17:50:45Z</time>
      </trkpt>
      <trkpt lat="47.17487" lon="-1.61207">
        <ele>10.86</ele>
        <time>2020-05-27T17:50:47Z</time>
      </trkpt>
      <trkpt lat="47.17493" lon="-1.61222">
        <ele>11.19</ele>
        <time>2020-05-27T17:50:49Z</time>
      </trkpt>
      <trkpt lat="47.17498" lon="-1.61235">
        <ele>11.36</ele>
        <time>2020-05-27T17:50:51Z</time>
      </trkpt>
      <trkpt lat="47.17504" lon="-1.61248">
        <ele>12.63</ele>
        <time>2020-05-27T17:50:53Z</time>
      </trkpt>
      <trkpt lat="47.17512" lon="-1.61262">
        <ele>12.75</ele>
        <time>2020-05-27T17:50:55Z</time>
      </trkpt>
      <trkpt lat="47.17521" lon="-1.61278">
        <ele>12.07</ele>
        <time>2020-05-27T17:50:58Z</time>
      </trkpt>
      <trkpt lat="47.17529" lon="-1.61288">
        <ele>11.92</ele>
        <time>2020-05-27T17:51:00Z</time>
      </trkpt>
      <trkpt lat="47.1754" lon="-1.61297">
        <ele>10.41</ele>
        <time>2020-05-27T17:51:02Z</time>
      </trkpt>
      <trkpt lat="47.1755" lon="-1.61303">
        <ele>9.66</ele>
        <time>2020-05-27T17:51:04Z</time>
      </trkpt>
      <trkpt lat="47.17559" lon="-1.61312">
        <ele>9.35</ele>
        <time>2020-05-27T17:51:06Z</time>
      </trkpt>
      <trkpt lat="47.17561" lon="-1.61326">
        <ele>9.88</ele>
        <time>2020-05-27T17:51:08Z</time>
      </trkpt>
      <trkpt lat="47.17557" lon="-1.61344">
        <ele>10.29</ele>
        <time>2020-05-27T17:51:10Z</time>
      </trkpt>
      <trkpt lat="47.17549" lon="-1.61355">
        <ele>9.67</ele>
        <time>2020-05-27T17:51:12Z</time>
      </trkpt>
      <trkpt lat="47.17539" lon="-1.61364">
        <ele>8.97</ele>
        <time>2020-05-27T17:51:14Z</time>
      </trkpt>
      <trkpt lat="47.17532" lon="-1.61378">
        <ele>8.6</ele>
        <time>2020-05-27T17:51:16Z</time>
      </trkpt>
      <trkpt lat="47.17526" lon="-1.61394">
        <ele>8.04</ele>
        <time>2020-05-27T17:51:18Z</time>
      </trkpt>
      <trkpt lat="47.17522" lon="-1.61408">
        <ele>7.49</ele>
        <time>2020-05-27T17:51:20Z</time>
      </trkpt>
      <trkpt lat="47.17518" lon="-1.61425">
        <ele>7.27</ele>
        <time>2020-05-27T17:51:22Z</time>
      </trkpt>
      <trkpt lat="47.17514" lon="-1.61442">
        <ele>8.45</ele>
        <time>2020-05-27T17:51:24Z</time>
      </trkpt>
      <trkpt lat="47.17511" lon="-1.61459">
        <ele>8.98</ele>
        <time>2020-05-27T17:51:26Z</time>
      </trkpt>
      <trkpt lat="47.17504" lon="-1.61468">
        <ele>9.28</ele>
        <time>2020-05-27T17:51:28Z</time>
      </trkpt>
      <trkpt lat="47.17493" lon="-1.61472">
        <ele>9.4</ele>
        <time>2020-05-27T17:51:30Z</time>
      </trkpt>
      <trkpt lat="47.17481" lon="-1.61477">
        <ele>9.4</ele>
        <time>2020-05-27T17:51:32Z</time>
      </trkpt>
      <trkpt lat="47.17471" lon="-1.61481">
        <ele>9.99</ele>
        <time>2020-05-27T17:51:34Z</time>
      </trkpt>
      <trkpt lat="47.17459" lon="-1.61485">
        <ele>11.11</ele>
        <time>2020-05-27T17:51:36Z</time>
      </trkpt>
      <trkpt lat="47.17448" lon="-1.6149">
        <ele>12.05</ele>
        <time>2020-05-27T17:51:38Z</time>
      </trkpt>
      <trkpt lat="47.1744" lon="-1.61496">
        <ele>11.68</ele>
        <time>2020-05-27T17:51:40Z</time>
      </trkpt>
      <trkpt lat="47.17428" lon="-1.61502">
        <ele>12.11</ele>
        <time>2020-05-27T17:51:42Z</time>
      </trkpt>
      <trkpt lat="47.17418" lon="-1.61508">
        <ele>12.53</ele>
        <time>2020-05-27T17:51:44Z</time>
      </trkpt>
      <trkpt lat="47.17408" lon="-1.61515">
        <ele>12.77</ele>
        <time>2020-05-27T17:51:46Z</time>
      </trkpt>
      <trkpt lat="47.17398" lon="-1.61523">
        <ele>13.07</ele>
        <time>2020-05-27T17:51:48Z</time>
      </trkpt>
      <trkpt lat="47.1739" lon="-1.6153">
        <ele>13.33</ele>
        <time>2020-05-27T17:51:50Z</time>
      </trkpt>
      <trkpt lat="47.1738" lon="-1.61539">
        <ele>13.38</ele>
        <time>2020-05-27T17:51:52Z</time>
      </trkpt>
      <trkpt lat="47.17371" lon="-1.61548">
        <ele>12.56</ele>
        <time>2020-05-27T17:51:54Z</time>
      </trkpt>
      <trkpt lat="47.17363" lon="-1.61557">
        <ele>12.28</ele>
        <time>2020-05-27T17:51:56Z</time>
      </trkpt>
      <trkpt lat="47.17354" lon="-1.61566">
        <ele>11.83</ele>
        <time>2020-05-27T17:51:58Z</time>
      </trkpt>
      <trkpt lat="47.17345" lon="-1.61576">
        <ele>11.77</ele>
        <time>2020-05-27T17:52:00Z</time>
      </trkpt>
      <trkpt lat="47.17335" lon="-1.61587">
        <ele>12.25</ele>
        <time>2020-05-27T17:52:02Z</time>
      </trkpt>
      <trkpt lat="47.17326" lon="-1.61598">
        <ele>12.17</ele>
        <time>2020-05-27T17:52:04Z</time>
      </trkpt>
      <trkpt lat="47.17316" lon="-1.61613">
        <ele>11.37</ele>
        <time>2020-05-27T17:52:07Z</time>
      </trkpt>
      <trkpt lat="47.17306" lon="-1.61627">
        <ele>11.45</ele>
        <time>2020-05-27T17:52:09Z</time>
      </trkpt>
      <trkpt lat="47.17298" lon="-1.61641">
        <ele>10.91</ele>
        <time>2020-05-27T17:52:11Z</time>
      </trkpt>
      <trkpt lat="47.17291" lon="-1.61655">
        <ele>10.82</ele>
        <time>2020-05-27T17:52:13Z</time>
      </trkpt>
      <trkpt lat="47.17285" lon="-1.61668">
        <ele>10.46</ele>
        <time>2020-05-27T17:52:15Z</time>
      </trkpt>
      <trkpt lat="47.17277" lon="-1.61684">
        <ele>10.72</ele>
        <time>2020-05-27T17:52:17Z</time>
      </trkpt>
      <trkpt lat="47.1727" lon="-1.61698">
        <ele>11.56</ele>
        <time>2020-05-27T17:52:19Z</time>
      </trkpt>
      <trkpt lat="47.17263" lon="-1.61712">
        <ele>12.14</ele>
        <time>2020-05-27T17:52:21Z</time>
      </trkpt>
      <trkpt lat="47.17255" lon="-1.61726">
        <ele>12.51</ele>
        <time>2020-05-27T17:52:23Z</time>
      </trkpt>
      <trkpt lat="47.17248" lon="-1.61742">
        <ele>13.02</ele>
        <time>2020-05-27T17:52:25Z</time>
      </trkpt>
      <trkpt lat="47.17245" lon="-1.6176">
        <ele>15.15</ele>
        <time>2020-05-27T17:52:27Z</time>
      </trkpt>
      <trkpt lat="47.17241" lon="-1.61779">
        <ele>16.02</ele>
        <time>2020-05-27T17:52:29Z</time>
      </trkpt>
      <trkpt lat="47.17233" lon="-1.61789">
        <ele>16.07</ele>
        <time>2020-05-27T17:52:31Z</time>
      </trkpt>
      <trkpt lat="47.17222" lon="-1.61799">
        <ele>16.75</ele>
        <time>2020-05-27T17:52:33Z</time>
      </trkpt>
      <trkpt lat="47.1721" lon="-1.61809">
        <ele>17.23</ele>
        <time>2020-05-27T17:52:35Z</time>
      </trkpt>
      <trkpt lat="47.17198" lon="-1.61819">
        <ele>17.64</ele>
        <time>2020-05-27T17:52:37Z</time>
      </trkpt>
      <trkpt lat="47.17186" lon="-1.6183">
        <ele>17.5</ele>
        <time>2020-05-27T17:52:39Z</time>
      </trkpt>
      <trkpt lat="47.17175" lon="-1.6184">
        <ele>16.85</ele>
        <time>2020-05-27T17:52:41Z</time>
      </trkpt>
      <trkpt lat="47.17164" lon="-1.6185">
        <ele>15.54</ele>
        <time>2020-05-27T17:52:43Z</time>
      </trkpt>
      <trkpt lat="47.17154" lon="-1.61859">
        <ele>14.38</ele>
        <time>2020-05-27T17:52:45Z</time>
      </trkpt>
      <trkpt lat="47.17142" lon="-1.6187">
        <ele>13.2</ele>
        <time>2020-05-27T17:52:47Z</time>
      </trkpt>
      <trkpt lat="47.17131" lon="-1.61881">
        <ele>12.88</ele>
        <time>2020-05-27T17:52:49Z</time>
      </trkpt>
      <trkpt lat="47.17121" lon="-1.6189">
        <ele>13.22</ele>
        <time>2020-05-27T17:52:51Z</time>
      </trkpt>
      <trkpt lat="47.1711" lon="-1.61901">
        <ele>13.99</ele>
        <time>2020-05-27T17:52:53Z</time>
      </trkpt>
      <trkpt lat="47.17099" lon="-1.61912">
        <ele>15.02</ele>
        <time>2020-05-27T17:52:55Z</time>
      </trkpt>
      <trkpt lat="47.17087" lon="-1.61923">
        <ele>15.48</ele>
        <time>2020-05-27T17:52:57Z</time>
      </trkpt>
      <trkpt lat="47.17077" lon="-1.61932">
        <ele>16.69</ele>
        <time>2020-05-27T17:52:59Z</time>
      </trkpt>
      <trkpt lat="47.17067" lon="-1.61943">
        <ele>17.35</ele>
        <time>2020-05-27T17:53:01Z</time>
      </trkpt>
      <trkpt lat="47.17056" lon="-1.61955">
        <ele>17.32</ele>
        <time>2020-05-27T17:53:03Z</time>
      </trkpt>
      <trkpt lat="47.17046" lon="-1.61967">
        <ele>17.68</ele>
        <time>2020-05-27T17:53:05Z</time>
      </trkpt>
      <trkpt lat="47.17037" lon="-1.61981">
        <ele>17.98</ele>
        <time>2020-05-27T17:53:07Z</time>
      </trkpt>
      <trkpt lat="47.17027" lon="-1.61995">
        <ele>17.94</ele>
        <time>2020-05-27T17:53:09Z</time>
      </trkpt>
      <trkpt lat="47.17016" lon="-1.6201">
        <ele>17.15</ele>
        <time>2020-05-27T17:53:11Z</time>
      </trkpt>
      <trkpt lat="47.17007" lon="-1.62026">
        <ele>16.6</ele>
        <time>2020-05-27T17:53:13Z</time>
      </trkpt>
      <trkpt lat="47.16998" lon="-1.6204">
        <ele>16.28</ele>
        <time>2020-05-27T17:53:15Z</time>
      </trkpt>
      <trkpt lat="47.1699" lon="-1.62056">
        <ele>15.91</ele>
        <time>2020-05-27T17:53:17Z</time>
      </trkpt>
      <trkpt lat="47.16981" lon="-1.62073">
        <ele>15.8</ele>
        <time>2020-05-27T17:53:19Z</time>
      </trkpt>
      <trkpt lat="47.16972" lon="-1.62088">
        <ele>16.08</ele>
        <time>2020-05-27T17:53:21Z</time>
      </trkpt>
      <trkpt lat="47.16963" lon="-1.62104">
        <ele>16.54</ele>
        <time>2020-05-27T17:53:23Z</time>
      </trkpt>
      <trkpt lat="47.16955" lon="-1.6212">
        <ele>17.36</ele>
        <time>2020-05-27T17:53:25Z</time>
      </trkpt>
      <trkpt lat="47.16946" lon="-1.62136">
        <ele>17.13</ele>
        <time>2020-05-27T17:53:27Z</time>
      </trkpt>
      <trkpt lat="47.16939" lon="-1.62151">
        <ele>16.68</ele>
        <time>2020-05-27T17:53:29Z</time>
      </trkpt>
      <trkpt lat="47.16931" lon="-1.62167">
        <ele>17.19</ele>
        <time>2020-05-27T17:53:31Z</time>
      </trkpt>
      <trkpt lat="47.16924" lon="-1.62184">
        <ele>17.44</ele>
        <time>2020-05-27T17:53:33Z</time>
      </trkpt>
      <trkpt lat="47.16916" lon="-1.62201">
        <ele>17.64</ele>
        <time>2020-05-27T17:53:35Z</time>
      </trkpt>
      <trkpt lat="47.16909" lon="-1.62215">
        <ele>18.11</ele>
        <time>2020-05-27T17:53:37Z</time>
      </trkpt>
      <trkpt lat="47.169" lon="-1.62229">
        <ele>17.92</ele>
        <time>2020-05-27T17:53:39Z</time>
      </trkpt>
      <trkpt lat="47.16889" lon="-1.62243">
        <ele>18.12</ele>
        <time>2020-05-27T17:53:41Z</time>
      </trkpt>
      <trkpt lat="47.16878" lon="-1.62256">
        <ele>17.95</ele>
        <time>2020-05-27T17:53:43Z</time>
      </trkpt>
      <trkpt lat="47.16867" lon="-1.6227">
        <ele>17.18</ele>
        <time>2020-05-27T17:53:45Z</time>
      </trkpt>
      <trkpt lat="47.16858" lon="-1.62281">
        <ele>16.62</ele>
        <time>2020-05-27T17:53:47Z</time>
      </trkpt>
      <trkpt lat="47.16849" lon="-1.62291">
        <ele>16.54</ele>
        <time>2020-05-27T17:53:49Z</time>
      </trkpt>
      <trkpt lat="47.16837" lon="-1.62305">
        <ele>17.14</ele>
        <time>2020-05-27T17:53:51Z</time>
      </trkpt>
      <trkpt lat="47.16827" lon="-1.62316">
        <ele>18.35</ele>
        <time>2020-05-27T17:53:53Z</time>
      </trkpt>
      <trkpt lat="47.16816" lon="-1.62326">
        <ele>19.38</ele>
        <time>2020-05-27T17:53:55Z</time>
      </trkpt>
      <trkpt lat="47.16803" lon="-1.62335">
        <ele>19.61</ele>
        <time>2020-05-27T17:53:57Z</time>
      </trkpt>
      <trkpt lat="47.1679" lon="-1.62342">
        <ele>19.54</ele>
        <time>2020-05-27T17:53:59Z</time>
      </trkpt>
      <trkpt lat="47.16777" lon="-1.62348">
        <ele>19.02</ele>
        <time>2020-05-27T17:54:01Z</time>
      </trkpt>
      <trkpt lat="47.16765" lon="-1.62356">
        <ele>18.38</ele>
        <time>2020-05-27T17:54:03Z</time>
      </trkpt>
      <trkpt lat="47.16752" lon="-1.62366">
        <ele>17.63</ele>
        <time>2020-05-27T17:54:05Z</time>
      </trkpt>
      <trkpt lat="47.1674" lon="-1.6238">
        <ele>16.6</ele>
        <time>2020-05-27T17:54:07Z</time>
      </trkpt>
      <trkpt lat="47.16733" lon="-1.62396">
        <ele>15.31</ele>
        <time>2020-05-27T17:54:09Z</time>
      </trkpt>
      <trkpt lat="47.16729" lon="-1.62414">
        <ele>15.54</ele>
        <time>2020-05-27T17:54:11Z</time>
      </trkpt>
      <trkpt lat="47.16725" lon="-1.62433">
        <ele>16.88</ele>
        <time>2020-05-27T17:54:13Z</time>
      </trkpt>
      <trkpt lat="47.16722" lon="-1.6245">
        <ele>17.98</ele>
        <time>2020-05-27T17:54:15Z</time>
      </trkpt>
      <trkpt lat="47.16718" lon="-1.62468">
        <ele>17.9</ele>
        <time>2020-05-27T17:54:17Z</time>
      </trkpt>
      <trkpt lat="47.16715" lon="-1.62482">
        <ele>18.08</ele>
        <time>2020-05-27T17:54:19Z</time>
      </trkpt>
      <trkpt lat="47.16717" lon="-1.62499">
        <ele>18.1</ele>
        <time>2020-05-27T17:54:21Z</time>
      </trkpt>
      <trkpt lat="47.16731" lon="-1.62506">
        <ele>16.88</ele>
        <time>2020-05-27T17:54:24Z</time>
      </trkpt>
      <trkpt lat="47.16745" lon="-1.62512">
        <ele>15.79</ele>
        <time>2020-05-27T17:54:26Z</time>
      </trkpt>
      <trkpt lat="47.16758" lon="-1.62518">
        <ele>15.72</ele>
        <time>2020-05-27T17:54:28Z</time>
      </trkpt>
      <trkpt lat="47.16768" lon="-1.62525">
        <ele>16.46</ele>
        <time>2020-05-27T17:54:30Z</time>
      </trkpt>
      <trkpt lat="47.16778" lon="-1.6253">
        <ele>17.81</ele>
        <time>2020-05-27T17:54:32Z</time>
      </trkpt>
      <trkpt lat="47.16788" lon="-1.62536">
        <ele>18.72</ele>
        <time>2020-05-27T17:54:34Z</time>
      </trkpt>
      <trkpt lat="47.16797" lon="-1.62541">
        <ele>18.91</ele>
        <time>2020-05-27T17:54:36Z</time>
      </trkpt>
      <trkpt lat="47.16807" lon="-1.62549">
        <ele>18.69</ele>
        <time>2020-05-27T17:54:39Z</time>
      </trkpt>
      <trkpt lat="47.16801" lon="-1.62568">
        <ele>18.81</ele>
        <time>2020-05-27T17:54:55Z</time>
      </trkpt>
    </trkseg>
  </trk>
</gpx>